<?xml version="1.0" encoding="UTF-8" standalone="no" ?>
<gpx xmlns="http://www.topografix.com/GPX/1/1" xmlns:xsi="http://www.w3.org/2001/XMLSchema-instance" xsi:schemaLocation="http://www.topografix.com/GPX/1/1 http://www.topografix.com/GPX/1/1/gpx.xsd" version="1.1" creator="VisuGPX - https://www.visugpx.com">
  <metadata>
    <name>Champagnat Cyclisme sur route</name>
  </metadata>
  <trk>
    <name><![CDATA[Champagnat Cyclisme sur route_1]]></name>
    <trkseg>
      <trkpt lat="46.48252" lon="5.36488">
        <ele>243.8</ele>
        <time>2022-06-25T04:42:31Z</time>
      </trkpt>
      <trkpt lat="46.48252" lon="5.36488">
        <ele>241.2</ele>
        <time>2022-06-25T04:42:32Z</time>
      </trkpt>
      <trkpt lat="46.48282" lon="5.36495">
        <ele>241.4</ele>
        <time>2022-06-25T04:42:39Z</time>
      </trkpt>
      <trkpt lat="46.4829" lon="5.36489">
        <ele>240.8</ele>
        <time>2022-06-25T04:42:41Z</time>
      </trkpt>
      <trkpt lat="46.48308" lon="5.36471">
        <ele>241</ele>
        <time>2022-06-25T04:42:45Z</time>
      </trkpt>
      <trkpt lat="46.48341" lon="5.36434">
        <ele>240.6</ele>
        <time>2022-06-25T04:42:51Z</time>
      </trkpt>
      <trkpt lat="46.48366" lon="5.36406">
        <ele>239.8</ele>
        <time>2022-06-25T04:42:55Z</time>
      </trkpt>
      <trkpt lat="46.48393" lon="5.36379">
        <ele>239</ele>
        <time>2022-06-25T04:42:59Z</time>
      </trkpt>
      <trkpt lat="46.48407" lon="5.36366">
        <ele>238.4</ele>
        <time>2022-06-25T04:43:01Z</time>
      </trkpt>
      <trkpt lat="46.48429" lon="5.36353">
        <ele>238</ele>
        <time>2022-06-25T04:43:04Z</time>
      </trkpt>
      <trkpt lat="46.48481" lon="5.36343">
        <ele>237.8</ele>
        <time>2022-06-25T04:43:11Z</time>
      </trkpt>
      <trkpt lat="46.4854" lon="5.36333">
        <ele>237.4</ele>
        <time>2022-06-25T04:43:19Z</time>
      </trkpt>
      <trkpt lat="46.48548" lon="5.36332">
        <ele>237.4</ele>
        <time>2022-06-25T04:43:20Z</time>
      </trkpt>
      <trkpt lat="46.48555" lon="5.36331">
        <ele>237.4</ele>
        <time>2022-06-25T04:43:21Z</time>
      </trkpt>
      <trkpt lat="46.48611" lon="5.36321">
        <ele>236.6</ele>
        <time>2022-06-25T04:43:28Z</time>
      </trkpt>
      <trkpt lat="46.48625" lon="5.3631">
        <ele>236.4</ele>
        <time>2022-06-25T04:43:30Z</time>
      </trkpt>
      <trkpt lat="46.48631" lon="5.363">
        <ele>236</ele>
        <time>2022-06-25T04:43:31Z</time>
      </trkpt>
      <trkpt lat="46.48636" lon="5.36286">
        <ele>235.2</ele>
        <time>2022-06-25T04:43:32Z</time>
      </trkpt>
      <trkpt lat="46.4864" lon="5.36259">
        <ele>233.8</ele>
        <time>2022-06-25T04:43:34Z</time>
      </trkpt>
      <trkpt lat="46.48646" lon="5.3619">
        <ele>232.4</ele>
        <time>2022-06-25T04:43:39Z</time>
      </trkpt>
      <trkpt lat="46.48646" lon="5.36176">
        <ele>232.2</ele>
        <time>2022-06-25T04:43:40Z</time>
      </trkpt>
      <trkpt lat="46.4865" lon="5.36139">
        <ele>231.4</ele>
        <time>2022-06-25T04:43:43Z</time>
      </trkpt>
      <trkpt lat="46.48655" lon="5.36113">
        <ele>230.8</ele>
        <time>2022-06-25T04:43:45Z</time>
      </trkpt>
      <trkpt lat="46.4867" lon="5.36043">
        <ele>230.4</ele>
        <time>2022-06-25T04:43:51Z</time>
      </trkpt>
      <trkpt lat="46.48678" lon="5.35996">
        <ele>230.8</ele>
        <time>2022-06-25T04:43:56Z</time>
      </trkpt>
      <trkpt lat="46.48682" lon="5.35969">
        <ele>231.6</ele>
        <time>2022-06-25T04:43:59Z</time>
      </trkpt>
      <trkpt lat="46.48686" lon="5.35937">
        <ele>232</ele>
        <time>2022-06-25T04:44:02Z</time>
      </trkpt>
      <trkpt lat="46.48688" lon="5.35926">
        <ele>232</ele>
        <time>2022-06-25T04:44:03Z</time>
      </trkpt>
      <trkpt lat="46.48698" lon="5.35895">
        <ele>232</ele>
        <time>2022-06-25T04:44:06Z</time>
      </trkpt>
      <trkpt lat="46.48706" lon="5.35875">
        <ele>232</ele>
        <time>2022-06-25T04:44:08Z</time>
      </trkpt>
      <trkpt lat="46.48714" lon="5.35855">
        <ele>231.6</ele>
        <time>2022-06-25T04:44:10Z</time>
      </trkpt>
      <trkpt lat="46.48743" lon="5.35785">
        <ele>230.4</ele>
        <time>2022-06-25T04:44:17Z</time>
      </trkpt>
      <trkpt lat="46.48756" lon="5.35756">
        <ele>229.8</ele>
        <time>2022-06-25T04:44:20Z</time>
      </trkpt>
      <trkpt lat="46.48768" lon="5.35727">
        <ele>229.6</ele>
        <time>2022-06-25T04:44:23Z</time>
      </trkpt>
      <trkpt lat="46.48781" lon="5.35699">
        <ele>229.4</ele>
        <time>2022-06-25T04:44:26Z</time>
      </trkpt>
      <trkpt lat="46.48793" lon="5.35673">
        <ele>229.2</ele>
        <time>2022-06-25T04:44:29Z</time>
      </trkpt>
      <trkpt lat="46.48812" lon="5.35632">
        <ele>229.2</ele>
        <time>2022-06-25T04:44:34Z</time>
      </trkpt>
      <trkpt lat="46.48831" lon="5.35583">
        <ele>229.2</ele>
        <time>2022-06-25T04:44:40Z</time>
      </trkpt>
      <trkpt lat="46.48844" lon="5.3555">
        <ele>229.2</ele>
        <time>2022-06-25T04:44:44Z</time>
      </trkpt>
      <trkpt lat="46.48854" lon="5.35525">
        <ele>229.4</ele>
        <time>2022-06-25T04:44:47Z</time>
      </trkpt>
      <trkpt lat="46.48876" lon="5.35475">
        <ele>229.4</ele>
        <time>2022-06-25T04:44:53Z</time>
      </trkpt>
      <trkpt lat="46.48906" lon="5.35405">
        <ele>229</ele>
        <time>2022-06-25T04:45:01Z</time>
      </trkpt>
      <trkpt lat="46.48911" lon="5.35396">
        <ele>228.8</ele>
        <time>2022-06-25T04:45:02Z</time>
      </trkpt>
      <trkpt lat="46.48941" lon="5.3533">
        <ele>228.2</ele>
        <time>2022-06-25T04:45:09Z</time>
      </trkpt>
      <trkpt lat="46.48944" lon="5.35321">
        <ele>228.2</ele>
        <time>2022-06-25T04:45:10Z</time>
      </trkpt>
      <trkpt lat="46.48963" lon="5.35277">
        <ele>228</ele>
        <time>2022-06-25T04:45:15Z</time>
      </trkpt>
      <trkpt lat="46.48966" lon="5.35268">
        <ele>228</ele>
        <time>2022-06-25T04:45:16Z</time>
      </trkpt>
      <trkpt lat="46.4897" lon="5.3526">
        <ele>228</ele>
        <time>2022-06-25T04:45:17Z</time>
      </trkpt>
      <trkpt lat="46.48985" lon="5.35228">
        <ele>228.4</ele>
        <time>2022-06-25T04:45:21Z</time>
      </trkpt>
      <trkpt lat="46.49006" lon="5.35184">
        <ele>228.6</ele>
        <time>2022-06-25T04:45:27Z</time>
      </trkpt>
      <trkpt lat="46.49016" lon="5.35154">
        <ele>229</ele>
        <time>2022-06-25T04:45:31Z</time>
      </trkpt>
      <trkpt lat="46.4902" lon="5.35147">
        <ele>229.2</ele>
        <time>2022-06-25T04:45:32Z</time>
      </trkpt>
      <trkpt lat="46.49023" lon="5.3514">
        <ele>229.4</ele>
        <time>2022-06-25T04:45:33Z</time>
      </trkpt>
      <trkpt lat="46.49041" lon="5.35079">
        <ele>229.8</ele>
        <time>2022-06-25T04:45:40Z</time>
      </trkpt>
      <trkpt lat="46.49053" lon="5.3502">
        <ele>229.8</ele>
        <time>2022-06-25T04:45:46Z</time>
      </trkpt>
      <trkpt lat="46.49065" lon="5.34955">
        <ele>229</ele>
        <time>2022-06-25T04:45:52Z</time>
      </trkpt>
      <trkpt lat="46.49074" lon="5.3491">
        <ele>227.6</ele>
        <time>2022-06-25T04:45:56Z</time>
      </trkpt>
      <trkpt lat="46.49082" lon="5.34864">
        <ele>227.2</ele>
        <time>2022-06-25T04:46:00Z</time>
      </trkpt>
      <trkpt lat="46.49088" lon="5.3483">
        <ele>226.6</ele>
        <time>2022-06-25T04:46:03Z</time>
      </trkpt>
      <trkpt lat="46.49091" lon="5.34819">
        <ele>226.4</ele>
        <time>2022-06-25T04:46:04Z</time>
      </trkpt>
      <trkpt lat="46.49096" lon="5.34796">
        <ele>226.2</ele>
        <time>2022-06-25T04:46:06Z</time>
      </trkpt>
      <trkpt lat="46.49102" lon="5.34761">
        <ele>225.6</ele>
        <time>2022-06-25T04:46:09Z</time>
      </trkpt>
      <trkpt lat="46.49111" lon="5.34714">
        <ele>224.8</ele>
        <time>2022-06-25T04:46:13Z</time>
      </trkpt>
      <trkpt lat="46.49112" lon="5.34702">
        <ele>224.6</ele>
        <time>2022-06-25T04:46:14Z</time>
      </trkpt>
      <trkpt lat="46.49114" lon="5.3469">
        <ele>224.4</ele>
        <time>2022-06-25T04:46:15Z</time>
      </trkpt>
      <trkpt lat="46.49121" lon="5.34657">
        <ele>224</ele>
        <time>2022-06-25T04:46:18Z</time>
      </trkpt>
      <trkpt lat="46.49132" lon="5.34608">
        <ele>223.8</ele>
        <time>2022-06-25T04:46:23Z</time>
      </trkpt>
      <trkpt lat="46.49135" lon="5.34589">
        <ele>223.8</ele>
        <time>2022-06-25T04:46:25Z</time>
      </trkpt>
      <trkpt lat="46.49139" lon="5.34571">
        <ele>224.2</ele>
        <time>2022-06-25T04:46:27Z</time>
      </trkpt>
      <trkpt lat="46.49155" lon="5.34498">
        <ele>224.4</ele>
        <time>2022-06-25T04:46:34Z</time>
      </trkpt>
      <trkpt lat="46.49167" lon="5.34433">
        <ele>223.6</ele>
        <time>2022-06-25T04:46:40Z</time>
      </trkpt>
      <trkpt lat="46.49171" lon="5.34412">
        <ele>223.4</ele>
        <time>2022-06-25T04:46:42Z</time>
      </trkpt>
      <trkpt lat="46.49181" lon="5.34358">
        <ele>223.6</ele>
        <time>2022-06-25T04:46:48Z</time>
      </trkpt>
      <trkpt lat="46.49183" lon="5.3435">
        <ele>223.8</ele>
        <time>2022-06-25T04:46:49Z</time>
      </trkpt>
      <trkpt lat="46.49188" lon="5.34326">
        <ele>224</ele>
        <time>2022-06-25T04:46:52Z</time>
      </trkpt>
      <trkpt lat="46.49191" lon="5.34307">
        <ele>224.6</ele>
        <time>2022-06-25T04:46:54Z</time>
      </trkpt>
      <trkpt lat="46.49197" lon="5.34276">
        <ele>224.8</ele>
        <time>2022-06-25T04:46:57Z</time>
      </trkpt>
      <trkpt lat="46.49209" lon="5.3421">
        <ele>224.4</ele>
        <time>2022-06-25T04:47:03Z</time>
      </trkpt>
      <trkpt lat="46.49223" lon="5.34138">
        <ele>223.8</ele>
        <time>2022-06-25T04:47:10Z</time>
      </trkpt>
      <trkpt lat="46.49227" lon="5.34119">
        <ele>223.8</ele>
        <time>2022-06-25T04:47:12Z</time>
      </trkpt>
      <trkpt lat="46.49232" lon="5.34094">
        <ele>223.8</ele>
        <time>2022-06-25T04:47:15Z</time>
      </trkpt>
      <trkpt lat="46.49241" lon="5.34042">
        <ele>225.2</ele>
        <time>2022-06-25T04:47:22Z</time>
      </trkpt>
      <trkpt lat="46.49243" lon="5.34035">
        <ele>225.6</ele>
        <time>2022-06-25T04:47:23Z</time>
      </trkpt>
      <trkpt lat="46.4925" lon="5.33999">
        <ele>226.2</ele>
        <time>2022-06-25T04:47:27Z</time>
      </trkpt>
      <trkpt lat="46.49262" lon="5.33935">
        <ele>226.6</ele>
        <time>2022-06-25T04:47:34Z</time>
      </trkpt>
      <trkpt lat="46.49267" lon="5.33909">
        <ele>226.6</ele>
        <time>2022-06-25T04:47:37Z</time>
      </trkpt>
      <trkpt lat="46.49271" lon="5.33893">
        <ele>226.6</ele>
        <time>2022-06-25T04:47:39Z</time>
      </trkpt>
      <trkpt lat="46.49272" lon="5.33883">
        <ele>226.6</ele>
        <time>2022-06-25T04:47:40Z</time>
      </trkpt>
      <trkpt lat="46.49275" lon="5.33865">
        <ele>226.6</ele>
        <time>2022-06-25T04:47:42Z</time>
      </trkpt>
      <trkpt lat="46.49277" lon="5.33856">
        <ele>226.6</ele>
        <time>2022-06-25T04:47:43Z</time>
      </trkpt>
      <trkpt lat="46.49294" lon="5.33776">
        <ele>226.6</ele>
        <time>2022-06-25T04:47:52Z</time>
      </trkpt>
      <trkpt lat="46.49302" lon="5.33734">
        <ele>226.6</ele>
        <time>2022-06-25T04:47:56Z</time>
      </trkpt>
      <trkpt lat="46.49303" lon="5.33712">
        <ele>226.2</ele>
        <time>2022-06-25T04:47:58Z</time>
      </trkpt>
      <trkpt lat="46.49305" lon="5.3365">
        <ele>226</ele>
        <time>2022-06-25T04:48:04Z</time>
      </trkpt>
      <trkpt lat="46.49313" lon="5.33584">
        <ele>225.4</ele>
        <time>2022-06-25T04:48:10Z</time>
      </trkpt>
      <trkpt lat="46.49317" lon="5.33564">
        <ele>225.4</ele>
        <time>2022-06-25T04:48:12Z</time>
      </trkpt>
      <trkpt lat="46.49319" lon="5.33544">
        <ele>225.4</ele>
        <time>2022-06-25T04:48:14Z</time>
      </trkpt>
      <trkpt lat="46.49319" lon="5.33533">
        <ele>225.2</ele>
        <time>2022-06-25T04:48:15Z</time>
      </trkpt>
      <trkpt lat="46.49311" lon="5.33463">
        <ele>225.4</ele>
        <time>2022-06-25T04:48:22Z</time>
      </trkpt>
      <trkpt lat="46.49296" lon="5.33384">
        <ele>225.4</ele>
        <time>2022-06-25T04:48:30Z</time>
      </trkpt>
      <trkpt lat="46.49294" lon="5.33376">
        <ele>225.4</ele>
        <time>2022-06-25T04:48:31Z</time>
      </trkpt>
      <trkpt lat="46.49291" lon="5.33364">
        <ele>225.2</ele>
        <time>2022-06-25T04:48:32Z</time>
      </trkpt>
      <trkpt lat="46.49279" lon="5.333">
        <ele>224.6</ele>
        <time>2022-06-25T04:48:38Z</time>
      </trkpt>
      <trkpt lat="46.49274" lon="5.33267">
        <ele>224</ele>
        <time>2022-06-25T04:48:41Z</time>
      </trkpt>
      <trkpt lat="46.49266" lon="5.33224">
        <ele>223.2</ele>
        <time>2022-06-25T04:48:45Z</time>
      </trkpt>
      <trkpt lat="46.49267" lon="5.33212">
        <ele>223</ele>
        <time>2022-06-25T04:48:46Z</time>
      </trkpt>
      <trkpt lat="46.49269" lon="5.33205">
        <ele>223</ele>
        <time>2022-06-25T04:48:47Z</time>
      </trkpt>
      <trkpt lat="46.49279" lon="5.33189">
        <ele>222.8</ele>
        <time>2022-06-25T04:48:49Z</time>
      </trkpt>
      <trkpt lat="46.49326" lon="5.33136">
        <ele>222</ele>
        <time>2022-06-25T04:48:57Z</time>
      </trkpt>
      <trkpt lat="46.49374" lon="5.33084">
        <ele>221.8</ele>
        <time>2022-06-25T04:49:05Z</time>
      </trkpt>
      <trkpt lat="46.49404" lon="5.33047">
        <ele>221.6</ele>
        <time>2022-06-25T04:49:10Z</time>
      </trkpt>
      <trkpt lat="46.49409" lon="5.33037">
        <ele>221.4</ele>
        <time>2022-06-25T04:49:11Z</time>
      </trkpt>
      <trkpt lat="46.49419" lon="5.33016">
        <ele>221.2</ele>
        <time>2022-06-25T04:49:13Z</time>
      </trkpt>
      <trkpt lat="46.49426" lon="5.32995">
        <ele>221</ele>
        <time>2022-06-25T04:49:15Z</time>
      </trkpt>
      <trkpt lat="46.4943" lon="5.32984">
        <ele>220.4</ele>
        <time>2022-06-25T04:49:16Z</time>
      </trkpt>
      <trkpt lat="46.49444" lon="5.32948">
        <ele>219.8</ele>
        <time>2022-06-25T04:49:20Z</time>
      </trkpt>
      <trkpt lat="46.49455" lon="5.32919">
        <ele>219.6</ele>
        <time>2022-06-25T04:49:23Z</time>
      </trkpt>
      <trkpt lat="46.49481" lon="5.32845">
        <ele>219</ele>
        <time>2022-06-25T04:49:30Z</time>
      </trkpt>
      <trkpt lat="46.49485" lon="5.32834">
        <ele>218.8</ele>
        <time>2022-06-25T04:49:31Z</time>
      </trkpt>
      <trkpt lat="46.49489" lon="5.32823">
        <ele>218.4</ele>
        <time>2022-06-25T04:49:32Z</time>
      </trkpt>
      <trkpt lat="46.49507" lon="5.32781">
        <ele>217.4</ele>
        <time>2022-06-25T04:49:36Z</time>
      </trkpt>
      <trkpt lat="46.49523" lon="5.32752">
        <ele>216.4</ele>
        <time>2022-06-25T04:49:39Z</time>
      </trkpt>
      <trkpt lat="46.4953" lon="5.32739">
        <ele>216.2</ele>
        <time>2022-06-25T04:49:40Z</time>
      </trkpt>
      <trkpt lat="46.49549" lon="5.32708">
        <ele>215.2</ele>
        <time>2022-06-25T04:49:43Z</time>
      </trkpt>
      <trkpt lat="46.49569" lon="5.32676">
        <ele>213.8</ele>
        <time>2022-06-25T04:49:46Z</time>
      </trkpt>
      <trkpt lat="46.49595" lon="5.32632">
        <ele>212.4</ele>
        <time>2022-06-25T04:49:50Z</time>
      </trkpt>
      <trkpt lat="46.49615" lon="5.32601">
        <ele>210.6</ele>
        <time>2022-06-25T04:49:53Z</time>
      </trkpt>
      <trkpt lat="46.49629" lon="5.32582">
        <ele>210</ele>
        <time>2022-06-25T04:49:55Z</time>
      </trkpt>
      <trkpt lat="46.49644" lon="5.32565">
        <ele>209.6</ele>
        <time>2022-06-25T04:49:57Z</time>
      </trkpt>
      <trkpt lat="46.49675" lon="5.32536">
        <ele>208.4</ele>
        <time>2022-06-25T04:50:01Z</time>
      </trkpt>
      <trkpt lat="46.49716" lon="5.32508">
        <ele>207.6</ele>
        <time>2022-06-25T04:50:06Z</time>
      </trkpt>
      <trkpt lat="46.49725" lon="5.32505">
        <ele>207.4</ele>
        <time>2022-06-25T04:50:07Z</time>
      </trkpt>
      <trkpt lat="46.49764" lon="5.32493">
        <ele>206</ele>
        <time>2022-06-25T04:50:11Z</time>
      </trkpt>
      <trkpt lat="46.49773" lon="5.3249">
        <ele>205.8</ele>
        <time>2022-06-25T04:50:12Z</time>
      </trkpt>
      <trkpt lat="46.49794" lon="5.32483">
        <ele>205</ele>
        <time>2022-06-25T04:50:14Z</time>
      </trkpt>
      <trkpt lat="46.49814" lon="5.32476">
        <ele>204</ele>
        <time>2022-06-25T04:50:16Z</time>
      </trkpt>
      <trkpt lat="46.49834" lon="5.3247">
        <ele>203</ele>
        <time>2022-06-25T04:50:18Z</time>
      </trkpt>
      <trkpt lat="46.49843" lon="5.32467">
        <ele>202.6</ele>
        <time>2022-06-25T04:50:19Z</time>
      </trkpt>
      <trkpt lat="46.49852" lon="5.32465">
        <ele>201.6</ele>
        <time>2022-06-25T04:50:20Z</time>
      </trkpt>
      <trkpt lat="46.49887" lon="5.32457">
        <ele>200.8</ele>
        <time>2022-06-25T04:50:24Z</time>
      </trkpt>
      <trkpt lat="46.49922" lon="5.32454">
        <ele>200.8</ele>
        <time>2022-06-25T04:50:29Z</time>
      </trkpt>
      <trkpt lat="46.49947" lon="5.32453">
        <ele>202.8</ele>
        <time>2022-06-25T04:50:34Z</time>
      </trkpt>
      <trkpt lat="46.49965" lon="5.32452">
        <ele>204.2</ele>
        <time>2022-06-25T04:50:38Z</time>
      </trkpt>
      <trkpt lat="46.49973" lon="5.32452">
        <ele>204.8</ele>
        <time>2022-06-25T04:50:40Z</time>
      </trkpt>
      <trkpt lat="46.4998" lon="5.32451">
        <ele>205.2</ele>
        <time>2022-06-25T04:50:42Z</time>
      </trkpt>
      <trkpt lat="46.4999" lon="5.32451">
        <ele>206.6</ele>
        <time>2022-06-25T04:50:45Z</time>
      </trkpt>
      <trkpt lat="46.49993" lon="5.32451">
        <ele>206.8</ele>
        <time>2022-06-25T04:50:46Z</time>
      </trkpt>
      <trkpt lat="46.5" lon="5.32451">
        <ele>207.8</ele>
        <time>2022-06-25T04:50:48Z</time>
      </trkpt>
      <trkpt lat="46.50013" lon="5.32449">
        <ele>209</ele>
        <time>2022-06-25T04:50:52Z</time>
      </trkpt>
      <trkpt lat="46.50017" lon="5.32449">
        <ele>209.2</ele>
        <time>2022-06-25T04:50:53Z</time>
      </trkpt>
      <trkpt lat="46.5003" lon="5.3245">
        <ele>210.4</ele>
        <time>2022-06-25T04:50:57Z</time>
      </trkpt>
      <trkpt lat="46.50037" lon="5.32451">
        <ele>210.8</ele>
        <time>2022-06-25T04:50:59Z</time>
      </trkpt>
      <trkpt lat="46.50043" lon="5.32452">
        <ele>211.4</ele>
        <time>2022-06-25T04:51:01Z</time>
      </trkpt>
      <trkpt lat="46.50057" lon="5.32453">
        <ele>212.6</ele>
        <time>2022-06-25T04:51:05Z</time>
      </trkpt>
      <trkpt lat="46.50067" lon="5.32455">
        <ele>213.4</ele>
        <time>2022-06-25T04:51:08Z</time>
      </trkpt>
      <trkpt lat="46.50074" lon="5.32455">
        <ele>213.8</ele>
        <time>2022-06-25T04:51:10Z</time>
      </trkpt>
      <trkpt lat="46.50085" lon="5.32454">
        <ele>214.4</ele>
        <time>2022-06-25T04:51:13Z</time>
      </trkpt>
      <trkpt lat="46.50093" lon="5.32453">
        <ele>214.8</ele>
        <time>2022-06-25T04:51:15Z</time>
      </trkpt>
      <trkpt lat="46.50112" lon="5.32453">
        <ele>215</ele>
        <time>2022-06-25T04:51:19Z</time>
      </trkpt>
      <trkpt lat="46.50144" lon="5.32452">
        <ele>214.8</ele>
        <time>2022-06-25T04:51:24Z</time>
      </trkpt>
      <trkpt lat="46.50161" lon="5.32449">
        <ele>214.4</ele>
        <time>2022-06-25T04:51:26Z</time>
      </trkpt>
      <trkpt lat="46.5017" lon="5.32446">
        <ele>213.6</ele>
        <time>2022-06-25T04:51:27Z</time>
      </trkpt>
      <trkpt lat="46.50178" lon="5.32443">
        <ele>213.2</ele>
        <time>2022-06-25T04:51:28Z</time>
      </trkpt>
      <trkpt lat="46.50187" lon="5.32441">
        <ele>212.6</ele>
        <time>2022-06-25T04:51:29Z</time>
      </trkpt>
      <trkpt lat="46.50204" lon="5.32438">
        <ele>211.6</ele>
        <time>2022-06-25T04:51:31Z</time>
      </trkpt>
      <trkpt lat="46.50227" lon="5.32433">
        <ele>210.4</ele>
        <time>2022-06-25T04:51:34Z</time>
      </trkpt>
      <trkpt lat="46.50235" lon="5.32431">
        <ele>210.2</ele>
        <time>2022-06-25T04:51:35Z</time>
      </trkpt>
      <trkpt lat="46.5028" lon="5.32421">
        <ele>209.4</ele>
        <time>2022-06-25T04:51:41Z</time>
      </trkpt>
      <trkpt lat="46.50288" lon="5.32417">
        <ele>209.2</ele>
        <time>2022-06-25T04:51:42Z</time>
      </trkpt>
      <trkpt lat="46.50295" lon="5.32413">
        <ele>209</ele>
        <time>2022-06-25T04:51:43Z</time>
      </trkpt>
      <trkpt lat="46.5031" lon="5.32399">
        <ele>208.6</ele>
        <time>2022-06-25T04:51:45Z</time>
      </trkpt>
      <trkpt lat="46.50322" lon="5.3238">
        <ele>208.2</ele>
        <time>2022-06-25T04:51:47Z</time>
      </trkpt>
      <trkpt lat="46.50332" lon="5.3236">
        <ele>207</ele>
        <time>2022-06-25T04:51:49Z</time>
      </trkpt>
      <trkpt lat="46.50349" lon="5.32322">
        <ele>205.8</ele>
        <time>2022-06-25T04:51:52Z</time>
      </trkpt>
      <trkpt lat="46.5036" lon="5.32298">
        <ele>204.6</ele>
        <time>2022-06-25T04:51:54Z</time>
      </trkpt>
      <trkpt lat="46.5037" lon="5.32276">
        <ele>203.8</ele>
        <time>2022-06-25T04:51:56Z</time>
      </trkpt>
      <trkpt lat="46.50375" lon="5.32265">
        <ele>203.6</ele>
        <time>2022-06-25T04:51:57Z</time>
      </trkpt>
      <trkpt lat="46.50389" lon="5.32237">
        <ele>202.6</ele>
        <time>2022-06-25T04:52:00Z</time>
      </trkpt>
      <trkpt lat="46.50395" lon="5.32229">
        <ele>202.4</ele>
        <time>2022-06-25T04:52:01Z</time>
      </trkpt>
      <trkpt lat="46.50402" lon="5.32224">
        <ele>202.4</ele>
        <time>2022-06-25T04:52:02Z</time>
      </trkpt>
      <trkpt lat="46.50419" lon="5.32211">
        <ele>201.6</ele>
        <time>2022-06-25T04:52:05Z</time>
      </trkpt>
      <trkpt lat="46.50426" lon="5.32208">
        <ele>201.4</ele>
        <time>2022-06-25T04:52:07Z</time>
      </trkpt>
      <trkpt lat="46.50429" lon="5.32205">
        <ele>201.4</ele>
        <time>2022-06-25T04:52:08Z</time>
      </trkpt>
      <trkpt lat="46.50432" lon="5.32194">
        <ele>201.4</ele>
        <time>2022-06-25T04:52:10Z</time>
      </trkpt>
      <trkpt lat="46.50433" lon="5.32187">
        <ele>201.4</ele>
        <time>2022-06-25T04:52:11Z</time>
      </trkpt>
      <trkpt lat="46.50434" lon="5.32179">
        <ele>201</ele>
        <time>2022-06-25T04:52:12Z</time>
      </trkpt>
      <trkpt lat="46.50435" lon="5.32149">
        <ele>201</ele>
        <time>2022-06-25T04:52:15Z</time>
      </trkpt>
      <trkpt lat="46.50436" lon="5.32074">
        <ele>200.6</ele>
        <time>2022-06-25T04:52:22Z</time>
      </trkpt>
      <trkpt lat="46.50437" lon="5.32051">
        <ele>200.4</ele>
        <time>2022-06-25T04:52:24Z</time>
      </trkpt>
      <trkpt lat="46.50438" lon="5.31974">
        <ele>199.6</ele>
        <time>2022-06-25T04:52:31Z</time>
      </trkpt>
      <trkpt lat="46.50439" lon="5.31931">
        <ele>199.2</ele>
        <time>2022-06-25T04:52:35Z</time>
      </trkpt>
      <trkpt lat="46.50438" lon="5.31877">
        <ele>198.8</ele>
        <time>2022-06-25T04:52:40Z</time>
      </trkpt>
      <trkpt lat="46.5043" lon="5.31826">
        <ele>198.4</ele>
        <time>2022-06-25T04:52:45Z</time>
      </trkpt>
      <trkpt lat="46.50412" lon="5.31757">
        <ele>198.4</ele>
        <time>2022-06-25T04:52:52Z</time>
      </trkpt>
      <trkpt lat="46.50388" lon="5.31702">
        <ele>198.4</ele>
        <time>2022-06-25T04:52:58Z</time>
      </trkpt>
      <trkpt lat="46.50373" lon="5.31676">
        <ele>198.2</ele>
        <time>2022-06-25T04:53:01Z</time>
      </trkpt>
      <trkpt lat="46.50355" lon="5.31655">
        <ele>197.8</ele>
        <time>2022-06-25T04:53:04Z</time>
      </trkpt>
      <trkpt lat="46.50348" lon="5.31649">
        <ele>197.8</ele>
        <time>2022-06-25T04:53:05Z</time>
      </trkpt>
      <trkpt lat="46.50313" lon="5.31621">
        <ele>197.4</ele>
        <time>2022-06-25T04:53:10Z</time>
      </trkpt>
      <trkpt lat="46.50272" lon="5.3159">
        <ele>197</ele>
        <time>2022-06-25T04:53:16Z</time>
      </trkpt>
      <trkpt lat="46.50259" lon="5.31577">
        <ele>197</ele>
        <time>2022-06-25T04:53:18Z</time>
      </trkpt>
      <trkpt lat="46.50226" lon="5.31534">
        <ele>197.2</ele>
        <time>2022-06-25T04:53:24Z</time>
      </trkpt>
      <trkpt lat="46.50212" lon="5.31502">
        <ele>197.6</ele>
        <time>2022-06-25T04:53:28Z</time>
      </trkpt>
      <trkpt lat="46.50204" lon="5.3148">
        <ele>198.2</ele>
        <time>2022-06-25T04:53:31Z</time>
      </trkpt>
      <trkpt lat="46.50196" lon="5.31452">
        <ele>198.8</ele>
        <time>2022-06-25T04:53:35Z</time>
      </trkpt>
      <trkpt lat="46.50192" lon="5.31439">
        <ele>199.4</ele>
        <time>2022-06-25T04:53:37Z</time>
      </trkpt>
      <trkpt lat="46.50183" lon="5.31408">
        <ele>200.8</ele>
        <time>2022-06-25T04:53:42Z</time>
      </trkpt>
      <trkpt lat="46.50172" lon="5.31378">
        <ele>201.8</ele>
        <time>2022-06-25T04:53:47Z</time>
      </trkpt>
      <trkpt lat="46.50163" lon="5.31353">
        <ele>203.2</ele>
        <time>2022-06-25T04:53:51Z</time>
      </trkpt>
      <trkpt lat="46.50161" lon="5.31347">
        <ele>203.2</ele>
        <time>2022-06-25T04:53:52Z</time>
      </trkpt>
      <trkpt lat="46.50146" lon="5.31306">
        <ele>204.2</ele>
        <time>2022-06-25T04:53:58Z</time>
      </trkpt>
      <trkpt lat="46.50136" lon="5.31274">
        <ele>204.6</ele>
        <time>2022-06-25T04:54:02Z</time>
      </trkpt>
      <trkpt lat="46.50118" lon="5.31226">
        <ele>204.6</ele>
        <time>2022-06-25T04:54:08Z</time>
      </trkpt>
      <trkpt lat="46.50094" lon="5.31155">
        <ele>204.2</ele>
        <time>2022-06-25T04:54:15Z</time>
      </trkpt>
      <trkpt lat="46.50083" lon="5.31124">
        <ele>203.2</ele>
        <time>2022-06-25T04:54:18Z</time>
      </trkpt>
      <trkpt lat="46.50066" lon="5.31073">
        <ele>202.8</ele>
        <time>2022-06-25T04:54:23Z</time>
      </trkpt>
      <trkpt lat="46.50052" lon="5.31029">
        <ele>203.6</ele>
        <time>2022-06-25T04:54:29Z</time>
      </trkpt>
      <trkpt lat="46.50045" lon="5.3101">
        <ele>204.4</ele>
        <time>2022-06-25T04:54:32Z</time>
      </trkpt>
      <trkpt lat="46.50039" lon="5.30992">
        <ele>205.2</ele>
        <time>2022-06-25T04:54:35Z</time>
      </trkpt>
      <trkpt lat="46.50037" lon="5.30986">
        <ele>205.4</ele>
        <time>2022-06-25T04:54:36Z</time>
      </trkpt>
      <trkpt lat="46.50028" lon="5.30963">
        <ele>206.6</ele>
        <time>2022-06-25T04:54:40Z</time>
      </trkpt>
      <trkpt lat="46.50022" lon="5.30945">
        <ele>207.6</ele>
        <time>2022-06-25T04:54:43Z</time>
      </trkpt>
      <trkpt lat="46.5002" lon="5.3094">
        <ele>207.8</ele>
        <time>2022-06-25T04:54:44Z</time>
      </trkpt>
      <trkpt lat="46.50009" lon="5.30908">
        <ele>209</ele>
        <time>2022-06-25T04:54:50Z</time>
      </trkpt>
      <trkpt lat="46.50004" lon="5.30891">
        <ele>210.2</ele>
        <time>2022-06-25T04:54:53Z</time>
      </trkpt>
      <trkpt lat="46.49993" lon="5.30866">
        <ele>211.2</ele>
        <time>2022-06-25T04:54:58Z</time>
      </trkpt>
      <trkpt lat="46.49984" lon="5.30844">
        <ele>212.2</ele>
        <time>2022-06-25T04:55:02Z</time>
      </trkpt>
      <trkpt lat="46.49982" lon="5.30837">
        <ele>212.4</ele>
        <time>2022-06-25T04:55:03Z</time>
      </trkpt>
      <trkpt lat="46.4997" lon="5.30792">
        <ele>213.4</ele>
        <time>2022-06-25T04:55:10Z</time>
      </trkpt>
      <trkpt lat="46.49967" lon="5.3078">
        <ele>213.6</ele>
        <time>2022-06-25T04:55:12Z</time>
      </trkpt>
      <trkpt lat="46.49961" lon="5.30753">
        <ele>214.4</ele>
        <time>2022-06-25T04:55:16Z</time>
      </trkpt>
      <trkpt lat="46.49956" lon="5.30724">
        <ele>214.8</ele>
        <time>2022-06-25T04:55:20Z</time>
      </trkpt>
      <trkpt lat="46.49945" lon="5.30666">
        <ele>214.8</ele>
        <time>2022-06-25T04:55:27Z</time>
      </trkpt>
      <trkpt lat="46.49939" lon="5.30637">
        <ele>214.6</ele>
        <time>2022-06-25T04:55:30Z</time>
      </trkpt>
      <trkpt lat="46.49936" lon="5.30616">
        <ele>214.2</ele>
        <time>2022-06-25T04:55:32Z</time>
      </trkpt>
      <trkpt lat="46.49934" lon="5.30569">
        <ele>213</ele>
        <time>2022-06-25T04:55:36Z</time>
      </trkpt>
      <trkpt lat="46.49935" lon="5.30559">
        <ele>212.6</ele>
        <time>2022-06-25T04:55:37Z</time>
      </trkpt>
      <trkpt lat="46.49936" lon="5.30544">
        <ele>212.4</ele>
        <time>2022-06-25T04:55:38Z</time>
      </trkpt>
      <trkpt lat="46.4994" lon="5.30522">
        <ele>212</ele>
        <time>2022-06-25T04:55:40Z</time>
      </trkpt>
      <trkpt lat="46.49944" lon="5.30508">
        <ele>211.8</ele>
        <time>2022-06-25T04:55:41Z</time>
      </trkpt>
      <trkpt lat="46.49957" lon="5.30477">
        <ele>211</ele>
        <time>2022-06-25T04:55:44Z</time>
      </trkpt>
      <trkpt lat="46.49964" lon="5.30465">
        <ele>210.6</ele>
        <time>2022-06-25T04:55:45Z</time>
      </trkpt>
      <trkpt lat="46.49985" lon="5.3044">
        <ele>209.8</ele>
        <time>2022-06-25T04:55:48Z</time>
      </trkpt>
      <trkpt lat="46.49993" lon="5.30433">
        <ele>209.4</ele>
        <time>2022-06-25T04:55:49Z</time>
      </trkpt>
      <trkpt lat="46.50015" lon="5.30416">
        <ele>208.6</ele>
        <time>2022-06-25T04:55:52Z</time>
      </trkpt>
      <trkpt lat="46.5004" lon="5.30395">
        <ele>207.8</ele>
        <time>2022-06-25T04:55:55Z</time>
      </trkpt>
      <trkpt lat="46.50047" lon="5.30388">
        <ele>207.6</ele>
        <time>2022-06-25T04:55:56Z</time>
      </trkpt>
      <trkpt lat="46.50053" lon="5.3038">
        <ele>207</ele>
        <time>2022-06-25T04:55:57Z</time>
      </trkpt>
      <trkpt lat="46.50064" lon="5.30363">
        <ele>206.6</ele>
        <time>2022-06-25T04:55:59Z</time>
      </trkpt>
      <trkpt lat="46.50068" lon="5.30354">
        <ele>206.6</ele>
        <time>2022-06-25T04:56:00Z</time>
      </trkpt>
      <trkpt lat="46.50084" lon="5.30309">
        <ele>206.6</ele>
        <time>2022-06-25T04:56:05Z</time>
      </trkpt>
      <trkpt lat="46.5009" lon="5.30255">
        <ele>207.4</ele>
        <time>2022-06-25T04:56:11Z</time>
      </trkpt>
      <trkpt lat="46.5009" lon="5.30218">
        <ele>208</ele>
        <time>2022-06-25T04:56:15Z</time>
      </trkpt>
      <trkpt lat="46.50089" lon="5.30191">
        <ele>208.4</ele>
        <time>2022-06-25T04:56:18Z</time>
      </trkpt>
      <trkpt lat="46.50089" lon="5.30136">
        <ele>209</ele>
        <time>2022-06-25T04:56:24Z</time>
      </trkpt>
      <trkpt lat="46.5009" lon="5.30116">
        <ele>209.2</ele>
        <time>2022-06-25T04:56:26Z</time>
      </trkpt>
      <trkpt lat="46.50089" lon="5.30036">
        <ele>210</ele>
        <time>2022-06-25T04:56:35Z</time>
      </trkpt>
      <trkpt lat="46.50082" lon="5.29975">
        <ele>210.4</ele>
        <time>2022-06-25T04:56:42Z</time>
      </trkpt>
      <trkpt lat="46.50067" lon="5.29931">
        <ele>210.2</ele>
        <time>2022-06-25T04:56:47Z</time>
      </trkpt>
      <trkpt lat="46.50043" lon="5.29892">
        <ele>209.6</ele>
        <time>2022-06-25T04:56:52Z</time>
      </trkpt>
      <trkpt lat="46.50013" lon="5.29861">
        <ele>208.8</ele>
        <time>2022-06-25T04:56:57Z</time>
      </trkpt>
      <trkpt lat="46.50006" lon="5.29856">
        <ele>208.8</ele>
        <time>2022-06-25T04:56:58Z</time>
      </trkpt>
      <trkpt lat="46.49992" lon="5.29851">
        <ele>208.6</ele>
        <time>2022-06-25T04:57:00Z</time>
      </trkpt>
      <trkpt lat="46.49976" lon="5.29849">
        <ele>208.6</ele>
        <time>2022-06-25T04:57:02Z</time>
      </trkpt>
      <trkpt lat="46.49929" lon="5.29839">
        <ele>208.6</ele>
        <time>2022-06-25T04:57:09Z</time>
      </trkpt>
      <trkpt lat="46.4989" lon="5.29824">
        <ele>209.6</ele>
        <time>2022-06-25T04:57:16Z</time>
      </trkpt>
      <trkpt lat="46.49879" lon="5.29819">
        <ele>210</ele>
        <time>2022-06-25T04:57:18Z</time>
      </trkpt>
      <trkpt lat="46.49857" lon="5.29809">
        <ele>211</ele>
        <time>2022-06-25T04:57:22Z</time>
      </trkpt>
      <trkpt lat="46.49851" lon="5.29808">
        <ele>211</ele>
        <time>2022-06-25T04:57:23Z</time>
      </trkpt>
      <trkpt lat="46.49803" lon="5.2979">
        <ele>212</ele>
        <time>2022-06-25T04:57:32Z</time>
      </trkpt>
      <trkpt lat="46.49798" lon="5.29789">
        <ele>212</ele>
        <time>2022-06-25T04:57:33Z</time>
      </trkpt>
      <trkpt lat="46.49764" lon="5.29783">
        <ele>212.2</ele>
        <time>2022-06-25T04:57:39Z</time>
      </trkpt>
      <trkpt lat="46.49758" lon="5.29781">
        <ele>212.2</ele>
        <time>2022-06-25T04:57:40Z</time>
      </trkpt>
      <trkpt lat="46.49747" lon="5.29772">
        <ele>212.4</ele>
        <time>2022-06-25T04:57:42Z</time>
      </trkpt>
      <trkpt lat="46.49737" lon="5.29748">
        <ele>212.6</ele>
        <time>2022-06-25T04:57:45Z</time>
      </trkpt>
      <trkpt lat="46.49733" lon="5.2974">
        <ele>212.4</ele>
        <time>2022-06-25T04:57:46Z</time>
      </trkpt>
      <trkpt lat="46.49707" lon="5.29694">
        <ele>212</ele>
        <time>2022-06-25T04:57:52Z</time>
      </trkpt>
      <trkpt lat="46.4967" lon="5.29629">
        <ele>212.2</ele>
        <time>2022-06-25T04:58:01Z</time>
      </trkpt>
      <trkpt lat="46.49666" lon="5.29622">
        <ele>212.4</ele>
        <time>2022-06-25T04:58:02Z</time>
      </trkpt>
      <trkpt lat="46.49639" lon="5.29574">
        <ele>213</ele>
        <time>2022-06-25T04:58:09Z</time>
      </trkpt>
      <trkpt lat="46.4963" lon="5.29559">
        <ele>213</ele>
        <time>2022-06-25T04:58:11Z</time>
      </trkpt>
      <trkpt lat="46.49603" lon="5.29511">
        <ele>213.2</ele>
        <time>2022-06-25T04:58:18Z</time>
      </trkpt>
      <trkpt lat="46.49566" lon="5.29442">
        <ele>213.2</ele>
        <time>2022-06-25T04:58:27Z</time>
      </trkpt>
      <trkpt lat="46.49557" lon="5.29428">
        <ele>213.2</ele>
        <time>2022-06-25T04:58:29Z</time>
      </trkpt>
      <trkpt lat="46.4953" lon="5.29377">
        <ele>212.8</ele>
        <time>2022-06-25T04:58:35Z</time>
      </trkpt>
      <trkpt lat="46.49522" lon="5.29355">
        <ele>212.6</ele>
        <time>2022-06-25T04:58:37Z</time>
      </trkpt>
      <trkpt lat="46.49516" lon="5.29333">
        <ele>212.2</ele>
        <time>2022-06-25T04:58:39Z</time>
      </trkpt>
      <trkpt lat="46.49514" lon="5.2932">
        <ele>211.4</ele>
        <time>2022-06-25T04:58:40Z</time>
      </trkpt>
      <trkpt lat="46.49512" lon="5.29292">
        <ele>210.4</ele>
        <time>2022-06-25T04:58:42Z</time>
      </trkpt>
      <trkpt lat="46.49513" lon="5.29278">
        <ele>210.2</ele>
        <time>2022-06-25T04:58:43Z</time>
      </trkpt>
      <trkpt lat="46.49515" lon="5.29264">
        <ele>210</ele>
        <time>2022-06-25T04:58:44Z</time>
      </trkpt>
      <trkpt lat="46.49517" lon="5.29249">
        <ele>209.2</ele>
        <time>2022-06-25T04:58:45Z</time>
      </trkpt>
      <trkpt lat="46.49521" lon="5.29235">
        <ele>208.8</ele>
        <time>2022-06-25T04:58:46Z</time>
      </trkpt>
      <trkpt lat="46.49531" lon="5.29209">
        <ele>208</ele>
        <time>2022-06-25T04:58:48Z</time>
      </trkpt>
      <trkpt lat="46.49544" lon="5.29184">
        <ele>206.4</ele>
        <time>2022-06-25T04:58:50Z</time>
      </trkpt>
      <trkpt lat="46.4955" lon="5.29171">
        <ele>205.2</ele>
        <time>2022-06-25T04:58:51Z</time>
      </trkpt>
      <trkpt lat="46.49555" lon="5.29157">
        <ele>204.6</ele>
        <time>2022-06-25T04:58:52Z</time>
      </trkpt>
      <trkpt lat="46.49564" lon="5.29129">
        <ele>203.2</ele>
        <time>2022-06-25T04:58:54Z</time>
      </trkpt>
      <trkpt lat="46.4957" lon="5.29099">
        <ele>201.8</ele>
        <time>2022-06-25T04:58:56Z</time>
      </trkpt>
      <trkpt lat="46.49576" lon="5.29068">
        <ele>200.6</ele>
        <time>2022-06-25T04:58:58Z</time>
      </trkpt>
      <trkpt lat="46.49586" lon="5.29017">
        <ele>199.4</ele>
        <time>2022-06-25T04:59:01Z</time>
      </trkpt>
      <trkpt lat="46.49592" lon="5.28985">
        <ele>198.2</ele>
        <time>2022-06-25T04:59:03Z</time>
      </trkpt>
      <trkpt lat="46.49597" lon="5.28957">
        <ele>197</ele>
        <time>2022-06-25T04:59:05Z</time>
      </trkpt>
      <trkpt lat="46.49603" lon="5.28922">
        <ele>195.8</ele>
        <time>2022-06-25T04:59:07Z</time>
      </trkpt>
      <trkpt lat="46.49611" lon="5.28877">
        <ele>194.2</ele>
        <time>2022-06-25T04:59:10Z</time>
      </trkpt>
      <trkpt lat="46.49619" lon="5.28835">
        <ele>193</ele>
        <time>2022-06-25T04:59:13Z</time>
      </trkpt>
      <trkpt lat="46.49623" lon="5.28808">
        <ele>192</ele>
        <time>2022-06-25T04:59:15Z</time>
      </trkpt>
      <trkpt lat="46.49628" lon="5.28782">
        <ele>191.4</ele>
        <time>2022-06-25T04:59:17Z</time>
      </trkpt>
      <trkpt lat="46.49643" lon="5.2871">
        <ele>191</ele>
        <time>2022-06-25T04:59:23Z</time>
      </trkpt>
      <trkpt lat="46.49645" lon="5.28699">
        <ele>191</ele>
        <time>2022-06-25T04:59:24Z</time>
      </trkpt>
      <trkpt lat="46.49665" lon="5.28624">
        <ele>190.8</ele>
        <time>2022-06-25T04:59:31Z</time>
      </trkpt>
      <trkpt lat="46.49677" lon="5.28565">
        <ele>191</ele>
        <time>2022-06-25T04:59:37Z</time>
      </trkpt>
      <trkpt lat="46.49692" lon="5.28488">
        <ele>191.8</ele>
        <time>2022-06-25T04:59:45Z</time>
      </trkpt>
      <trkpt lat="46.49694" lon="5.28478">
        <ele>191.8</ele>
        <time>2022-06-25T04:59:46Z</time>
      </trkpt>
      <trkpt lat="46.49705" lon="5.28392">
        <ele>191.4</ele>
        <time>2022-06-25T04:59:54Z</time>
      </trkpt>
      <trkpt lat="46.49726" lon="5.28316">
        <ele>191.4</ele>
        <time>2022-06-25T05:00:02Z</time>
      </trkpt>
      <trkpt lat="46.49744" lon="5.28239">
        <ele>191.4</ele>
        <time>2022-06-25T05:00:10Z</time>
      </trkpt>
      <trkpt lat="46.49757" lon="5.28157">
        <ele>191.4</ele>
        <time>2022-06-25T05:00:18Z</time>
      </trkpt>
      <trkpt lat="46.4976" lon="5.28138">
        <ele>191.2</ele>
        <time>2022-06-25T05:00:20Z</time>
      </trkpt>
      <trkpt lat="46.49769" lon="5.2806">
        <ele>191</ele>
        <time>2022-06-25T05:00:28Z</time>
      </trkpt>
      <trkpt lat="46.49767" lon="5.27977">
        <ele>191.4</ele>
        <time>2022-06-25T05:00:37Z</time>
      </trkpt>
      <trkpt lat="46.49765" lon="5.27899">
        <ele>191.8</ele>
        <time>2022-06-25T05:00:46Z</time>
      </trkpt>
      <trkpt lat="46.49765" lon="5.27874">
        <ele>192.2</ele>
        <time>2022-06-25T05:00:49Z</time>
      </trkpt>
      <trkpt lat="46.49761" lon="5.27831">
        <ele>192.6</ele>
        <time>2022-06-25T05:00:54Z</time>
      </trkpt>
      <trkpt lat="46.49751" lon="5.27775">
        <ele>193.4</ele>
        <time>2022-06-25T05:01:01Z</time>
      </trkpt>
      <trkpt lat="46.4975" lon="5.27768">
        <ele>193.6</ele>
        <time>2022-06-25T05:01:02Z</time>
      </trkpt>
      <trkpt lat="46.49746" lon="5.27745">
        <ele>193.8</ele>
        <time>2022-06-25T05:01:05Z</time>
      </trkpt>
      <trkpt lat="46.49743" lon="5.27722">
        <ele>193.8</ele>
        <time>2022-06-25T05:01:08Z</time>
      </trkpt>
      <trkpt lat="46.4974" lon="5.2771">
        <ele>194.4</ele>
        <time>2022-06-25T05:01:10Z</time>
      </trkpt>
      <trkpt lat="46.49734" lon="5.27675">
        <ele>195.4</ele>
        <time>2022-06-25T05:01:15Z</time>
      </trkpt>
      <trkpt lat="46.49733" lon="5.27668">
        <ele>195.6</ele>
        <time>2022-06-25T05:01:16Z</time>
      </trkpt>
      <trkpt lat="46.49727" lon="5.2763">
        <ele>196.8</ele>
        <time>2022-06-25T05:01:22Z</time>
      </trkpt>
      <trkpt lat="46.49727" lon="5.27624">
        <ele>197</ele>
        <time>2022-06-25T05:01:23Z</time>
      </trkpt>
      <trkpt lat="46.49725" lon="5.27594">
        <ele>197.8</ele>
        <time>2022-06-25T05:01:28Z</time>
      </trkpt>
      <trkpt lat="46.49726" lon="5.27576">
        <ele>198.2</ele>
        <time>2022-06-25T05:01:31Z</time>
      </trkpt>
      <trkpt lat="46.49726" lon="5.27547">
        <ele>199</ele>
        <time>2022-06-25T05:01:36Z</time>
      </trkpt>
      <trkpt lat="46.49727" lon="5.27524">
        <ele>199.8</ele>
        <time>2022-06-25T05:01:40Z</time>
      </trkpt>
      <trkpt lat="46.49727" lon="5.27513">
        <ele>200</ele>
        <time>2022-06-25T05:01:42Z</time>
      </trkpt>
      <trkpt lat="46.49728" lon="5.2748">
        <ele>201</ele>
        <time>2022-06-25T05:01:48Z</time>
      </trkpt>
      <trkpt lat="46.49728" lon="5.27475">
        <ele>201.4</ele>
        <time>2022-06-25T05:01:49Z</time>
      </trkpt>
      <trkpt lat="46.49726" lon="5.27447">
        <ele>202.4</ele>
        <time>2022-06-25T05:01:54Z</time>
      </trkpt>
      <trkpt lat="46.49724" lon="5.27439">
        <ele>203.2</ele>
        <time>2022-06-25T05:01:56Z</time>
      </trkpt>
      <trkpt lat="46.49721" lon="5.27428">
        <ele>203.6</ele>
        <time>2022-06-25T05:01:58Z</time>
      </trkpt>
      <trkpt lat="46.49709" lon="5.27395">
        <ele>204.4</ele>
        <time>2022-06-25T05:02:04Z</time>
      </trkpt>
      <trkpt lat="46.49705" lon="5.27386">
        <ele>204.8</ele>
        <time>2022-06-25T05:02:06Z</time>
      </trkpt>
      <trkpt lat="46.49694" lon="5.27363">
        <ele>205.6</ele>
        <time>2022-06-25T05:02:11Z</time>
      </trkpt>
      <trkpt lat="46.49686" lon="5.27346">
        <ele>206.8</ele>
        <time>2022-06-25T05:02:15Z</time>
      </trkpt>
      <trkpt lat="46.4968" lon="5.27333">
        <ele>207.2</ele>
        <time>2022-06-25T05:02:18Z</time>
      </trkpt>
      <trkpt lat="46.49673" lon="5.2732">
        <ele>208</ele>
        <time>2022-06-25T05:02:21Z</time>
      </trkpt>
      <trkpt lat="46.4966" lon="5.27295">
        <ele>209</ele>
        <time>2022-06-25T05:02:27Z</time>
      </trkpt>
      <trkpt lat="46.4965" lon="5.27268">
        <ele>210.2</ele>
        <time>2022-06-25T05:02:32Z</time>
      </trkpt>
      <trkpt lat="46.49646" lon="5.27255">
        <ele>211</ele>
        <time>2022-06-25T05:02:36Z</time>
      </trkpt>
      <trkpt lat="46.49643" lon="5.27246">
        <ele>211.4</ele>
        <time>2022-06-25T05:02:38Z</time>
      </trkpt>
      <trkpt lat="46.49639" lon="5.27218">
        <ele>212.4</ele>
        <time>2022-06-25T05:02:43Z</time>
      </trkpt>
      <trkpt lat="46.49638" lon="5.27208">
        <ele>212.8</ele>
        <time>2022-06-25T05:02:45Z</time>
      </trkpt>
      <trkpt lat="46.49638" lon="5.27188">
        <ele>213.6</ele>
        <time>2022-06-25T05:02:49Z</time>
      </trkpt>
      <trkpt lat="46.49639" lon="5.27161">
        <ele>214.4</ele>
        <time>2022-06-25T05:02:54Z</time>
      </trkpt>
      <trkpt lat="46.49639" lon="5.27161">
        <ele>214.6</ele>
        <time>2022-06-25T05:02:55Z</time>
      </trkpt>
      <trkpt lat="46.49648" lon="5.27116">
        <ele>215.8</ele>
        <time>2022-06-25T05:03:02Z</time>
      </trkpt>
      <trkpt lat="46.49656" lon="5.27089">
        <ele>216.4</ele>
        <time>2022-06-25T05:03:07Z</time>
      </trkpt>
      <trkpt lat="46.49675" lon="5.27026">
        <ele>216.8</ele>
        <time>2022-06-25T05:03:14Z</time>
      </trkpt>
      <trkpt lat="46.49689" lon="5.26983">
        <ele>216.4</ele>
        <time>2022-06-25T05:03:19Z</time>
      </trkpt>
      <trkpt lat="46.49701" lon="5.26942">
        <ele>216.2</ele>
        <time>2022-06-25T05:03:23Z</time>
      </trkpt>
      <trkpt lat="46.49704" lon="5.26934">
        <ele>216</ele>
        <time>2022-06-25T05:03:24Z</time>
      </trkpt>
      <trkpt lat="46.49707" lon="5.26923">
        <ele>215.8</ele>
        <time>2022-06-25T05:03:25Z</time>
      </trkpt>
      <trkpt lat="46.49716" lon="5.26896">
        <ele>215.2</ele>
        <time>2022-06-25T05:03:27Z</time>
      </trkpt>
      <trkpt lat="46.49722" lon="5.26874">
        <ele>214.6</ele>
        <time>2022-06-25T05:03:29Z</time>
      </trkpt>
      <trkpt lat="46.49729" lon="5.2685">
        <ele>214</ele>
        <time>2022-06-25T05:03:31Z</time>
      </trkpt>
      <trkpt lat="46.49739" lon="5.26797">
        <ele>213.8</ele>
        <time>2022-06-25T05:03:36Z</time>
      </trkpt>
      <trkpt lat="46.49741" lon="5.26738">
        <ele>214.2</ele>
        <time>2022-06-25T05:03:42Z</time>
      </trkpt>
      <trkpt lat="46.49733" lon="5.26677">
        <ele>214.4</ele>
        <time>2022-06-25T05:03:48Z</time>
      </trkpt>
      <trkpt lat="46.49714" lon="5.26614">
        <ele>214</ele>
        <time>2022-06-25T05:03:54Z</time>
      </trkpt>
      <trkpt lat="46.49701" lon="5.26579">
        <ele>213.4</ele>
        <time>2022-06-25T05:03:57Z</time>
      </trkpt>
      <trkpt lat="46.49687" lon="5.26545">
        <ele>212</ele>
        <time>2022-06-25T05:04:00Z</time>
      </trkpt>
      <trkpt lat="46.49666" lon="5.26495">
        <ele>210.8</ele>
        <time>2022-06-25T05:04:04Z</time>
      </trkpt>
      <trkpt lat="46.49655" lon="5.26465">
        <ele>209.8</ele>
        <time>2022-06-25T05:04:06Z</time>
      </trkpt>
      <trkpt lat="46.4965" lon="5.26451">
        <ele>209.2</ele>
        <time>2022-06-25T05:04:07Z</time>
      </trkpt>
      <trkpt lat="46.49643" lon="5.26424">
        <ele>208.2</ele>
        <time>2022-06-25T05:04:09Z</time>
      </trkpt>
      <trkpt lat="46.4964" lon="5.26406">
        <ele>208</ele>
        <time>2022-06-25T05:04:10Z</time>
      </trkpt>
      <trkpt lat="46.49636" lon="5.26374">
        <ele>207</ele>
        <time>2022-06-25T05:04:12Z</time>
      </trkpt>
      <trkpt lat="46.49635" lon="5.26361">
        <ele>205.8</ele>
        <time>2022-06-25T05:04:13Z</time>
      </trkpt>
      <trkpt lat="46.49632" lon="5.26323">
        <ele>204.6</ele>
        <time>2022-06-25T05:04:15Z</time>
      </trkpt>
      <trkpt lat="46.49628" lon="5.26278">
        <ele>203.2</ele>
        <time>2022-06-25T05:04:18Z</time>
      </trkpt>
      <trkpt lat="46.49626" lon="5.26243">
        <ele>202</ele>
        <time>2022-06-25T05:04:20Z</time>
      </trkpt>
      <trkpt lat="46.49625" lon="5.26216">
        <ele>200.8</ele>
        <time>2022-06-25T05:04:22Z</time>
      </trkpt>
      <trkpt lat="46.49623" lon="5.26184">
        <ele>199.6</ele>
        <time>2022-06-25T05:04:24Z</time>
      </trkpt>
      <trkpt lat="46.49621" lon="5.2617">
        <ele>199.2</ele>
        <time>2022-06-25T05:04:25Z</time>
      </trkpt>
      <trkpt lat="46.49614" lon="5.26131">
        <ele>198.8</ele>
        <time>2022-06-25T05:04:28Z</time>
      </trkpt>
      <trkpt lat="46.49608" lon="5.2611">
        <ele>198.8</ele>
        <time>2022-06-25T05:04:30Z</time>
      </trkpt>
      <trkpt lat="46.49599" lon="5.26086">
        <ele>198.6</ele>
        <time>2022-06-25T05:04:32Z</time>
      </trkpt>
      <trkpt lat="46.4959" lon="5.26068">
        <ele>198.6</ele>
        <time>2022-06-25T05:04:34Z</time>
      </trkpt>
      <trkpt lat="46.49575" lon="5.26042">
        <ele>198.6</ele>
        <time>2022-06-25T05:04:37Z</time>
      </trkpt>
      <trkpt lat="46.49559" lon="5.26021">
        <ele>198.6</ele>
        <time>2022-06-25T05:04:40Z</time>
      </trkpt>
      <trkpt lat="46.4951" lon="5.25969">
        <ele>198.8</ele>
        <time>2022-06-25T05:04:48Z</time>
      </trkpt>
      <trkpt lat="46.49504" lon="5.25963">
        <ele>198.8</ele>
        <time>2022-06-25T05:04:49Z</time>
      </trkpt>
      <trkpt lat="46.49455" lon="5.25913">
        <ele>198.6</ele>
        <time>2022-06-25T05:04:57Z</time>
      </trkpt>
      <trkpt lat="46.49405" lon="5.25864">
        <ele>198.4</ele>
        <time>2022-06-25T05:05:05Z</time>
      </trkpt>
      <trkpt lat="46.49401" lon="5.25859">
        <ele>198.4</ele>
        <time>2022-06-25T05:05:06Z</time>
      </trkpt>
      <trkpt lat="46.49351" lon="5.25812">
        <ele>198.2</ele>
        <time>2022-06-25T05:05:14Z</time>
      </trkpt>
      <trkpt lat="46.49345" lon="5.25806">
        <ele>198.2</ele>
        <time>2022-06-25T05:05:15Z</time>
      </trkpt>
      <trkpt lat="46.49299" lon="5.25758">
        <ele>198.4</ele>
        <time>2022-06-25T05:05:23Z</time>
      </trkpt>
      <trkpt lat="46.49259" lon="5.25718">
        <ele>198.4</ele>
        <time>2022-06-25T05:05:30Z</time>
      </trkpt>
      <trkpt lat="46.49216" lon="5.25678">
        <ele>198.4</ele>
        <time>2022-06-25T05:05:37Z</time>
      </trkpt>
      <trkpt lat="46.49182" lon="5.25645">
        <ele>198.4</ele>
        <time>2022-06-25T05:05:43Z</time>
      </trkpt>
      <trkpt lat="46.49137" lon="5.25602">
        <ele>198.6</ele>
        <time>2022-06-25T05:05:51Z</time>
      </trkpt>
      <trkpt lat="46.49131" lon="5.25596">
        <ele>198.6</ele>
        <time>2022-06-25T05:05:52Z</time>
      </trkpt>
      <trkpt lat="46.491" lon="5.25568">
        <ele>199.2</ele>
        <time>2022-06-25T05:05:58Z</time>
      </trkpt>
      <trkpt lat="46.4909" lon="5.25558">
        <ele>199.4</ele>
        <time>2022-06-25T05:06:00Z</time>
      </trkpt>
      <trkpt lat="46.49086" lon="5.25553">
        <ele>199.6</ele>
        <time>2022-06-25T05:06:01Z</time>
      </trkpt>
      <trkpt lat="46.49078" lon="5.25539">
        <ele>199.6</ele>
        <time>2022-06-25T05:06:03Z</time>
      </trkpt>
      <trkpt lat="46.49076" lon="5.25534">
        <ele>199.8</ele>
        <time>2022-06-25T05:06:04Z</time>
      </trkpt>
      <trkpt lat="46.49066" lon="5.25505">
        <ele>200.4</ele>
        <time>2022-06-25T05:06:08Z</time>
      </trkpt>
      <trkpt lat="46.49065" lon="5.25499">
        <ele>200.8</ele>
        <time>2022-06-25T05:06:09Z</time>
      </trkpt>
      <trkpt lat="46.49063" lon="5.25491">
        <ele>200.8</ele>
        <time>2022-06-25T05:06:10Z</time>
      </trkpt>
      <trkpt lat="46.4906" lon="5.25464">
        <ele>201.4</ele>
        <time>2022-06-25T05:06:14Z</time>
      </trkpt>
      <trkpt lat="46.4906" lon="5.25458">
        <ele>201.8</ele>
        <time>2022-06-25T05:06:15Z</time>
      </trkpt>
      <trkpt lat="46.49059" lon="5.25451">
        <ele>202</ele>
        <time>2022-06-25T05:06:16Z</time>
      </trkpt>
      <trkpt lat="46.49057" lon="5.25423">
        <ele>202.8</ele>
        <time>2022-06-25T05:06:20Z</time>
      </trkpt>
      <trkpt lat="46.49055" lon="5.25412">
        <ele>203.2</ele>
        <time>2022-06-25T05:06:22Z</time>
      </trkpt>
      <trkpt lat="46.49054" lon="5.25388">
        <ele>204</ele>
        <time>2022-06-25T05:06:25Z</time>
      </trkpt>
      <trkpt lat="46.49052" lon="5.25373">
        <ele>204.4</ele>
        <time>2022-06-25T05:06:27Z</time>
      </trkpt>
      <trkpt lat="46.49049" lon="5.25348">
        <ele>205</ele>
        <time>2022-06-25T05:06:30Z</time>
      </trkpt>
      <trkpt lat="46.49049" lon="5.25339">
        <ele>205.2</ele>
        <time>2022-06-25T05:06:31Z</time>
      </trkpt>
      <trkpt lat="46.49046" lon="5.25322">
        <ele>205.6</ele>
        <time>2022-06-25T05:06:33Z</time>
      </trkpt>
      <trkpt lat="46.49045" lon="5.25304">
        <ele>206</ele>
        <time>2022-06-25T05:06:35Z</time>
      </trkpt>
      <trkpt lat="46.49043" lon="5.25295">
        <ele>206</ele>
        <time>2022-06-25T05:06:36Z</time>
      </trkpt>
      <trkpt lat="46.49039" lon="5.25274">
        <ele>206</ele>
        <time>2022-06-25T05:06:38Z</time>
      </trkpt>
      <trkpt lat="46.49032" lon="5.2521">
        <ele>205.8</ele>
        <time>2022-06-25T05:06:44Z</time>
      </trkpt>
      <trkpt lat="46.49028" lon="5.25178">
        <ele>204.6</ele>
        <time>2022-06-25T05:06:47Z</time>
      </trkpt>
      <trkpt lat="46.4902" lon="5.25116">
        <ele>204</ele>
        <time>2022-06-25T05:06:53Z</time>
      </trkpt>
      <trkpt lat="46.49014" lon="5.25071">
        <ele>204.2</ele>
        <time>2022-06-25T05:06:58Z</time>
      </trkpt>
      <trkpt lat="46.49009" lon="5.25031">
        <ele>204.6</ele>
        <time>2022-06-25T05:07:03Z</time>
      </trkpt>
      <trkpt lat="46.49005" lon="5.24996">
        <ele>205.6</ele>
        <time>2022-06-25T05:07:08Z</time>
      </trkpt>
      <trkpt lat="46.49004" lon="5.2499">
        <ele>205.8</ele>
        <time>2022-06-25T05:07:09Z</time>
      </trkpt>
      <trkpt lat="46.48999" lon="5.24958">
        <ele>206.6</ele>
        <time>2022-06-25T05:07:14Z</time>
      </trkpt>
      <trkpt lat="46.48995" lon="5.24941">
        <ele>207</ele>
        <time>2022-06-25T05:07:17Z</time>
      </trkpt>
      <trkpt lat="46.48989" lon="5.24922">
        <ele>207.8</ele>
        <time>2022-06-25T05:07:20Z</time>
      </trkpt>
      <trkpt lat="46.48975" lon="5.24892">
        <ele>208.4</ele>
        <time>2022-06-25T05:07:25Z</time>
      </trkpt>
      <trkpt lat="46.48968" lon="5.24882">
        <ele>209</ele>
        <time>2022-06-25T05:07:27Z</time>
      </trkpt>
      <trkpt lat="46.48949" lon="5.24858">
        <ele>210.2</ele>
        <time>2022-06-25T05:07:33Z</time>
      </trkpt>
      <trkpt lat="46.48941" lon="5.24849">
        <ele>210.4</ele>
        <time>2022-06-25T05:07:34Z</time>
      </trkpt>
      <trkpt lat="46.48916" lon="5.24819">
        <ele>211.4</ele>
        <time>2022-06-25T05:07:40Z</time>
      </trkpt>
      <trkpt lat="46.48912" lon="5.24814">
        <ele>211.6</ele>
        <time>2022-06-25T05:07:41Z</time>
      </trkpt>
      <trkpt lat="46.4887" lon="5.24761">
        <ele>212.2</ele>
        <time>2022-06-25T05:07:51Z</time>
      </trkpt>
      <trkpt lat="46.48856" lon="5.24745">
        <ele>212.4</ele>
        <time>2022-06-25T05:07:54Z</time>
      </trkpt>
      <trkpt lat="46.48827" lon="5.24714">
        <ele>212.6</ele>
        <time>2022-06-25T05:08:00Z</time>
      </trkpt>
      <trkpt lat="46.48793" lon="5.24681">
        <ele>213</ele>
        <time>2022-06-25T05:08:07Z</time>
      </trkpt>
      <trkpt lat="46.48769" lon="5.24657">
        <ele>213</ele>
        <time>2022-06-25T05:08:12Z</time>
      </trkpt>
      <trkpt lat="46.48766" lon="5.24651">
        <ele>213</ele>
        <time>2022-06-25T05:08:13Z</time>
      </trkpt>
      <trkpt lat="46.48764" lon="5.24644">
        <ele>213</ele>
        <time>2022-06-25T05:08:14Z</time>
      </trkpt>
      <trkpt lat="46.48756" lon="5.24635">
        <ele>213</ele>
        <time>2022-06-25T05:08:16Z</time>
      </trkpt>
      <trkpt lat="46.48738" lon="5.24627">
        <ele>213</ele>
        <time>2022-06-25T05:08:19Z</time>
      </trkpt>
      <trkpt lat="46.48732" lon="5.24626">
        <ele>213</ele>
        <time>2022-06-25T05:08:20Z</time>
      </trkpt>
      <trkpt lat="46.48686" lon="5.24607">
        <ele>212.4</ele>
        <time>2022-06-25T05:08:26Z</time>
      </trkpt>
      <trkpt lat="46.48633" lon="5.24579">
        <ele>212</ele>
        <time>2022-06-25T05:08:34Z</time>
      </trkpt>
      <trkpt lat="46.48594" lon="5.24558">
        <ele>212.4</ele>
        <time>2022-06-25T05:08:40Z</time>
      </trkpt>
      <trkpt lat="46.4856" lon="5.24525">
        <ele>213</ele>
        <time>2022-06-25T05:08:46Z</time>
      </trkpt>
      <trkpt lat="46.48518" lon="5.24474">
        <ele>213</ele>
        <time>2022-06-25T05:08:53Z</time>
      </trkpt>
      <trkpt lat="46.48474" lon="5.2442">
        <ele>212</ele>
        <time>2022-06-25T05:09:00Z</time>
      </trkpt>
      <trkpt lat="46.48468" lon="5.24412">
        <ele>211.8</ele>
        <time>2022-06-25T05:09:01Z</time>
      </trkpt>
      <trkpt lat="46.48453" lon="5.24394">
        <ele>211.4</ele>
        <time>2022-06-25T05:09:03Z</time>
      </trkpt>
      <trkpt lat="46.4842" lon="5.24361">
        <ele>210.6</ele>
        <time>2022-06-25T05:09:08Z</time>
      </trkpt>
      <trkpt lat="46.48392" lon="5.24344">
        <ele>210.6</ele>
        <time>2022-06-25T05:09:12Z</time>
      </trkpt>
      <trkpt lat="46.48362" lon="5.24332">
        <ele>211</ele>
        <time>2022-06-25T05:09:17Z</time>
      </trkpt>
      <trkpt lat="46.48351" lon="5.24326">
        <ele>211.6</ele>
        <time>2022-06-25T05:09:19Z</time>
      </trkpt>
      <trkpt lat="46.48343" lon="5.24317">
        <ele>211.8</ele>
        <time>2022-06-25T05:09:21Z</time>
      </trkpt>
      <trkpt lat="46.48331" lon="5.24301">
        <ele>212.4</ele>
        <time>2022-06-25T05:09:24Z</time>
      </trkpt>
      <trkpt lat="46.48319" lon="5.24286">
        <ele>213.8</ele>
        <time>2022-06-25T05:09:27Z</time>
      </trkpt>
      <trkpt lat="46.48313" lon="5.24281">
        <ele>214</ele>
        <time>2022-06-25T05:09:28Z</time>
      </trkpt>
      <trkpt lat="46.48297" lon="5.24272">
        <ele>214.6</ele>
        <time>2022-06-25T05:09:31Z</time>
      </trkpt>
      <trkpt lat="46.48273" lon="5.24265">
        <ele>214.8</ele>
        <time>2022-06-25T05:09:35Z</time>
      </trkpt>
      <trkpt lat="46.48254" lon="5.2426">
        <ele>215.2</ele>
        <time>2022-06-25T05:09:38Z</time>
      </trkpt>
      <trkpt lat="46.4822" lon="5.24251">
        <ele>215.8</ele>
        <time>2022-06-25T05:09:44Z</time>
      </trkpt>
      <trkpt lat="46.48207" lon="5.24251">
        <ele>216</ele>
        <time>2022-06-25T05:09:46Z</time>
      </trkpt>
      <trkpt lat="46.48196" lon="5.24254">
        <ele>216</ele>
        <time>2022-06-25T05:09:48Z</time>
      </trkpt>
      <trkpt lat="46.48185" lon="5.24262">
        <ele>216.2</ele>
        <time>2022-06-25T05:09:50Z</time>
      </trkpt>
      <trkpt lat="46.48144" lon="5.24314">
        <ele>216</ele>
        <time>2022-06-25T05:09:58Z</time>
      </trkpt>
      <trkpt lat="46.48133" lon="5.24325">
        <ele>215.8</ele>
        <time>2022-06-25T05:10:00Z</time>
      </trkpt>
      <trkpt lat="46.48119" lon="5.24329">
        <ele>215.6</ele>
        <time>2022-06-25T05:10:02Z</time>
      </trkpt>
      <trkpt lat="46.48111" lon="5.24329">
        <ele>215</ele>
        <time>2022-06-25T05:10:03Z</time>
      </trkpt>
      <trkpt lat="46.48103" lon="5.24326">
        <ele>214.8</ele>
        <time>2022-06-25T05:10:04Z</time>
      </trkpt>
      <trkpt lat="46.48095" lon="5.24321">
        <ele>214.6</ele>
        <time>2022-06-25T05:10:05Z</time>
      </trkpt>
      <trkpt lat="46.48081" lon="5.24305">
        <ele>214</ele>
        <time>2022-06-25T05:10:07Z</time>
      </trkpt>
      <trkpt lat="46.48076" lon="5.24297">
        <ele>213.6</ele>
        <time>2022-06-25T05:10:08Z</time>
      </trkpt>
      <trkpt lat="46.48053" lon="5.24262">
        <ele>212</ele>
        <time>2022-06-25T05:10:12Z</time>
      </trkpt>
      <trkpt lat="46.48057" lon="5.24232">
        <ele>210.8</ele>
        <time>2022-06-25T05:10:14Z</time>
      </trkpt>
      <trkpt lat="46.48072" lon="5.24199">
        <ele>209.8</ele>
        <time>2022-06-25T05:10:16Z</time>
      </trkpt>
      <trkpt lat="46.4808" lon="5.24183">
        <ele>208.8</ele>
        <time>2022-06-25T05:10:17Z</time>
      </trkpt>
      <trkpt lat="46.48094" lon="5.24151">
        <ele>207.6</ele>
        <time>2022-06-25T05:10:19Z</time>
      </trkpt>
      <trkpt lat="46.4811" lon="5.24116">
        <ele>206.6</ele>
        <time>2022-06-25T05:10:21Z</time>
      </trkpt>
      <trkpt lat="46.48123" lon="5.24088">
        <ele>205.6</ele>
        <time>2022-06-25T05:10:23Z</time>
      </trkpt>
      <trkpt lat="46.4813" lon="5.24072">
        <ele>204.8</ele>
        <time>2022-06-25T05:10:24Z</time>
      </trkpt>
      <trkpt lat="46.48144" lon="5.2404">
        <ele>203.6</ele>
        <time>2022-06-25T05:10:26Z</time>
      </trkpt>
      <trkpt lat="46.48158" lon="5.24009">
        <ele>202</ele>
        <time>2022-06-25T05:10:28Z</time>
      </trkpt>
      <trkpt lat="46.48165" lon="5.23994">
        <ele>201.4</ele>
        <time>2022-06-25T05:10:29Z</time>
      </trkpt>
      <trkpt lat="46.48172" lon="5.23978">
        <ele>200.8</ele>
        <time>2022-06-25T05:10:30Z</time>
      </trkpt>
      <trkpt lat="46.48183" lon="5.23946">
        <ele>199.6</ele>
        <time>2022-06-25T05:10:32Z</time>
      </trkpt>
      <trkpt lat="46.48189" lon="5.23913">
        <ele>198.4</ele>
        <time>2022-06-25T05:10:34Z</time>
      </trkpt>
      <trkpt lat="46.48187" lon="5.23878">
        <ele>196.6</ele>
        <time>2022-06-25T05:10:36Z</time>
      </trkpt>
      <trkpt lat="46.48184" lon="5.23866">
        <ele>196.2</ele>
        <time>2022-06-25T05:10:37Z</time>
      </trkpt>
      <trkpt lat="46.4818" lon="5.23853">
        <ele>195.4</ele>
        <time>2022-06-25T05:10:38Z</time>
      </trkpt>
      <trkpt lat="46.48168" lon="5.2383">
        <ele>194.8</ele>
        <time>2022-06-25T05:10:40Z</time>
      </trkpt>
      <trkpt lat="46.48152" lon="5.23811">
        <ele>194.2</ele>
        <time>2022-06-25T05:10:42Z</time>
      </trkpt>
      <trkpt lat="46.48137" lon="5.23794">
        <ele>194</ele>
        <time>2022-06-25T05:10:44Z</time>
      </trkpt>
      <trkpt lat="46.4811" lon="5.23757">
        <ele>193.2</ele>
        <time>2022-06-25T05:10:48Z</time>
      </trkpt>
      <trkpt lat="46.48098" lon="5.23737">
        <ele>193</ele>
        <time>2022-06-25T05:10:50Z</time>
      </trkpt>
      <trkpt lat="46.48076" lon="5.23681">
        <ele>192.6</ele>
        <time>2022-06-25T05:10:55Z</time>
      </trkpt>
      <trkpt lat="46.48063" lon="5.23608">
        <ele>192.4</ele>
        <time>2022-06-25T05:11:01Z</time>
      </trkpt>
      <trkpt lat="46.48062" lon="5.23595">
        <ele>192.4</ele>
        <time>2022-06-25T05:11:02Z</time>
      </trkpt>
      <trkpt lat="46.48061" lon="5.23523">
        <ele>191.6</ele>
        <time>2022-06-25T05:11:08Z</time>
      </trkpt>
      <trkpt lat="46.4806" lon="5.23501">
        <ele>191.2</ele>
        <time>2022-06-25T05:11:10Z</time>
      </trkpt>
      <trkpt lat="46.48058" lon="5.23424">
        <ele>191.4</ele>
        <time>2022-06-25T05:11:17Z</time>
      </trkpt>
      <trkpt lat="46.48057" lon="5.2336">
        <ele>191.8</ele>
        <time>2022-06-25T05:11:23Z</time>
      </trkpt>
      <trkpt lat="46.48055" lon="5.23278">
        <ele>192</ele>
        <time>2022-06-25T05:11:31Z</time>
      </trkpt>
      <trkpt lat="46.48053" lon="5.23208">
        <ele>192.4</ele>
        <time>2022-06-25T05:11:38Z</time>
      </trkpt>
      <trkpt lat="46.48053" lon="5.23199">
        <ele>192.4</ele>
        <time>2022-06-25T05:11:39Z</time>
      </trkpt>
      <trkpt lat="46.48052" lon="5.23145">
        <ele>192.8</ele>
        <time>2022-06-25T05:11:45Z</time>
      </trkpt>
      <trkpt lat="46.48051" lon="5.23106">
        <ele>193.4</ele>
        <time>2022-06-25T05:11:50Z</time>
      </trkpt>
      <trkpt lat="46.48051" lon="5.23091">
        <ele>193.8</ele>
        <time>2022-06-25T05:11:52Z</time>
      </trkpt>
      <trkpt lat="46.4805" lon="5.23062">
        <ele>194.6</ele>
        <time>2022-06-25T05:11:56Z</time>
      </trkpt>
      <trkpt lat="46.4805" lon="5.23024">
        <ele>195.4</ele>
        <time>2022-06-25T05:12:01Z</time>
      </trkpt>
      <trkpt lat="46.4805" lon="5.23002">
        <ele>195.6</ele>
        <time>2022-06-25T05:12:04Z</time>
      </trkpt>
      <trkpt lat="46.48048" lon="5.22963">
        <ele>196.6</ele>
        <time>2022-06-25T05:12:09Z</time>
      </trkpt>
      <trkpt lat="46.48046" lon="5.22948">
        <ele>197</ele>
        <time>2022-06-25T05:12:11Z</time>
      </trkpt>
      <trkpt lat="46.48038" lon="5.22913">
        <ele>197.8</ele>
        <time>2022-06-25T05:12:16Z</time>
      </trkpt>
      <trkpt lat="46.48036" lon="5.22906">
        <ele>198</ele>
        <time>2022-06-25T05:12:17Z</time>
      </trkpt>
      <trkpt lat="46.48032" lon="5.22892">
        <ele>198.2</ele>
        <time>2022-06-25T05:12:19Z</time>
      </trkpt>
      <trkpt lat="46.48024" lon="5.22872">
        <ele>198.8</ele>
        <time>2022-06-25T05:12:22Z</time>
      </trkpt>
      <trkpt lat="46.48015" lon="5.22846">
        <ele>200</ele>
        <time>2022-06-25T05:12:26Z</time>
      </trkpt>
      <trkpt lat="46.48012" lon="5.22839">
        <ele>200.2</ele>
        <time>2022-06-25T05:12:27Z</time>
      </trkpt>
      <trkpt lat="46.48002" lon="5.22812">
        <ele>201</ele>
        <time>2022-06-25T05:12:31Z</time>
      </trkpt>
      <trkpt lat="46.47992" lon="5.22787">
        <ele>201.4</ele>
        <time>2022-06-25T05:12:35Z</time>
      </trkpt>
      <trkpt lat="46.4798" lon="5.22755">
        <ele>202.2</ele>
        <time>2022-06-25T05:12:40Z</time>
      </trkpt>
      <trkpt lat="46.47971" lon="5.22738">
        <ele>202.4</ele>
        <time>2022-06-25T05:12:43Z</time>
      </trkpt>
      <trkpt lat="46.47945" lon="5.22704">
        <ele>203.2</ele>
        <time>2022-06-25T05:12:50Z</time>
      </trkpt>
      <trkpt lat="46.47915" lon="5.22672">
        <ele>204.2</ele>
        <time>2022-06-25T05:12:59Z</time>
      </trkpt>
      <trkpt lat="46.47904" lon="5.22659">
        <ele>204.6</ele>
        <time>2022-06-25T05:13:01Z</time>
      </trkpt>
      <trkpt lat="46.47896" lon="5.22652">
        <ele>205.2</ele>
        <time>2022-06-25T05:13:03Z</time>
      </trkpt>
      <trkpt lat="46.47877" lon="5.22632">
        <ele>206.4</ele>
        <time>2022-06-25T05:13:08Z</time>
      </trkpt>
      <trkpt lat="46.47858" lon="5.22614">
        <ele>207.6</ele>
        <time>2022-06-25T05:13:13Z</time>
      </trkpt>
      <trkpt lat="46.47837" lon="5.22591">
        <ele>208.8</ele>
        <time>2022-06-25T05:13:19Z</time>
      </trkpt>
      <trkpt lat="46.47831" lon="5.22583">
        <ele>209.4</ele>
        <time>2022-06-25T05:13:21Z</time>
      </trkpt>
      <trkpt lat="46.47821" lon="5.2257">
        <ele>210</ele>
        <time>2022-06-25T05:13:24Z</time>
      </trkpt>
      <trkpt lat="46.4781" lon="5.22549">
        <ele>211</ele>
        <time>2022-06-25T05:13:28Z</time>
      </trkpt>
      <trkpt lat="46.47797" lon="5.22494">
        <ele>212.2</ele>
        <time>2022-06-25T05:13:36Z</time>
      </trkpt>
      <trkpt lat="46.47783" lon="5.22425">
        <ele>213</ele>
        <time>2022-06-25T05:13:45Z</time>
      </trkpt>
      <trkpt lat="46.4777" lon="5.22353">
        <ele>213</ele>
        <time>2022-06-25T05:13:53Z</time>
      </trkpt>
      <trkpt lat="46.47763" lon="5.2229">
        <ele>212.2</ele>
        <time>2022-06-25T05:13:59Z</time>
      </trkpt>
      <trkpt lat="46.47757" lon="5.2221">
        <ele>211.4</ele>
        <time>2022-06-25T05:14:06Z</time>
      </trkpt>
      <trkpt lat="46.47756" lon="5.22199">
        <ele>211.2</ele>
        <time>2022-06-25T05:14:07Z</time>
      </trkpt>
      <trkpt lat="46.47755" lon="5.22187">
        <ele>211</ele>
        <time>2022-06-25T05:14:08Z</time>
      </trkpt>
      <trkpt lat="46.47748" lon="5.22105">
        <ele>210.2</ele>
        <time>2022-06-25T05:14:15Z</time>
      </trkpt>
      <trkpt lat="46.47746" lon="5.22082">
        <ele>210</ele>
        <time>2022-06-25T05:14:17Z</time>
      </trkpt>
      <trkpt lat="46.47739" lon="5.22001">
        <ele>209.4</ele>
        <time>2022-06-25T05:14:24Z</time>
      </trkpt>
      <trkpt lat="46.47735" lon="5.21951">
        <ele>209.2</ele>
        <time>2022-06-25T05:14:28Z</time>
      </trkpt>
      <trkpt lat="46.47733" lon="5.2193">
        <ele>209</ele>
        <time>2022-06-25T05:14:30Z</time>
      </trkpt>
      <trkpt lat="46.47732" lon="5.21918">
        <ele>208.6</ele>
        <time>2022-06-25T05:14:31Z</time>
      </trkpt>
      <trkpt lat="46.47726" lon="5.21841">
        <ele>208.6</ele>
        <time>2022-06-25T05:14:38Z</time>
      </trkpt>
      <trkpt lat="46.47719" lon="5.21772">
        <ele>208.6</ele>
        <time>2022-06-25T05:14:45Z</time>
      </trkpt>
      <trkpt lat="46.47717" lon="5.21714">
        <ele>209.6</ele>
        <time>2022-06-25T05:14:51Z</time>
      </trkpt>
      <trkpt lat="46.47719" lon="5.21694">
        <ele>209.8</ele>
        <time>2022-06-25T05:14:53Z</time>
      </trkpt>
      <trkpt lat="46.47723" lon="5.21674">
        <ele>210</ele>
        <time>2022-06-25T05:14:55Z</time>
      </trkpt>
      <trkpt lat="46.47726" lon="5.21664">
        <ele>210.2</ele>
        <time>2022-06-25T05:14:56Z</time>
      </trkpt>
      <trkpt lat="46.47738" lon="5.21621">
        <ele>210</ele>
        <time>2022-06-25T05:15:00Z</time>
      </trkpt>
      <trkpt lat="46.47759" lon="5.2155">
        <ele>209.4</ele>
        <time>2022-06-25T05:15:06Z</time>
      </trkpt>
      <trkpt lat="46.47762" lon="5.21537">
        <ele>209</ele>
        <time>2022-06-25T05:15:07Z</time>
      </trkpt>
      <trkpt lat="46.4778" lon="5.21475">
        <ele>207.4</ele>
        <time>2022-06-25T05:15:12Z</time>
      </trkpt>
      <trkpt lat="46.47787" lon="5.21451">
        <ele>206.8</ele>
        <time>2022-06-25T05:15:14Z</time>
      </trkpt>
      <trkpt lat="46.47796" lon="5.21418">
        <ele>206.2</ele>
        <time>2022-06-25T05:15:17Z</time>
      </trkpt>
      <trkpt lat="46.47805" lon="5.21389">
        <ele>206.2</ele>
        <time>2022-06-25T05:15:20Z</time>
      </trkpt>
      <trkpt lat="46.47823" lon="5.21323">
        <ele>206.8</ele>
        <time>2022-06-25T05:15:27Z</time>
      </trkpt>
      <trkpt lat="46.47836" lon="5.21275">
        <ele>207.2</ele>
        <time>2022-06-25T05:15:32Z</time>
      </trkpt>
      <trkpt lat="46.47841" lon="5.21257">
        <ele>207.4</ele>
        <time>2022-06-25T05:15:34Z</time>
      </trkpt>
      <trkpt lat="46.47861" lon="5.21175">
        <ele>207.2</ele>
        <time>2022-06-25T05:15:41Z</time>
      </trkpt>
      <trkpt lat="46.47877" lon="5.21102">
        <ele>206.2</ele>
        <time>2022-06-25T05:15:47Z</time>
      </trkpt>
      <trkpt lat="46.47886" lon="5.21062">
        <ele>205.2</ele>
        <time>2022-06-25T05:15:50Z</time>
      </trkpt>
      <trkpt lat="46.47889" lon="5.21048">
        <ele>204.6</ele>
        <time>2022-06-25T05:15:51Z</time>
      </trkpt>
      <trkpt lat="46.47897" lon="5.21007">
        <ele>203</ele>
        <time>2022-06-25T05:15:54Z</time>
      </trkpt>
      <trkpt lat="46.4791" lon="5.20952">
        <ele>201.6</ele>
        <time>2022-06-25T05:15:58Z</time>
      </trkpt>
      <trkpt lat="46.47919" lon="5.20898">
        <ele>200.4</ele>
        <time>2022-06-25T05:16:02Z</time>
      </trkpt>
      <trkpt lat="46.47921" lon="5.20885">
        <ele>200</ele>
        <time>2022-06-25T05:16:03Z</time>
      </trkpt>
      <trkpt lat="46.47921" lon="5.20871">
        <ele>199.8</ele>
        <time>2022-06-25T05:16:04Z</time>
      </trkpt>
      <trkpt lat="46.47921" lon="5.20846">
        <ele>199.4</ele>
        <time>2022-06-25T05:16:06Z</time>
      </trkpt>
      <trkpt lat="46.47918" lon="5.20811">
        <ele>199</ele>
        <time>2022-06-25T05:16:09Z</time>
      </trkpt>
      <trkpt lat="46.47913" lon="5.20751">
        <ele>199.2</ele>
        <time>2022-06-25T05:16:15Z</time>
      </trkpt>
      <trkpt lat="46.4791" lon="5.20719">
        <ele>200.4</ele>
        <time>2022-06-25T05:16:19Z</time>
      </trkpt>
      <trkpt lat="46.47909" lon="5.20703">
        <ele>201</ele>
        <time>2022-06-25T05:16:21Z</time>
      </trkpt>
      <trkpt lat="46.47907" lon="5.20682">
        <ele>201.8</ele>
        <time>2022-06-25T05:16:24Z</time>
      </trkpt>
      <trkpt lat="46.47904" lon="5.20647">
        <ele>203</ele>
        <time>2022-06-25T05:16:29Z</time>
      </trkpt>
      <trkpt lat="46.47903" lon="5.2062">
        <ele>204</ele>
        <time>2022-06-25T05:16:33Z</time>
      </trkpt>
      <trkpt lat="46.47902" lon="5.20594">
        <ele>204.8</ele>
        <time>2022-06-25T05:16:37Z</time>
      </trkpt>
      <trkpt lat="46.47901" lon="5.20588">
        <ele>205</ele>
        <time>2022-06-25T05:16:38Z</time>
      </trkpt>
      <trkpt lat="46.47899" lon="5.20561">
        <ele>206.2</ele>
        <time>2022-06-25T05:16:42Z</time>
      </trkpt>
      <trkpt lat="46.47897" lon="5.20542">
        <ele>207</ele>
        <time>2022-06-25T05:16:45Z</time>
      </trkpt>
      <trkpt lat="46.47896" lon="5.20536">
        <ele>207.4</ele>
        <time>2022-06-25T05:16:46Z</time>
      </trkpt>
      <trkpt lat="46.47894" lon="5.20496">
        <ele>208.2</ele>
        <time>2022-06-25T05:16:52Z</time>
      </trkpt>
      <trkpt lat="46.47893" lon="5.2049">
        <ele>208.4</ele>
        <time>2022-06-25T05:16:53Z</time>
      </trkpt>
      <trkpt lat="46.47887" lon="5.20436">
        <ele>209.4</ele>
        <time>2022-06-25T05:17:00Z</time>
      </trkpt>
      <trkpt lat="46.47885" lon="5.2042">
        <ele>209.4</ele>
        <time>2022-06-25T05:17:02Z</time>
      </trkpt>
      <trkpt lat="46.47879" lon="5.20367">
        <ele>209.6</ele>
        <time>2022-06-25T05:17:08Z</time>
      </trkpt>
      <trkpt lat="46.4787" lon="5.20289">
        <ele>209.2</ele>
        <time>2022-06-25T05:17:16Z</time>
      </trkpt>
      <trkpt lat="46.47868" lon="5.20279">
        <ele>209</ele>
        <time>2022-06-25T05:17:17Z</time>
      </trkpt>
      <trkpt lat="46.4786" lon="5.20201">
        <ele>208.6</ele>
        <time>2022-06-25T05:17:25Z</time>
      </trkpt>
      <trkpt lat="46.47859" lon="5.20192">
        <ele>208.6</ele>
        <time>2022-06-25T05:17:26Z</time>
      </trkpt>
      <trkpt lat="46.47853" lon="5.20142">
        <ele>209.4</ele>
        <time>2022-06-25T05:17:32Z</time>
      </trkpt>
      <trkpt lat="46.47846" lon="5.20081">
        <ele>210.6</ele>
        <time>2022-06-25T05:17:40Z</time>
      </trkpt>
      <trkpt lat="46.47841" lon="5.20034">
        <ele>211.4</ele>
        <time>2022-06-25T05:17:46Z</time>
      </trkpt>
      <trkpt lat="46.47839" lon="5.20015">
        <ele>211.6</ele>
        <time>2022-06-25T05:17:48Z</time>
      </trkpt>
      <trkpt lat="46.47836" lon="5.1998">
        <ele>211.8</ele>
        <time>2022-06-25T05:17:52Z</time>
      </trkpt>
      <trkpt lat="46.4783" lon="5.19912">
        <ele>211.4</ele>
        <time>2022-06-25T05:17:59Z</time>
      </trkpt>
      <trkpt lat="46.47824" lon="5.19845">
        <ele>211.4</ele>
        <time>2022-06-25T05:18:06Z</time>
      </trkpt>
      <trkpt lat="46.47817" lon="5.19761">
        <ele>211.4</ele>
        <time>2022-06-25T05:18:15Z</time>
      </trkpt>
      <trkpt lat="46.4781" lon="5.19676">
        <ele>211.4</ele>
        <time>2022-06-25T05:18:24Z</time>
      </trkpt>
      <trkpt lat="46.47808" lon="5.19656">
        <ele>211.8</ele>
        <time>2022-06-25T05:18:26Z</time>
      </trkpt>
      <trkpt lat="46.47803" lon="5.19591">
        <ele>211.8</ele>
        <time>2022-06-25T05:18:33Z</time>
      </trkpt>
      <trkpt lat="46.47795" lon="5.19511">
        <ele>212.4</ele>
        <time>2022-06-25T05:18:42Z</time>
      </trkpt>
      <trkpt lat="46.47795" lon="5.19502">
        <ele>212.4</ele>
        <time>2022-06-25T05:18:43Z</time>
      </trkpt>
      <trkpt lat="46.47788" lon="5.19428">
        <ele>212.8</ele>
        <time>2022-06-25T05:18:51Z</time>
      </trkpt>
      <trkpt lat="46.47787" lon="5.1942">
        <ele>212.8</ele>
        <time>2022-06-25T05:18:52Z</time>
      </trkpt>
      <trkpt lat="46.47779" lon="5.19341">
        <ele>212.8</ele>
        <time>2022-06-25T05:19:00Z</time>
      </trkpt>
      <trkpt lat="46.47772" lon="5.19265">
        <ele>211.6</ele>
        <time>2022-06-25T05:19:07Z</time>
      </trkpt>
      <trkpt lat="46.47772" lon="5.19254">
        <ele>211.6</ele>
        <time>2022-06-25T05:19:08Z</time>
      </trkpt>
      <trkpt lat="46.47765" lon="5.19179">
        <ele>210.6</ele>
        <time>2022-06-25T05:19:14Z</time>
      </trkpt>
      <trkpt lat="46.47764" lon="5.19169">
        <ele>210.6</ele>
        <time>2022-06-25T05:19:15Z</time>
      </trkpt>
      <trkpt lat="46.4776" lon="5.19128">
        <ele>209.4</ele>
        <time>2022-06-25T05:19:18Z</time>
      </trkpt>
      <trkpt lat="46.47757" lon="5.1909">
        <ele>208.2</ele>
        <time>2022-06-25T05:19:21Z</time>
      </trkpt>
      <trkpt lat="46.47756" lon="5.19075">
        <ele>208</ele>
        <time>2022-06-25T05:19:22Z</time>
      </trkpt>
      <trkpt lat="46.47753" lon="5.19038">
        <ele>207</ele>
        <time>2022-06-25T05:19:25Z</time>
      </trkpt>
      <trkpt lat="46.47748" lon="5.18986">
        <ele>206</ele>
        <time>2022-06-25T05:19:29Z</time>
      </trkpt>
      <trkpt lat="46.47745" lon="5.18956">
        <ele>205.4</ele>
        <time>2022-06-25T05:19:31Z</time>
      </trkpt>
      <trkpt lat="46.47743" lon="5.18931">
        <ele>204.8</ele>
        <time>2022-06-25T05:19:33Z</time>
      </trkpt>
      <trkpt lat="46.47739" lon="5.18889">
        <ele>203.6</ele>
        <time>2022-06-25T05:19:36Z</time>
      </trkpt>
      <trkpt lat="46.47734" lon="5.18832">
        <ele>202.6</ele>
        <time>2022-06-25T05:19:40Z</time>
      </trkpt>
      <trkpt lat="46.47732" lon="5.18806">
        <ele>201.6</ele>
        <time>2022-06-25T05:19:42Z</time>
      </trkpt>
      <trkpt lat="46.47726" lon="5.18745">
        <ele>200.4</ele>
        <time>2022-06-25T05:19:47Z</time>
      </trkpt>
      <trkpt lat="46.47723" lon="5.18697">
        <ele>199.6</ele>
        <time>2022-06-25T05:19:51Z</time>
      </trkpt>
      <trkpt lat="46.47717" lon="5.18636">
        <ele>199.4</ele>
        <time>2022-06-25T05:19:56Z</time>
      </trkpt>
      <trkpt lat="46.47713" lon="5.18593">
        <ele>199.4</ele>
        <time>2022-06-25T05:20:00Z</time>
      </trkpt>
      <trkpt lat="46.47706" lon="5.18507">
        <ele>199.4</ele>
        <time>2022-06-25T05:20:08Z</time>
      </trkpt>
      <trkpt lat="46.47699" lon="5.18422">
        <ele>199.6</ele>
        <time>2022-06-25T05:20:16Z</time>
      </trkpt>
      <trkpt lat="46.47693" lon="5.18351">
        <ele>199.8</ele>
        <time>2022-06-25T05:20:23Z</time>
      </trkpt>
      <trkpt lat="46.47685" lon="5.18267">
        <ele>200.4</ele>
        <time>2022-06-25T05:20:32Z</time>
      </trkpt>
      <trkpt lat="46.47684" lon="5.18258">
        <ele>200.6</ele>
        <time>2022-06-25T05:20:33Z</time>
      </trkpt>
      <trkpt lat="46.47681" lon="5.18223">
        <ele>201.4</ele>
        <time>2022-06-25T05:20:37Z</time>
      </trkpt>
      <trkpt lat="46.47678" lon="5.18181">
        <ele>201.8</ele>
        <time>2022-06-25T05:20:42Z</time>
      </trkpt>
      <trkpt lat="46.47675" lon="5.18141">
        <ele>202.6</ele>
        <time>2022-06-25T05:20:47Z</time>
      </trkpt>
      <trkpt lat="46.47672" lon="5.18111">
        <ele>203</ele>
        <time>2022-06-25T05:20:51Z</time>
      </trkpt>
      <trkpt lat="46.47671" lon="5.18102">
        <ele>203.2</ele>
        <time>2022-06-25T05:20:52Z</time>
      </trkpt>
      <trkpt lat="46.4767" lon="5.18083">
        <ele>204</ele>
        <time>2022-06-25T05:20:55Z</time>
      </trkpt>
      <trkpt lat="46.47667" lon="5.18049">
        <ele>205</ele>
        <time>2022-06-25T05:21:00Z</time>
      </trkpt>
      <trkpt lat="46.47666" lon="5.18036">
        <ele>205.6</ele>
        <time>2022-06-25T05:21:02Z</time>
      </trkpt>
      <trkpt lat="46.47665" lon="5.18023">
        <ele>206</ele>
        <time>2022-06-25T05:21:04Z</time>
      </trkpt>
      <trkpt lat="46.47664" lon="5.17998">
        <ele>207.2</ele>
        <time>2022-06-25T05:21:08Z</time>
      </trkpt>
      <trkpt lat="46.47662" lon="5.1798">
        <ele>207.6</ele>
        <time>2022-06-25T05:21:11Z</time>
      </trkpt>
      <trkpt lat="46.47662" lon="5.17968">
        <ele>208.2</ele>
        <time>2022-06-25T05:21:13Z</time>
      </trkpt>
      <trkpt lat="46.47658" lon="5.1793">
        <ele>209.2</ele>
        <time>2022-06-25T05:21:19Z</time>
      </trkpt>
      <trkpt lat="46.47656" lon="5.17897">
        <ele>210.4</ele>
        <time>2022-06-25T05:21:24Z</time>
      </trkpt>
      <trkpt lat="46.47653" lon="5.17875">
        <ele>210.8</ele>
        <time>2022-06-25T05:21:27Z</time>
      </trkpt>
      <trkpt lat="46.47649" lon="5.17822">
        <ele>211.4</ele>
        <time>2022-06-25T05:21:34Z</time>
      </trkpt>
      <trkpt lat="46.47643" lon="5.17759">
        <ele>211.6</ele>
        <time>2022-06-25T05:21:41Z</time>
      </trkpt>
      <trkpt lat="46.47636" lon="5.17695">
        <ele>211</ele>
        <time>2022-06-25T05:21:47Z</time>
      </trkpt>
      <trkpt lat="46.47632" lon="5.17648">
        <ele>210.2</ele>
        <time>2022-06-25T05:21:51Z</time>
      </trkpt>
      <trkpt lat="46.47628" lon="5.17602">
        <ele>209.2</ele>
        <time>2022-06-25T05:21:55Z</time>
      </trkpt>
      <trkpt lat="46.47627" lon="5.17591">
        <ele>209</ele>
        <time>2022-06-25T05:21:56Z</time>
      </trkpt>
      <trkpt lat="46.47619" lon="5.17507">
        <ele>208.6</ele>
        <time>2022-06-25T05:22:04Z</time>
      </trkpt>
      <trkpt lat="46.47619" lon="5.17498">
        <ele>208.6</ele>
        <time>2022-06-25T05:22:05Z</time>
      </trkpt>
      <trkpt lat="46.47612" lon="5.17428">
        <ele>209.2</ele>
        <time>2022-06-25T05:22:13Z</time>
      </trkpt>
      <trkpt lat="46.47607" lon="5.17379">
        <ele>210.2</ele>
        <time>2022-06-25T05:22:19Z</time>
      </trkpt>
      <trkpt lat="46.47606" lon="5.17362">
        <ele>210.8</ele>
        <time>2022-06-25T05:22:21Z</time>
      </trkpt>
      <trkpt lat="46.47603" lon="5.17339">
        <ele>211.2</ele>
        <time>2022-06-25T05:22:24Z</time>
      </trkpt>
      <trkpt lat="46.47597" lon="5.1727">
        <ele>212</ele>
        <time>2022-06-25T05:22:32Z</time>
      </trkpt>
      <trkpt lat="46.47596" lon="5.17253">
        <ele>212.2</ele>
        <time>2022-06-25T05:22:34Z</time>
      </trkpt>
      <trkpt lat="46.47589" lon="5.17185">
        <ele>213</ele>
        <time>2022-06-25T05:22:42Z</time>
      </trkpt>
      <trkpt lat="46.47586" lon="5.17152">
        <ele>213.4</ele>
        <time>2022-06-25T05:22:46Z</time>
      </trkpt>
      <trkpt lat="46.4758" lon="5.17095">
        <ele>214</ele>
        <time>2022-06-25T05:22:53Z</time>
      </trkpt>
      <trkpt lat="46.4758" lon="5.17087">
        <ele>214.2</ele>
        <time>2022-06-25T05:22:54Z</time>
      </trkpt>
      <trkpt lat="46.47576" lon="5.17054">
        <ele>214.6</ele>
        <time>2022-06-25T05:22:58Z</time>
      </trkpt>
      <trkpt lat="46.47573" lon="5.1702">
        <ele>215</ele>
        <time>2022-06-25T05:23:02Z</time>
      </trkpt>
      <trkpt lat="46.47565" lon="5.16942">
        <ele>215.4</ele>
        <time>2022-06-25T05:23:11Z</time>
      </trkpt>
      <trkpt lat="46.47563" lon="5.16924">
        <ele>215.6</ele>
        <time>2022-06-25T05:23:13Z</time>
      </trkpt>
      <trkpt lat="46.47562" lon="5.16914">
        <ele>215.6</ele>
        <time>2022-06-25T05:23:14Z</time>
      </trkpt>
      <trkpt lat="46.47554" lon="5.16831">
        <ele>215.8</ele>
        <time>2022-06-25T05:23:23Z</time>
      </trkpt>
      <trkpt lat="46.47546" lon="5.16749">
        <ele>216.2</ele>
        <time>2022-06-25T05:23:32Z</time>
      </trkpt>
      <trkpt lat="46.47537" lon="5.16666">
        <ele>216.6</ele>
        <time>2022-06-25T05:23:41Z</time>
      </trkpt>
      <trkpt lat="46.47536" lon="5.16647">
        <ele>216.6</ele>
        <time>2022-06-25T05:23:43Z</time>
      </trkpt>
      <trkpt lat="46.47528" lon="5.16567">
        <ele>216.4</ele>
        <time>2022-06-25T05:23:51Z</time>
      </trkpt>
      <trkpt lat="46.47527" lon="5.16557">
        <ele>216.4</ele>
        <time>2022-06-25T05:23:52Z</time>
      </trkpt>
      <trkpt lat="46.4752" lon="5.16487">
        <ele>216.2</ele>
        <time>2022-06-25T05:23:59Z</time>
      </trkpt>
      <trkpt lat="46.47512" lon="5.16408">
        <ele>216.2</ele>
        <time>2022-06-25T05:24:07Z</time>
      </trkpt>
      <trkpt lat="46.47509" lon="5.16378">
        <ele>216.4</ele>
        <time>2022-06-25T05:24:10Z</time>
      </trkpt>
      <trkpt lat="46.475" lon="5.16295">
        <ele>216</ele>
        <time>2022-06-25T05:24:18Z</time>
      </trkpt>
      <trkpt lat="46.47497" lon="5.16262">
        <ele>215.8</ele>
        <time>2022-06-25T05:24:21Z</time>
      </trkpt>
      <trkpt lat="46.47491" lon="5.162">
        <ele>215.6</ele>
        <time>2022-06-25T05:24:27Z</time>
      </trkpt>
      <trkpt lat="46.47488" lon="5.1617">
        <ele>215.6</ele>
        <time>2022-06-25T05:24:30Z</time>
      </trkpt>
      <trkpt lat="46.47483" lon="5.16132">
        <ele>215.8</ele>
        <time>2022-06-25T05:24:34Z</time>
      </trkpt>
      <trkpt lat="46.47482" lon="5.16113">
        <ele>216</ele>
        <time>2022-06-25T05:24:36Z</time>
      </trkpt>
      <trkpt lat="46.47473" lon="5.1604">
        <ele>216.2</ele>
        <time>2022-06-25T05:24:44Z</time>
      </trkpt>
      <trkpt lat="46.47469" lon="5.16004">
        <ele>216.2</ele>
        <time>2022-06-25T05:24:48Z</time>
      </trkpt>
      <trkpt lat="46.47466" lon="5.15986">
        <ele>216.2</ele>
        <time>2022-06-25T05:24:50Z</time>
      </trkpt>
      <trkpt lat="46.47459" lon="5.15972">
        <ele>216.2</ele>
        <time>2022-06-25T05:24:52Z</time>
      </trkpt>
      <trkpt lat="46.47453" lon="5.1597">
        <ele>216.2</ele>
        <time>2022-06-25T05:24:53Z</time>
      </trkpt>
      <trkpt lat="46.47418" lon="5.15968">
        <ele>216.4</ele>
        <time>2022-06-25T05:24:58Z</time>
      </trkpt>
      <trkpt lat="46.47369" lon="5.15956">
        <ele>216.4</ele>
        <time>2022-06-25T05:25:05Z</time>
      </trkpt>
      <trkpt lat="46.47313" lon="5.15932">
        <ele>216</ele>
        <time>2022-06-25T05:25:13Z</time>
      </trkpt>
      <trkpt lat="46.47262" lon="5.15909">
        <ele>215.6</ele>
        <time>2022-06-25T05:25:20Z</time>
      </trkpt>
      <trkpt lat="46.47216" lon="5.15902">
        <ele>215.4</ele>
        <time>2022-06-25T05:25:26Z</time>
      </trkpt>
      <trkpt lat="46.47157" lon="5.15906">
        <ele>215.4</ele>
        <time>2022-06-25T05:25:34Z</time>
      </trkpt>
      <trkpt lat="46.4715" lon="5.15906">
        <ele>215.4</ele>
        <time>2022-06-25T05:25:35Z</time>
      </trkpt>
      <trkpt lat="46.47093" lon="5.1591">
        <ele>215.8</ele>
        <time>2022-06-25T05:25:43Z</time>
      </trkpt>
      <trkpt lat="46.47064" lon="5.15911">
        <ele>215.8</ele>
        <time>2022-06-25T05:25:47Z</time>
      </trkpt>
      <trkpt lat="46.47028" lon="5.15909">
        <ele>215.8</ele>
        <time>2022-06-25T05:25:52Z</time>
      </trkpt>
      <trkpt lat="46.46992" lon="5.15893">
        <ele>216.2</ele>
        <time>2022-06-25T05:25:57Z</time>
      </trkpt>
      <trkpt lat="46.4694" lon="5.15852">
        <ele>215.8</ele>
        <time>2022-06-25T05:26:05Z</time>
      </trkpt>
      <trkpt lat="46.46933" lon="5.15847">
        <ele>215.6</ele>
        <time>2022-06-25T05:26:06Z</time>
      </trkpt>
      <trkpt lat="46.46884" lon="5.15807">
        <ele>215.6</ele>
        <time>2022-06-25T05:26:14Z</time>
      </trkpt>
      <trkpt lat="46.46871" lon="5.15797">
        <ele>215.6</ele>
        <time>2022-06-25T05:26:16Z</time>
      </trkpt>
      <trkpt lat="46.46826" lon="5.15762">
        <ele>215.6</ele>
        <time>2022-06-25T05:26:23Z</time>
      </trkpt>
      <trkpt lat="46.46773" lon="5.15721">
        <ele>215</ele>
        <time>2022-06-25T05:26:31Z</time>
      </trkpt>
      <trkpt lat="46.46725" lon="5.15685">
        <ele>214.6</ele>
        <time>2022-06-25T05:26:38Z</time>
      </trkpt>
      <trkpt lat="46.4669" lon="5.15659">
        <ele>214.4</ele>
        <time>2022-06-25T05:26:43Z</time>
      </trkpt>
      <trkpt lat="46.46637" lon="5.15623">
        <ele>213.4</ele>
        <time>2022-06-25T05:26:50Z</time>
      </trkpt>
      <trkpt lat="46.46621" lon="5.15616">
        <ele>213</ele>
        <time>2022-06-25T05:26:52Z</time>
      </trkpt>
      <trkpt lat="46.46589" lon="5.15604">
        <ele>212.4</ele>
        <time>2022-06-25T05:26:56Z</time>
      </trkpt>
      <trkpt lat="46.46555" lon="5.15594">
        <ele>211.8</ele>
        <time>2022-06-25T05:27:00Z</time>
      </trkpt>
      <trkpt lat="46.46499" lon="5.15576">
        <ele>211.2</ele>
        <time>2022-06-25T05:27:07Z</time>
      </trkpt>
      <trkpt lat="46.46482" lon="5.15571">
        <ele>211</ele>
        <time>2022-06-25T05:27:09Z</time>
      </trkpt>
      <trkpt lat="46.46458" lon="5.15562">
        <ele>210.8</ele>
        <time>2022-06-25T05:27:12Z</time>
      </trkpt>
      <trkpt lat="46.46417" lon="5.1555">
        <ele>210.2</ele>
        <time>2022-06-25T05:27:17Z</time>
      </trkpt>
      <trkpt lat="46.46401" lon="5.15545">
        <ele>210.2</ele>
        <time>2022-06-25T05:27:19Z</time>
      </trkpt>
      <trkpt lat="46.46355" lon="5.15528">
        <ele>210</ele>
        <time>2022-06-25T05:27:25Z</time>
      </trkpt>
      <trkpt lat="46.46301" lon="5.15507">
        <ele>210</ele>
        <time>2022-06-25T05:27:32Z</time>
      </trkpt>
      <trkpt lat="46.46271" lon="5.15495">
        <ele>209.8</ele>
        <time>2022-06-25T05:27:36Z</time>
      </trkpt>
      <trkpt lat="46.46218" lon="5.15474">
        <ele>209.2</ele>
        <time>2022-06-25T05:27:43Z</time>
      </trkpt>
      <trkpt lat="46.46218" lon="5.15474">
        <ele>209</ele>
        <time>2022-06-25T05:27:44Z</time>
      </trkpt>
      <trkpt lat="46.46164" lon="5.15453">
        <ele>208.6</ele>
        <time>2022-06-25T05:27:50Z</time>
      </trkpt>
      <trkpt lat="46.46141" lon="5.15442">
        <ele>208.4</ele>
        <time>2022-06-25T05:27:53Z</time>
      </trkpt>
      <trkpt lat="46.46118" lon="5.15429">
        <ele>207.8</ele>
        <time>2022-06-25T05:27:56Z</time>
      </trkpt>
      <trkpt lat="46.46103" lon="5.15418">
        <ele>207.6</ele>
        <time>2022-06-25T05:27:58Z</time>
      </trkpt>
      <trkpt lat="46.46063" lon="5.15379">
        <ele>206.8</ele>
        <time>2022-06-25T05:28:04Z</time>
      </trkpt>
      <trkpt lat="46.46057" lon="5.15372">
        <ele>206.8</ele>
        <time>2022-06-25T05:28:05Z</time>
      </trkpt>
      <trkpt lat="46.46028" lon="5.15332">
        <ele>206.8</ele>
        <time>2022-06-25T05:28:11Z</time>
      </trkpt>
      <trkpt lat="46.46011" lon="5.15305">
        <ele>207.4</ele>
        <time>2022-06-25T05:28:16Z</time>
      </trkpt>
      <trkpt lat="46.46004" lon="5.15295">
        <ele>208</ele>
        <time>2022-06-25T05:28:19Z</time>
      </trkpt>
      <trkpt lat="46.46003" lon="5.15292">
        <ele>208.2</ele>
        <time>2022-06-25T05:28:20Z</time>
      </trkpt>
      <trkpt lat="46.45991" lon="5.15279">
        <ele>208.6</ele>
        <time>2022-06-25T05:28:24Z</time>
      </trkpt>
      <trkpt lat="46.45978" lon="5.15265">
        <ele>209.2</ele>
        <time>2022-06-25T05:28:28Z</time>
      </trkpt>
      <trkpt lat="46.45971" lon="5.15257">
        <ele>209.8</ele>
        <time>2022-06-25T05:28:30Z</time>
      </trkpt>
      <trkpt lat="46.45965" lon="5.15246">
        <ele>210</ele>
        <time>2022-06-25T05:28:32Z</time>
      </trkpt>
      <trkpt lat="46.45962" lon="5.1524">
        <ele>210.4</ele>
        <time>2022-06-25T05:28:33Z</time>
      </trkpt>
      <trkpt lat="46.4595" lon="5.15219">
        <ele>211</ele>
        <time>2022-06-25T05:28:37Z</time>
      </trkpt>
      <trkpt lat="46.45943" lon="5.15208">
        <ele>211.6</ele>
        <time>2022-06-25T05:28:39Z</time>
      </trkpt>
      <trkpt lat="46.45933" lon="5.15194">
        <ele>212.6</ele>
        <time>2022-06-25T05:28:42Z</time>
      </trkpt>
      <trkpt lat="46.45926" lon="5.15186">
        <ele>213.2</ele>
        <time>2022-06-25T05:28:44Z</time>
      </trkpt>
      <trkpt lat="46.45914" lon="5.15173">
        <ele>213.6</ele>
        <time>2022-06-25T05:28:47Z</time>
      </trkpt>
      <trkpt lat="46.45902" lon="5.15162">
        <ele>214</ele>
        <time>2022-06-25T05:28:50Z</time>
      </trkpt>
      <trkpt lat="46.45897" lon="5.1516">
        <ele>214.4</ele>
        <time>2022-06-25T05:28:51Z</time>
      </trkpt>
      <trkpt lat="46.45887" lon="5.15155">
        <ele>214.8</ele>
        <time>2022-06-25T05:28:53Z</time>
      </trkpt>
      <trkpt lat="46.45863" lon="5.15148">
        <ele>215.2</ele>
        <time>2022-06-25T05:28:57Z</time>
      </trkpt>
      <trkpt lat="46.45828" lon="5.15142">
        <ele>215.2</ele>
        <time>2022-06-25T05:29:02Z</time>
      </trkpt>
      <trkpt lat="46.45777" lon="5.15142">
        <ele>214</ele>
        <time>2022-06-25T05:29:09Z</time>
      </trkpt>
      <trkpt lat="46.45738" lon="5.15156">
        <ele>213.8</ele>
        <time>2022-06-25T05:29:15Z</time>
      </trkpt>
      <trkpt lat="46.4572" lon="5.15166">
        <ele>214</ele>
        <time>2022-06-25T05:29:18Z</time>
      </trkpt>
      <trkpt lat="46.45703" lon="5.1518">
        <ele>214.2</ele>
        <time>2022-06-25T05:29:21Z</time>
      </trkpt>
      <trkpt lat="46.45668" lon="5.15217">
        <ele>214.8</ele>
        <time>2022-06-25T05:29:28Z</time>
      </trkpt>
      <trkpt lat="46.45631" lon="5.15259">
        <ele>215.6</ele>
        <time>2022-06-25T05:29:36Z</time>
      </trkpt>
      <trkpt lat="46.45616" lon="5.15273">
        <ele>216</ele>
        <time>2022-06-25T05:29:39Z</time>
      </trkpt>
      <trkpt lat="46.45592" lon="5.15296">
        <ele>216.4</ele>
        <time>2022-06-25T05:29:44Z</time>
      </trkpt>
      <trkpt lat="46.45562" lon="5.15322">
        <ele>217</ele>
        <time>2022-06-25T05:29:50Z</time>
      </trkpt>
      <trkpt lat="46.45546" lon="5.15335">
        <ele>217.4</ele>
        <time>2022-06-25T05:29:53Z</time>
      </trkpt>
      <trkpt lat="46.45515" lon="5.15356">
        <ele>217.8</ele>
        <time>2022-06-25T05:29:58Z</time>
      </trkpt>
      <trkpt lat="46.45467" lon="5.15385">
        <ele>217</ele>
        <time>2022-06-25T05:30:05Z</time>
      </trkpt>
      <trkpt lat="46.45415" lon="5.15407">
        <ele>216</ele>
        <time>2022-06-25T05:30:12Z</time>
      </trkpt>
      <trkpt lat="46.45406" lon="5.15409">
        <ele>216</ele>
        <time>2022-06-25T05:30:13Z</time>
      </trkpt>
      <trkpt lat="46.45363" lon="5.15415">
        <ele>215.2</ele>
        <time>2022-06-25T05:30:18Z</time>
      </trkpt>
      <trkpt lat="46.45354" lon="5.15416">
        <ele>215</ele>
        <time>2022-06-25T05:30:19Z</time>
      </trkpt>
      <trkpt lat="46.45318" lon="5.1542">
        <ele>213.6</ele>
        <time>2022-06-25T05:30:23Z</time>
      </trkpt>
      <trkpt lat="46.45301" lon="5.15423">
        <ele>213.2</ele>
        <time>2022-06-25T05:30:25Z</time>
      </trkpt>
      <trkpt lat="46.45284" lon="5.15426">
        <ele>212.6</ele>
        <time>2022-06-25T05:30:27Z</time>
      </trkpt>
      <trkpt lat="46.45244" lon="5.15431">
        <ele>212</ele>
        <time>2022-06-25T05:30:32Z</time>
      </trkpt>
      <trkpt lat="46.45197" lon="5.15438">
        <ele>212.4</ele>
        <time>2022-06-25T05:30:39Z</time>
      </trkpt>
      <trkpt lat="46.4516" lon="5.15443">
        <ele>212.8</ele>
        <time>2022-06-25T05:30:44Z</time>
      </trkpt>
      <trkpt lat="46.45112" lon="5.15451">
        <ele>212.4</ele>
        <time>2022-06-25T05:30:50Z</time>
      </trkpt>
      <trkpt lat="46.45069" lon="5.15456">
        <ele>211.4</ele>
        <time>2022-06-25T05:30:55Z</time>
      </trkpt>
      <trkpt lat="46.45051" lon="5.15453">
        <ele>210.2</ele>
        <time>2022-06-25T05:30:57Z</time>
      </trkpt>
      <trkpt lat="46.45042" lon="5.15451">
        <ele>209.6</ele>
        <time>2022-06-25T05:30:58Z</time>
      </trkpt>
      <trkpt lat="46.45024" lon="5.15443">
        <ele>209</ele>
        <time>2022-06-25T05:31:00Z</time>
      </trkpt>
      <trkpt lat="46.44991" lon="5.15422">
        <ele>208.2</ele>
        <time>2022-06-25T05:31:04Z</time>
      </trkpt>
      <trkpt lat="46.44983" lon="5.15416">
        <ele>208</ele>
        <time>2022-06-25T05:31:05Z</time>
      </trkpt>
      <trkpt lat="46.44976" lon="5.1541">
        <ele>207.8</ele>
        <time>2022-06-25T05:31:06Z</time>
      </trkpt>
      <trkpt lat="46.44934" lon="5.15373">
        <ele>207.4</ele>
        <time>2022-06-25T05:31:12Z</time>
      </trkpt>
      <trkpt lat="46.44884" lon="5.15329">
        <ele>208.2</ele>
        <time>2022-06-25T05:31:20Z</time>
      </trkpt>
      <trkpt lat="46.44834" lon="5.15288">
        <ele>208.6</ele>
        <time>2022-06-25T05:31:28Z</time>
      </trkpt>
      <trkpt lat="46.44828" lon="5.15284">
        <ele>208.6</ele>
        <time>2022-06-25T05:31:29Z</time>
      </trkpt>
      <trkpt lat="46.4478" lon="5.15255">
        <ele>208.8</ele>
        <time>2022-06-25T05:31:37Z</time>
      </trkpt>
      <trkpt lat="46.4474" lon="5.1524">
        <ele>209.8</ele>
        <time>2022-06-25T05:31:44Z</time>
      </trkpt>
      <trkpt lat="46.44729" lon="5.15237">
        <ele>210</ele>
        <time>2022-06-25T05:31:46Z</time>
      </trkpt>
      <trkpt lat="46.44699" lon="5.15231">
        <ele>210.8</ele>
        <time>2022-06-25T05:31:51Z</time>
      </trkpt>
      <trkpt lat="46.44681" lon="5.15229">
        <ele>211</ele>
        <time>2022-06-25T05:31:54Z</time>
      </trkpt>
      <trkpt lat="46.44639" lon="5.15232">
        <ele>211.8</ele>
        <time>2022-06-25T05:32:01Z</time>
      </trkpt>
      <trkpt lat="46.4461" lon="5.15238">
        <ele>212.2</ele>
        <time>2022-06-25T05:32:06Z</time>
      </trkpt>
      <trkpt lat="46.44592" lon="5.15241">
        <ele>212.4</ele>
        <time>2022-06-25T05:32:09Z</time>
      </trkpt>
      <trkpt lat="46.44562" lon="5.15246">
        <ele>213.4</ele>
        <time>2022-06-25T05:32:14Z</time>
      </trkpt>
      <trkpt lat="46.44528" lon="5.15254">
        <ele>214</ele>
        <time>2022-06-25T05:32:20Z</time>
      </trkpt>
      <trkpt lat="46.4451" lon="5.15258">
        <ele>214.4</ele>
        <time>2022-06-25T05:32:23Z</time>
      </trkpt>
      <trkpt lat="46.44466" lon="5.15266">
        <ele>215</ele>
        <time>2022-06-25T05:32:30Z</time>
      </trkpt>
      <trkpt lat="46.44438" lon="5.15271">
        <ele>215.4</ele>
        <time>2022-06-25T05:32:34Z</time>
      </trkpt>
      <trkpt lat="46.44424" lon="5.15273">
        <ele>215.4</ele>
        <time>2022-06-25T05:32:36Z</time>
      </trkpt>
      <trkpt lat="46.44371" lon="5.15285">
        <ele>214.8</ele>
        <time>2022-06-25T05:32:43Z</time>
      </trkpt>
      <trkpt lat="46.44348" lon="5.15294">
        <ele>214.2</ele>
        <time>2022-06-25T05:32:46Z</time>
      </trkpt>
      <trkpt lat="46.44326" lon="5.15308">
        <ele>213.8</ele>
        <time>2022-06-25T05:32:49Z</time>
      </trkpt>
      <trkpt lat="46.44287" lon="5.15337">
        <ele>213.4</ele>
        <time>2022-06-25T05:32:55Z</time>
      </trkpt>
      <trkpt lat="46.44256" lon="5.15355">
        <ele>213.6</ele>
        <time>2022-06-25T05:33:00Z</time>
      </trkpt>
      <trkpt lat="46.44222" lon="5.15358">
        <ele>214</ele>
        <time>2022-06-25T05:33:05Z</time>
      </trkpt>
      <trkpt lat="46.44168" lon="5.15355">
        <ele>213.8</ele>
        <time>2022-06-25T05:33:12Z</time>
      </trkpt>
      <trkpt lat="46.44162" lon="5.15354">
        <ele>213.8</ele>
        <time>2022-06-25T05:33:13Z</time>
      </trkpt>
      <trkpt lat="46.44108" lon="5.15351">
        <ele>213.8</ele>
        <time>2022-06-25T05:33:20Z</time>
      </trkpt>
      <trkpt lat="46.44086" lon="5.1535">
        <ele>213.8</ele>
        <time>2022-06-25T05:33:23Z</time>
      </trkpt>
      <trkpt lat="46.44031" lon="5.15349">
        <ele>213.8</ele>
        <time>2022-06-25T05:33:31Z</time>
      </trkpt>
      <trkpt lat="46.44024" lon="5.15349">
        <ele>213.8</ele>
        <time>2022-06-25T05:33:32Z</time>
      </trkpt>
      <trkpt lat="46.43969" lon="5.15351">
        <ele>214.2</ele>
        <time>2022-06-25T05:33:40Z</time>
      </trkpt>
      <trkpt lat="46.43963" lon="5.15351">
        <ele>214.2</ele>
        <time>2022-06-25T05:33:41Z</time>
      </trkpt>
      <trkpt lat="46.43907" lon="5.15351">
        <ele>215.2</ele>
        <time>2022-06-25T05:33:50Z</time>
      </trkpt>
      <trkpt lat="46.43864" lon="5.15345">
        <ele>216</ele>
        <time>2022-06-25T05:33:57Z</time>
      </trkpt>
      <trkpt lat="46.43841" lon="5.15335">
        <ele>216.4</ele>
        <time>2022-06-25T05:34:01Z</time>
      </trkpt>
      <trkpt lat="46.4383" lon="5.15328">
        <ele>216.6</ele>
        <time>2022-06-25T05:34:03Z</time>
      </trkpt>
      <trkpt lat="46.43825" lon="5.15325">
        <ele>216.8</ele>
        <time>2022-06-25T05:34:04Z</time>
      </trkpt>
      <trkpt lat="46.438" lon="5.15302">
        <ele>217.6</ele>
        <time>2022-06-25T05:34:09Z</time>
      </trkpt>
      <trkpt lat="46.4377" lon="5.15272">
        <ele>218.8</ele>
        <time>2022-06-25T05:34:15Z</time>
      </trkpt>
      <trkpt lat="46.43744" lon="5.15241">
        <ele>219</ele>
        <time>2022-06-25T05:34:20Z</time>
      </trkpt>
      <trkpt lat="46.4371" lon="5.15201">
        <ele>218.8</ele>
        <time>2022-06-25T05:34:26Z</time>
      </trkpt>
      <trkpt lat="46.4367" lon="5.15153">
        <ele>217.4</ele>
        <time>2022-06-25T05:34:32Z</time>
      </trkpt>
      <trkpt lat="46.43658" lon="5.15139">
        <ele>217</ele>
        <time>2022-06-25T05:34:34Z</time>
      </trkpt>
      <trkpt lat="46.43644" lon="5.15122">
        <ele>216.4</ele>
        <time>2022-06-25T05:34:36Z</time>
      </trkpt>
      <trkpt lat="46.43623" lon="5.15097">
        <ele>215.4</ele>
        <time>2022-06-25T05:34:39Z</time>
      </trkpt>
      <trkpt lat="46.43601" lon="5.15072">
        <ele>214.6</ele>
        <time>2022-06-25T05:34:42Z</time>
      </trkpt>
      <trkpt lat="46.43594" lon="5.15063">
        <ele>214.2</ele>
        <time>2022-06-25T05:34:43Z</time>
      </trkpt>
      <trkpt lat="46.43573" lon="5.15038">
        <ele>213.2</ele>
        <time>2022-06-25T05:34:46Z</time>
      </trkpt>
      <trkpt lat="46.43544" lon="5.15004">
        <ele>212.2</ele>
        <time>2022-06-25T05:34:50Z</time>
      </trkpt>
      <trkpt lat="46.43522" lon="5.14978">
        <ele>211</ele>
        <time>2022-06-25T05:34:53Z</time>
      </trkpt>
      <trkpt lat="46.43515" lon="5.1497">
        <ele>210.8</ele>
        <time>2022-06-25T05:34:54Z</time>
      </trkpt>
      <trkpt lat="46.43491" lon="5.14942">
        <ele>209.8</ele>
        <time>2022-06-25T05:34:57Z</time>
      </trkpt>
      <trkpt lat="46.43462" lon="5.14908">
        <ele>208.6</ele>
        <time>2022-06-25T05:35:01Z</time>
      </trkpt>
      <trkpt lat="46.43441" lon="5.14882">
        <ele>207.4</ele>
        <time>2022-06-25T05:35:04Z</time>
      </trkpt>
      <trkpt lat="46.43434" lon="5.14874">
        <ele>207.4</ele>
        <time>2022-06-25T05:35:05Z</time>
      </trkpt>
      <trkpt lat="46.43406" lon="5.14843">
        <ele>206.4</ele>
        <time>2022-06-25T05:35:09Z</time>
      </trkpt>
      <trkpt lat="46.43384" lon="5.14823">
        <ele>205.8</ele>
        <time>2022-06-25T05:35:12Z</time>
      </trkpt>
      <trkpt lat="46.43341" lon="5.1479">
        <ele>205.6</ele>
        <time>2022-06-25T05:35:18Z</time>
      </trkpt>
      <trkpt lat="46.43298" lon="5.14756">
        <ele>206</ele>
        <time>2022-06-25T05:35:25Z</time>
      </trkpt>
      <trkpt lat="46.43251" lon="5.14714">
        <ele>206.6</ele>
        <time>2022-06-25T05:35:33Z</time>
      </trkpt>
      <trkpt lat="46.43215" lon="5.1467">
        <ele>206.8</ele>
        <time>2022-06-25T05:35:40Z</time>
      </trkpt>
      <trkpt lat="46.43185" lon="5.14634">
        <ele>207.4</ele>
        <time>2022-06-25T05:35:46Z</time>
      </trkpt>
      <trkpt lat="46.43156" lon="5.14597">
        <ele>208</ele>
        <time>2022-06-25T05:35:52Z</time>
      </trkpt>
      <trkpt lat="46.43128" lon="5.14561">
        <ele>208.4</ele>
        <time>2022-06-25T05:35:58Z</time>
      </trkpt>
      <trkpt lat="46.43114" lon="5.14541">
        <ele>209</ele>
        <time>2022-06-25T05:36:01Z</time>
      </trkpt>
      <trkpt lat="46.43084" lon="5.14492">
        <ele>209.4</ele>
        <time>2022-06-25T05:36:07Z</time>
      </trkpt>
      <trkpt lat="46.43047" lon="5.14431">
        <ele>209</ele>
        <time>2022-06-25T05:36:14Z</time>
      </trkpt>
      <trkpt lat="46.43008" lon="5.14365">
        <ele>207.8</ele>
        <time>2022-06-25T05:36:22Z</time>
      </trkpt>
      <trkpt lat="46.42998" lon="5.14349">
        <ele>207.8</ele>
        <time>2022-06-25T05:36:24Z</time>
      </trkpt>
      <trkpt lat="46.42964" lon="5.14298">
        <ele>207.6</ele>
        <time>2022-06-25T05:36:31Z</time>
      </trkpt>
      <trkpt lat="46.42929" lon="5.14263">
        <ele>207.8</ele>
        <time>2022-06-25T05:36:38Z</time>
      </trkpt>
      <trkpt lat="46.42885" lon="5.14228">
        <ele>209.2</ele>
        <time>2022-06-25T05:36:46Z</time>
      </trkpt>
      <trkpt lat="46.42863" lon="5.14213">
        <ele>209.4</ele>
        <time>2022-06-25T05:36:50Z</time>
      </trkpt>
      <trkpt lat="46.42851" lon="5.14207">
        <ele>209.6</ele>
        <time>2022-06-25T05:36:52Z</time>
      </trkpt>
      <trkpt lat="46.42846" lon="5.14206">
        <ele>209.6</ele>
        <time>2022-06-25T05:36:53Z</time>
      </trkpt>
      <trkpt lat="46.42819" lon="5.14199">
        <ele>209.8</ele>
        <time>2022-06-25T05:36:57Z</time>
      </trkpt>
      <trkpt lat="46.42812" lon="5.14198">
        <ele>209.8</ele>
        <time>2022-06-25T05:36:58Z</time>
      </trkpt>
      <trkpt lat="46.42761" lon="5.14189">
        <ele>209.6</ele>
        <time>2022-06-25T05:37:05Z</time>
      </trkpt>
      <trkpt lat="46.42748" lon="5.14189">
        <ele>209.4</ele>
        <time>2022-06-25T05:37:07Z</time>
      </trkpt>
      <trkpt lat="46.42726" lon="5.1419">
        <ele>209.2</ele>
        <time>2022-06-25T05:37:10Z</time>
      </trkpt>
      <trkpt lat="46.42712" lon="5.14193">
        <ele>209.2</ele>
        <time>2022-06-25T05:37:12Z</time>
      </trkpt>
      <trkpt lat="46.42699" lon="5.14199">
        <ele>209</ele>
        <time>2022-06-25T05:37:14Z</time>
      </trkpt>
      <trkpt lat="46.42693" lon="5.14204">
        <ele>209</ele>
        <time>2022-06-25T05:37:15Z</time>
      </trkpt>
      <trkpt lat="46.42649" lon="5.14238">
        <ele>209.6</ele>
        <time>2022-06-25T05:37:22Z</time>
      </trkpt>
      <trkpt lat="46.42598" lon="5.14262">
        <ele>209.6</ele>
        <time>2022-06-25T05:37:29Z</time>
      </trkpt>
      <trkpt lat="46.42563" lon="5.14278">
        <ele>209.4</ele>
        <time>2022-06-25T05:37:34Z</time>
      </trkpt>
      <trkpt lat="46.42556" lon="5.14279">
        <ele>209.2</ele>
        <time>2022-06-25T05:37:35Z</time>
      </trkpt>
      <trkpt lat="46.42499" lon="5.14287">
        <ele>208.8</ele>
        <time>2022-06-25T05:37:42Z</time>
      </trkpt>
      <trkpt lat="46.42483" lon="5.14292">
        <ele>208.4</ele>
        <time>2022-06-25T05:37:44Z</time>
      </trkpt>
      <trkpt lat="46.42474" lon="5.14294">
        <ele>208.2</ele>
        <time>2022-06-25T05:37:45Z</time>
      </trkpt>
      <trkpt lat="46.42458" lon="5.14292">
        <ele>208</ele>
        <time>2022-06-25T05:37:47Z</time>
      </trkpt>
      <trkpt lat="46.42435" lon="5.1428">
        <ele>207.4</ele>
        <time>2022-06-25T05:37:50Z</time>
      </trkpt>
      <trkpt lat="46.42422" lon="5.1427">
        <ele>207.2</ele>
        <time>2022-06-25T05:37:52Z</time>
      </trkpt>
      <trkpt lat="46.42389" lon="5.14253">
        <ele>207</ele>
        <time>2022-06-25T05:37:57Z</time>
      </trkpt>
      <trkpt lat="46.42355" lon="5.14247">
        <ele>207.4</ele>
        <time>2022-06-25T05:38:02Z</time>
      </trkpt>
      <trkpt lat="46.42315" lon="5.1424">
        <ele>208.4</ele>
        <time>2022-06-25T05:38:09Z</time>
      </trkpt>
      <trkpt lat="46.42294" lon="5.1424">
        <ele>209.4</ele>
        <time>2022-06-25T05:38:13Z</time>
      </trkpt>
      <trkpt lat="46.42277" lon="5.14243">
        <ele>209.6</ele>
        <time>2022-06-25T05:38:16Z</time>
      </trkpt>
      <trkpt lat="46.42272" lon="5.14246">
        <ele>209.8</ele>
        <time>2022-06-25T05:38:17Z</time>
      </trkpt>
      <trkpt lat="46.42258" lon="5.14255">
        <ele>210.6</ele>
        <time>2022-06-25T05:38:20Z</time>
      </trkpt>
      <trkpt lat="46.42252" lon="5.1426">
        <ele>210.8</ele>
        <time>2022-06-25T05:38:21Z</time>
      </trkpt>
      <trkpt lat="46.42237" lon="5.14271">
        <ele>211.6</ele>
        <time>2022-06-25T05:38:24Z</time>
      </trkpt>
      <trkpt lat="46.42201" lon="5.14299">
        <ele>212.6</ele>
        <time>2022-06-25T05:38:31Z</time>
      </trkpt>
      <trkpt lat="46.42196" lon="5.14304">
        <ele>212.8</ele>
        <time>2022-06-25T05:38:32Z</time>
      </trkpt>
      <trkpt lat="46.42171" lon="5.14321">
        <ele>213.4</ele>
        <time>2022-06-25T05:38:37Z</time>
      </trkpt>
      <trkpt lat="46.42167" lon="5.14322">
        <ele>213.8</ele>
        <time>2022-06-25T05:38:38Z</time>
      </trkpt>
      <trkpt lat="46.42162" lon="5.14324">
        <ele>213.8</ele>
        <time>2022-06-25T05:38:39Z</time>
      </trkpt>
      <trkpt lat="46.42138" lon="5.14328">
        <ele>215</ele>
        <time>2022-06-25T05:38:43Z</time>
      </trkpt>
      <trkpt lat="46.42126" lon="5.14328">
        <ele>215.2</ele>
        <time>2022-06-25T05:38:45Z</time>
      </trkpt>
      <trkpt lat="46.42091" lon="5.14334">
        <ele>215.8</ele>
        <time>2022-06-25T05:38:50Z</time>
      </trkpt>
      <trkpt lat="46.42086" lon="5.14336">
        <ele>215.8</ele>
        <time>2022-06-25T05:38:51Z</time>
      </trkpt>
      <trkpt lat="46.42048" lon="5.14359">
        <ele>215.6</ele>
        <time>2022-06-25T05:38:57Z</time>
      </trkpt>
      <trkpt lat="46.42043" lon="5.14361">
        <ele>215.6</ele>
        <time>2022-06-25T05:38:58Z</time>
      </trkpt>
      <trkpt lat="46.4201" lon="5.14367">
        <ele>215.8</ele>
        <time>2022-06-25T05:39:03Z</time>
      </trkpt>
      <trkpt lat="46.41979" lon="5.14368">
        <ele>216</ele>
        <time>2022-06-25T05:39:08Z</time>
      </trkpt>
      <trkpt lat="46.4196" lon="5.14368">
        <ele>216.2</ele>
        <time>2022-06-25T05:39:11Z</time>
      </trkpt>
      <trkpt lat="46.41934" lon="5.1437">
        <ele>216.4</ele>
        <time>2022-06-25T05:39:15Z</time>
      </trkpt>
      <trkpt lat="46.41923" lon="5.14372">
        <ele>216.4</ele>
        <time>2022-06-25T05:39:17Z</time>
      </trkpt>
      <trkpt lat="46.41917" lon="5.14375">
        <ele>216.4</ele>
        <time>2022-06-25T05:39:18Z</time>
      </trkpt>
      <trkpt lat="46.41896" lon="5.14386">
        <ele>217.2</ele>
        <time>2022-06-25T05:39:22Z</time>
      </trkpt>
      <trkpt lat="46.41879" lon="5.14409">
        <ele>217.8</ele>
        <time>2022-06-25T05:39:26Z</time>
      </trkpt>
      <trkpt lat="46.41875" lon="5.14415">
        <ele>218</ele>
        <time>2022-06-25T05:39:27Z</time>
      </trkpt>
      <trkpt lat="46.41872" lon="5.14422">
        <ele>218.2</ele>
        <time>2022-06-25T05:39:28Z</time>
      </trkpt>
      <trkpt lat="46.4187" lon="5.14429">
        <ele>218.4</ele>
        <time>2022-06-25T05:39:29Z</time>
      </trkpt>
      <trkpt lat="46.41863" lon="5.14452">
        <ele>218.6</ele>
        <time>2022-06-25T05:39:32Z</time>
      </trkpt>
      <trkpt lat="46.41858" lon="5.14468">
        <ele>219</ele>
        <time>2022-06-25T05:39:34Z</time>
      </trkpt>
      <trkpt lat="46.41847" lon="5.14489">
        <ele>219.4</ele>
        <time>2022-06-25T05:39:37Z</time>
      </trkpt>
      <trkpt lat="46.41826" lon="5.14507">
        <ele>220</ele>
        <time>2022-06-25T05:39:41Z</time>
      </trkpt>
      <trkpt lat="46.41803" lon="5.14516">
        <ele>220.4</ele>
        <time>2022-06-25T05:39:45Z</time>
      </trkpt>
      <trkpt lat="46.41797" lon="5.14518">
        <ele>220.4</ele>
        <time>2022-06-25T05:39:46Z</time>
      </trkpt>
      <trkpt lat="46.41757" lon="5.14539">
        <ele>220.8</ele>
        <time>2022-06-25T05:39:53Z</time>
      </trkpt>
      <trkpt lat="46.41711" lon="5.1457">
        <ele>221</ele>
        <time>2022-06-25T05:40:01Z</time>
      </trkpt>
      <trkpt lat="46.41706" lon="5.14575">
        <ele>221</ele>
        <time>2022-06-25T05:40:02Z</time>
      </trkpt>
      <trkpt lat="46.41695" lon="5.14587">
        <ele>221.2</ele>
        <time>2022-06-25T05:40:04Z</time>
      </trkpt>
      <trkpt lat="46.41677" lon="5.14598">
        <ele>221.2</ele>
        <time>2022-06-25T05:40:07Z</time>
      </trkpt>
      <trkpt lat="46.41643" lon="5.14607">
        <ele>220.8</ele>
        <time>2022-06-25T05:40:12Z</time>
      </trkpt>
      <trkpt lat="46.41601" lon="5.14613">
        <ele>220.6</ele>
        <time>2022-06-25T05:40:18Z</time>
      </trkpt>
      <trkpt lat="46.41587" lon="5.14612">
        <ele>220.4</ele>
        <time>2022-06-25T05:40:20Z</time>
      </trkpt>
      <trkpt lat="46.41573" lon="5.14615">
        <ele>220.4</ele>
        <time>2022-06-25T05:40:22Z</time>
      </trkpt>
      <trkpt lat="46.4156" lon="5.14623">
        <ele>220.4</ele>
        <time>2022-06-25T05:40:24Z</time>
      </trkpt>
      <trkpt lat="46.41555" lon="5.14629">
        <ele>220.6</ele>
        <time>2022-06-25T05:40:25Z</time>
      </trkpt>
      <trkpt lat="46.41527" lon="5.14668">
        <ele>220.4</ele>
        <time>2022-06-25T05:40:31Z</time>
      </trkpt>
      <trkpt lat="46.41491" lon="5.14716">
        <ele>220.4</ele>
        <time>2022-06-25T05:40:38Z</time>
      </trkpt>
      <trkpt lat="46.41475" lon="5.14738">
        <ele>220.2</ele>
        <time>2022-06-25T05:40:41Z</time>
      </trkpt>
      <trkpt lat="46.41461" lon="5.14765">
        <ele>220</ele>
        <time>2022-06-25T05:40:44Z</time>
      </trkpt>
      <trkpt lat="46.41449" lon="5.14811">
        <ele>219.8</ele>
        <time>2022-06-25T05:40:49Z</time>
      </trkpt>
      <trkpt lat="46.41437" lon="5.14876">
        <ele>220</ele>
        <time>2022-06-25T05:40:56Z</time>
      </trkpt>
      <trkpt lat="46.41431" lon="5.14917">
        <ele>220.8</ele>
        <time>2022-06-25T05:41:01Z</time>
      </trkpt>
      <trkpt lat="46.41429" lon="5.14925">
        <ele>220.8</ele>
        <time>2022-06-25T05:41:02Z</time>
      </trkpt>
      <trkpt lat="46.41426" lon="5.14933">
        <ele>220.8</ele>
        <time>2022-06-25T05:41:03Z</time>
      </trkpt>
      <trkpt lat="46.41416" lon="5.14945">
        <ele>221</ele>
        <time>2022-06-25T05:41:05Z</time>
      </trkpt>
      <trkpt lat="46.41404" lon="5.14951">
        <ele>221.2</ele>
        <time>2022-06-25T05:41:07Z</time>
      </trkpt>
      <trkpt lat="46.41398" lon="5.14953">
        <ele>221.2</ele>
        <time>2022-06-25T05:41:08Z</time>
      </trkpt>
      <trkpt lat="46.41392" lon="5.14954">
        <ele>221.2</ele>
        <time>2022-06-25T05:41:09Z</time>
      </trkpt>
      <trkpt lat="46.41346" lon="5.14955">
        <ele>221.6</ele>
        <time>2022-06-25T05:41:16Z</time>
      </trkpt>
      <trkpt lat="46.41287" lon="5.14946">
        <ele>221.6</ele>
        <time>2022-06-25T05:41:25Z</time>
      </trkpt>
      <trkpt lat="46.4128" lon="5.14944">
        <ele>221.6</ele>
        <time>2022-06-25T05:41:26Z</time>
      </trkpt>
      <trkpt lat="46.41223" lon="5.14933">
        <ele>221.2</ele>
        <time>2022-06-25T05:41:34Z</time>
      </trkpt>
      <trkpt lat="46.41215" lon="5.14932">
        <ele>221.2</ele>
        <time>2022-06-25T05:41:35Z</time>
      </trkpt>
      <trkpt lat="46.41163" lon="5.1493">
        <ele>220.2</ele>
        <time>2022-06-25T05:41:42Z</time>
      </trkpt>
      <trkpt lat="46.41154" lon="5.14929">
        <ele>220.2</ele>
        <time>2022-06-25T05:41:43Z</time>
      </trkpt>
      <trkpt lat="46.41111" lon="5.14932">
        <ele>219.4</ele>
        <time>2022-06-25T05:41:48Z</time>
      </trkpt>
      <trkpt lat="46.41092" lon="5.14936">
        <ele>219.2</ele>
        <time>2022-06-25T05:41:50Z</time>
      </trkpt>
      <trkpt lat="46.41077" lon="5.14942">
        <ele>218</ele>
        <time>2022-06-25T05:41:52Z</time>
      </trkpt>
      <trkpt lat="46.4106" lon="5.14948">
        <ele>217.6</ele>
        <time>2022-06-25T05:41:54Z</time>
      </trkpt>
      <trkpt lat="46.41037" lon="5.14953">
        <ele>217.4</ele>
        <time>2022-06-25T05:41:57Z</time>
      </trkpt>
      <trkpt lat="46.41028" lon="5.14952">
        <ele>217.2</ele>
        <time>2022-06-25T05:41:58Z</time>
      </trkpt>
      <trkpt lat="46.41021" lon="5.14949">
        <ele>217.2</ele>
        <time>2022-06-25T05:41:59Z</time>
      </trkpt>
      <trkpt lat="46.41007" lon="5.14939">
        <ele>217</ele>
        <time>2022-06-25T05:42:01Z</time>
      </trkpt>
      <trkpt lat="46.41002" lon="5.14934">
        <ele>217</ele>
        <time>2022-06-25T05:42:02Z</time>
      </trkpt>
      <trkpt lat="46.40975" lon="5.14908">
        <ele>216.6</ele>
        <time>2022-06-25T05:42:06Z</time>
      </trkpt>
      <trkpt lat="46.40938" lon="5.14889">
        <ele>216.4</ele>
        <time>2022-06-25T05:42:11Z</time>
      </trkpt>
      <trkpt lat="46.40887" lon="5.14873">
        <ele>216</ele>
        <time>2022-06-25T05:42:18Z</time>
      </trkpt>
      <trkpt lat="46.4088" lon="5.14868">
        <ele>216</ele>
        <time>2022-06-25T05:42:19Z</time>
      </trkpt>
      <trkpt lat="46.40874" lon="5.14862">
        <ele>216</ele>
        <time>2022-06-25T05:42:20Z</time>
      </trkpt>
      <trkpt lat="46.40865" lon="5.14846">
        <ele>216</ele>
        <time>2022-06-25T05:42:22Z</time>
      </trkpt>
      <trkpt lat="46.40858" lon="5.14828">
        <ele>216</ele>
        <time>2022-06-25T05:42:24Z</time>
      </trkpt>
      <trkpt lat="46.4085" lon="5.148">
        <ele>216</ele>
        <time>2022-06-25T05:42:27Z</time>
      </trkpt>
      <trkpt lat="46.40835" lon="5.14758">
        <ele>216.6</ele>
        <time>2022-06-25T05:42:32Z</time>
      </trkpt>
      <trkpt lat="46.40827" lon="5.14745">
        <ele>216.6</ele>
        <time>2022-06-25T05:42:34Z</time>
      </trkpt>
      <trkpt lat="46.40823" lon="5.14739">
        <ele>216.8</ele>
        <time>2022-06-25T05:42:35Z</time>
      </trkpt>
      <trkpt lat="46.40814" lon="5.14732">
        <ele>217</ele>
        <time>2022-06-25T05:42:37Z</time>
      </trkpt>
      <trkpt lat="46.40808" lon="5.14727">
        <ele>217.4</ele>
        <time>2022-06-25T05:42:38Z</time>
      </trkpt>
      <trkpt lat="46.40777" lon="5.14713">
        <ele>217.6</ele>
        <time>2022-06-25T05:42:43Z</time>
      </trkpt>
      <trkpt lat="46.40737" lon="5.14702">
        <ele>217</ele>
        <time>2022-06-25T05:42:48Z</time>
      </trkpt>
      <trkpt lat="46.40715" lon="5.14693">
        <ele>215.8</ele>
        <time>2022-06-25T05:42:51Z</time>
      </trkpt>
      <trkpt lat="46.40699" lon="5.14686">
        <ele>215</ele>
        <time>2022-06-25T05:42:54Z</time>
      </trkpt>
      <trkpt lat="46.40694" lon="5.14682">
        <ele>214.8</ele>
        <time>2022-06-25T05:42:56Z</time>
      </trkpt>
      <trkpt lat="46.40692" lon="5.14682">
        <ele>214.6</ele>
        <time>2022-06-25T05:42:57Z</time>
      </trkpt>
      <trkpt lat="46.40688" lon="5.14694">
        <ele>214</ele>
        <time>2022-06-25T05:43:00Z</time>
      </trkpt>
      <trkpt lat="46.40687" lon="5.14699">
        <ele>213.8</ele>
        <time>2022-06-25T05:43:01Z</time>
      </trkpt>
      <trkpt lat="46.40687" lon="5.14706">
        <ele>213.6</ele>
        <time>2022-06-25T05:43:02Z</time>
      </trkpt>
      <trkpt lat="46.40686" lon="5.1472">
        <ele>213.6</ele>
        <time>2022-06-25T05:43:04Z</time>
      </trkpt>
      <trkpt lat="46.40686" lon="5.14761">
        <ele>213.8</ele>
        <time>2022-06-25T05:43:09Z</time>
      </trkpt>
      <trkpt lat="46.40686" lon="5.14769">
        <ele>213.8</ele>
        <time>2022-06-25T05:43:10Z</time>
      </trkpt>
      <trkpt lat="46.40685" lon="5.14817">
        <ele>214.8</ele>
        <time>2022-06-25T05:43:16Z</time>
      </trkpt>
      <trkpt lat="46.40685" lon="5.14834">
        <ele>215.2</ele>
        <time>2022-06-25T05:43:18Z</time>
      </trkpt>
      <trkpt lat="46.40685" lon="5.1485">
        <ele>215.6</ele>
        <time>2022-06-25T05:43:20Z</time>
      </trkpt>
      <trkpt lat="46.40683" lon="5.14857">
        <ele>216</ele>
        <time>2022-06-25T05:43:21Z</time>
      </trkpt>
      <trkpt lat="46.40678" lon="5.14862">
        <ele>216</ele>
        <time>2022-06-25T05:43:22Z</time>
      </trkpt>
      <trkpt lat="46.40665" lon="5.14861">
        <ele>216.4</ele>
        <time>2022-06-25T05:43:24Z</time>
      </trkpt>
      <trkpt lat="46.40653" lon="5.14855">
        <ele>216.4</ele>
        <time>2022-06-25T05:43:26Z</time>
      </trkpt>
      <trkpt lat="46.40642" lon="5.14852">
        <ele>216.4</ele>
        <time>2022-06-25T05:43:28Z</time>
      </trkpt>
      <trkpt lat="46.40634" lon="5.14853">
        <ele>216.4</ele>
        <time>2022-06-25T05:43:29Z</time>
      </trkpt>
      <trkpt lat="46.40631" lon="5.14856">
        <ele>216.6</ele>
        <time>2022-06-25T05:43:30Z</time>
      </trkpt>
      <trkpt lat="46.40624" lon="5.14873">
        <ele>216.4</ele>
        <time>2022-06-25T05:43:32Z</time>
      </trkpt>
      <trkpt lat="46.40616" lon="5.14899">
        <ele>216.2</ele>
        <time>2022-06-25T05:43:35Z</time>
      </trkpt>
      <trkpt lat="46.40609" lon="5.14912">
        <ele>216.2</ele>
        <time>2022-06-25T05:43:37Z</time>
      </trkpt>
      <trkpt lat="46.40585" lon="5.14962">
        <ele>216.4</ele>
        <time>2022-06-25T05:43:44Z</time>
      </trkpt>
      <trkpt lat="46.40575" lon="5.14995">
        <ele>217</ele>
        <time>2022-06-25T05:43:48Z</time>
      </trkpt>
      <trkpt lat="46.40571" lon="5.15012">
        <ele>217.2</ele>
        <time>2022-06-25T05:43:50Z</time>
      </trkpt>
      <trkpt lat="46.40557" lon="5.15063">
        <ele>218</ele>
        <time>2022-06-25T05:43:56Z</time>
      </trkpt>
      <trkpt lat="46.40549" lon="5.15096">
        <ele>218.6</ele>
        <time>2022-06-25T05:44:00Z</time>
      </trkpt>
      <trkpt lat="46.40539" lon="5.15127">
        <ele>219</ele>
        <time>2022-06-25T05:44:04Z</time>
      </trkpt>
      <trkpt lat="46.40527" lon="5.15167">
        <ele>220</ele>
        <time>2022-06-25T05:44:09Z</time>
      </trkpt>
      <trkpt lat="46.40509" lon="5.15218">
        <ele>220.2</ele>
        <time>2022-06-25T05:44:15Z</time>
      </trkpt>
      <trkpt lat="46.40486" lon="5.15275">
        <ele>220</ele>
        <time>2022-06-25T05:44:21Z</time>
      </trkpt>
      <trkpt lat="46.40471" lon="5.15336">
        <ele>219.4</ele>
        <time>2022-06-25T05:44:27Z</time>
      </trkpt>
      <trkpt lat="46.40465" lon="5.15357">
        <ele>219</ele>
        <time>2022-06-25T05:44:29Z</time>
      </trkpt>
      <trkpt lat="46.40455" lon="5.15373">
        <ele>218.8</ele>
        <time>2022-06-25T05:44:31Z</time>
      </trkpt>
      <trkpt lat="46.40417" lon="5.15423">
        <ele>218.4</ele>
        <time>2022-06-25T05:44:38Z</time>
      </trkpt>
      <trkpt lat="46.40397" lon="5.15459">
        <ele>218.6</ele>
        <time>2022-06-25T05:44:43Z</time>
      </trkpt>
      <trkpt lat="46.4038" lon="5.15497">
        <ele>219.6</ele>
        <time>2022-06-25T05:44:48Z</time>
      </trkpt>
      <trkpt lat="46.40378" lon="5.15506">
        <ele>219.8</ele>
        <time>2022-06-25T05:44:49Z</time>
      </trkpt>
      <trkpt lat="46.40371" lon="5.15541">
        <ele>220</ele>
        <time>2022-06-25T05:44:53Z</time>
      </trkpt>
      <trkpt lat="46.40366" lon="5.15567">
        <ele>220.2</ele>
        <time>2022-06-25T05:44:56Z</time>
      </trkpt>
      <trkpt lat="46.40354" lon="5.15639">
        <ele>220.2</ele>
        <time>2022-06-25T05:45:04Z</time>
      </trkpt>
      <trkpt lat="46.40351" lon="5.15647">
        <ele>220.2</ele>
        <time>2022-06-25T05:45:05Z</time>
      </trkpt>
      <trkpt lat="46.40345" lon="5.15663">
        <ele>220.2</ele>
        <time>2022-06-25T05:45:07Z</time>
      </trkpt>
      <trkpt lat="46.40336" lon="5.15678">
        <ele>220.2</ele>
        <time>2022-06-25T05:45:09Z</time>
      </trkpt>
      <trkpt lat="46.40327" lon="5.1569">
        <ele>220.4</ele>
        <time>2022-06-25T05:45:11Z</time>
      </trkpt>
      <trkpt lat="46.40306" lon="5.1571">
        <ele>220.6</ele>
        <time>2022-06-25T05:45:15Z</time>
      </trkpt>
      <trkpt lat="46.40287" lon="5.15734">
        <ele>221.2</ele>
        <time>2022-06-25T05:45:19Z</time>
      </trkpt>
      <trkpt lat="46.40274" lon="5.15754">
        <ele>221.4</ele>
        <time>2022-06-25T05:45:22Z</time>
      </trkpt>
      <trkpt lat="46.4027" lon="5.15761">
        <ele>221.4</ele>
        <time>2022-06-25T05:45:23Z</time>
      </trkpt>
      <trkpt lat="46.40267" lon="5.15769">
        <ele>221.4</ele>
        <time>2022-06-25T05:45:24Z</time>
      </trkpt>
      <trkpt lat="46.40259" lon="5.15795">
        <ele>221.4</ele>
        <time>2022-06-25T05:45:27Z</time>
      </trkpt>
      <trkpt lat="46.40258" lon="5.15805">
        <ele>221.4</ele>
        <time>2022-06-25T05:45:28Z</time>
      </trkpt>
      <trkpt lat="46.40251" lon="5.15871">
        <ele>221.6</ele>
        <time>2022-06-25T05:45:35Z</time>
      </trkpt>
      <trkpt lat="46.4025" lon="5.15953">
        <ele>221.6</ele>
        <time>2022-06-25T05:45:43Z</time>
      </trkpt>
      <trkpt lat="46.4025" lon="5.15961">
        <ele>221.6</ele>
        <time>2022-06-25T05:45:44Z</time>
      </trkpt>
      <trkpt lat="46.40245" lon="5.16046">
        <ele>221.6</ele>
        <time>2022-06-25T05:45:53Z</time>
      </trkpt>
      <trkpt lat="46.40244" lon="5.16056">
        <ele>221.6</ele>
        <time>2022-06-25T05:45:54Z</time>
      </trkpt>
      <trkpt lat="46.40235" lon="5.16132">
        <ele>222.2</ele>
        <time>2022-06-25T05:46:02Z</time>
      </trkpt>
      <trkpt lat="46.40227" lon="5.16194">
        <ele>222</ele>
        <time>2022-06-25T05:46:08Z</time>
      </trkpt>
      <trkpt lat="46.40227" lon="5.16205">
        <ele>222</ele>
        <time>2022-06-25T05:46:09Z</time>
      </trkpt>
      <trkpt lat="46.40233" lon="5.16258">
        <ele>221.8</ele>
        <time>2022-06-25T05:46:14Z</time>
      </trkpt>
      <trkpt lat="46.40231" lon="5.16289">
        <ele>221.6</ele>
        <time>2022-06-25T05:46:17Z</time>
      </trkpt>
      <trkpt lat="46.40228" lon="5.16308">
        <ele>221.6</ele>
        <time>2022-06-25T05:46:19Z</time>
      </trkpt>
      <trkpt lat="46.40217" lon="5.16357">
        <ele>221.2</ele>
        <time>2022-06-25T05:46:24Z</time>
      </trkpt>
      <trkpt lat="46.40196" lon="5.16433">
        <ele>221.2</ele>
        <time>2022-06-25T05:46:32Z</time>
      </trkpt>
      <trkpt lat="46.40184" lon="5.1644">
        <ele>221.2</ele>
        <time>2022-06-25T05:46:34Z</time>
      </trkpt>
      <trkpt lat="46.40175" lon="5.1644">
        <ele>221</ele>
        <time>2022-06-25T05:46:35Z</time>
      </trkpt>
      <trkpt lat="46.40169" lon="5.16436">
        <ele>221</ele>
        <time>2022-06-25T05:46:36Z</time>
      </trkpt>
      <trkpt lat="46.40157" lon="5.16425">
        <ele>221</ele>
        <time>2022-06-25T05:46:38Z</time>
      </trkpt>
      <trkpt lat="46.4014" lon="5.16411">
        <ele>220.8</ele>
        <time>2022-06-25T05:46:41Z</time>
      </trkpt>
      <trkpt lat="46.40128" lon="5.1641">
        <ele>220.8</ele>
        <time>2022-06-25T05:46:43Z</time>
      </trkpt>
      <trkpt lat="46.40114" lon="5.1642">
        <ele>220.6</ele>
        <time>2022-06-25T05:46:45Z</time>
      </trkpt>
      <trkpt lat="46.40111" lon="5.16427">
        <ele>220.4</ele>
        <time>2022-06-25T05:46:46Z</time>
      </trkpt>
      <trkpt lat="46.40107" lon="5.16436">
        <ele>220.2</ele>
        <time>2022-06-25T05:46:47Z</time>
      </trkpt>
      <trkpt lat="46.40103" lon="5.16457">
        <ele>220</ele>
        <time>2022-06-25T05:46:49Z</time>
      </trkpt>
      <trkpt lat="46.40095" lon="5.16504">
        <ele>218.6</ele>
        <time>2022-06-25T05:46:53Z</time>
      </trkpt>
      <trkpt lat="46.40092" lon="5.16516">
        <ele>218.2</ele>
        <time>2022-06-25T05:46:54Z</time>
      </trkpt>
      <trkpt lat="46.40083" lon="5.16538">
        <ele>217.6</ele>
        <time>2022-06-25T05:46:56Z</time>
      </trkpt>
      <trkpt lat="46.40077" lon="5.16548">
        <ele>217.4</ele>
        <time>2022-06-25T05:46:57Z</time>
      </trkpt>
      <trkpt lat="46.4006" lon="5.16579">
        <ele>216</ele>
        <time>2022-06-25T05:47:00Z</time>
      </trkpt>
      <trkpt lat="46.40042" lon="5.1661">
        <ele>214.8</ele>
        <time>2022-06-25T05:47:03Z</time>
      </trkpt>
      <trkpt lat="46.4003" lon="5.1663">
        <ele>214.4</ele>
        <time>2022-06-25T05:47:05Z</time>
      </trkpt>
      <trkpt lat="46.40018" lon="5.16649">
        <ele>213.8</ele>
        <time>2022-06-25T05:47:07Z</time>
      </trkpt>
      <trkpt lat="46.39998" lon="5.16678">
        <ele>212.6</ele>
        <time>2022-06-25T05:47:10Z</time>
      </trkpt>
      <trkpt lat="46.39985" lon="5.16697">
        <ele>211.8</ele>
        <time>2022-06-25T05:47:12Z</time>
      </trkpt>
      <trkpt lat="46.39972" lon="5.16716">
        <ele>211.2</ele>
        <time>2022-06-25T05:47:14Z</time>
      </trkpt>
      <trkpt lat="46.3994" lon="5.16758">
        <ele>209.8</ele>
        <time>2022-06-25T05:47:19Z</time>
      </trkpt>
      <trkpt lat="46.39933" lon="5.16765">
        <ele>209.4</ele>
        <time>2022-06-25T05:47:20Z</time>
      </trkpt>
      <trkpt lat="46.39912" lon="5.16782">
        <ele>209</ele>
        <time>2022-06-25T05:47:23Z</time>
      </trkpt>
      <trkpt lat="46.39905" lon="5.16787">
        <ele>208.8</ele>
        <time>2022-06-25T05:47:24Z</time>
      </trkpt>
      <trkpt lat="46.39877" lon="5.168">
        <ele>209</ele>
        <time>2022-06-25T05:47:28Z</time>
      </trkpt>
      <trkpt lat="46.39871" lon="5.16801">
        <ele>209</ele>
        <time>2022-06-25T05:47:29Z</time>
      </trkpt>
      <trkpt lat="46.39864" lon="5.168">
        <ele>209.2</ele>
        <time>2022-06-25T05:47:30Z</time>
      </trkpt>
      <trkpt lat="46.39845" lon="5.16795">
        <ele>209.6</ele>
        <time>2022-06-25T05:47:33Z</time>
      </trkpt>
      <trkpt lat="46.39829" lon="5.16785">
        <ele>210</ele>
        <time>2022-06-25T05:47:36Z</time>
      </trkpt>
      <trkpt lat="46.39824" lon="5.16781">
        <ele>210.2</ele>
        <time>2022-06-25T05:47:37Z</time>
      </trkpt>
      <trkpt lat="46.39814" lon="5.16773">
        <ele>210.8</ele>
        <time>2022-06-25T05:47:39Z</time>
      </trkpt>
      <trkpt lat="46.39802" lon="5.16761">
        <ele>211.6</ele>
        <time>2022-06-25T05:47:42Z</time>
      </trkpt>
      <trkpt lat="46.39798" lon="5.16758">
        <ele>212</ele>
        <time>2022-06-25T05:47:43Z</time>
      </trkpt>
      <trkpt lat="46.39795" lon="5.16753">
        <ele>212.4</ele>
        <time>2022-06-25T05:47:44Z</time>
      </trkpt>
      <trkpt lat="46.39787" lon="5.16745">
        <ele>212.8</ele>
        <time>2022-06-25T05:47:46Z</time>
      </trkpt>
      <trkpt lat="46.39783" lon="5.16741">
        <ele>213</ele>
        <time>2022-06-25T05:47:47Z</time>
      </trkpt>
      <trkpt lat="46.39775" lon="5.16733">
        <ele>213.4</ele>
        <time>2022-06-25T05:47:49Z</time>
      </trkpt>
      <trkpt lat="46.39764" lon="5.1672">
        <ele>214</ele>
        <time>2022-06-25T05:47:52Z</time>
      </trkpt>
      <trkpt lat="46.3976" lon="5.16716">
        <ele>214.2</ele>
        <time>2022-06-25T05:47:53Z</time>
      </trkpt>
      <trkpt lat="46.39756" lon="5.16712">
        <ele>214.4</ele>
        <time>2022-06-25T05:47:54Z</time>
      </trkpt>
      <trkpt lat="46.39746" lon="5.16703">
        <ele>214.6</ele>
        <time>2022-06-25T05:47:56Z</time>
      </trkpt>
      <trkpt lat="46.39736" lon="5.16696">
        <ele>215.2</ele>
        <time>2022-06-25T05:47:58Z</time>
      </trkpt>
      <trkpt lat="46.39731" lon="5.16693">
        <ele>215.2</ele>
        <time>2022-06-25T05:47:59Z</time>
      </trkpt>
      <trkpt lat="46.39709" lon="5.16684">
        <ele>216</ele>
        <time>2022-06-25T05:48:03Z</time>
      </trkpt>
      <trkpt lat="46.39699" lon="5.16682">
        <ele>216.2</ele>
        <time>2022-06-25T05:48:05Z</time>
      </trkpt>
      <trkpt lat="46.3968" lon="5.16677">
        <ele>216.8</ele>
        <time>2022-06-25T05:48:09Z</time>
      </trkpt>
      <trkpt lat="46.39673" lon="5.16678">
        <ele>217</ele>
        <time>2022-06-25T05:48:10Z</time>
      </trkpt>
      <trkpt lat="46.39646" lon="5.1668">
        <ele>217.2</ele>
        <time>2022-06-25T05:48:15Z</time>
      </trkpt>
      <trkpt lat="46.39634" lon="5.16678">
        <ele>217.2</ele>
        <time>2022-06-25T05:48:17Z</time>
      </trkpt>
      <trkpt lat="46.39609" lon="5.16668">
        <ele>217.6</ele>
        <time>2022-06-25T05:48:22Z</time>
      </trkpt>
      <trkpt lat="46.39602" lon="5.16667">
        <ele>217.8</ele>
        <time>2022-06-25T05:48:24Z</time>
      </trkpt>
      <trkpt lat="46.39597" lon="5.16666">
        <ele>217.8</ele>
        <time>2022-06-25T05:48:28Z</time>
      </trkpt>
      <trkpt lat="46.39597" lon="5.16666">
        <ele>218</ele>
        <time>2022-06-25T05:48:29Z</time>
      </trkpt>
      <trkpt lat="46.39594" lon="5.16668">
        <ele>217.4</ele>
        <time>2022-06-25T05:50:05Z</time>
      </trkpt>
      <trkpt lat="46.39588" lon="5.1667">
        <ele>217.4</ele>
        <time>2022-06-25T05:50:07Z</time>
      </trkpt>
      <trkpt lat="46.39574" lon="5.16673">
        <ele>217.6</ele>
        <time>2022-06-25T05:50:10Z</time>
      </trkpt>
      <trkpt lat="46.39568" lon="5.16673">
        <ele>217.6</ele>
        <time>2022-06-25T05:50:11Z</time>
      </trkpt>
      <trkpt lat="46.39562" lon="5.16672">
        <ele>217.8</ele>
        <time>2022-06-25T05:50:12Z</time>
      </trkpt>
      <trkpt lat="46.39539" lon="5.16662">
        <ele>218</ele>
        <time>2022-06-25T05:50:16Z</time>
      </trkpt>
      <trkpt lat="46.39493" lon="5.16649">
        <ele>218.4</ele>
        <time>2022-06-25T05:50:23Z</time>
      </trkpt>
      <trkpt lat="46.39474" lon="5.16646">
        <ele>218.6</ele>
        <time>2022-06-25T05:50:26Z</time>
      </trkpt>
      <trkpt lat="46.3943" lon="5.1664">
        <ele>219.2</ele>
        <time>2022-06-25T05:50:33Z</time>
      </trkpt>
      <trkpt lat="46.39374" lon="5.16631">
        <ele>219</ele>
        <time>2022-06-25T05:50:42Z</time>
      </trkpt>
      <trkpt lat="46.39368" lon="5.1663">
        <ele>219</ele>
        <time>2022-06-25T05:50:43Z</time>
      </trkpt>
      <trkpt lat="46.39336" lon="5.16626">
        <ele>219.6</ele>
        <time>2022-06-25T05:50:48Z</time>
      </trkpt>
      <trkpt lat="46.39292" lon="5.1662">
        <ele>220</ele>
        <time>2022-06-25T05:50:55Z</time>
      </trkpt>
      <trkpt lat="46.39285" lon="5.16621">
        <ele>220</ele>
        <time>2022-06-25T05:50:56Z</time>
      </trkpt>
      <trkpt lat="46.39273" lon="5.16625">
        <ele>220.2</ele>
        <time>2022-06-25T05:50:58Z</time>
      </trkpt>
      <trkpt lat="46.39267" lon="5.16629">
        <ele>220.2</ele>
        <time>2022-06-25T05:50:59Z</time>
      </trkpt>
      <trkpt lat="46.39213" lon="5.16669">
        <ele>220</ele>
        <time>2022-06-25T05:51:08Z</time>
      </trkpt>
      <trkpt lat="46.39194" lon="5.16682">
        <ele>219.8</ele>
        <time>2022-06-25T05:51:11Z</time>
      </trkpt>
      <trkpt lat="46.39183" lon="5.16693">
        <ele>219.8</ele>
        <time>2022-06-25T05:51:13Z</time>
      </trkpt>
      <trkpt lat="46.39167" lon="5.16711">
        <ele>220</ele>
        <time>2022-06-25T05:51:16Z</time>
      </trkpt>
      <trkpt lat="46.39155" lon="5.16721">
        <ele>220</ele>
        <time>2022-06-25T05:51:18Z</time>
      </trkpt>
      <trkpt lat="46.3911" lon="5.16739">
        <ele>220</ele>
        <time>2022-06-25T05:51:25Z</time>
      </trkpt>
      <trkpt lat="46.39074" lon="5.16743">
        <ele>220</ele>
        <time>2022-06-25T05:51:31Z</time>
      </trkpt>
      <trkpt lat="46.39069" lon="5.16743">
        <ele>220</ele>
        <time>2022-06-25T05:51:32Z</time>
      </trkpt>
      <trkpt lat="46.39058" lon="5.16746">
        <ele>220</ele>
        <time>2022-06-25T05:51:35Z</time>
      </trkpt>
      <trkpt lat="46.39053" lon="5.16743">
        <ele>220</ele>
        <time>2022-06-25T05:51:37Z</time>
      </trkpt>
      <trkpt lat="46.39051" lon="5.16736">
        <ele>220</ele>
        <time>2022-06-25T05:51:39Z</time>
      </trkpt>
      <trkpt lat="46.39051" lon="5.16711">
        <ele>220.2</ele>
        <time>2022-06-25T05:51:45Z</time>
      </trkpt>
      <trkpt lat="46.39051" lon="5.16693">
        <ele>220.4</ele>
        <time>2022-06-25T05:51:49Z</time>
      </trkpt>
      <trkpt lat="46.39051" lon="5.16689">
        <ele>220.4</ele>
        <time>2022-06-25T05:51:50Z</time>
      </trkpt>
      <trkpt lat="46.39052" lon="5.16687">
        <ele>220.6</ele>
        <time>2022-06-25T05:51:51Z</time>
      </trkpt>
      <trkpt lat="46.39051" lon="5.16683">
        <ele>220.6</ele>
        <time>2022-06-25T05:51:53Z</time>
      </trkpt>
      <trkpt lat="46.3905" lon="5.16683">
        <ele>220.6</ele>
        <time>2022-06-25T05:51:54Z</time>
      </trkpt>
      <trkpt lat="46.39051" lon="5.167">
        <ele>220.8</ele>
        <time>2022-06-25T05:51:59Z</time>
      </trkpt>
      <trkpt lat="46.39052" lon="5.16737">
        <ele>220.8</ele>
        <time>2022-06-25T05:52:05Z</time>
      </trkpt>
      <trkpt lat="46.39051" lon="5.16763">
        <ele>220.6</ele>
        <time>2022-06-25T05:52:09Z</time>
      </trkpt>
      <trkpt lat="46.39049" lon="5.16774">
        <ele>220.6</ele>
        <time>2022-06-25T05:52:11Z</time>
      </trkpt>
      <trkpt lat="46.39038" lon="5.16812">
        <ele>219.8</ele>
        <time>2022-06-25T05:52:18Z</time>
      </trkpt>
      <trkpt lat="46.39031" lon="5.16828">
        <ele>219.4</ele>
        <time>2022-06-25T05:52:21Z</time>
      </trkpt>
      <trkpt lat="46.39027" lon="5.16838">
        <ele>219.4</ele>
        <time>2022-06-25T05:52:24Z</time>
      </trkpt>
      <trkpt lat="46.39022" lon="5.16862">
        <ele>219.2</ele>
        <time>2022-06-25T05:52:30Z</time>
      </trkpt>
      <trkpt lat="46.39018" lon="5.16894">
        <ele>219.4</ele>
        <time>2022-06-25T05:52:36Z</time>
      </trkpt>
      <trkpt lat="46.39018" lon="5.169">
        <ele>219.2</ele>
        <time>2022-06-25T05:52:37Z</time>
      </trkpt>
      <trkpt lat="46.39012" lon="5.16924">
        <ele>219.2</ele>
        <time>2022-06-25T05:52:41Z</time>
      </trkpt>
      <trkpt lat="46.3901" lon="5.16929">
        <ele>219.2</ele>
        <time>2022-06-25T05:52:42Z</time>
      </trkpt>
      <trkpt lat="46.39006" lon="5.16932">
        <ele>219.2</ele>
        <time>2022-06-25T05:52:43Z</time>
      </trkpt>
      <trkpt lat="46.38995" lon="5.16931">
        <ele>219.2</ele>
        <time>2022-06-25T05:52:45Z</time>
      </trkpt>
      <trkpt lat="46.38978" lon="5.16916">
        <ele>219.4</ele>
        <time>2022-06-25T05:52:49Z</time>
      </trkpt>
      <trkpt lat="46.3895" lon="5.16892">
        <ele>219.6</ele>
        <time>2022-06-25T05:52:55Z</time>
      </trkpt>
      <trkpt lat="46.38918" lon="5.16862">
        <ele>220</ele>
        <time>2022-06-25T05:53:02Z</time>
      </trkpt>
      <trkpt lat="46.38907" lon="5.16852">
        <ele>220.2</ele>
        <time>2022-06-25T05:53:04Z</time>
      </trkpt>
      <trkpt lat="46.38896" lon="5.16851">
        <ele>220.4</ele>
        <time>2022-06-25T05:53:06Z</time>
      </trkpt>
      <trkpt lat="46.38885" lon="5.16858">
        <ele>220.4</ele>
        <time>2022-06-25T05:53:08Z</time>
      </trkpt>
      <trkpt lat="46.3888" lon="5.16863">
        <ele>220.4</ele>
        <time>2022-06-25T05:53:09Z</time>
      </trkpt>
      <trkpt lat="46.38851" lon="5.16895">
        <ele>220</ele>
        <time>2022-06-25T05:53:14Z</time>
      </trkpt>
      <trkpt lat="46.38826" lon="5.16928">
        <ele>219.6</ele>
        <time>2022-06-25T05:53:18Z</time>
      </trkpt>
      <trkpt lat="46.38819" lon="5.16935">
        <ele>219.2</ele>
        <time>2022-06-25T05:53:19Z</time>
      </trkpt>
      <trkpt lat="46.38779" lon="5.16961">
        <ele>218.2</ele>
        <time>2022-06-25T05:53:24Z</time>
      </trkpt>
      <trkpt lat="46.38757" lon="5.16975">
        <ele>217.8</ele>
        <time>2022-06-25T05:53:27Z</time>
      </trkpt>
      <trkpt lat="46.38745" lon="5.16986">
        <ele>217.8</ele>
        <time>2022-06-25T05:53:29Z</time>
      </trkpt>
      <trkpt lat="46.38715" lon="5.17004">
        <ele>217.8</ele>
        <time>2022-06-25T05:53:34Z</time>
      </trkpt>
      <trkpt lat="46.38681" lon="5.17014">
        <ele>219.4</ele>
        <time>2022-06-25T05:53:40Z</time>
      </trkpt>
      <trkpt lat="46.38676" lon="5.17016">
        <ele>219.6</ele>
        <time>2022-06-25T05:53:41Z</time>
      </trkpt>
      <trkpt lat="46.38654" lon="5.17022">
        <ele>220.6</ele>
        <time>2022-06-25T05:53:45Z</time>
      </trkpt>
      <trkpt lat="46.38623" lon="5.17031">
        <ele>221.2</ele>
        <time>2022-06-25T05:53:50Z</time>
      </trkpt>
      <trkpt lat="46.3861" lon="5.17035">
        <ele>221.6</ele>
        <time>2022-06-25T05:53:52Z</time>
      </trkpt>
      <trkpt lat="46.38576" lon="5.17045">
        <ele>222.2</ele>
        <time>2022-06-25T05:53:57Z</time>
      </trkpt>
      <trkpt lat="46.38535" lon="5.17052">
        <ele>222.2</ele>
        <time>2022-06-25T05:54:03Z</time>
      </trkpt>
      <trkpt lat="46.38501" lon="5.17044">
        <ele>222.4</ele>
        <time>2022-06-25T05:54:08Z</time>
      </trkpt>
      <trkpt lat="46.38452" lon="5.17026">
        <ele>222.6</ele>
        <time>2022-06-25T05:54:15Z</time>
      </trkpt>
      <trkpt lat="46.38407" lon="5.17028">
        <ele>222.4</ele>
        <time>2022-06-25T05:54:21Z</time>
      </trkpt>
      <trkpt lat="46.38369" lon="5.17022">
        <ele>222.2</ele>
        <time>2022-06-25T05:54:26Z</time>
      </trkpt>
      <trkpt lat="46.38315" lon="5.17015">
        <ele>221.8</ele>
        <time>2022-06-25T05:54:33Z</time>
      </trkpt>
      <trkpt lat="46.38261" lon="5.17009">
        <ele>221.6</ele>
        <time>2022-06-25T05:54:40Z</time>
      </trkpt>
      <trkpt lat="46.38253" lon="5.17008">
        <ele>221.6</ele>
        <time>2022-06-25T05:54:41Z</time>
      </trkpt>
      <trkpt lat="46.38217" lon="5.16999">
        <ele>221.4</ele>
        <time>2022-06-25T05:54:46Z</time>
      </trkpt>
      <trkpt lat="46.38204" lon="5.16992">
        <ele>221.4</ele>
        <time>2022-06-25T05:54:48Z</time>
      </trkpt>
      <trkpt lat="46.38192" lon="5.16981">
        <ele>221.4</ele>
        <time>2022-06-25T05:54:50Z</time>
      </trkpt>
      <trkpt lat="46.38182" lon="5.1697">
        <ele>221.6</ele>
        <time>2022-06-25T05:54:52Z</time>
      </trkpt>
      <trkpt lat="46.38171" lon="5.16968">
        <ele>221.8</ele>
        <time>2022-06-25T05:54:54Z</time>
      </trkpt>
      <trkpt lat="46.38167" lon="5.16972">
        <ele>221.8</ele>
        <time>2022-06-25T05:54:55Z</time>
      </trkpt>
      <trkpt lat="46.38163" lon="5.16977">
        <ele>221.8</ele>
        <time>2022-06-25T05:54:56Z</time>
      </trkpt>
      <trkpt lat="46.38158" lon="5.16993">
        <ele>221.8</ele>
        <time>2022-06-25T05:54:58Z</time>
      </trkpt>
      <trkpt lat="46.38146" lon="5.1704">
        <ele>221.8</ele>
        <time>2022-06-25T05:55:03Z</time>
      </trkpt>
      <trkpt lat="46.38126" lon="5.1708">
        <ele>222</ele>
        <time>2022-06-25T05:55:08Z</time>
      </trkpt>
      <trkpt lat="46.38086" lon="5.17137">
        <ele>222.4</ele>
        <time>2022-06-25T05:55:16Z</time>
      </trkpt>
      <trkpt lat="46.38045" lon="5.17183">
        <ele>222.4</ele>
        <time>2022-06-25T05:55:23Z</time>
      </trkpt>
      <trkpt lat="46.38009" lon="5.17199">
        <ele>222.4</ele>
        <time>2022-06-25T05:55:28Z</time>
      </trkpt>
      <trkpt lat="46.37974" lon="5.17213">
        <ele>222.8</ele>
        <time>2022-06-25T05:55:33Z</time>
      </trkpt>
      <trkpt lat="46.37924" lon="5.17233">
        <ele>222.6</ele>
        <time>2022-06-25T05:55:40Z</time>
      </trkpt>
      <trkpt lat="46.37875" lon="5.17257">
        <ele>222.2</ele>
        <time>2022-06-25T05:55:47Z</time>
      </trkpt>
      <trkpt lat="46.37855" lon="5.17274">
        <ele>222.2</ele>
        <time>2022-06-25T05:55:50Z</time>
      </trkpt>
      <trkpt lat="46.37843" lon="5.17289">
        <ele>222.2</ele>
        <time>2022-06-25T05:55:52Z</time>
      </trkpt>
      <trkpt lat="46.37808" lon="5.17345">
        <ele>222.2</ele>
        <time>2022-06-25T05:55:59Z</time>
      </trkpt>
      <trkpt lat="46.37772" lon="5.17403">
        <ele>222.2</ele>
        <time>2022-06-25T05:56:06Z</time>
      </trkpt>
      <trkpt lat="46.37768" lon="5.17409">
        <ele>222.2</ele>
        <time>2022-06-25T05:56:07Z</time>
      </trkpt>
      <trkpt lat="46.37742" lon="5.17433">
        <ele>222.4</ele>
        <time>2022-06-25T05:56:11Z</time>
      </trkpt>
      <trkpt lat="46.37694" lon="5.1747">
        <ele>222.6</ele>
        <time>2022-06-25T05:56:18Z</time>
      </trkpt>
      <trkpt lat="46.37679" lon="5.17475">
        <ele>222.6</ele>
        <time>2022-06-25T05:56:20Z</time>
      </trkpt>
      <trkpt lat="46.37664" lon="5.17475">
        <ele>222.6</ele>
        <time>2022-06-25T05:56:22Z</time>
      </trkpt>
      <trkpt lat="46.37641" lon="5.17472">
        <ele>222.6</ele>
        <time>2022-06-25T05:56:25Z</time>
      </trkpt>
      <trkpt lat="46.37627" lon="5.17466">
        <ele>222.6</ele>
        <time>2022-06-25T05:56:27Z</time>
      </trkpt>
      <trkpt lat="46.37599" lon="5.17454">
        <ele>222.8</ele>
        <time>2022-06-25T05:56:31Z</time>
      </trkpt>
      <trkpt lat="46.37585" lon="5.17451">
        <ele>222.8</ele>
        <time>2022-06-25T05:56:33Z</time>
      </trkpt>
      <trkpt lat="46.37531" lon="5.17454">
        <ele>222.8</ele>
        <time>2022-06-25T05:56:40Z</time>
      </trkpt>
      <trkpt lat="46.37477" lon="5.17464">
        <ele>222.4</ele>
        <time>2022-06-25T05:56:47Z</time>
      </trkpt>
      <trkpt lat="46.3747" lon="5.17467">
        <ele>222.4</ele>
        <time>2022-06-25T05:56:48Z</time>
      </trkpt>
      <trkpt lat="46.37433" lon="5.17472">
        <ele>222.4</ele>
        <time>2022-06-25T05:56:53Z</time>
      </trkpt>
      <trkpt lat="46.37388" lon="5.17458">
        <ele>222.2</ele>
        <time>2022-06-25T05:56:59Z</time>
      </trkpt>
      <trkpt lat="46.37357" lon="5.17446">
        <ele>221.8</ele>
        <time>2022-06-25T05:57:03Z</time>
      </trkpt>
      <trkpt lat="46.37326" lon="5.17439">
        <ele>221.4</ele>
        <time>2022-06-25T05:57:07Z</time>
      </trkpt>
      <trkpt lat="46.37265" lon="5.17437">
        <ele>220.6</ele>
        <time>2022-06-25T05:57:15Z</time>
      </trkpt>
      <trkpt lat="46.37241" lon="5.17439">
        <ele>220.4</ele>
        <time>2022-06-25T05:57:18Z</time>
      </trkpt>
      <trkpt lat="46.37225" lon="5.1744">
        <ele>220.2</ele>
        <time>2022-06-25T05:57:20Z</time>
      </trkpt>
      <trkpt lat="46.37196" lon="5.17434">
        <ele>220.2</ele>
        <time>2022-06-25T05:57:24Z</time>
      </trkpt>
      <trkpt lat="46.37189" lon="5.17431">
        <ele>220.2</ele>
        <time>2022-06-25T05:57:25Z</time>
      </trkpt>
      <trkpt lat="46.37184" lon="5.17428">
        <ele>220.2</ele>
        <time>2022-06-25T05:57:26Z</time>
      </trkpt>
      <trkpt lat="46.37172" lon="5.17416">
        <ele>220.2</ele>
        <time>2022-06-25T05:57:28Z</time>
      </trkpt>
      <trkpt lat="46.37166" lon="5.17409">
        <ele>220.2</ele>
        <time>2022-06-25T05:57:29Z</time>
      </trkpt>
      <trkpt lat="46.37155" lon="5.17397">
        <ele>220.2</ele>
        <time>2022-06-25T05:57:31Z</time>
      </trkpt>
      <trkpt lat="46.37141" lon="5.1739">
        <ele>220.2</ele>
        <time>2022-06-25T05:57:33Z</time>
      </trkpt>
      <trkpt lat="46.37094" lon="5.17386">
        <ele>219.8</ele>
        <time>2022-06-25T05:57:39Z</time>
      </trkpt>
      <trkpt lat="46.37073" lon="5.17386">
        <ele>219.4</ele>
        <time>2022-06-25T05:57:42Z</time>
      </trkpt>
      <trkpt lat="46.37046" lon="5.17385">
        <ele>219.2</ele>
        <time>2022-06-25T05:57:46Z</time>
      </trkpt>
      <trkpt lat="46.36989" lon="5.17382">
        <ele>219.2</ele>
        <time>2022-06-25T05:57:54Z</time>
      </trkpt>
      <trkpt lat="46.36982" lon="5.17379">
        <ele>219.2</ele>
        <time>2022-06-25T05:57:55Z</time>
      </trkpt>
      <trkpt lat="46.36935" lon="5.17351">
        <ele>219</ele>
        <time>2022-06-25T05:58:02Z</time>
      </trkpt>
      <trkpt lat="46.36888" lon="5.1733">
        <ele>219</ele>
        <time>2022-06-25T05:58:09Z</time>
      </trkpt>
      <trkpt lat="46.36836" lon="5.17319">
        <ele>219.6</ele>
        <time>2022-06-25T05:58:17Z</time>
      </trkpt>
      <trkpt lat="46.36813" lon="5.17318">
        <ele>220.2</ele>
        <time>2022-06-25T05:58:21Z</time>
      </trkpt>
      <trkpt lat="46.36802" lon="5.17322">
        <ele>220.4</ele>
        <time>2022-06-25T05:58:23Z</time>
      </trkpt>
      <trkpt lat="46.36798" lon="5.17327">
        <ele>220.6</ele>
        <time>2022-06-25T05:58:24Z</time>
      </trkpt>
      <trkpt lat="46.36793" lon="5.17332">
        <ele>220.6</ele>
        <time>2022-06-25T05:58:25Z</time>
      </trkpt>
      <trkpt lat="46.36785" lon="5.17344">
        <ele>220.8</ele>
        <time>2022-06-25T05:58:27Z</time>
      </trkpt>
      <trkpt lat="46.36774" lon="5.17361">
        <ele>221.6</ele>
        <time>2022-06-25T05:58:30Z</time>
      </trkpt>
      <trkpt lat="46.36766" lon="5.17366">
        <ele>222</ele>
        <time>2022-06-25T05:58:32Z</time>
      </trkpt>
      <trkpt lat="46.36759" lon="5.17365">
        <ele>222.2</ele>
        <time>2022-06-25T05:58:34Z</time>
      </trkpt>
      <trkpt lat="46.36756" lon="5.17362">
        <ele>222.2</ele>
        <time>2022-06-25T05:58:35Z</time>
      </trkpt>
      <trkpt lat="46.36732" lon="5.17334">
        <ele>222.6</ele>
        <time>2022-06-25T05:58:41Z</time>
      </trkpt>
      <trkpt lat="46.36722" lon="5.17327">
        <ele>222.6</ele>
        <time>2022-06-25T05:58:43Z</time>
      </trkpt>
      <trkpt lat="46.36716" lon="5.17326">
        <ele>222.6</ele>
        <time>2022-06-25T05:58:44Z</time>
      </trkpt>
      <trkpt lat="46.36703" lon="5.17327">
        <ele>222.6</ele>
        <time>2022-06-25T05:58:46Z</time>
      </trkpt>
      <trkpt lat="46.36687" lon="5.17326">
        <ele>222.8</ele>
        <time>2022-06-25T05:58:48Z</time>
      </trkpt>
      <trkpt lat="46.36643" lon="5.17326">
        <ele>222.6</ele>
        <time>2022-06-25T05:58:54Z</time>
      </trkpt>
      <trkpt lat="46.36597" lon="5.17334">
        <ele>221.6</ele>
        <time>2022-06-25T05:59:00Z</time>
      </trkpt>
      <trkpt lat="46.36582" lon="5.17339">
        <ele>221.4</ele>
        <time>2022-06-25T05:59:02Z</time>
      </trkpt>
      <trkpt lat="46.36553" lon="5.17351">
        <ele>220.8</ele>
        <time>2022-06-25T05:59:06Z</time>
      </trkpt>
      <trkpt lat="46.36546" lon="5.17351">
        <ele>220.8</ele>
        <time>2022-06-25T05:59:07Z</time>
      </trkpt>
      <trkpt lat="46.3653" lon="5.1735">
        <ele>220.4</ele>
        <time>2022-06-25T05:59:09Z</time>
      </trkpt>
      <trkpt lat="46.36498" lon="5.1734">
        <ele>220.4</ele>
        <time>2022-06-25T05:59:13Z</time>
      </trkpt>
      <trkpt lat="46.36443" lon="5.17315">
        <ele>219.8</ele>
        <time>2022-06-25T05:59:20Z</time>
      </trkpt>
      <trkpt lat="46.36435" lon="5.17311">
        <ele>219.8</ele>
        <time>2022-06-25T05:59:21Z</time>
      </trkpt>
      <trkpt lat="46.36421" lon="5.17304">
        <ele>219.6</ele>
        <time>2022-06-25T05:59:23Z</time>
      </trkpt>
      <trkpt lat="46.36404" lon="5.17303">
        <ele>219.4</ele>
        <time>2022-06-25T05:59:25Z</time>
      </trkpt>
      <trkpt lat="46.36397" lon="5.17305">
        <ele>219.4</ele>
        <time>2022-06-25T05:59:26Z</time>
      </trkpt>
      <trkpt lat="46.3639" lon="5.17309">
        <ele>219.2</ele>
        <time>2022-06-25T05:59:27Z</time>
      </trkpt>
      <trkpt lat="46.36383" lon="5.17314">
        <ele>219.2</ele>
        <time>2022-06-25T05:59:28Z</time>
      </trkpt>
      <trkpt lat="46.36333" lon="5.17352">
        <ele>218.6</ele>
        <time>2022-06-25T05:59:35Z</time>
      </trkpt>
      <trkpt lat="46.36311" lon="5.17368">
        <ele>218.2</ele>
        <time>2022-06-25T05:59:38Z</time>
      </trkpt>
      <trkpt lat="46.36298" lon="5.17381">
        <ele>217.8</ele>
        <time>2022-06-25T05:59:40Z</time>
      </trkpt>
      <trkpt lat="46.36292" lon="5.17388">
        <ele>217.8</ele>
        <time>2022-06-25T05:59:41Z</time>
      </trkpt>
      <trkpt lat="46.36287" lon="5.17397">
        <ele>217.6</ele>
        <time>2022-06-25T05:59:42Z</time>
      </trkpt>
      <trkpt lat="46.36281" lon="5.17418">
        <ele>217.6</ele>
        <time>2022-06-25T05:59:44Z</time>
      </trkpt>
      <trkpt lat="46.36276" lon="5.17439">
        <ele>217.6</ele>
        <time>2022-06-25T05:59:46Z</time>
      </trkpt>
      <trkpt lat="46.36265" lon="5.17468">
        <ele>217.6</ele>
        <time>2022-06-25T05:59:49Z</time>
      </trkpt>
      <trkpt lat="46.36254" lon="5.17482">
        <ele>217.6</ele>
        <time>2022-06-25T05:59:51Z</time>
      </trkpt>
      <trkpt lat="46.36246" lon="5.17488">
        <ele>217.6</ele>
        <time>2022-06-25T05:59:52Z</time>
      </trkpt>
      <trkpt lat="46.36238" lon="5.17491">
        <ele>217.6</ele>
        <time>2022-06-25T05:59:53Z</time>
      </trkpt>
      <trkpt lat="46.3622" lon="5.17494">
        <ele>217.4</ele>
        <time>2022-06-25T05:59:55Z</time>
      </trkpt>
      <trkpt lat="46.36201" lon="5.17496">
        <ele>217.2</ele>
        <time>2022-06-25T05:59:57Z</time>
      </trkpt>
      <trkpt lat="46.36183" lon="5.17499">
        <ele>217</ele>
        <time>2022-06-25T05:59:59Z</time>
      </trkpt>
      <trkpt lat="46.36173" lon="5.17504">
        <ele>216.6</ele>
        <time>2022-06-25T06:00:00Z</time>
      </trkpt>
      <trkpt lat="46.36151" lon="5.17514">
        <ele>215.8</ele>
        <time>2022-06-25T06:00:02Z</time>
      </trkpt>
      <trkpt lat="46.36128" lon="5.17523">
        <ele>214.8</ele>
        <time>2022-06-25T06:00:04Z</time>
      </trkpt>
      <trkpt lat="46.36117" lon="5.17524">
        <ele>213.4</ele>
        <time>2022-06-25T06:00:05Z</time>
      </trkpt>
      <trkpt lat="46.3609" lon="5.17523">
        <ele>211.4</ele>
        <time>2022-06-25T06:00:07Z</time>
      </trkpt>
      <trkpt lat="46.36068" lon="5.17517">
        <ele>209.6</ele>
        <time>2022-06-25T06:00:09Z</time>
      </trkpt>
      <trkpt lat="46.36045" lon="5.17511">
        <ele>208</ele>
        <time>2022-06-25T06:00:11Z</time>
      </trkpt>
      <trkpt lat="46.36033" lon="5.17509">
        <ele>207</ele>
        <time>2022-06-25T06:00:12Z</time>
      </trkpt>
      <trkpt lat="46.36022" lon="5.1751">
        <ele>206.8</ele>
        <time>2022-06-25T06:00:13Z</time>
      </trkpt>
      <trkpt lat="46.35991" lon="5.17515">
        <ele>205.6</ele>
        <time>2022-06-25T06:00:16Z</time>
      </trkpt>
      <trkpt lat="46.35956" lon="5.17526">
        <ele>205</ele>
        <time>2022-06-25T06:00:20Z</time>
      </trkpt>
      <trkpt lat="46.35921" lon="5.1753">
        <ele>205.8</ele>
        <time>2022-06-25T06:00:25Z</time>
      </trkpt>
      <trkpt lat="46.35909" lon="5.17529">
        <ele>206.6</ele>
        <time>2022-06-25T06:00:27Z</time>
      </trkpt>
      <trkpt lat="46.35893" lon="5.1753">
        <ele>208</ele>
        <time>2022-06-25T06:00:30Z</time>
      </trkpt>
      <trkpt lat="46.35889" lon="5.17529">
        <ele>208.2</ele>
        <time>2022-06-25T06:00:31Z</time>
      </trkpt>
      <trkpt lat="46.35878" lon="5.17528">
        <ele>208.8</ele>
        <time>2022-06-25T06:00:33Z</time>
      </trkpt>
      <trkpt lat="46.35873" lon="5.17528">
        <ele>209</ele>
        <time>2022-06-25T06:00:34Z</time>
      </trkpt>
      <trkpt lat="46.35862" lon="5.1753">
        <ele>210.2</ele>
        <time>2022-06-25T06:00:36Z</time>
      </trkpt>
      <trkpt lat="46.35851" lon="5.17533">
        <ele>210.6</ele>
        <time>2022-06-25T06:00:38Z</time>
      </trkpt>
      <trkpt lat="46.35846" lon="5.17534">
        <ele>211.4</ele>
        <time>2022-06-25T06:00:39Z</time>
      </trkpt>
      <trkpt lat="46.35824" lon="5.17541">
        <ele>212.4</ele>
        <time>2022-06-25T06:00:43Z</time>
      </trkpt>
      <trkpt lat="46.35818" lon="5.17543">
        <ele>212.8</ele>
        <time>2022-06-25T06:00:44Z</time>
      </trkpt>
      <trkpt lat="46.35794" lon="5.1755">
        <ele>213.8</ele>
        <time>2022-06-25T06:00:48Z</time>
      </trkpt>
      <trkpt lat="46.35776" lon="5.17556">
        <ele>214.4</ele>
        <time>2022-06-25T06:00:51Z</time>
      </trkpt>
      <trkpt lat="46.35763" lon="5.17559">
        <ele>214.8</ele>
        <time>2022-06-25T06:00:53Z</time>
      </trkpt>
      <trkpt lat="46.35734" lon="5.17572">
        <ele>215.6</ele>
        <time>2022-06-25T06:00:58Z</time>
      </trkpt>
      <trkpt lat="46.35689" lon="5.17588">
        <ele>215.4</ele>
        <time>2022-06-25T06:01:04Z</time>
      </trkpt>
      <trkpt lat="46.35638" lon="5.17595">
        <ele>214.8</ele>
        <time>2022-06-25T06:01:10Z</time>
      </trkpt>
      <trkpt lat="46.35602" lon="5.17596">
        <ele>213.6</ele>
        <time>2022-06-25T06:01:14Z</time>
      </trkpt>
      <trkpt lat="46.35577" lon="5.17596">
        <ele>212.6</ele>
        <time>2022-06-25T06:01:17Z</time>
      </trkpt>
      <trkpt lat="46.3553" lon="5.17585">
        <ele>212.2</ele>
        <time>2022-06-25T06:01:23Z</time>
      </trkpt>
      <trkpt lat="46.35492" lon="5.17571">
        <ele>213.2</ele>
        <time>2022-06-25T06:01:29Z</time>
      </trkpt>
      <trkpt lat="46.3548" lon="5.17568">
        <ele>213.8</ele>
        <time>2022-06-25T06:01:31Z</time>
      </trkpt>
      <trkpt lat="46.35469" lon="5.17565">
        <ele>214.2</ele>
        <time>2022-06-25T06:01:33Z</time>
      </trkpt>
      <trkpt lat="46.35463" lon="5.17563">
        <ele>214.8</ele>
        <time>2022-06-25T06:01:34Z</time>
      </trkpt>
      <trkpt lat="46.35452" lon="5.1756">
        <ele>215.4</ele>
        <time>2022-06-25T06:01:36Z</time>
      </trkpt>
      <trkpt lat="46.35439" lon="5.17557">
        <ele>215.8</ele>
        <time>2022-06-25T06:01:38Z</time>
      </trkpt>
      <trkpt lat="46.35402" lon="5.1754">
        <ele>216.6</ele>
        <time>2022-06-25T06:01:44Z</time>
      </trkpt>
      <trkpt lat="46.35397" lon="5.17536">
        <ele>216.8</ele>
        <time>2022-06-25T06:01:45Z</time>
      </trkpt>
      <trkpt lat="46.3539" lon="5.1753">
        <ele>216.8</ele>
        <time>2022-06-25T06:01:46Z</time>
      </trkpt>
      <trkpt lat="46.35373" lon="5.17514">
        <ele>216.8</ele>
        <time>2022-06-25T06:01:49Z</time>
      </trkpt>
      <trkpt lat="46.35358" lon="5.17508">
        <ele>216.8</ele>
        <time>2022-06-25T06:01:51Z</time>
      </trkpt>
      <trkpt lat="46.35351" lon="5.17509">
        <ele>216.8</ele>
        <time>2022-06-25T06:01:52Z</time>
      </trkpt>
      <trkpt lat="46.35344" lon="5.17513">
        <ele>216.6</ele>
        <time>2022-06-25T06:01:53Z</time>
      </trkpt>
      <trkpt lat="46.35332" lon="5.17524">
        <ele>216.4</ele>
        <time>2022-06-25T06:01:55Z</time>
      </trkpt>
      <trkpt lat="46.35287" lon="5.17573">
        <ele>216</ele>
        <time>2022-06-25T06:02:02Z</time>
      </trkpt>
      <trkpt lat="46.35279" lon="5.17579">
        <ele>215.8</ele>
        <time>2022-06-25T06:02:03Z</time>
      </trkpt>
      <trkpt lat="46.35271" lon="5.17584">
        <ele>215.6</ele>
        <time>2022-06-25T06:02:04Z</time>
      </trkpt>
      <trkpt lat="46.35256" lon="5.1759">
        <ele>215.2</ele>
        <time>2022-06-25T06:02:06Z</time>
      </trkpt>
      <trkpt lat="46.35232" lon="5.17598">
        <ele>214.8</ele>
        <time>2022-06-25T06:02:09Z</time>
      </trkpt>
      <trkpt lat="46.35225" lon="5.17601">
        <ele>214.8</ele>
        <time>2022-06-25T06:02:10Z</time>
      </trkpt>
      <trkpt lat="46.35212" lon="5.17609">
        <ele>214.6</ele>
        <time>2022-06-25T06:02:12Z</time>
      </trkpt>
      <trkpt lat="46.35176" lon="5.17636">
        <ele>215.2</ele>
        <time>2022-06-25T06:02:18Z</time>
      </trkpt>
      <trkpt lat="46.3516" lon="5.1765">
        <ele>216</ele>
        <time>2022-06-25T06:02:21Z</time>
      </trkpt>
      <trkpt lat="46.35137" lon="5.17667">
        <ele>217</ele>
        <time>2022-06-25T06:02:25Z</time>
      </trkpt>
      <trkpt lat="46.3513" lon="5.1767">
        <ele>217</ele>
        <time>2022-06-25T06:02:26Z</time>
      </trkpt>
      <trkpt lat="46.35109" lon="5.17674">
        <ele>217.4</ele>
        <time>2022-06-25T06:02:29Z</time>
      </trkpt>
      <trkpt lat="46.35053" lon="5.17672">
        <ele>217.4</ele>
        <time>2022-06-25T06:02:36Z</time>
      </trkpt>
      <trkpt lat="46.34995" lon="5.17668">
        <ele>216.8</ele>
        <time>2022-06-25T06:02:43Z</time>
      </trkpt>
      <trkpt lat="46.34954" lon="5.17651">
        <ele>216</ele>
        <time>2022-06-25T06:02:48Z</time>
      </trkpt>
      <trkpt lat="46.34937" lon="5.17644">
        <ele>216</ele>
        <time>2022-06-25T06:02:50Z</time>
      </trkpt>
      <trkpt lat="46.34881" lon="5.17618">
        <ele>215</ele>
        <time>2022-06-25T06:02:57Z</time>
      </trkpt>
      <trkpt lat="46.34837" lon="5.17597">
        <ele>213.6</ele>
        <time>2022-06-25T06:03:02Z</time>
      </trkpt>
      <trkpt lat="46.34827" lon="5.17594">
        <ele>213.4</ele>
        <time>2022-06-25T06:03:03Z</time>
      </trkpt>
      <trkpt lat="46.34796" lon="5.17587">
        <ele>212.6</ele>
        <time>2022-06-25T06:03:06Z</time>
      </trkpt>
      <trkpt lat="46.34775" lon="5.17586">
        <ele>212</ele>
        <time>2022-06-25T06:03:08Z</time>
      </trkpt>
      <trkpt lat="46.34764" lon="5.17586">
        <ele>211.2</ele>
        <time>2022-06-25T06:03:09Z</time>
      </trkpt>
      <trkpt lat="46.34744" lon="5.17584">
        <ele>210</ele>
        <time>2022-06-25T06:03:11Z</time>
      </trkpt>
      <trkpt lat="46.34714" lon="5.17579">
        <ele>208.8</ele>
        <time>2022-06-25T06:03:14Z</time>
      </trkpt>
      <trkpt lat="46.34662" lon="5.17571">
        <ele>208.2</ele>
        <time>2022-06-25T06:03:20Z</time>
      </trkpt>
      <trkpt lat="46.34631" lon="5.17568">
        <ele>208.6</ele>
        <time>2022-06-25T06:03:25Z</time>
      </trkpt>
      <trkpt lat="46.34614" lon="5.17566">
        <ele>210.2</ele>
        <time>2022-06-25T06:03:28Z</time>
      </trkpt>
      <trkpt lat="46.346" lon="5.17567">
        <ele>211</ele>
        <time>2022-06-25T06:03:31Z</time>
      </trkpt>
      <trkpt lat="46.34595" lon="5.17567">
        <ele>211.8</ele>
        <time>2022-06-25T06:03:32Z</time>
      </trkpt>
      <trkpt lat="46.3458" lon="5.17566">
        <ele>213</ele>
        <time>2022-06-25T06:03:35Z</time>
      </trkpt>
      <trkpt lat="46.34571" lon="5.17565">
        <ele>213.8</ele>
        <time>2022-06-25T06:03:37Z</time>
      </trkpt>
      <trkpt lat="46.34561" lon="5.17565">
        <ele>214.2</ele>
        <time>2022-06-25T06:03:39Z</time>
      </trkpt>
      <trkpt lat="46.34535" lon="5.17564">
        <ele>215.4</ele>
        <time>2022-06-25T06:03:44Z</time>
      </trkpt>
      <trkpt lat="46.34525" lon="5.17565">
        <ele>216</ele>
        <time>2022-06-25T06:03:46Z</time>
      </trkpt>
      <trkpt lat="46.34511" lon="5.17567">
        <ele>216.6</ele>
        <time>2022-06-25T06:03:49Z</time>
      </trkpt>
      <trkpt lat="46.34491" lon="5.1757">
        <ele>217.4</ele>
        <time>2022-06-25T06:03:53Z</time>
      </trkpt>
      <trkpt lat="46.3448" lon="5.17572">
        <ele>217.8</ele>
        <time>2022-06-25T06:03:55Z</time>
      </trkpt>
      <trkpt lat="46.34453" lon="5.17574">
        <ele>218.4</ele>
        <time>2022-06-25T06:04:00Z</time>
      </trkpt>
      <trkpt lat="46.34417" lon="5.17575">
        <ele>218.8</ele>
        <time>2022-06-25T06:04:06Z</time>
      </trkpt>
      <trkpt lat="46.34412" lon="5.17576">
        <ele>219</ele>
        <time>2022-06-25T06:04:07Z</time>
      </trkpt>
      <trkpt lat="46.34376" lon="5.17589">
        <ele>219.4</ele>
        <time>2022-06-25T06:04:13Z</time>
      </trkpt>
      <trkpt lat="46.34334" lon="5.17618">
        <ele>220</ele>
        <time>2022-06-25T06:04:20Z</time>
      </trkpt>
      <trkpt lat="46.34295" lon="5.17659">
        <ele>220.4</ele>
        <time>2022-06-25T06:04:27Z</time>
      </trkpt>
      <trkpt lat="46.34251" lon="5.17707">
        <ele>220.6</ele>
        <time>2022-06-25T06:04:35Z</time>
      </trkpt>
      <trkpt lat="46.34246" lon="5.17711">
        <ele>220.4</ele>
        <time>2022-06-25T06:04:36Z</time>
      </trkpt>
      <trkpt lat="46.342" lon="5.17754">
        <ele>220.4</ele>
        <time>2022-06-25T06:04:43Z</time>
      </trkpt>
      <trkpt lat="46.34149" lon="5.17797">
        <ele>220.4</ele>
        <time>2022-06-25T06:04:51Z</time>
      </trkpt>
      <trkpt lat="46.34103" lon="5.1784">
        <ele>219.8</ele>
        <time>2022-06-25T06:04:58Z</time>
      </trkpt>
      <trkpt lat="46.34092" lon="5.17853">
        <ele>219.8</ele>
        <time>2022-06-25T06:05:00Z</time>
      </trkpt>
      <trkpt lat="46.34057" lon="5.17901">
        <ele>219.6</ele>
        <time>2022-06-25T06:05:06Z</time>
      </trkpt>
      <trkpt lat="46.34017" lon="5.17957">
        <ele>219.2</ele>
        <time>2022-06-25T06:05:13Z</time>
      </trkpt>
      <trkpt lat="46.34006" lon="5.17971">
        <ele>219</ele>
        <time>2022-06-25T06:05:15Z</time>
      </trkpt>
      <trkpt lat="46.34" lon="5.17979">
        <ele>218.8</ele>
        <time>2022-06-25T06:05:16Z</time>
      </trkpt>
      <trkpt lat="46.33961" lon="5.18026">
        <ele>218.4</ele>
        <time>2022-06-25T06:05:22Z</time>
      </trkpt>
      <trkpt lat="46.3393" lon="5.18056">
        <ele>217.8</ele>
        <time>2022-06-25T06:05:27Z</time>
      </trkpt>
      <trkpt lat="46.33924" lon="5.18063">
        <ele>217.6</ele>
        <time>2022-06-25T06:05:28Z</time>
      </trkpt>
      <trkpt lat="46.33918" lon="5.18072">
        <ele>217.6</ele>
        <time>2022-06-25T06:05:29Z</time>
      </trkpt>
      <trkpt lat="46.33914" lon="5.18081">
        <ele>217.6</ele>
        <time>2022-06-25T06:05:30Z</time>
      </trkpt>
      <trkpt lat="46.33903" lon="5.18111">
        <ele>217.4</ele>
        <time>2022-06-25T06:05:33Z</time>
      </trkpt>
      <trkpt lat="46.33892" lon="5.18141">
        <ele>217.4</ele>
        <time>2022-06-25T06:05:36Z</time>
      </trkpt>
      <trkpt lat="46.33883" lon="5.18157">
        <ele>217.4</ele>
        <time>2022-06-25T06:05:38Z</time>
      </trkpt>
      <trkpt lat="46.3385" lon="5.18201">
        <ele>217.6</ele>
        <time>2022-06-25T06:05:44Z</time>
      </trkpt>
      <trkpt lat="46.33808" lon="5.18257">
        <ele>217.2</ele>
        <time>2022-06-25T06:05:51Z</time>
      </trkpt>
      <trkpt lat="46.33802" lon="5.18266">
        <ele>217.2</ele>
        <time>2022-06-25T06:05:52Z</time>
      </trkpt>
      <trkpt lat="46.33784" lon="5.18295">
        <ele>216.8</ele>
        <time>2022-06-25T06:05:55Z</time>
      </trkpt>
      <trkpt lat="46.33769" lon="5.18327">
        <ele>216.2</ele>
        <time>2022-06-25T06:05:58Z</time>
      </trkpt>
      <trkpt lat="46.3376" lon="5.18347">
        <ele>215.2</ele>
        <time>2022-06-25T06:06:00Z</time>
      </trkpt>
      <trkpt lat="46.33744" lon="5.18376">
        <ele>214.8</ele>
        <time>2022-06-25T06:06:03Z</time>
      </trkpt>
      <trkpt lat="46.33713" lon="5.18401">
        <ele>214.2</ele>
        <time>2022-06-25T06:06:07Z</time>
      </trkpt>
      <trkpt lat="46.33705" lon="5.18408">
        <ele>214.2</ele>
        <time>2022-06-25T06:06:08Z</time>
      </trkpt>
      <trkpt lat="46.33687" lon="5.18431">
        <ele>213.8</ele>
        <time>2022-06-25T06:06:11Z</time>
      </trkpt>
      <trkpt lat="46.33664" lon="5.18454">
        <ele>213.6</ele>
        <time>2022-06-25T06:06:15Z</time>
      </trkpt>
      <trkpt lat="46.33657" lon="5.18459">
        <ele>214</ele>
        <time>2022-06-25T06:06:16Z</time>
      </trkpt>
      <trkpt lat="46.33623" lon="5.1848">
        <ele>214.4</ele>
        <time>2022-06-25T06:06:22Z</time>
      </trkpt>
      <trkpt lat="46.33594" lon="5.185">
        <ele>215.6</ele>
        <time>2022-06-25T06:06:28Z</time>
      </trkpt>
      <trkpt lat="46.33579" lon="5.18515">
        <ele>217</ele>
        <time>2022-06-25T06:06:32Z</time>
      </trkpt>
      <trkpt lat="46.33568" lon="5.18527">
        <ele>217.8</ele>
        <time>2022-06-25T06:06:35Z</time>
      </trkpt>
      <trkpt lat="46.33565" lon="5.18531">
        <ele>218.2</ele>
        <time>2022-06-25T06:06:36Z</time>
      </trkpt>
      <trkpt lat="46.33547" lon="5.18551">
        <ele>219.4</ele>
        <time>2022-06-25T06:06:41Z</time>
      </trkpt>
      <trkpt lat="46.33539" lon="5.1856">
        <ele>219.8</ele>
        <time>2022-06-25T06:06:43Z</time>
      </trkpt>
      <trkpt lat="46.33534" lon="5.18563">
        <ele>220</ele>
        <time>2022-06-25T06:06:44Z</time>
      </trkpt>
      <trkpt lat="46.33515" lon="5.18578">
        <ele>220.6</ele>
        <time>2022-06-25T06:06:48Z</time>
      </trkpt>
      <trkpt lat="46.33511" lon="5.18581">
        <ele>220.8</ele>
        <time>2022-06-25T06:06:49Z</time>
      </trkpt>
      <trkpt lat="46.33499" lon="5.18591">
        <ele>221.6</ele>
        <time>2022-06-25T06:06:52Z</time>
      </trkpt>
      <trkpt lat="46.33494" lon="5.18594">
        <ele>221.8</ele>
        <time>2022-06-25T06:06:53Z</time>
      </trkpt>
      <trkpt lat="46.3349" lon="5.18597">
        <ele>222</ele>
        <time>2022-06-25T06:06:54Z</time>
      </trkpt>
      <trkpt lat="46.33478" lon="5.18604">
        <ele>222.6</ele>
        <time>2022-06-25T06:06:57Z</time>
      </trkpt>
      <trkpt lat="46.3347" lon="5.18607">
        <ele>223.2</ele>
        <time>2022-06-25T06:07:00Z</time>
      </trkpt>
      <trkpt lat="46.33465" lon="5.18608">
        <ele>223.6</ele>
        <time>2022-06-25T06:07:03Z</time>
      </trkpt>
      <trkpt lat="46.33463" lon="5.18611">
        <ele>223.8</ele>
        <time>2022-06-25T06:07:04Z</time>
      </trkpt>
      <trkpt lat="46.33462" lon="5.18614">
        <ele>223.8</ele>
        <time>2022-06-25T06:07:05Z</time>
      </trkpt>
      <trkpt lat="46.33458" lon="5.18632">
        <ele>224.2</ele>
        <time>2022-06-25T06:07:08Z</time>
      </trkpt>
      <trkpt lat="46.33441" lon="5.18652">
        <ele>224</ele>
        <time>2022-06-25T06:07:12Z</time>
      </trkpt>
      <trkpt lat="46.33406" lon="5.18686">
        <ele>224.4</ele>
        <time>2022-06-25T06:07:19Z</time>
      </trkpt>
      <trkpt lat="46.33375" lon="5.18713">
        <ele>224.8</ele>
        <time>2022-06-25T06:07:25Z</time>
      </trkpt>
      <trkpt lat="46.33352" lon="5.18738">
        <ele>225.2</ele>
        <time>2022-06-25T06:07:30Z</time>
      </trkpt>
      <trkpt lat="46.33345" lon="5.18751">
        <ele>225.6</ele>
        <time>2022-06-25T06:07:32Z</time>
      </trkpt>
      <trkpt lat="46.3334" lon="5.18758">
        <ele>225.6</ele>
        <time>2022-06-25T06:07:33Z</time>
      </trkpt>
      <trkpt lat="46.33322" lon="5.18788">
        <ele>225.8</ele>
        <time>2022-06-25T06:07:37Z</time>
      </trkpt>
      <trkpt lat="46.33286" lon="5.18847">
        <ele>225.8</ele>
        <time>2022-06-25T06:07:45Z</time>
      </trkpt>
      <trkpt lat="46.33246" lon="5.18913">
        <ele>225.6</ele>
        <time>2022-06-25T06:07:53Z</time>
      </trkpt>
      <trkpt lat="46.33212" lon="5.18957">
        <ele>225.6</ele>
        <time>2022-06-25T06:07:59Z</time>
      </trkpt>
      <trkpt lat="46.33207" lon="5.18965">
        <ele>225.6</ele>
        <time>2022-06-25T06:08:00Z</time>
      </trkpt>
      <trkpt lat="46.33199" lon="5.18983">
        <ele>225.6</ele>
        <time>2022-06-25T06:08:02Z</time>
      </trkpt>
      <trkpt lat="46.33195" lon="5.18993">
        <ele>225.6</ele>
        <time>2022-06-25T06:08:03Z</time>
      </trkpt>
      <trkpt lat="46.33187" lon="5.19023">
        <ele>225.6</ele>
        <time>2022-06-25T06:08:06Z</time>
      </trkpt>
      <trkpt lat="46.33184" lon="5.19033">
        <ele>225.6</ele>
        <time>2022-06-25T06:08:07Z</time>
      </trkpt>
      <trkpt lat="46.33176" lon="5.19051">
        <ele>225.6</ele>
        <time>2022-06-25T06:08:09Z</time>
      </trkpt>
      <trkpt lat="46.33144" lon="5.19122">
        <ele>226</ele>
        <time>2022-06-25T06:08:17Z</time>
      </trkpt>
      <trkpt lat="46.33139" lon="5.1913">
        <ele>226.2</ele>
        <time>2022-06-25T06:08:18Z</time>
      </trkpt>
      <trkpt lat="46.3312" lon="5.19163">
        <ele>226.4</ele>
        <time>2022-06-25T06:08:22Z</time>
      </trkpt>
      <trkpt lat="46.33108" lon="5.19176">
        <ele>226.4</ele>
        <time>2022-06-25T06:08:24Z</time>
      </trkpt>
      <trkpt lat="46.33097" lon="5.19184">
        <ele>226.6</ele>
        <time>2022-06-25T06:08:26Z</time>
      </trkpt>
      <trkpt lat="46.33081" lon="5.19188">
        <ele>226.6</ele>
        <time>2022-06-25T06:08:28Z</time>
      </trkpt>
      <trkpt lat="46.33028" lon="5.19188">
        <ele>226.4</ele>
        <time>2022-06-25T06:08:35Z</time>
      </trkpt>
      <trkpt lat="46.32983" lon="5.1919">
        <ele>226</ele>
        <time>2022-06-25T06:08:40Z</time>
      </trkpt>
      <trkpt lat="46.32933" lon="5.19212">
        <ele>225.2</ele>
        <time>2022-06-25T06:08:46Z</time>
      </trkpt>
      <trkpt lat="46.32925" lon="5.19214">
        <ele>225.2</ele>
        <time>2022-06-25T06:08:47Z</time>
      </trkpt>
      <trkpt lat="46.32897" lon="5.19217">
        <ele>225</ele>
        <time>2022-06-25T06:08:50Z</time>
      </trkpt>
      <trkpt lat="46.3289" lon="5.19217">
        <ele>224.6</ele>
        <time>2022-06-25T06:08:51Z</time>
      </trkpt>
      <trkpt lat="46.32855" lon="5.19218">
        <ele>224.2</ele>
        <time>2022-06-25T06:08:55Z</time>
      </trkpt>
      <trkpt lat="46.3284" lon="5.19215">
        <ele>224</ele>
        <time>2022-06-25T06:08:57Z</time>
      </trkpt>
      <trkpt lat="46.32782" lon="5.19208">
        <ele>224</ele>
        <time>2022-06-25T06:09:04Z</time>
      </trkpt>
      <trkpt lat="46.32774" lon="5.19208">
        <ele>224</ele>
        <time>2022-06-25T06:09:05Z</time>
      </trkpt>
      <trkpt lat="46.32729" lon="5.19218">
        <ele>224.6</ele>
        <time>2022-06-25T06:09:11Z</time>
      </trkpt>
      <trkpt lat="46.32668" lon="5.19222">
        <ele>225.2</ele>
        <time>2022-06-25T06:09:19Z</time>
      </trkpt>
      <trkpt lat="46.32609" lon="5.1922">
        <ele>225.6</ele>
        <time>2022-06-25T06:09:27Z</time>
      </trkpt>
      <trkpt lat="46.32602" lon="5.19219">
        <ele>225.8</ele>
        <time>2022-06-25T06:09:28Z</time>
      </trkpt>
      <trkpt lat="46.32546" lon="5.19217">
        <ele>226</ele>
        <time>2022-06-25T06:09:35Z</time>
      </trkpt>
      <trkpt lat="46.32492" lon="5.19215">
        <ele>226</ele>
        <time>2022-06-25T06:09:42Z</time>
      </trkpt>
      <trkpt lat="46.32439" lon="5.19218">
        <ele>225.8</ele>
        <time>2022-06-25T06:09:49Z</time>
      </trkpt>
      <trkpt lat="46.32384" lon="5.19232">
        <ele>225</ele>
        <time>2022-06-25T06:09:56Z</time>
      </trkpt>
      <trkpt lat="46.32333" lon="5.19259">
        <ele>224.6</ele>
        <time>2022-06-25T06:10:03Z</time>
      </trkpt>
      <trkpt lat="46.32326" lon="5.19263">
        <ele>224.6</ele>
        <time>2022-06-25T06:10:04Z</time>
      </trkpt>
      <trkpt lat="46.32286" lon="5.1929">
        <ele>224.4</ele>
        <time>2022-06-25T06:10:10Z</time>
      </trkpt>
      <trkpt lat="46.32236" lon="5.19324">
        <ele>224.4</ele>
        <time>2022-06-25T06:10:17Z</time>
      </trkpt>
      <trkpt lat="46.3223" lon="5.19327">
        <ele>224.4</ele>
        <time>2022-06-25T06:10:18Z</time>
      </trkpt>
      <trkpt lat="46.32191" lon="5.1935">
        <ele>224.8</ele>
        <time>2022-06-25T06:10:24Z</time>
      </trkpt>
      <trkpt lat="46.3214" lon="5.19378">
        <ele>225.4</ele>
        <time>2022-06-25T06:10:32Z</time>
      </trkpt>
      <trkpt lat="46.32133" lon="5.19381">
        <ele>225.4</ele>
        <time>2022-06-25T06:10:33Z</time>
      </trkpt>
      <trkpt lat="46.3212" lon="5.19385">
        <ele>225.8</ele>
        <time>2022-06-25T06:10:35Z</time>
      </trkpt>
      <trkpt lat="46.32071" lon="5.19399">
        <ele>226.2</ele>
        <time>2022-06-25T06:10:42Z</time>
      </trkpt>
      <trkpt lat="46.32015" lon="5.19417">
        <ele>226.8</ele>
        <time>2022-06-25T06:10:50Z</time>
      </trkpt>
      <trkpt lat="46.32001" lon="5.19424">
        <ele>226.8</ele>
        <time>2022-06-25T06:10:52Z</time>
      </trkpt>
      <trkpt lat="46.31982" lon="5.1944">
        <ele>226.6</ele>
        <time>2022-06-25T06:10:55Z</time>
      </trkpt>
      <trkpt lat="46.3195" lon="5.19463">
        <ele>226.6</ele>
        <time>2022-06-25T06:11:00Z</time>
      </trkpt>
      <trkpt lat="46.31936" lon="5.19469">
        <ele>226.6</ele>
        <time>2022-06-25T06:11:02Z</time>
      </trkpt>
      <trkpt lat="46.31894" lon="5.19479">
        <ele>226.4</ele>
        <time>2022-06-25T06:11:08Z</time>
      </trkpt>
      <trkpt lat="46.31839" lon="5.19481">
        <ele>226.8</ele>
        <time>2022-06-25T06:11:16Z</time>
      </trkpt>
      <trkpt lat="46.31802" lon="5.1948">
        <ele>227.2</ele>
        <time>2022-06-25T06:11:21Z</time>
      </trkpt>
      <trkpt lat="46.31786" lon="5.1948">
        <ele>227.2</ele>
        <time>2022-06-25T06:11:23Z</time>
      </trkpt>
      <trkpt lat="46.31762" lon="5.1948">
        <ele>227</ele>
        <time>2022-06-25T06:11:26Z</time>
      </trkpt>
      <trkpt lat="46.31748" lon="5.19487">
        <ele>226.8</ele>
        <time>2022-06-25T06:11:28Z</time>
      </trkpt>
      <trkpt lat="46.31737" lon="5.19503">
        <ele>226.6</ele>
        <time>2022-06-25T06:11:30Z</time>
      </trkpt>
      <trkpt lat="46.31735" lon="5.19513">
        <ele>226.6</ele>
        <time>2022-06-25T06:11:31Z</time>
      </trkpt>
      <trkpt lat="46.31733" lon="5.19525">
        <ele>226.6</ele>
        <time>2022-06-25T06:11:32Z</time>
      </trkpt>
      <trkpt lat="46.31733" lon="5.19548">
        <ele>226.4</ele>
        <time>2022-06-25T06:11:34Z</time>
      </trkpt>
      <trkpt lat="46.31731" lon="5.19583">
        <ele>226.4</ele>
        <time>2022-06-25T06:11:37Z</time>
      </trkpt>
      <trkpt lat="46.31729" lon="5.19593">
        <ele>226.4</ele>
        <time>2022-06-25T06:11:38Z</time>
      </trkpt>
      <trkpt lat="46.31725" lon="5.19602">
        <ele>226.4</ele>
        <time>2022-06-25T06:11:39Z</time>
      </trkpt>
      <trkpt lat="46.31714" lon="5.19617">
        <ele>226.6</ele>
        <time>2022-06-25T06:11:41Z</time>
      </trkpt>
      <trkpt lat="46.317" lon="5.19623">
        <ele>226.8</ele>
        <time>2022-06-25T06:11:43Z</time>
      </trkpt>
      <trkpt lat="46.31693" lon="5.19624">
        <ele>226.8</ele>
        <time>2022-06-25T06:11:44Z</time>
      </trkpt>
      <trkpt lat="46.31646" lon="5.19626">
        <ele>226.8</ele>
        <time>2022-06-25T06:11:50Z</time>
      </trkpt>
      <trkpt lat="46.31615" lon="5.19631">
        <ele>226.4</ele>
        <time>2022-06-25T06:11:54Z</time>
      </trkpt>
      <trkpt lat="46.31584" lon="5.19638">
        <ele>226.2</ele>
        <time>2022-06-25T06:11:58Z</time>
      </trkpt>
      <trkpt lat="46.31562" lon="5.19643">
        <ele>226</ele>
        <time>2022-06-25T06:12:01Z</time>
      </trkpt>
      <trkpt lat="46.31513" lon="5.19646">
        <ele>226.4</ele>
        <time>2022-06-25T06:12:08Z</time>
      </trkpt>
      <trkpt lat="46.31473" lon="5.19654">
        <ele>226.8</ele>
        <time>2022-06-25T06:12:14Z</time>
      </trkpt>
      <trkpt lat="46.31447" lon="5.19663">
        <ele>227.2</ele>
        <time>2022-06-25T06:12:18Z</time>
      </trkpt>
      <trkpt lat="46.31414" lon="5.19674">
        <ele>227.6</ele>
        <time>2022-06-25T06:12:23Z</time>
      </trkpt>
      <trkpt lat="46.31371" lon="5.19684">
        <ele>228.2</ele>
        <time>2022-06-25T06:12:30Z</time>
      </trkpt>
      <trkpt lat="46.31359" lon="5.19688">
        <ele>228.4</ele>
        <time>2022-06-25T06:12:32Z</time>
      </trkpt>
      <trkpt lat="46.31313" lon="5.19696">
        <ele>229</ele>
        <time>2022-06-25T06:12:39Z</time>
      </trkpt>
      <trkpt lat="46.31261" lon="5.19695">
        <ele>229.4</ele>
        <time>2022-06-25T06:12:47Z</time>
      </trkpt>
      <trkpt lat="46.31221" lon="5.19684">
        <ele>230</ele>
        <time>2022-06-25T06:12:53Z</time>
      </trkpt>
      <trkpt lat="46.31207" lon="5.19684">
        <ele>230</ele>
        <time>2022-06-25T06:12:55Z</time>
      </trkpt>
      <trkpt lat="46.31194" lon="5.19688">
        <ele>230</ele>
        <time>2022-06-25T06:12:57Z</time>
      </trkpt>
      <trkpt lat="46.31157" lon="5.19709">
        <ele>229.6</ele>
        <time>2022-06-25T06:13:03Z</time>
      </trkpt>
      <trkpt lat="46.31113" lon="5.19741">
        <ele>229.2</ele>
        <time>2022-06-25T06:13:10Z</time>
      </trkpt>
      <trkpt lat="46.31109" lon="5.19748">
        <ele>229.2</ele>
        <time>2022-06-25T06:13:11Z</time>
      </trkpt>
      <trkpt lat="46.31107" lon="5.19756">
        <ele>229.2</ele>
        <time>2022-06-25T06:13:12Z</time>
      </trkpt>
      <trkpt lat="46.31106" lon="5.19776">
        <ele>228.8</ele>
        <time>2022-06-25T06:13:14Z</time>
      </trkpt>
      <trkpt lat="46.31109" lon="5.19836">
        <ele>229</ele>
        <time>2022-06-25T06:13:20Z</time>
      </trkpt>
      <trkpt lat="46.31116" lon="5.19919">
        <ele>229</ele>
        <time>2022-06-25T06:13:28Z</time>
      </trkpt>
      <trkpt lat="46.31117" lon="5.19959">
        <ele>228.6</ele>
        <time>2022-06-25T06:13:32Z</time>
      </trkpt>
      <trkpt lat="46.31116" lon="5.19977">
        <ele>228.4</ele>
        <time>2022-06-25T06:13:34Z</time>
      </trkpt>
      <trkpt lat="46.31116" lon="5.19988">
        <ele>228.4</ele>
        <time>2022-06-25T06:13:35Z</time>
      </trkpt>
      <trkpt lat="46.31118" lon="5.20076">
        <ele>227.8</ele>
        <time>2022-06-25T06:13:43Z</time>
      </trkpt>
      <trkpt lat="46.3112" lon="5.20128">
        <ele>227.8</ele>
        <time>2022-06-25T06:13:48Z</time>
      </trkpt>
      <trkpt lat="46.31121" lon="5.2015">
        <ele>227.8</ele>
        <time>2022-06-25T06:13:50Z</time>
      </trkpt>
      <trkpt lat="46.31125" lon="5.20199">
        <ele>227.8</ele>
        <time>2022-06-25T06:13:55Z</time>
      </trkpt>
      <trkpt lat="46.31135" lon="5.20273">
        <ele>227.8</ele>
        <time>2022-06-25T06:14:02Z</time>
      </trkpt>
      <trkpt lat="46.31145" lon="5.20352">
        <ele>228</ele>
        <time>2022-06-25T06:14:10Z</time>
      </trkpt>
      <trkpt lat="46.31146" lon="5.20362">
        <ele>227.8</ele>
        <time>2022-06-25T06:14:11Z</time>
      </trkpt>
      <trkpt lat="46.31156" lon="5.20446">
        <ele>228</ele>
        <time>2022-06-25T06:14:19Z</time>
      </trkpt>
      <trkpt lat="46.31165" lon="5.20523">
        <ele>227.6</ele>
        <time>2022-06-25T06:14:26Z</time>
      </trkpt>
      <trkpt lat="46.31168" lon="5.20545">
        <ele>227.4</ele>
        <time>2022-06-25T06:14:28Z</time>
      </trkpt>
      <trkpt lat="46.31175" lon="5.20589">
        <ele>227</ele>
        <time>2022-06-25T06:14:32Z</time>
      </trkpt>
      <trkpt lat="46.31179" lon="5.20633">
        <ele>227</ele>
        <time>2022-06-25T06:14:36Z</time>
      </trkpt>
      <trkpt lat="46.31179" lon="5.20654">
        <ele>226.8</ele>
        <time>2022-06-25T06:14:38Z</time>
      </trkpt>
      <trkpt lat="46.31174" lon="5.20696">
        <ele>227</ele>
        <time>2022-06-25T06:14:42Z</time>
      </trkpt>
      <trkpt lat="46.31172" lon="5.20717">
        <ele>227</ele>
        <time>2022-06-25T06:14:44Z</time>
      </trkpt>
      <trkpt lat="46.31166" lon="5.20789">
        <ele>227.4</ele>
        <time>2022-06-25T06:14:51Z</time>
      </trkpt>
      <trkpt lat="46.31166" lon="5.20799">
        <ele>227.4</ele>
        <time>2022-06-25T06:14:52Z</time>
      </trkpt>
      <trkpt lat="46.31164" lon="5.20839">
        <ele>227.4</ele>
        <time>2022-06-25T06:14:56Z</time>
      </trkpt>
      <trkpt lat="46.31156" lon="5.20913">
        <ele>228.2</ele>
        <time>2022-06-25T06:15:03Z</time>
      </trkpt>
      <trkpt lat="46.31151" lon="5.20951">
        <ele>228.4</ele>
        <time>2022-06-25T06:15:07Z</time>
      </trkpt>
      <trkpt lat="46.31142" lon="5.21002">
        <ele>228.6</ele>
        <time>2022-06-25T06:15:12Z</time>
      </trkpt>
      <trkpt lat="46.31138" lon="5.21023">
        <ele>228.8</ele>
        <time>2022-06-25T06:15:14Z</time>
      </trkpt>
      <trkpt lat="46.31132" lon="5.2104">
        <ele>228.8</ele>
        <time>2022-06-25T06:15:16Z</time>
      </trkpt>
      <trkpt lat="46.31111" lon="5.21112">
        <ele>228.8</ele>
        <time>2022-06-25T06:15:23Z</time>
      </trkpt>
      <trkpt lat="46.31108" lon="5.21123">
        <ele>228.6</ele>
        <time>2022-06-25T06:15:24Z</time>
      </trkpt>
      <trkpt lat="46.31092" lon="5.21198">
        <ele>228.2</ele>
        <time>2022-06-25T06:15:31Z</time>
      </trkpt>
      <trkpt lat="46.31085" lon="5.2123">
        <ele>228</ele>
        <time>2022-06-25T06:15:34Z</time>
      </trkpt>
      <trkpt lat="46.31079" lon="5.21296">
        <ele>227.4</ele>
        <time>2022-06-25T06:15:40Z</time>
      </trkpt>
      <trkpt lat="46.31078" lon="5.21307">
        <ele>227.4</ele>
        <time>2022-06-25T06:15:41Z</time>
      </trkpt>
      <trkpt lat="46.31073" lon="5.21351">
        <ele>227.2</ele>
        <time>2022-06-25T06:15:45Z</time>
      </trkpt>
      <trkpt lat="46.31063" lon="5.21431">
        <ele>227.2</ele>
        <time>2022-06-25T06:15:52Z</time>
      </trkpt>
      <trkpt lat="46.31054" lon="5.21508">
        <ele>226.8</ele>
        <time>2022-06-25T06:15:59Z</time>
      </trkpt>
      <trkpt lat="46.31052" lon="5.21518">
        <ele>226.6</ele>
        <time>2022-06-25T06:16:00Z</time>
      </trkpt>
      <trkpt lat="46.31043" lon="5.21534">
        <ele>226.4</ele>
        <time>2022-06-25T06:16:02Z</time>
      </trkpt>
      <trkpt lat="46.31029" lon="5.21539">
        <ele>226.4</ele>
        <time>2022-06-25T06:16:04Z</time>
      </trkpt>
      <trkpt lat="46.31023" lon="5.21537">
        <ele>226.2</ele>
        <time>2022-06-25T06:16:05Z</time>
      </trkpt>
      <trkpt lat="46.30987" lon="5.21519">
        <ele>226</ele>
        <time>2022-06-25T06:16:10Z</time>
      </trkpt>
      <trkpt lat="46.30931" lon="5.21497">
        <ele>225.8</ele>
        <time>2022-06-25T06:16:17Z</time>
      </trkpt>
      <trkpt lat="46.30891" lon="5.21497">
        <ele>225.8</ele>
        <time>2022-06-25T06:16:22Z</time>
      </trkpt>
      <trkpt lat="46.30837" lon="5.21511">
        <ele>225.6</ele>
        <time>2022-06-25T06:16:29Z</time>
      </trkpt>
      <trkpt lat="46.30782" lon="5.21535">
        <ele>225.4</ele>
        <time>2022-06-25T06:16:37Z</time>
      </trkpt>
      <trkpt lat="46.30776" lon="5.21538">
        <ele>225.4</ele>
        <time>2022-06-25T06:16:38Z</time>
      </trkpt>
      <trkpt lat="46.30769" lon="5.2154">
        <ele>225.4</ele>
        <time>2022-06-25T06:16:39Z</time>
      </trkpt>
      <trkpt lat="46.30757" lon="5.2154">
        <ele>225.6</ele>
        <time>2022-06-25T06:16:41Z</time>
      </trkpt>
      <trkpt lat="46.30751" lon="5.21538">
        <ele>225.8</ele>
        <time>2022-06-25T06:16:42Z</time>
      </trkpt>
      <trkpt lat="46.30726" lon="5.21527">
        <ele>226</ele>
        <time>2022-06-25T06:16:46Z</time>
      </trkpt>
      <trkpt lat="46.30719" lon="5.21527">
        <ele>226</ele>
        <time>2022-06-25T06:16:47Z</time>
      </trkpt>
      <trkpt lat="46.30694" lon="5.2153">
        <ele>226.2</ele>
        <time>2022-06-25T06:16:51Z</time>
      </trkpt>
      <trkpt lat="46.30691" lon="5.21532">
        <ele>226.2</ele>
        <time>2022-06-25T06:16:52Z</time>
      </trkpt>
      <trkpt lat="46.30688" lon="5.21537">
        <ele>226.4</ele>
        <time>2022-06-25T06:16:53Z</time>
      </trkpt>
      <trkpt lat="46.30685" lon="5.21548">
        <ele>226.4</ele>
        <time>2022-06-25T06:16:55Z</time>
      </trkpt>
      <trkpt lat="46.30685" lon="5.2159">
        <ele>226.4</ele>
        <time>2022-06-25T06:17:00Z</time>
      </trkpt>
      <trkpt lat="46.3068" lon="5.21645">
        <ele>226</ele>
        <time>2022-06-25T06:17:05Z</time>
      </trkpt>
      <trkpt lat="46.3067" lon="5.21693">
        <ele>225</ele>
        <time>2022-06-25T06:17:09Z</time>
      </trkpt>
      <trkpt lat="46.30666" lon="5.21704">
        <ele>225</ele>
        <time>2022-06-25T06:17:10Z</time>
      </trkpt>
      <trkpt lat="46.30656" lon="5.21735">
        <ele>224.2</ele>
        <time>2022-06-25T06:17:13Z</time>
      </trkpt>
      <trkpt lat="46.30652" lon="5.21745">
        <ele>224</ele>
        <time>2022-06-25T06:17:14Z</time>
      </trkpt>
      <trkpt lat="46.30649" lon="5.21754">
        <ele>224</ele>
        <time>2022-06-25T06:17:15Z</time>
      </trkpt>
      <trkpt lat="46.30642" lon="5.21768">
        <ele>223.8</ele>
        <time>2022-06-25T06:17:17Z</time>
      </trkpt>
      <trkpt lat="46.30629" lon="5.2179">
        <ele>224.2</ele>
        <time>2022-06-25T06:17:20Z</time>
      </trkpt>
      <trkpt lat="46.30623" lon="5.21801">
        <ele>224.4</ele>
        <time>2022-06-25T06:17:22Z</time>
      </trkpt>
      <trkpt lat="46.30617" lon="5.21811">
        <ele>224.8</ele>
        <time>2022-06-25T06:17:24Z</time>
      </trkpt>
      <trkpt lat="46.30614" lon="5.21816">
        <ele>225.4</ele>
        <time>2022-06-25T06:17:25Z</time>
      </trkpt>
      <trkpt lat="46.30609" lon="5.21835">
        <ele>226</ele>
        <time>2022-06-25T06:17:28Z</time>
      </trkpt>
      <trkpt lat="46.30608" lon="5.2185">
        <ele>226.4</ele>
        <time>2022-06-25T06:17:30Z</time>
      </trkpt>
      <trkpt lat="46.30609" lon="5.21865">
        <ele>226.8</ele>
        <time>2022-06-25T06:17:32Z</time>
      </trkpt>
      <trkpt lat="46.30619" lon="5.21914">
        <ele>227.4</ele>
        <time>2022-06-25T06:17:37Z</time>
      </trkpt>
      <trkpt lat="46.30619" lon="5.21925">
        <ele>227.4</ele>
        <time>2022-06-25T06:17:38Z</time>
      </trkpt>
      <trkpt lat="46.3062" lon="5.21965">
        <ele>228</ele>
        <time>2022-06-25T06:17:42Z</time>
      </trkpt>
      <trkpt lat="46.30622" lon="5.22029">
        <ele>228.6</ele>
        <time>2022-06-25T06:17:49Z</time>
      </trkpt>
      <trkpt lat="46.30622" lon="5.22046">
        <ele>228.8</ele>
        <time>2022-06-25T06:17:51Z</time>
      </trkpt>
      <trkpt lat="46.30621" lon="5.2207">
        <ele>229</ele>
        <time>2022-06-25T06:17:54Z</time>
      </trkpt>
      <trkpt lat="46.30618" lon="5.22096">
        <ele>229.6</ele>
        <time>2022-06-25T06:17:57Z</time>
      </trkpt>
      <trkpt lat="46.30618" lon="5.22132">
        <ele>230.2</ele>
        <time>2022-06-25T06:18:01Z</time>
      </trkpt>
      <trkpt lat="46.30617" lon="5.22191">
        <ele>230.4</ele>
        <time>2022-06-25T06:18:07Z</time>
      </trkpt>
      <trkpt lat="46.30615" lon="5.22237">
        <ele>230.6</ele>
        <time>2022-06-25T06:18:12Z</time>
      </trkpt>
      <trkpt lat="46.30615" lon="5.22247">
        <ele>230.8</ele>
        <time>2022-06-25T06:18:13Z</time>
      </trkpt>
      <trkpt lat="46.30614" lon="5.22265">
        <ele>231</ele>
        <time>2022-06-25T06:18:15Z</time>
      </trkpt>
      <trkpt lat="46.30612" lon="5.22283">
        <ele>231</ele>
        <time>2022-06-25T06:18:17Z</time>
      </trkpt>
      <trkpt lat="46.30611" lon="5.2231">
        <ele>231.2</ele>
        <time>2022-06-25T06:18:20Z</time>
      </trkpt>
      <trkpt lat="46.30613" lon="5.22389">
        <ele>231.4</ele>
        <time>2022-06-25T06:18:28Z</time>
      </trkpt>
      <trkpt lat="46.30611" lon="5.22446">
        <ele>231.8</ele>
        <time>2022-06-25T06:18:34Z</time>
      </trkpt>
      <trkpt lat="46.30609" lon="5.22483">
        <ele>232</ele>
        <time>2022-06-25T06:18:38Z</time>
      </trkpt>
      <trkpt lat="46.30604" lon="5.2257">
        <ele>232.6</ele>
        <time>2022-06-25T06:18:47Z</time>
      </trkpt>
      <trkpt lat="46.30602" lon="5.2258">
        <ele>232.6</ele>
        <time>2022-06-25T06:18:48Z</time>
      </trkpt>
      <trkpt lat="46.3059" lon="5.22658">
        <ele>232.6</ele>
        <time>2022-06-25T06:18:56Z</time>
      </trkpt>
      <trkpt lat="46.30589" lon="5.22668">
        <ele>232.6</ele>
        <time>2022-06-25T06:18:57Z</time>
      </trkpt>
      <trkpt lat="46.30574" lon="5.22742">
        <ele>232.8</ele>
        <time>2022-06-25T06:19:05Z</time>
      </trkpt>
      <trkpt lat="46.30568" lon="5.22777">
        <ele>233</ele>
        <time>2022-06-25T06:19:09Z</time>
      </trkpt>
      <trkpt lat="46.30562" lon="5.22815">
        <ele>233.2</ele>
        <time>2022-06-25T06:19:13Z</time>
      </trkpt>
      <trkpt lat="46.30556" lon="5.22846">
        <ele>233.2</ele>
        <time>2022-06-25T06:19:16Z</time>
      </trkpt>
      <trkpt lat="46.30549" lon="5.22874">
        <ele>232.8</ele>
        <time>2022-06-25T06:19:19Z</time>
      </trkpt>
      <trkpt lat="46.30538" lon="5.22948">
        <ele>232</ele>
        <time>2022-06-25T06:19:26Z</time>
      </trkpt>
      <trkpt lat="46.30536" lon="5.22961">
        <ele>231.8</ele>
        <time>2022-06-25T06:19:27Z</time>
      </trkpt>
      <trkpt lat="46.30534" lon="5.23002">
        <ele>230.4</ele>
        <time>2022-06-25T06:19:30Z</time>
      </trkpt>
      <trkpt lat="46.30533" lon="5.23016">
        <ele>230</ele>
        <time>2022-06-25T06:19:31Z</time>
      </trkpt>
      <trkpt lat="46.30531" lon="5.2305">
        <ele>229.2</ele>
        <time>2022-06-25T06:19:33Z</time>
      </trkpt>
      <trkpt lat="46.30531" lon="5.23064">
        <ele>228</ele>
        <time>2022-06-25T06:19:34Z</time>
      </trkpt>
      <trkpt lat="46.30533" lon="5.2308">
        <ele>227.6</ele>
        <time>2022-06-25T06:19:35Z</time>
      </trkpt>
      <trkpt lat="46.30537" lon="5.23099">
        <ele>226.8</ele>
        <time>2022-06-25T06:19:36Z</time>
      </trkpt>
      <trkpt lat="46.30541" lon="5.23114">
        <ele>226.2</ele>
        <time>2022-06-25T06:19:37Z</time>
      </trkpt>
      <trkpt lat="46.30545" lon="5.23129">
        <ele>225.4</ele>
        <time>2022-06-25T06:19:38Z</time>
      </trkpt>
      <trkpt lat="46.3055" lon="5.23143">
        <ele>224.8</ele>
        <time>2022-06-25T06:19:39Z</time>
      </trkpt>
      <trkpt lat="46.30556" lon="5.23171">
        <ele>223.2</ele>
        <time>2022-06-25T06:19:41Z</time>
      </trkpt>
      <trkpt lat="46.30557" lon="5.23184">
        <ele>222.8</ele>
        <time>2022-06-25T06:19:42Z</time>
      </trkpt>
      <trkpt lat="46.30557" lon="5.23194">
        <ele>222.6</ele>
        <time>2022-06-25T06:19:43Z</time>
      </trkpt>
      <trkpt lat="46.30555" lon="5.23207">
        <ele>222.2</ele>
        <time>2022-06-25T06:19:44Z</time>
      </trkpt>
      <trkpt lat="46.30552" lon="5.23219">
        <ele>222</ele>
        <time>2022-06-25T06:19:45Z</time>
      </trkpt>
      <trkpt lat="46.30541" lon="5.23265">
        <ele>221.8</ele>
        <time>2022-06-25T06:19:49Z</time>
      </trkpt>
      <trkpt lat="46.30538" lon="5.23285">
        <ele>222.2</ele>
        <time>2022-06-25T06:19:51Z</time>
      </trkpt>
      <trkpt lat="46.30536" lon="5.23314">
        <ele>223</ele>
        <time>2022-06-25T06:19:54Z</time>
      </trkpt>
      <trkpt lat="46.30536" lon="5.23322">
        <ele>223.2</ele>
        <time>2022-06-25T06:19:55Z</time>
      </trkpt>
      <trkpt lat="46.30536" lon="5.2333">
        <ele>223.4</ele>
        <time>2022-06-25T06:19:56Z</time>
      </trkpt>
      <trkpt lat="46.30538" lon="5.23344">
        <ele>224.4</ele>
        <time>2022-06-25T06:19:58Z</time>
      </trkpt>
      <trkpt lat="46.3054" lon="5.23368">
        <ele>225.8</ele>
        <time>2022-06-25T06:20:01Z</time>
      </trkpt>
      <trkpt lat="46.3054" lon="5.23374">
        <ele>226.2</ele>
        <time>2022-06-25T06:20:02Z</time>
      </trkpt>
      <trkpt lat="46.30541" lon="5.23388">
        <ele>227.2</ele>
        <time>2022-06-25T06:20:04Z</time>
      </trkpt>
      <trkpt lat="46.30541" lon="5.23397">
        <ele>227.6</ele>
        <time>2022-06-25T06:20:05Z</time>
      </trkpt>
      <trkpt lat="46.30541" lon="5.23411">
        <ele>228.4</ele>
        <time>2022-06-25T06:20:07Z</time>
      </trkpt>
      <trkpt lat="46.30539" lon="5.23447">
        <ele>229.4</ele>
        <time>2022-06-25T06:20:12Z</time>
      </trkpt>
      <trkpt lat="46.30537" lon="5.23467">
        <ele>230</ele>
        <time>2022-06-25T06:20:15Z</time>
      </trkpt>
      <trkpt lat="46.30536" lon="5.23481">
        <ele>230.4</ele>
        <time>2022-06-25T06:20:17Z</time>
      </trkpt>
      <trkpt lat="46.30534" lon="5.23511">
        <ele>231.2</ele>
        <time>2022-06-25T06:20:21Z</time>
      </trkpt>
      <trkpt lat="46.30534" lon="5.23518">
        <ele>231.4</ele>
        <time>2022-06-25T06:20:22Z</time>
      </trkpt>
      <trkpt lat="46.30534" lon="5.23526">
        <ele>231.6</ele>
        <time>2022-06-25T06:20:23Z</time>
      </trkpt>
      <trkpt lat="46.30534" lon="5.23568">
        <ele>232.6</ele>
        <time>2022-06-25T06:20:29Z</time>
      </trkpt>
      <trkpt lat="46.30534" lon="5.23574">
        <ele>232.6</ele>
        <time>2022-06-25T06:20:30Z</time>
      </trkpt>
      <trkpt lat="46.30533" lon="5.23591">
        <ele>233.2</ele>
        <time>2022-06-25T06:20:34Z</time>
      </trkpt>
      <trkpt lat="46.30534" lon="5.23597">
        <ele>233.6</ele>
        <time>2022-06-25T06:20:37Z</time>
      </trkpt>
      <trkpt lat="46.30535" lon="5.23604">
        <ele>233.8</ele>
        <time>2022-06-25T06:20:39Z</time>
      </trkpt>
      <trkpt lat="46.30546" lon="5.23608">
        <ele>234</ele>
        <time>2022-06-25T06:20:42Z</time>
      </trkpt>
      <trkpt lat="46.30573" lon="5.23615">
        <ele>234.4</ele>
        <time>2022-06-25T06:20:47Z</time>
      </trkpt>
      <trkpt lat="46.30619" lon="5.23625">
        <ele>234.8</ele>
        <time>2022-06-25T06:20:54Z</time>
      </trkpt>
      <trkpt lat="46.30625" lon="5.23627">
        <ele>234.8</ele>
        <time>2022-06-25T06:20:55Z</time>
      </trkpt>
      <trkpt lat="46.3068" lon="5.2364">
        <ele>234.8</ele>
        <time>2022-06-25T06:21:03Z</time>
      </trkpt>
      <trkpt lat="46.3074" lon="5.23653">
        <ele>234.6</ele>
        <time>2022-06-25T06:21:12Z</time>
      </trkpt>
      <trkpt lat="46.30798" lon="5.23667">
        <ele>233.8</ele>
        <time>2022-06-25T06:21:21Z</time>
      </trkpt>
      <trkpt lat="46.30807" lon="5.23676">
        <ele>233.8</ele>
        <time>2022-06-25T06:21:23Z</time>
      </trkpt>
      <trkpt lat="46.30809" lon="5.23684">
        <ele>233.6</ele>
        <time>2022-06-25T06:21:24Z</time>
      </trkpt>
      <trkpt lat="46.30812" lon="5.23702">
        <ele>233.4</ele>
        <time>2022-06-25T06:21:26Z</time>
      </trkpt>
      <trkpt lat="46.3082" lon="5.23762">
        <ele>233.4</ele>
        <time>2022-06-25T06:21:32Z</time>
      </trkpt>
      <trkpt lat="46.30821" lon="5.23783">
        <ele>233.4</ele>
        <time>2022-06-25T06:21:34Z</time>
      </trkpt>
      <trkpt lat="46.30821" lon="5.23845">
        <ele>233.8</ele>
        <time>2022-06-25T06:21:40Z</time>
      </trkpt>
      <trkpt lat="46.30829" lon="5.23928">
        <ele>234.6</ele>
        <time>2022-06-25T06:21:48Z</time>
      </trkpt>
      <trkpt lat="46.30837" lon="5.24011">
        <ele>234.4</ele>
        <time>2022-06-25T06:21:56Z</time>
      </trkpt>
      <trkpt lat="46.30839" lon="5.24022">
        <ele>234.4</ele>
        <time>2022-06-25T06:21:57Z</time>
      </trkpt>
      <trkpt lat="46.30841" lon="5.24032">
        <ele>234.2</ele>
        <time>2022-06-25T06:21:58Z</time>
      </trkpt>
      <trkpt lat="46.30848" lon="5.24051">
        <ele>234</ele>
        <time>2022-06-25T06:22:00Z</time>
      </trkpt>
      <trkpt lat="46.30853" lon="5.2406">
        <ele>234</ele>
        <time>2022-06-25T06:22:01Z</time>
      </trkpt>
      <trkpt lat="46.30859" lon="5.24068">
        <ele>233.8</ele>
        <time>2022-06-25T06:22:02Z</time>
      </trkpt>
      <trkpt lat="46.30876" lon="5.24094">
        <ele>233.8</ele>
        <time>2022-06-25T06:22:05Z</time>
      </trkpt>
      <trkpt lat="46.30884" lon="5.24115">
        <ele>233.6</ele>
        <time>2022-06-25T06:22:07Z</time>
      </trkpt>
      <trkpt lat="46.30886" lon="5.24127">
        <ele>233.4</ele>
        <time>2022-06-25T06:22:08Z</time>
      </trkpt>
      <trkpt lat="46.30897" lon="5.24171">
        <ele>232.6</ele>
        <time>2022-06-25T06:22:12Z</time>
      </trkpt>
      <trkpt lat="46.309" lon="5.24184">
        <ele>232.6</ele>
        <time>2022-06-25T06:22:13Z</time>
      </trkpt>
      <trkpt lat="46.30916" lon="5.24256">
        <ele>231.4</ele>
        <time>2022-06-25T06:22:18Z</time>
      </trkpt>
      <trkpt lat="46.30923" lon="5.24302">
        <ele>229.6</ele>
        <time>2022-06-25T06:22:21Z</time>
      </trkpt>
      <trkpt lat="46.30924" lon="5.24333">
        <ele>228.4</ele>
        <time>2022-06-25T06:22:23Z</time>
      </trkpt>
      <trkpt lat="46.30923" lon="5.24363">
        <ele>227.2</ele>
        <time>2022-06-25T06:22:25Z</time>
      </trkpt>
      <trkpt lat="46.30921" lon="5.24407">
        <ele>226</ele>
        <time>2022-06-25T06:22:28Z</time>
      </trkpt>
      <trkpt lat="46.30922" lon="5.2442">
        <ele>225.8</ele>
        <time>2022-06-25T06:22:29Z</time>
      </trkpt>
      <trkpt lat="46.3093" lon="5.24443">
        <ele>225.2</ele>
        <time>2022-06-25T06:22:31Z</time>
      </trkpt>
      <trkpt lat="46.30935" lon="5.24451">
        <ele>225</ele>
        <time>2022-06-25T06:22:32Z</time>
      </trkpt>
      <trkpt lat="46.30954" lon="5.24476">
        <ele>225</ele>
        <time>2022-06-25T06:22:35Z</time>
      </trkpt>
      <trkpt lat="46.3098" lon="5.24519">
        <ele>225.6</ele>
        <time>2022-06-25T06:22:40Z</time>
      </trkpt>
      <trkpt lat="46.31007" lon="5.2458">
        <ele>225.8</ele>
        <time>2022-06-25T06:22:46Z</time>
      </trkpt>
      <trkpt lat="46.31028" lon="5.24646">
        <ele>226.4</ele>
        <time>2022-06-25T06:22:53Z</time>
      </trkpt>
      <trkpt lat="46.3103" lon="5.24654">
        <ele>226.6</ele>
        <time>2022-06-25T06:22:54Z</time>
      </trkpt>
      <trkpt lat="46.31031" lon="5.24671">
        <ele>227.4</ele>
        <time>2022-06-25T06:22:56Z</time>
      </trkpt>
      <trkpt lat="46.31031" lon="5.24679">
        <ele>227.4</ele>
        <time>2022-06-25T06:22:57Z</time>
      </trkpt>
      <trkpt lat="46.31033" lon="5.24719">
        <ele>228.4</ele>
        <time>2022-06-25T06:23:02Z</time>
      </trkpt>
      <trkpt lat="46.31033" lon="5.24727">
        <ele>228.8</ele>
        <time>2022-06-25T06:23:03Z</time>
      </trkpt>
      <trkpt lat="46.31033" lon="5.24777">
        <ele>229.6</ele>
        <time>2022-06-25T06:23:09Z</time>
      </trkpt>
      <trkpt lat="46.31033" lon="5.24786">
        <ele>229.6</ele>
        <time>2022-06-25T06:23:10Z</time>
      </trkpt>
      <trkpt lat="46.31032" lon="5.2484">
        <ele>230.8</ele>
        <time>2022-06-25T06:23:16Z</time>
      </trkpt>
      <trkpt lat="46.31031" lon="5.24849">
        <ele>231</ele>
        <time>2022-06-25T06:23:17Z</time>
      </trkpt>
      <trkpt lat="46.31027" lon="5.24909">
        <ele>231.8</ele>
        <time>2022-06-25T06:23:24Z</time>
      </trkpt>
      <trkpt lat="46.31027" lon="5.24928">
        <ele>232.4</ele>
        <time>2022-06-25T06:23:26Z</time>
      </trkpt>
      <trkpt lat="46.31026" lon="5.24947">
        <ele>232.6</ele>
        <time>2022-06-25T06:23:28Z</time>
      </trkpt>
      <trkpt lat="46.31019" lon="5.24984">
        <ele>232.6</ele>
        <time>2022-06-25T06:23:32Z</time>
      </trkpt>
      <trkpt lat="46.31002" lon="5.25024">
        <ele>232.6</ele>
        <time>2022-06-25T06:23:37Z</time>
      </trkpt>
      <trkpt lat="46.30998" lon="5.25042">
        <ele>232.6</ele>
        <time>2022-06-25T06:23:39Z</time>
      </trkpt>
      <trkpt lat="46.30995" lon="5.25068">
        <ele>232.8</ele>
        <time>2022-06-25T06:23:42Z</time>
      </trkpt>
      <trkpt lat="46.30995" lon="5.25077">
        <ele>232.8</ele>
        <time>2022-06-25T06:23:43Z</time>
      </trkpt>
      <trkpt lat="46.30995" lon="5.25086">
        <ele>233</ele>
        <time>2022-06-25T06:23:44Z</time>
      </trkpt>
      <trkpt lat="46.30997" lon="5.25121">
        <ele>233.4</ele>
        <time>2022-06-25T06:23:48Z</time>
      </trkpt>
      <trkpt lat="46.30998" lon="5.25139">
        <ele>234</ele>
        <time>2022-06-25T06:23:50Z</time>
      </trkpt>
      <trkpt lat="46.31" lon="5.25147">
        <ele>234.2</ele>
        <time>2022-06-25T06:23:51Z</time>
      </trkpt>
      <trkpt lat="46.31006" lon="5.25163">
        <ele>234.4</ele>
        <time>2022-06-25T06:23:53Z</time>
      </trkpt>
      <trkpt lat="46.31015" lon="5.25178">
        <ele>234.6</ele>
        <time>2022-06-25T06:23:55Z</time>
      </trkpt>
      <trkpt lat="46.31021" lon="5.25197">
        <ele>234.6</ele>
        <time>2022-06-25T06:23:57Z</time>
      </trkpt>
      <trkpt lat="46.31022" lon="5.25219">
        <ele>234.6</ele>
        <time>2022-06-25T06:23:59Z</time>
      </trkpt>
      <trkpt lat="46.31021" lon="5.25229">
        <ele>234.4</ele>
        <time>2022-06-25T06:24:00Z</time>
      </trkpt>
      <trkpt lat="46.31016" lon="5.25252">
        <ele>234.2</ele>
        <time>2022-06-25T06:24:02Z</time>
      </trkpt>
      <trkpt lat="46.31007" lon="5.25279">
        <ele>234</ele>
        <time>2022-06-25T06:24:05Z</time>
      </trkpt>
      <trkpt lat="46.30999" lon="5.25306">
        <ele>234</ele>
        <time>2022-06-25T06:24:08Z</time>
      </trkpt>
      <trkpt lat="46.30994" lon="5.25324">
        <ele>234</ele>
        <time>2022-06-25T06:24:10Z</time>
      </trkpt>
      <trkpt lat="46.30978" lon="5.25385">
        <ele>234.8</ele>
        <time>2022-06-25T06:24:17Z</time>
      </trkpt>
      <trkpt lat="46.30973" lon="5.25402">
        <ele>235</ele>
        <time>2022-06-25T06:24:19Z</time>
      </trkpt>
      <trkpt lat="46.30951" lon="5.25462">
        <ele>235.6</ele>
        <time>2022-06-25T06:24:26Z</time>
      </trkpt>
      <trkpt lat="46.30927" lon="5.25513">
        <ele>235.8</ele>
        <time>2022-06-25T06:24:32Z</time>
      </trkpt>
      <trkpt lat="46.3091" lon="5.25537">
        <ele>235.6</ele>
        <time>2022-06-25T06:24:35Z</time>
      </trkpt>
      <trkpt lat="46.30903" lon="5.25544">
        <ele>235.4</ele>
        <time>2022-06-25T06:24:36Z</time>
      </trkpt>
      <trkpt lat="46.30889" lon="5.25554">
        <ele>235.2</ele>
        <time>2022-06-25T06:24:38Z</time>
      </trkpt>
      <trkpt lat="46.30875" lon="5.25562">
        <ele>235.2</ele>
        <time>2022-06-25T06:24:40Z</time>
      </trkpt>
      <trkpt lat="46.30838" lon="5.2558">
        <ele>235</ele>
        <time>2022-06-25T06:24:45Z</time>
      </trkpt>
      <trkpt lat="46.30832" lon="5.25585">
        <ele>235</ele>
        <time>2022-06-25T06:24:46Z</time>
      </trkpt>
      <trkpt lat="46.30827" lon="5.25591">
        <ele>235</ele>
        <time>2022-06-25T06:24:47Z</time>
      </trkpt>
      <trkpt lat="46.3082" lon="5.25607">
        <ele>235.4</ele>
        <time>2022-06-25T06:24:49Z</time>
      </trkpt>
      <trkpt lat="46.3081" lon="5.25641">
        <ele>236.2</ele>
        <time>2022-06-25T06:24:53Z</time>
      </trkpt>
      <trkpt lat="46.30808" lon="5.2565">
        <ele>236.4</ele>
        <time>2022-06-25T06:24:54Z</time>
      </trkpt>
      <trkpt lat="46.3079" lon="5.25711">
        <ele>237.4</ele>
        <time>2022-06-25T06:25:01Z</time>
      </trkpt>
      <trkpt lat="46.30769" lon="5.25762">
        <ele>238.4</ele>
        <time>2022-06-25T06:25:07Z</time>
      </trkpt>
      <trkpt lat="46.30761" lon="5.25779">
        <ele>238.4</ele>
        <time>2022-06-25T06:25:09Z</time>
      </trkpt>
      <trkpt lat="46.30736" lon="5.2583">
        <ele>238.6</ele>
        <time>2022-06-25T06:25:15Z</time>
      </trkpt>
      <trkpt lat="46.30718" lon="5.25875">
        <ele>238.6</ele>
        <time>2022-06-25T06:25:20Z</time>
      </trkpt>
      <trkpt lat="46.30715" lon="5.25885">
        <ele>238.6</ele>
        <time>2022-06-25T06:25:21Z</time>
      </trkpt>
      <trkpt lat="46.30695" lon="5.25964">
        <ele>239</ele>
        <time>2022-06-25T06:25:29Z</time>
      </trkpt>
      <trkpt lat="46.30683" lon="5.26025">
        <ele>238.8</ele>
        <time>2022-06-25T06:25:34Z</time>
      </trkpt>
      <trkpt lat="46.30676" lon="5.26077">
        <ele>237.4</ele>
        <time>2022-06-25T06:25:38Z</time>
      </trkpt>
      <trkpt lat="46.30669" lon="5.26103">
        <ele>236.8</ele>
        <time>2022-06-25T06:25:40Z</time>
      </trkpt>
      <trkpt lat="46.30652" lon="5.26167">
        <ele>236.4</ele>
        <time>2022-06-25T06:25:46Z</time>
      </trkpt>
      <trkpt lat="46.30635" lon="5.26239">
        <ele>237</ele>
        <time>2022-06-25T06:25:53Z</time>
      </trkpt>
      <trkpt lat="46.30613" lon="5.26316">
        <ele>237.4</ele>
        <time>2022-06-25T06:26:01Z</time>
      </trkpt>
      <trkpt lat="46.30598" lon="5.26388">
        <ele>237.6</ele>
        <time>2022-06-25T06:26:09Z</time>
      </trkpt>
      <trkpt lat="46.30597" lon="5.26443">
        <ele>237.8</ele>
        <time>2022-06-25T06:26:14Z</time>
      </trkpt>
      <trkpt lat="46.30599" lon="5.26496">
        <ele>237.2</ele>
        <time>2022-06-25T06:26:18Z</time>
      </trkpt>
      <trkpt lat="46.306" lon="5.2654">
        <ele>236.2</ele>
        <time>2022-06-25T06:26:21Z</time>
      </trkpt>
      <trkpt lat="46.306" lon="5.26555">
        <ele>235</ele>
        <time>2022-06-25T06:26:22Z</time>
      </trkpt>
      <trkpt lat="46.306" lon="5.2657">
        <ele>234.6</ele>
        <time>2022-06-25T06:26:23Z</time>
      </trkpt>
      <trkpt lat="46.30602" lon="5.26586">
        <ele>233.8</ele>
        <time>2022-06-25T06:26:24Z</time>
      </trkpt>
      <trkpt lat="46.30604" lon="5.26601">
        <ele>232.6</ele>
        <time>2022-06-25T06:26:25Z</time>
      </trkpt>
      <trkpt lat="46.30609" lon="5.2663">
        <ele>231.6</ele>
        <time>2022-06-25T06:26:27Z</time>
      </trkpt>
      <trkpt lat="46.30615" lon="5.26658">
        <ele>231</ele>
        <time>2022-06-25T06:26:29Z</time>
      </trkpt>
      <trkpt lat="46.30623" lon="5.26698">
        <ele>230.4</ele>
        <time>2022-06-25T06:26:32Z</time>
      </trkpt>
      <trkpt lat="46.30628" lon="5.26721">
        <ele>230.2</ele>
        <time>2022-06-25T06:26:34Z</time>
      </trkpt>
      <trkpt lat="46.30642" lon="5.26785">
        <ele>231.2</ele>
        <time>2022-06-25T06:26:40Z</time>
      </trkpt>
      <trkpt lat="46.30644" lon="5.26794">
        <ele>231.6</ele>
        <time>2022-06-25T06:26:41Z</time>
      </trkpt>
      <trkpt lat="46.30646" lon="5.26804">
        <ele>231.8</ele>
        <time>2022-06-25T06:26:42Z</time>
      </trkpt>
      <trkpt lat="46.30648" lon="5.26832">
        <ele>233.2</ele>
        <time>2022-06-25T06:26:45Z</time>
      </trkpt>
      <trkpt lat="46.30643" lon="5.26861">
        <ele>234.2</ele>
        <time>2022-06-25T06:26:48Z</time>
      </trkpt>
      <trkpt lat="46.3064" lon="5.2687">
        <ele>234.2</ele>
        <time>2022-06-25T06:26:49Z</time>
      </trkpt>
      <trkpt lat="46.30637" lon="5.26879">
        <ele>234.4</ele>
        <time>2022-06-25T06:26:50Z</time>
      </trkpt>
      <trkpt lat="46.30629" lon="5.26904">
        <ele>235.4</ele>
        <time>2022-06-25T06:26:53Z</time>
      </trkpt>
      <trkpt lat="46.30617" lon="5.26946">
        <ele>236.2</ele>
        <time>2022-06-25T06:26:58Z</time>
      </trkpt>
      <trkpt lat="46.30615" lon="5.26954">
        <ele>236.4</ele>
        <time>2022-06-25T06:26:59Z</time>
      </trkpt>
      <trkpt lat="46.30602" lon="5.26996">
        <ele>237.6</ele>
        <time>2022-06-25T06:27:04Z</time>
      </trkpt>
      <trkpt lat="46.30596" lon="5.27012">
        <ele>237.6</ele>
        <time>2022-06-25T06:27:06Z</time>
      </trkpt>
      <trkpt lat="46.30576" lon="5.27076">
        <ele>237.4</ele>
        <time>2022-06-25T06:27:13Z</time>
      </trkpt>
      <trkpt lat="46.30565" lon="5.27132">
        <ele>236.4</ele>
        <time>2022-06-25T06:27:18Z</time>
      </trkpt>
      <trkpt lat="46.30562" lon="5.27156">
        <ele>236.2</ele>
        <time>2022-06-25T06:27:20Z</time>
      </trkpt>
      <trkpt lat="46.30555" lon="5.27201">
        <ele>235.2</ele>
        <time>2022-06-25T06:27:24Z</time>
      </trkpt>
      <trkpt lat="46.30553" lon="5.27212">
        <ele>235.2</ele>
        <time>2022-06-25T06:27:25Z</time>
      </trkpt>
      <trkpt lat="46.30545" lon="5.27248">
        <ele>235.6</ele>
        <time>2022-06-25T06:27:29Z</time>
      </trkpt>
      <trkpt lat="46.30536" lon="5.27285">
        <ele>236.6</ele>
        <time>2022-06-25T06:27:34Z</time>
      </trkpt>
      <trkpt lat="46.30532" lon="5.27299">
        <ele>237.2</ele>
        <time>2022-06-25T06:27:36Z</time>
      </trkpt>
      <trkpt lat="46.30529" lon="5.27313">
        <ele>238.2</ele>
        <time>2022-06-25T06:27:38Z</time>
      </trkpt>
      <trkpt lat="46.3052" lon="5.27344">
        <ele>239.6</ele>
        <time>2022-06-25T06:27:43Z</time>
      </trkpt>
      <trkpt lat="46.30513" lon="5.2737">
        <ele>240.6</ele>
        <time>2022-06-25T06:27:47Z</time>
      </trkpt>
      <trkpt lat="46.30505" lon="5.27403">
        <ele>241.8</ele>
        <time>2022-06-25T06:27:52Z</time>
      </trkpt>
      <trkpt lat="46.30503" lon="5.2741">
        <ele>241.8</ele>
        <time>2022-06-25T06:27:53Z</time>
      </trkpt>
      <trkpt lat="46.30496" lon="5.27461">
        <ele>242.6</ele>
        <time>2022-06-25T06:27:59Z</time>
      </trkpt>
      <trkpt lat="46.30493" lon="5.27479">
        <ele>242.8</ele>
        <time>2022-06-25T06:28:01Z</time>
      </trkpt>
      <trkpt lat="46.30487" lon="5.27528">
        <ele>242.8</ele>
        <time>2022-06-25T06:28:06Z</time>
      </trkpt>
      <trkpt lat="46.30477" lon="5.27594">
        <ele>242.8</ele>
        <time>2022-06-25T06:28:13Z</time>
      </trkpt>
      <trkpt lat="46.30456" lon="5.27639">
        <ele>242.8</ele>
        <time>2022-06-25T06:28:18Z</time>
      </trkpt>
      <trkpt lat="46.30424" lon="5.27686">
        <ele>242</ele>
        <time>2022-06-25T06:28:24Z</time>
      </trkpt>
      <trkpt lat="46.30418" lon="5.27694">
        <ele>242</ele>
        <time>2022-06-25T06:28:25Z</time>
      </trkpt>
      <trkpt lat="46.30411" lon="5.27712">
        <ele>241.8</ele>
        <time>2022-06-25T06:28:27Z</time>
      </trkpt>
      <trkpt lat="46.30408" lon="5.27723">
        <ele>241.8</ele>
        <time>2022-06-25T06:28:28Z</time>
      </trkpt>
      <trkpt lat="46.30383" lon="5.27802">
        <ele>241.8</ele>
        <time>2022-06-25T06:28:36Z</time>
      </trkpt>
      <trkpt lat="46.30377" lon="5.2782">
        <ele>241.8</ele>
        <time>2022-06-25T06:28:38Z</time>
      </trkpt>
      <trkpt lat="46.30352" lon="5.27896">
        <ele>242.2</ele>
        <time>2022-06-25T06:28:46Z</time>
      </trkpt>
      <trkpt lat="46.30343" lon="5.27926">
        <ele>242.2</ele>
        <time>2022-06-25T06:28:49Z</time>
      </trkpt>
      <trkpt lat="46.30323" lon="5.28007">
        <ele>242</ele>
        <time>2022-06-25T06:28:57Z</time>
      </trkpt>
      <trkpt lat="46.30321" lon="5.28019">
        <ele>242</ele>
        <time>2022-06-25T06:28:58Z</time>
      </trkpt>
      <trkpt lat="46.30318" lon="5.28043">
        <ele>241.8</ele>
        <time>2022-06-25T06:29:00Z</time>
      </trkpt>
      <trkpt lat="46.3031" lon="5.28092">
        <ele>241</ele>
        <time>2022-06-25T06:29:04Z</time>
      </trkpt>
      <trkpt lat="46.30306" lon="5.28117">
        <ele>240.4</ele>
        <time>2022-06-25T06:29:06Z</time>
      </trkpt>
      <trkpt lat="46.30296" lon="5.28179">
        <ele>239.8</ele>
        <time>2022-06-25T06:29:11Z</time>
      </trkpt>
      <trkpt lat="46.30297" lon="5.28204">
        <ele>239.4</ele>
        <time>2022-06-25T06:29:13Z</time>
      </trkpt>
      <trkpt lat="46.30303" lon="5.28242">
        <ele>238.6</ele>
        <time>2022-06-25T06:29:16Z</time>
      </trkpt>
      <trkpt lat="46.30303" lon="5.28256">
        <ele>238.4</ele>
        <time>2022-06-25T06:29:17Z</time>
      </trkpt>
      <trkpt lat="46.30302" lon="5.2827">
        <ele>238</ele>
        <time>2022-06-25T06:29:18Z</time>
      </trkpt>
      <trkpt lat="46.303" lon="5.28285">
        <ele>237.8</ele>
        <time>2022-06-25T06:29:19Z</time>
      </trkpt>
      <trkpt lat="46.30295" lon="5.28315">
        <ele>237.2</ele>
        <time>2022-06-25T06:29:21Z</time>
      </trkpt>
      <trkpt lat="46.30285" lon="5.28362">
        <ele>236</ele>
        <time>2022-06-25T06:29:24Z</time>
      </trkpt>
      <trkpt lat="46.30281" lon="5.28379">
        <ele>235.6</ele>
        <time>2022-06-25T06:29:25Z</time>
      </trkpt>
      <trkpt lat="46.30272" lon="5.28413">
        <ele>234</ele>
        <time>2022-06-25T06:29:27Z</time>
      </trkpt>
      <trkpt lat="46.30263" lon="5.28447">
        <ele>232</ele>
        <time>2022-06-25T06:29:29Z</time>
      </trkpt>
      <trkpt lat="46.30259" lon="5.28464">
        <ele>230.8</ele>
        <time>2022-06-25T06:29:30Z</time>
      </trkpt>
      <trkpt lat="46.30255" lon="5.28481">
        <ele>230.4</ele>
        <time>2022-06-25T06:29:31Z</time>
      </trkpt>
      <trkpt lat="46.3025" lon="5.28498">
        <ele>229.2</ele>
        <time>2022-06-25T06:29:32Z</time>
      </trkpt>
      <trkpt lat="46.30241" lon="5.28531">
        <ele>227.8</ele>
        <time>2022-06-25T06:29:34Z</time>
      </trkpt>
      <trkpt lat="46.30232" lon="5.28564">
        <ele>226.4</ele>
        <time>2022-06-25T06:29:36Z</time>
      </trkpt>
      <trkpt lat="46.30224" lon="5.28597">
        <ele>225.2</ele>
        <time>2022-06-25T06:29:38Z</time>
      </trkpt>
      <trkpt lat="46.30216" lon="5.2863">
        <ele>223.8</ele>
        <time>2022-06-25T06:29:40Z</time>
      </trkpt>
      <trkpt lat="46.30209" lon="5.28661">
        <ele>222.8</ele>
        <time>2022-06-25T06:29:42Z</time>
      </trkpt>
      <trkpt lat="46.30205" lon="5.28674">
        <ele>221.8</ele>
        <time>2022-06-25T06:29:43Z</time>
      </trkpt>
      <trkpt lat="46.302" lon="5.28686">
        <ele>221.2</ele>
        <time>2022-06-25T06:29:44Z</time>
      </trkpt>
      <trkpt lat="46.30176" lon="5.28732">
        <ele>220.6</ele>
        <time>2022-06-25T06:29:48Z</time>
      </trkpt>
      <trkpt lat="46.30164" lon="5.28756">
        <ele>220.4</ele>
        <time>2022-06-25T06:29:50Z</time>
      </trkpt>
      <trkpt lat="46.30137" lon="5.28813">
        <ele>219.8</ele>
        <time>2022-06-25T06:29:55Z</time>
      </trkpt>
      <trkpt lat="46.3013" lon="5.2885">
        <ele>219.6</ele>
        <time>2022-06-25T06:29:58Z</time>
      </trkpt>
      <trkpt lat="46.30129" lon="5.28862">
        <ele>219.4</ele>
        <time>2022-06-25T06:29:59Z</time>
      </trkpt>
      <trkpt lat="46.30126" lon="5.28883">
        <ele>219.6</ele>
        <time>2022-06-25T06:30:01Z</time>
      </trkpt>
      <trkpt lat="46.30123" lon="5.28892">
        <ele>219.6</ele>
        <time>2022-06-25T06:30:02Z</time>
      </trkpt>
      <trkpt lat="46.30119" lon="5.289">
        <ele>219.6</ele>
        <time>2022-06-25T06:30:03Z</time>
      </trkpt>
      <trkpt lat="46.30111" lon="5.28912">
        <ele>220.2</ele>
        <time>2022-06-25T06:30:05Z</time>
      </trkpt>
      <trkpt lat="46.30107" lon="5.28917">
        <ele>220.6</ele>
        <time>2022-06-25T06:30:06Z</time>
      </trkpt>
      <trkpt lat="46.30087" lon="5.28935">
        <ele>222</ele>
        <time>2022-06-25T06:30:10Z</time>
      </trkpt>
      <trkpt lat="46.30082" lon="5.28938">
        <ele>222.4</ele>
        <time>2022-06-25T06:30:11Z</time>
      </trkpt>
      <trkpt lat="46.30072" lon="5.28942">
        <ele>223.2</ele>
        <time>2022-06-25T06:30:13Z</time>
      </trkpt>
      <trkpt lat="46.30053" lon="5.28949">
        <ele>224.2</ele>
        <time>2022-06-25T06:30:17Z</time>
      </trkpt>
      <trkpt lat="46.30039" lon="5.28953">
        <ele>225.2</ele>
        <time>2022-06-25T06:30:20Z</time>
      </trkpt>
      <trkpt lat="46.30015" lon="5.28959">
        <ele>226.4</ele>
        <time>2022-06-25T06:30:25Z</time>
      </trkpt>
      <trkpt lat="46.30002" lon="5.28963">
        <ele>226.8</ele>
        <time>2022-06-25T06:30:28Z</time>
      </trkpt>
      <trkpt lat="46.29996" lon="5.28971">
        <ele>227.4</ele>
        <time>2022-06-25T06:30:30Z</time>
      </trkpt>
      <trkpt lat="46.29994" lon="5.28986">
        <ele>228</ele>
        <time>2022-06-25T06:30:33Z</time>
      </trkpt>
      <trkpt lat="46.29994" lon="5.29003">
        <ele>228.6</ele>
        <time>2022-06-25T06:30:36Z</time>
      </trkpt>
      <trkpt lat="46.29991" lon="5.29008">
        <ele>229</ele>
        <time>2022-06-25T06:30:37Z</time>
      </trkpt>
      <trkpt lat="46.29986" lon="5.29012">
        <ele>229.2</ele>
        <time>2022-06-25T06:30:38Z</time>
      </trkpt>
      <trkpt lat="46.29971" lon="5.2902">
        <ele>229.4</ele>
        <time>2022-06-25T06:30:41Z</time>
      </trkpt>
      <trkpt lat="46.29951" lon="5.2903">
        <ele>229.8</ele>
        <time>2022-06-25T06:30:45Z</time>
      </trkpt>
      <trkpt lat="46.29933" lon="5.2904">
        <ele>230.4</ele>
        <time>2022-06-25T06:30:49Z</time>
      </trkpt>
      <trkpt lat="46.29923" lon="5.29046">
        <ele>231</ele>
        <time>2022-06-25T06:30:51Z</time>
      </trkpt>
      <trkpt lat="46.2989" lon="5.29069">
        <ele>232.2</ele>
        <time>2022-06-25T06:30:58Z</time>
      </trkpt>
      <trkpt lat="46.29862" lon="5.29091">
        <ele>232.6</ele>
        <time>2022-06-25T06:31:04Z</time>
      </trkpt>
      <trkpt lat="46.29854" lon="5.29101">
        <ele>233</ele>
        <time>2022-06-25T06:31:06Z</time>
      </trkpt>
      <trkpt lat="46.2985" lon="5.29106">
        <ele>233.2</ele>
        <time>2022-06-25T06:31:07Z</time>
      </trkpt>
      <trkpt lat="46.29821" lon="5.2914">
        <ele>234.2</ele>
        <time>2022-06-25T06:31:14Z</time>
      </trkpt>
      <trkpt lat="46.29808" lon="5.29154">
        <ele>234.4</ele>
        <time>2022-06-25T06:31:17Z</time>
      </trkpt>
      <trkpt lat="46.29784" lon="5.29179">
        <ele>235.2</ele>
        <time>2022-06-25T06:31:22Z</time>
      </trkpt>
      <trkpt lat="46.29777" lon="5.2919">
        <ele>235.2</ele>
        <time>2022-06-25T06:31:24Z</time>
      </trkpt>
      <trkpt lat="46.29762" lon="5.29232">
        <ele>235.6</ele>
        <time>2022-06-25T06:31:30Z</time>
      </trkpt>
      <trkpt lat="46.29755" lon="5.29259">
        <ele>236.4</ele>
        <time>2022-06-25T06:31:34Z</time>
      </trkpt>
      <trkpt lat="46.29748" lon="5.29286">
        <ele>236.8</ele>
        <time>2022-06-25T06:31:38Z</time>
      </trkpt>
      <trkpt lat="46.29745" lon="5.29299">
        <ele>237.4</ele>
        <time>2022-06-25T06:31:40Z</time>
      </trkpt>
      <trkpt lat="46.29735" lon="5.29338">
        <ele>238.6</ele>
        <time>2022-06-25T06:31:46Z</time>
      </trkpt>
      <trkpt lat="46.29731" lon="5.29352">
        <ele>239.2</ele>
        <time>2022-06-25T06:31:48Z</time>
      </trkpt>
      <trkpt lat="46.29728" lon="5.29365">
        <ele>240</ele>
        <time>2022-06-25T06:31:50Z</time>
      </trkpt>
      <trkpt lat="46.29716" lon="5.29399">
        <ele>241</ele>
        <time>2022-06-25T06:31:55Z</time>
      </trkpt>
      <trkpt lat="46.2969" lon="5.29446">
        <ele>241.6</ele>
        <time>2022-06-25T06:32:02Z</time>
      </trkpt>
      <trkpt lat="46.29659" lon="5.29486">
        <ele>242</ele>
        <time>2022-06-25T06:32:09Z</time>
      </trkpt>
      <trkpt lat="46.29637" lon="5.2952">
        <ele>242.2</ele>
        <time>2022-06-25T06:32:14Z</time>
      </trkpt>
      <trkpt lat="46.29623" lon="5.29548">
        <ele>242.2</ele>
        <time>2022-06-25T06:32:18Z</time>
      </trkpt>
      <trkpt lat="46.29617" lon="5.29563">
        <ele>242.4</ele>
        <time>2022-06-25T06:32:20Z</time>
      </trkpt>
      <trkpt lat="46.29609" lon="5.29588">
        <ele>243.2</ele>
        <time>2022-06-25T06:32:23Z</time>
      </trkpt>
      <trkpt lat="46.29598" lon="5.29631">
        <ele>243.8</ele>
        <time>2022-06-25T06:32:28Z</time>
      </trkpt>
      <trkpt lat="46.29582" lon="5.297">
        <ele>244.2</ele>
        <time>2022-06-25T06:32:36Z</time>
      </trkpt>
      <trkpt lat="46.2957" lon="5.29753">
        <ele>244.4</ele>
        <time>2022-06-25T06:32:43Z</time>
      </trkpt>
      <trkpt lat="46.29571" lon="5.29756">
        <ele>244.4</ele>
        <time>2022-06-25T06:32:45Z</time>
      </trkpt>
      <trkpt lat="46.29571" lon="5.29756">
        <ele>244.4</ele>
        <time>2022-06-25T06:32:47Z</time>
      </trkpt>
      <trkpt lat="46.29569" lon="5.29761">
        <ele>244.6</ele>
        <time>2022-06-25T06:33:28Z</time>
      </trkpt>
      <trkpt lat="46.29569" lon="5.29764">
        <ele>244.6</ele>
        <time>2022-06-25T06:33:29Z</time>
      </trkpt>
      <trkpt lat="46.29564" lon="5.29782">
        <ele>244.6</ele>
        <time>2022-06-25T06:33:33Z</time>
      </trkpt>
      <trkpt lat="46.29559" lon="5.29796">
        <ele>244.6</ele>
        <time>2022-06-25T06:33:35Z</time>
      </trkpt>
      <trkpt lat="46.29557" lon="5.29812">
        <ele>244.6</ele>
        <time>2022-06-25T06:33:37Z</time>
      </trkpt>
      <trkpt lat="46.29545" lon="5.29864">
        <ele>244.8</ele>
        <time>2022-06-25T06:33:43Z</time>
      </trkpt>
      <trkpt lat="46.29531" lon="5.29925">
        <ele>245</ele>
        <time>2022-06-25T06:33:50Z</time>
      </trkpt>
      <trkpt lat="46.2952" lon="5.29959">
        <ele>245</ele>
        <time>2022-06-25T06:33:55Z</time>
      </trkpt>
      <trkpt lat="46.29516" lon="5.29968">
        <ele>245</ele>
        <time>2022-06-25T06:33:58Z</time>
      </trkpt>
      <trkpt lat="46.29515" lon="5.29968">
        <ele>245</ele>
        <time>2022-06-25T06:33:59Z</time>
      </trkpt>
      <trkpt lat="46.29511" lon="5.2997">
        <ele>245.2</ele>
        <time>2022-06-25T06:34:02Z</time>
      </trkpt>
      <trkpt lat="46.2951" lon="5.2997">
        <ele>245.2</ele>
        <time>2022-06-25T06:34:03Z</time>
      </trkpt>
      <trkpt lat="46.29496" lon="5.29966">
        <ele>245.6</ele>
        <time>2022-06-25T06:34:07Z</time>
      </trkpt>
      <trkpt lat="46.29483" lon="5.29961">
        <ele>245.6</ele>
        <time>2022-06-25T06:34:10Z</time>
      </trkpt>
      <trkpt lat="46.29473" lon="5.29955">
        <ele>245.8</ele>
        <time>2022-06-25T06:34:13Z</time>
      </trkpt>
      <trkpt lat="46.29459" lon="5.2995">
        <ele>245.8</ele>
        <time>2022-06-25T06:34:18Z</time>
      </trkpt>
      <trkpt lat="46.2945" lon="5.29949">
        <ele>245.8</ele>
        <time>2022-06-25T06:34:20Z</time>
      </trkpt>
      <trkpt lat="46.29441" lon="5.29954">
        <ele>245.8</ele>
        <time>2022-06-25T06:34:22Z</time>
      </trkpt>
      <trkpt lat="46.2943" lon="5.29962">
        <ele>245.8</ele>
        <time>2022-06-25T06:34:24Z</time>
      </trkpt>
      <trkpt lat="46.29419" lon="5.29972">
        <ele>245.8</ele>
        <time>2022-06-25T06:34:26Z</time>
      </trkpt>
      <trkpt lat="46.29384" lon="5.3001">
        <ele>245.6</ele>
        <time>2022-06-25T06:34:32Z</time>
      </trkpt>
      <trkpt lat="46.29342" lon="5.30056">
        <ele>246.2</ele>
        <time>2022-06-25T06:34:40Z</time>
      </trkpt>
      <trkpt lat="46.29336" lon="5.30061">
        <ele>246.4</ele>
        <time>2022-06-25T06:34:41Z</time>
      </trkpt>
      <trkpt lat="46.2929" lon="5.30112">
        <ele>247.2</ele>
        <time>2022-06-25T06:34:50Z</time>
      </trkpt>
      <trkpt lat="46.29284" lon="5.30117">
        <ele>247.4</ele>
        <time>2022-06-25T06:34:51Z</time>
      </trkpt>
      <trkpt lat="46.29243" lon="5.30161">
        <ele>248.2</ele>
        <time>2022-06-25T06:34:59Z</time>
      </trkpt>
      <trkpt lat="46.292" lon="5.30207">
        <ele>248</ele>
        <time>2022-06-25T06:35:07Z</time>
      </trkpt>
      <trkpt lat="46.29189" lon="5.30219">
        <ele>248</ele>
        <time>2022-06-25T06:35:09Z</time>
      </trkpt>
      <trkpt lat="46.29145" lon="5.30266">
        <ele>248</ele>
        <time>2022-06-25T06:35:17Z</time>
      </trkpt>
      <trkpt lat="46.29101" lon="5.30314">
        <ele>247.8</ele>
        <time>2022-06-25T06:35:25Z</time>
      </trkpt>
      <trkpt lat="46.29084" lon="5.30331">
        <ele>248</ele>
        <time>2022-06-25T06:35:28Z</time>
      </trkpt>
      <trkpt lat="46.29045" lon="5.30367">
        <ele>248.2</ele>
        <time>2022-06-25T06:35:35Z</time>
      </trkpt>
      <trkpt lat="46.29039" lon="5.30371">
        <ele>248.4</ele>
        <time>2022-06-25T06:35:36Z</time>
      </trkpt>
      <trkpt lat="46.29013" lon="5.30379">
        <ele>248.8</ele>
        <time>2022-06-25T06:35:40Z</time>
      </trkpt>
      <trkpt lat="46.28963" lon="5.30392">
        <ele>249.2</ele>
        <time>2022-06-25T06:35:48Z</time>
      </trkpt>
      <trkpt lat="46.28945" lon="5.30395">
        <ele>249.6</ele>
        <time>2022-06-25T06:35:51Z</time>
      </trkpt>
      <trkpt lat="46.28922" lon="5.30401">
        <ele>250.6</ele>
        <time>2022-06-25T06:35:55Z</time>
      </trkpt>
      <trkpt lat="46.28911" lon="5.30404">
        <ele>250.8</ele>
        <time>2022-06-25T06:35:57Z</time>
      </trkpt>
      <trkpt lat="46.28864" lon="5.30418">
        <ele>251.6</ele>
        <time>2022-06-25T06:36:05Z</time>
      </trkpt>
      <trkpt lat="46.28852" lon="5.3042">
        <ele>251.6</ele>
        <time>2022-06-25T06:36:07Z</time>
      </trkpt>
      <trkpt lat="46.288" lon="5.30432">
        <ele>251.8</ele>
        <time>2022-06-25T06:36:15Z</time>
      </trkpt>
      <trkpt lat="46.28745" lon="5.30441">
        <ele>251.2</ele>
        <time>2022-06-25T06:36:23Z</time>
      </trkpt>
      <trkpt lat="46.28712" lon="5.30445">
        <ele>250.6</ele>
        <time>2022-06-25T06:36:28Z</time>
      </trkpt>
      <trkpt lat="46.28706" lon="5.30446">
        <ele>250.6</ele>
        <time>2022-06-25T06:36:29Z</time>
      </trkpt>
      <trkpt lat="46.287" lon="5.30446">
        <ele>250.6</ele>
        <time>2022-06-25T06:36:30Z</time>
      </trkpt>
      <trkpt lat="46.28691" lon="5.30446">
        <ele>250.6</ele>
        <time>2022-06-25T06:36:32Z</time>
      </trkpt>
      <trkpt lat="46.28687" lon="5.30448">
        <ele>250.4</ele>
        <time>2022-06-25T06:36:33Z</time>
      </trkpt>
      <trkpt lat="46.28685" lon="5.30452">
        <ele>250.4</ele>
        <time>2022-06-25T06:36:34Z</time>
      </trkpt>
      <trkpt lat="46.28684" lon="5.30465">
        <ele>250.4</ele>
        <time>2022-06-25T06:36:36Z</time>
      </trkpt>
      <trkpt lat="46.28683" lon="5.30475">
        <ele>250.4</ele>
        <time>2022-06-25T06:36:37Z</time>
      </trkpt>
      <trkpt lat="46.28682" lon="5.30504">
        <ele>250.4</ele>
        <time>2022-06-25T06:36:40Z</time>
      </trkpt>
      <trkpt lat="46.28677" lon="5.30575">
        <ele>250.8</ele>
        <time>2022-06-25T06:36:47Z</time>
      </trkpt>
      <trkpt lat="46.28674" lon="5.30645">
        <ele>251.6</ele>
        <time>2022-06-25T06:36:54Z</time>
      </trkpt>
      <trkpt lat="46.28672" lon="5.30673">
        <ele>251.8</ele>
        <time>2022-06-25T06:36:57Z</time>
      </trkpt>
      <trkpt lat="46.28668" lon="5.30751">
        <ele>252.4</ele>
        <time>2022-06-25T06:37:05Z</time>
      </trkpt>
      <trkpt lat="46.28666" lon="5.3077">
        <ele>252.4</ele>
        <time>2022-06-25T06:37:07Z</time>
      </trkpt>
      <trkpt lat="46.28665" lon="5.30789">
        <ele>252.6</ele>
        <time>2022-06-25T06:37:09Z</time>
      </trkpt>
      <trkpt lat="46.28661" lon="5.30855">
        <ele>253.2</ele>
        <time>2022-06-25T06:37:16Z</time>
      </trkpt>
      <trkpt lat="46.28658" lon="5.309">
        <ele>253.8</ele>
        <time>2022-06-25T06:37:21Z</time>
      </trkpt>
      <trkpt lat="46.28655" lon="5.30945">
        <ele>254.4</ele>
        <time>2022-06-25T06:37:26Z</time>
      </trkpt>
      <trkpt lat="46.28653" lon="5.30989">
        <ele>254.8</ele>
        <time>2022-06-25T06:37:31Z</time>
      </trkpt>
      <trkpt lat="46.28651" lon="5.31029">
        <ele>255.2</ele>
        <time>2022-06-25T06:37:35Z</time>
      </trkpt>
      <trkpt lat="46.28649" lon="5.31111">
        <ele>255.4</ele>
        <time>2022-06-25T06:37:43Z</time>
      </trkpt>
      <trkpt lat="46.28649" lon="5.31122">
        <ele>255.4</ele>
        <time>2022-06-25T06:37:44Z</time>
      </trkpt>
      <trkpt lat="46.28648" lon="5.31206">
        <ele>255.6</ele>
        <time>2022-06-25T06:37:52Z</time>
      </trkpt>
      <trkpt lat="46.28647" lon="5.31218">
        <ele>255.4</ele>
        <time>2022-06-25T06:37:53Z</time>
      </trkpt>
      <trkpt lat="46.28647" lon="5.31302">
        <ele>255</ele>
        <time>2022-06-25T06:38:00Z</time>
      </trkpt>
      <trkpt lat="46.28646" lon="5.31312">
        <ele>255</ele>
        <time>2022-06-25T06:38:01Z</time>
      </trkpt>
      <trkpt lat="46.28641" lon="5.31362">
        <ele>255</ele>
        <time>2022-06-25T06:38:06Z</time>
      </trkpt>
      <trkpt lat="46.28628" lon="5.31406">
        <ele>255.8</ele>
        <time>2022-06-25T06:38:11Z</time>
      </trkpt>
      <trkpt lat="46.28624" lon="5.31415">
        <ele>256</ele>
        <time>2022-06-25T06:38:12Z</time>
      </trkpt>
      <trkpt lat="46.28607" lon="5.31448">
        <ele>256.6</ele>
        <time>2022-06-25T06:38:16Z</time>
      </trkpt>
      <trkpt lat="46.28564" lon="5.31507">
        <ele>256.8</ele>
        <time>2022-06-25T06:38:24Z</time>
      </trkpt>
      <trkpt lat="46.28529" lon="5.31577">
        <ele>257</ele>
        <time>2022-06-25T06:38:32Z</time>
      </trkpt>
      <trkpt lat="46.28498" lon="5.31642">
        <ele>257.2</ele>
        <time>2022-06-25T06:38:39Z</time>
      </trkpt>
      <trkpt lat="46.2849" lon="5.3166">
        <ele>257.4</ele>
        <time>2022-06-25T06:38:41Z</time>
      </trkpt>
      <trkpt lat="46.28456" lon="5.3173">
        <ele>257.6</ele>
        <time>2022-06-25T06:38:49Z</time>
      </trkpt>
      <trkpt lat="46.28448" lon="5.31748">
        <ele>257.8</ele>
        <time>2022-06-25T06:38:51Z</time>
      </trkpt>
      <trkpt lat="46.28429" lon="5.31792">
        <ele>258</ele>
        <time>2022-06-25T06:38:56Z</time>
      </trkpt>
      <trkpt lat="46.28415" lon="5.3183">
        <ele>258</ele>
        <time>2022-06-25T06:39:00Z</time>
      </trkpt>
      <trkpt lat="46.28386" lon="5.31904">
        <ele>258.8</ele>
        <time>2022-06-25T06:39:08Z</time>
      </trkpt>
      <trkpt lat="46.28379" lon="5.31923">
        <ele>258.6</ele>
        <time>2022-06-25T06:39:10Z</time>
      </trkpt>
      <trkpt lat="46.28353" lon="5.31992">
        <ele>258.4</ele>
        <time>2022-06-25T06:39:17Z</time>
      </trkpt>
      <trkpt lat="46.28346" lon="5.32012">
        <ele>258.2</ele>
        <time>2022-06-25T06:39:19Z</time>
      </trkpt>
      <trkpt lat="46.2832" lon="5.32082">
        <ele>257.6</ele>
        <time>2022-06-25T06:39:25Z</time>
      </trkpt>
      <trkpt lat="46.28316" lon="5.32094">
        <ele>257.4</ele>
        <time>2022-06-25T06:39:26Z</time>
      </trkpt>
      <trkpt lat="46.28304" lon="5.32132">
        <ele>256.6</ele>
        <time>2022-06-25T06:39:29Z</time>
      </trkpt>
      <trkpt lat="46.28291" lon="5.32172">
        <ele>255.8</ele>
        <time>2022-06-25T06:39:32Z</time>
      </trkpt>
      <trkpt lat="46.28288" lon="5.32185">
        <ele>255</ele>
        <time>2022-06-25T06:39:33Z</time>
      </trkpt>
      <trkpt lat="46.28278" lon="5.32225">
        <ele>254</ele>
        <time>2022-06-25T06:39:36Z</time>
      </trkpt>
      <trkpt lat="46.28273" lon="5.32251">
        <ele>253.6</ele>
        <time>2022-06-25T06:39:38Z</time>
      </trkpt>
      <trkpt lat="46.28265" lon="5.32325">
        <ele>253</ele>
        <time>2022-06-25T06:39:44Z</time>
      </trkpt>
      <trkpt lat="46.28261" lon="5.32411">
        <ele>253.2</ele>
        <time>2022-06-25T06:39:51Z</time>
      </trkpt>
      <trkpt lat="46.28259" lon="5.3247">
        <ele>252.8</ele>
        <time>2022-06-25T06:39:56Z</time>
      </trkpt>
      <trkpt lat="46.28255" lon="5.32519">
        <ele>252.4</ele>
        <time>2022-06-25T06:40:00Z</time>
      </trkpt>
      <trkpt lat="46.28246" lon="5.32599">
        <ele>252.2</ele>
        <time>2022-06-25T06:40:07Z</time>
      </trkpt>
      <trkpt lat="46.28244" lon="5.32611">
        <ele>252.4</ele>
        <time>2022-06-25T06:40:08Z</time>
      </trkpt>
      <trkpt lat="46.28229" lon="5.3269">
        <ele>252.2</ele>
        <time>2022-06-25T06:40:15Z</time>
      </trkpt>
      <trkpt lat="46.28225" lon="5.3271">
        <ele>252.2</ele>
        <time>2022-06-25T06:40:17Z</time>
      </trkpt>
      <trkpt lat="46.28213" lon="5.32763">
        <ele>253.4</ele>
        <time>2022-06-25T06:40:23Z</time>
      </trkpt>
      <trkpt lat="46.28208" lon="5.32788">
        <ele>254</ele>
        <time>2022-06-25T06:40:26Z</time>
      </trkpt>
      <trkpt lat="46.28201" lon="5.32827">
        <ele>255</ele>
        <time>2022-06-25T06:40:31Z</time>
      </trkpt>
      <trkpt lat="46.28194" lon="5.32865">
        <ele>256.4</ele>
        <time>2022-06-25T06:40:36Z</time>
      </trkpt>
      <trkpt lat="46.2819" lon="5.32896">
        <ele>257.6</ele>
        <time>2022-06-25T06:40:40Z</time>
      </trkpt>
      <trkpt lat="46.28189" lon="5.32904">
        <ele>257.8</ele>
        <time>2022-06-25T06:40:41Z</time>
      </trkpt>
      <trkpt lat="46.28185" lon="5.32936">
        <ele>258.8</ele>
        <time>2022-06-25T06:40:45Z</time>
      </trkpt>
      <trkpt lat="46.2818" lon="5.32979">
        <ele>259.2</ele>
        <time>2022-06-25T06:40:50Z</time>
      </trkpt>
      <trkpt lat="46.28177" lon="5.33006">
        <ele>259.8</ele>
        <time>2022-06-25T06:40:53Z</time>
      </trkpt>
      <trkpt lat="46.28173" lon="5.33041">
        <ele>260.4</ele>
        <time>2022-06-25T06:40:57Z</time>
      </trkpt>
      <trkpt lat="46.28169" lon="5.33076">
        <ele>260.8</ele>
        <time>2022-06-25T06:41:01Z</time>
      </trkpt>
      <trkpt lat="46.28162" lon="5.3313">
        <ele>261.2</ele>
        <time>2022-06-25T06:41:07Z</time>
      </trkpt>
      <trkpt lat="46.28154" lon="5.33216">
        <ele>261.6</ele>
        <time>2022-06-25T06:41:16Z</time>
      </trkpt>
      <trkpt lat="46.28153" lon="5.33236">
        <ele>261.6</ele>
        <time>2022-06-25T06:41:18Z</time>
      </trkpt>
      <trkpt lat="46.28152" lon="5.33318">
        <ele>261.6</ele>
        <time>2022-06-25T06:41:26Z</time>
      </trkpt>
      <trkpt lat="46.28153" lon="5.33326">
        <ele>261.8</ele>
        <time>2022-06-25T06:41:27Z</time>
      </trkpt>
      <trkpt lat="46.28153" lon="5.33337">
        <ele>261.8</ele>
        <time>2022-06-25T06:41:28Z</time>
      </trkpt>
      <trkpt lat="46.28156" lon="5.33413">
        <ele>262.8</ele>
        <time>2022-06-25T06:41:36Z</time>
      </trkpt>
      <trkpt lat="46.28157" lon="5.33431">
        <ele>262.8</ele>
        <time>2022-06-25T06:41:38Z</time>
      </trkpt>
      <trkpt lat="46.2816" lon="5.33492">
        <ele>264</ele>
        <time>2022-06-25T06:41:45Z</time>
      </trkpt>
      <trkpt lat="46.28161" lon="5.3351">
        <ele>264.2</ele>
        <time>2022-06-25T06:41:47Z</time>
      </trkpt>
      <trkpt lat="46.28166" lon="5.33594">
        <ele>264.4</ele>
        <time>2022-06-25T06:41:56Z</time>
      </trkpt>
      <trkpt lat="46.28168" lon="5.33611">
        <ele>264.6</ele>
        <time>2022-06-25T06:41:58Z</time>
      </trkpt>
      <trkpt lat="46.28173" lon="5.33692">
        <ele>264.8</ele>
        <time>2022-06-25T06:42:06Z</time>
      </trkpt>
      <trkpt lat="46.28173" lon="5.33702">
        <ele>264.6</ele>
        <time>2022-06-25T06:42:07Z</time>
      </trkpt>
      <trkpt lat="46.28179" lon="5.3377">
        <ele>264.8</ele>
        <time>2022-06-25T06:42:14Z</time>
      </trkpt>
      <trkpt lat="46.28182" lon="5.33798">
        <ele>265</ele>
        <time>2022-06-25T06:42:17Z</time>
      </trkpt>
      <trkpt lat="46.28186" lon="5.33846">
        <ele>265.4</ele>
        <time>2022-06-25T06:42:22Z</time>
      </trkpt>
      <trkpt lat="46.2819" lon="5.33931">
        <ele>266.2</ele>
        <time>2022-06-25T06:42:31Z</time>
      </trkpt>
      <trkpt lat="46.2819" lon="5.3394">
        <ele>266.2</ele>
        <time>2022-06-25T06:42:32Z</time>
      </trkpt>
      <trkpt lat="46.28189" lon="5.34017">
        <ele>266.8</ele>
        <time>2022-06-25T06:42:40Z</time>
      </trkpt>
      <trkpt lat="46.28186" lon="5.34104">
        <ele>266.6</ele>
        <time>2022-06-25T06:42:48Z</time>
      </trkpt>
      <trkpt lat="46.28178" lon="5.34176">
        <ele>265.2</ele>
        <time>2022-06-25T06:42:54Z</time>
      </trkpt>
      <trkpt lat="46.28177" lon="5.34188">
        <ele>264.8</ele>
        <time>2022-06-25T06:42:55Z</time>
      </trkpt>
      <trkpt lat="46.2817" lon="5.34236">
        <ele>264</ele>
        <time>2022-06-25T06:42:59Z</time>
      </trkpt>
      <trkpt lat="46.28163" lon="5.34285">
        <ele>263</ele>
        <time>2022-06-25T06:43:03Z</time>
      </trkpt>
      <trkpt lat="46.28161" lon="5.34298">
        <ele>262.8</ele>
        <time>2022-06-25T06:43:04Z</time>
      </trkpt>
      <trkpt lat="46.28155" lon="5.34349">
        <ele>261.4</ele>
        <time>2022-06-25T06:43:08Z</time>
      </trkpt>
      <trkpt lat="46.28147" lon="5.34413">
        <ele>260.2</ele>
        <time>2022-06-25T06:43:13Z</time>
      </trkpt>
      <trkpt lat="46.28141" lon="5.34467">
        <ele>259.2</ele>
        <time>2022-06-25T06:43:17Z</time>
      </trkpt>
      <trkpt lat="46.28136" lon="5.34508">
        <ele>257.8</ele>
        <time>2022-06-25T06:43:20Z</time>
      </trkpt>
      <trkpt lat="46.28131" lon="5.34535">
        <ele>257.2</ele>
        <time>2022-06-25T06:43:22Z</time>
      </trkpt>
      <trkpt lat="46.28121" lon="5.34556">
        <ele>256.6</ele>
        <time>2022-06-25T06:43:24Z</time>
      </trkpt>
      <trkpt lat="46.28114" lon="5.34569">
        <ele>256.2</ele>
        <time>2022-06-25T06:43:25Z</time>
      </trkpt>
      <trkpt lat="46.28107" lon="5.34578">
        <ele>255.4</ele>
        <time>2022-06-25T06:43:26Z</time>
      </trkpt>
      <trkpt lat="46.28086" lon="5.34606">
        <ele>254.2</ele>
        <time>2022-06-25T06:43:29Z</time>
      </trkpt>
      <trkpt lat="46.28059" lon="5.34641">
        <ele>253.8</ele>
        <time>2022-06-25T06:43:33Z</time>
      </trkpt>
      <trkpt lat="46.28015" lon="5.34699">
        <ele>253.4</ele>
        <time>2022-06-25T06:43:40Z</time>
      </trkpt>
      <trkpt lat="46.28003" lon="5.34715">
        <ele>253.4</ele>
        <time>2022-06-25T06:43:42Z</time>
      </trkpt>
      <trkpt lat="46.27958" lon="5.34774">
        <ele>253.4</ele>
        <time>2022-06-25T06:43:50Z</time>
      </trkpt>
      <trkpt lat="46.27914" lon="5.34832">
        <ele>253.8</ele>
        <time>2022-06-25T06:43:58Z</time>
      </trkpt>
      <trkpt lat="46.27908" lon="5.34839">
        <ele>253.6</ele>
        <time>2022-06-25T06:43:59Z</time>
      </trkpt>
      <trkpt lat="46.27862" lon="5.34888">
        <ele>254.4</ele>
        <time>2022-06-25T06:44:07Z</time>
      </trkpt>
      <trkpt lat="46.27818" lon="5.34924">
        <ele>255</ele>
        <time>2022-06-25T06:44:15Z</time>
      </trkpt>
      <trkpt lat="46.27807" lon="5.34933">
        <ele>255.4</ele>
        <time>2022-06-25T06:44:17Z</time>
      </trkpt>
      <trkpt lat="46.27787" lon="5.34949">
        <ele>256.4</ele>
        <time>2022-06-25T06:44:21Z</time>
      </trkpt>
      <trkpt lat="46.27772" lon="5.34962">
        <ele>257</ele>
        <time>2022-06-25T06:44:24Z</time>
      </trkpt>
      <trkpt lat="46.27753" lon="5.34981">
        <ele>257.4</ele>
        <time>2022-06-25T06:44:28Z</time>
      </trkpt>
      <trkpt lat="46.2774" lon="5.34999">
        <ele>257.6</ele>
        <time>2022-06-25T06:44:31Z</time>
      </trkpt>
      <trkpt lat="46.27716" lon="5.35047">
        <ele>258</ele>
        <time>2022-06-25T06:44:38Z</time>
      </trkpt>
      <trkpt lat="46.27703" lon="5.35075">
        <ele>258.6</ele>
        <time>2022-06-25T06:44:42Z</time>
      </trkpt>
      <trkpt lat="46.27681" lon="5.35123">
        <ele>259.6</ele>
        <time>2022-06-25T06:44:49Z</time>
      </trkpt>
      <trkpt lat="46.27678" lon="5.3513">
        <ele>259.8</ele>
        <time>2022-06-25T06:44:50Z</time>
      </trkpt>
      <trkpt lat="46.27647" lon="5.35197">
        <ele>260.4</ele>
        <time>2022-06-25T06:45:00Z</time>
      </trkpt>
      <trkpt lat="46.27641" lon="5.35211">
        <ele>260.6</ele>
        <time>2022-06-25T06:45:02Z</time>
      </trkpt>
      <trkpt lat="46.27618" lon="5.35275">
        <ele>261.6</ele>
        <time>2022-06-25T06:45:11Z</time>
      </trkpt>
      <trkpt lat="46.27606" lon="5.3533">
        <ele>262.2</ele>
        <time>2022-06-25T06:45:18Z</time>
      </trkpt>
      <trkpt lat="46.27597" lon="5.35379">
        <ele>262.8</ele>
        <time>2022-06-25T06:45:24Z</time>
      </trkpt>
      <trkpt lat="46.27593" lon="5.35404">
        <ele>263</ele>
        <time>2022-06-25T06:45:27Z</time>
      </trkpt>
      <trkpt lat="46.27582" lon="5.35453">
        <ele>263.8</ele>
        <time>2022-06-25T06:45:33Z</time>
      </trkpt>
      <trkpt lat="46.27579" lon="5.3546">
        <ele>263.8</ele>
        <time>2022-06-25T06:45:34Z</time>
      </trkpt>
      <trkpt lat="46.27565" lon="5.35497">
        <ele>264.2</ele>
        <time>2022-06-25T06:45:39Z</time>
      </trkpt>
      <trkpt lat="46.27562" lon="5.35504">
        <ele>264.6</ele>
        <time>2022-06-25T06:45:40Z</time>
      </trkpt>
      <trkpt lat="46.27556" lon="5.35517">
        <ele>264.8</ele>
        <time>2022-06-25T06:45:42Z</time>
      </trkpt>
      <trkpt lat="46.27539" lon="5.35547">
        <ele>265.6</ele>
        <time>2022-06-25T06:45:47Z</time>
      </trkpt>
      <trkpt lat="46.27532" lon="5.35556">
        <ele>266</ele>
        <time>2022-06-25T06:45:49Z</time>
      </trkpt>
      <trkpt lat="46.27515" lon="5.3558">
        <ele>267.4</ele>
        <time>2022-06-25T06:45:54Z</time>
      </trkpt>
      <trkpt lat="46.27512" lon="5.35585">
        <ele>267.8</ele>
        <time>2022-06-25T06:45:55Z</time>
      </trkpt>
      <trkpt lat="46.27507" lon="5.35601">
        <ele>268.6</ele>
        <time>2022-06-25T06:45:58Z</time>
      </trkpt>
      <trkpt lat="46.27501" lon="5.35624">
        <ele>269.6</ele>
        <time>2022-06-25T06:46:02Z</time>
      </trkpt>
      <trkpt lat="46.27497" lon="5.35642">
        <ele>270.8</ele>
        <time>2022-06-25T06:46:05Z</time>
      </trkpt>
      <trkpt lat="46.27491" lon="5.35673">
        <ele>271.8</ele>
        <time>2022-06-25T06:46:10Z</time>
      </trkpt>
      <trkpt lat="46.27488" lon="5.35686">
        <ele>272.4</ele>
        <time>2022-06-25T06:46:12Z</time>
      </trkpt>
      <trkpt lat="46.27484" lon="5.35706">
        <ele>273</ele>
        <time>2022-06-25T06:46:15Z</time>
      </trkpt>
      <trkpt lat="46.27477" lon="5.35742">
        <ele>273.8</ele>
        <time>2022-06-25T06:46:20Z</time>
      </trkpt>
      <trkpt lat="46.27475" lon="5.35756">
        <ele>274.2</ele>
        <time>2022-06-25T06:46:22Z</time>
      </trkpt>
      <trkpt lat="46.27472" lon="5.3578">
        <ele>274.6</ele>
        <time>2022-06-25T06:46:25Z</time>
      </trkpt>
      <trkpt lat="46.27467" lon="5.35802">
        <ele>274.8</ele>
        <time>2022-06-25T06:46:28Z</time>
      </trkpt>
      <trkpt lat="46.27461" lon="5.35823">
        <ele>275.2</ele>
        <time>2022-06-25T06:46:31Z</time>
      </trkpt>
      <trkpt lat="46.27452" lon="5.35847">
        <ele>276</ele>
        <time>2022-06-25T06:46:35Z</time>
      </trkpt>
      <trkpt lat="46.27449" lon="5.35854">
        <ele>276.2</ele>
        <time>2022-06-25T06:46:36Z</time>
      </trkpt>
      <trkpt lat="46.27444" lon="5.35865">
        <ele>276.4</ele>
        <time>2022-06-25T06:46:38Z</time>
      </trkpt>
      <trkpt lat="46.27434" lon="5.35881">
        <ele>277</ele>
        <time>2022-06-25T06:46:41Z</time>
      </trkpt>
      <trkpt lat="46.2742" lon="5.359">
        <ele>277.4</ele>
        <time>2022-06-25T06:46:45Z</time>
      </trkpt>
      <trkpt lat="46.27405" lon="5.35919">
        <ele>278.2</ele>
        <time>2022-06-25T06:46:49Z</time>
      </trkpt>
      <trkpt lat="46.27402" lon="5.35924">
        <ele>278.6</ele>
        <time>2022-06-25T06:46:50Z</time>
      </trkpt>
      <trkpt lat="46.27381" lon="5.35952">
        <ele>279.6</ele>
        <time>2022-06-25T06:46:56Z</time>
      </trkpt>
      <trkpt lat="46.27374" lon="5.35961">
        <ele>280.2</ele>
        <time>2022-06-25T06:46:58Z</time>
      </trkpt>
      <trkpt lat="46.27363" lon="5.35975">
        <ele>280.8</ele>
        <time>2022-06-25T06:47:01Z</time>
      </trkpt>
      <trkpt lat="46.27345" lon="5.35999">
        <ele>282</ele>
        <time>2022-06-25T06:47:06Z</time>
      </trkpt>
      <trkpt lat="46.27335" lon="5.36015">
        <ele>282.6</ele>
        <time>2022-06-25T06:47:09Z</time>
      </trkpt>
      <trkpt lat="46.27324" lon="5.36035">
        <ele>282.8</ele>
        <time>2022-06-25T06:47:12Z</time>
      </trkpt>
      <trkpt lat="46.27321" lon="5.36041">
        <ele>283</ele>
        <time>2022-06-25T06:47:13Z</time>
      </trkpt>
      <trkpt lat="46.27315" lon="5.36057">
        <ele>283.2</ele>
        <time>2022-06-25T06:47:15Z</time>
      </trkpt>
      <trkpt lat="46.27303" lon="5.36099">
        <ele>283.8</ele>
        <time>2022-06-25T06:47:20Z</time>
      </trkpt>
      <trkpt lat="46.27299" lon="5.3615">
        <ele>283.2</ele>
        <time>2022-06-25T06:47:25Z</time>
      </trkpt>
      <trkpt lat="46.27297" lon="5.36214">
        <ele>283</ele>
        <time>2022-06-25T06:47:31Z</time>
      </trkpt>
      <trkpt lat="46.27296" lon="5.36299">
        <ele>282.6</ele>
        <time>2022-06-25T06:47:39Z</time>
      </trkpt>
      <trkpt lat="46.27295" lon="5.3631">
        <ele>282.6</ele>
        <time>2022-06-25T06:47:40Z</time>
      </trkpt>
      <trkpt lat="46.2729" lon="5.36385">
        <ele>282.4</ele>
        <time>2022-06-25T06:47:47Z</time>
      </trkpt>
      <trkpt lat="46.27287" lon="5.36402">
        <ele>282.4</ele>
        <time>2022-06-25T06:47:49Z</time>
      </trkpt>
      <trkpt lat="46.27272" lon="5.36468">
        <ele>283</ele>
        <time>2022-06-25T06:47:56Z</time>
      </trkpt>
      <trkpt lat="46.27252" lon="5.36539">
        <ele>283.4</ele>
        <time>2022-06-25T06:48:04Z</time>
      </trkpt>
      <trkpt lat="46.27238" lon="5.36587">
        <ele>284</ele>
        <time>2022-06-25T06:48:10Z</time>
      </trkpt>
      <trkpt lat="46.27232" lon="5.36608">
        <ele>284.4</ele>
        <time>2022-06-25T06:48:13Z</time>
      </trkpt>
      <trkpt lat="46.2722" lon="5.36644">
        <ele>284.8</ele>
        <time>2022-06-25T06:48:19Z</time>
      </trkpt>
      <trkpt lat="46.27217" lon="5.36649">
        <ele>285.2</ele>
        <time>2022-06-25T06:48:22Z</time>
      </trkpt>
      <trkpt lat="46.27217" lon="5.36649">
        <ele>285.2</ele>
        <time>2022-06-25T06:48:23Z</time>
      </trkpt>
      <trkpt lat="46.27217" lon="5.36649">
        <ele>285.2</ele>
        <time>2022-06-25T06:48:24Z</time>
      </trkpt>
      <trkpt lat="46.27215" lon="5.36654">
        <ele>285.4</ele>
        <time>2022-06-25T06:48:32Z</time>
      </trkpt>
      <trkpt lat="46.27214" lon="5.36661">
        <ele>285.4</ele>
        <time>2022-06-25T06:48:34Z</time>
      </trkpt>
      <trkpt lat="46.27208" lon="5.36682">
        <ele>285.4</ele>
        <time>2022-06-25T06:48:38Z</time>
      </trkpt>
      <trkpt lat="46.272" lon="5.36705">
        <ele>285.6</ele>
        <time>2022-06-25T06:48:42Z</time>
      </trkpt>
      <trkpt lat="46.27194" lon="5.36714">
        <ele>285.8</ele>
        <time>2022-06-25T06:48:44Z</time>
      </trkpt>
      <trkpt lat="46.2719" lon="5.36719">
        <ele>285.8</ele>
        <time>2022-06-25T06:48:45Z</time>
      </trkpt>
      <trkpt lat="46.27184" lon="5.36725">
        <ele>286.4</ele>
        <time>2022-06-25T06:48:47Z</time>
      </trkpt>
      <trkpt lat="46.27178" lon="5.36731">
        <ele>287</ele>
        <time>2022-06-25T06:48:49Z</time>
      </trkpt>
      <trkpt lat="46.27174" lon="5.36733">
        <ele>287.2</ele>
        <time>2022-06-25T06:48:50Z</time>
      </trkpt>
      <trkpt lat="46.2717" lon="5.36734">
        <ele>287.6</ele>
        <time>2022-06-25T06:48:51Z</time>
      </trkpt>
      <trkpt lat="46.27157" lon="5.36737">
        <ele>288.6</ele>
        <time>2022-06-25T06:48:54Z</time>
      </trkpt>
      <trkpt lat="46.27153" lon="5.36737">
        <ele>288.8</ele>
        <time>2022-06-25T06:48:55Z</time>
      </trkpt>
      <trkpt lat="46.27145" lon="5.36736">
        <ele>290</ele>
        <time>2022-06-25T06:48:57Z</time>
      </trkpt>
      <trkpt lat="46.27137" lon="5.36733">
        <ele>290.8</ele>
        <time>2022-06-25T06:48:59Z</time>
      </trkpt>
      <trkpt lat="46.27128" lon="5.3673">
        <ele>291.2</ele>
        <time>2022-06-25T06:49:01Z</time>
      </trkpt>
      <trkpt lat="46.27104" lon="5.36726">
        <ele>292.6</ele>
        <time>2022-06-25T06:49:06Z</time>
      </trkpt>
      <trkpt lat="46.27096" lon="5.36726">
        <ele>293.4</ele>
        <time>2022-06-25T06:49:08Z</time>
      </trkpt>
      <trkpt lat="46.27086" lon="5.36726">
        <ele>293.6</ele>
        <time>2022-06-25T06:49:10Z</time>
      </trkpt>
      <trkpt lat="46.2705" lon="5.3673">
        <ele>295</ele>
        <time>2022-06-25T06:49:18Z</time>
      </trkpt>
      <trkpt lat="46.27041" lon="5.36732">
        <ele>295.6</ele>
        <time>2022-06-25T06:49:20Z</time>
      </trkpt>
      <trkpt lat="46.27029" lon="5.36738">
        <ele>296</ele>
        <time>2022-06-25T06:49:23Z</time>
      </trkpt>
      <trkpt lat="46.27003" lon="5.3676">
        <ele>296.4</ele>
        <time>2022-06-25T06:49:29Z</time>
      </trkpt>
      <trkpt lat="46.26999" lon="5.36765">
        <ele>296.4</ele>
        <time>2022-06-25T06:49:30Z</time>
      </trkpt>
      <trkpt lat="46.26993" lon="5.36775">
        <ele>296.6</ele>
        <time>2022-06-25T06:49:32Z</time>
      </trkpt>
      <trkpt lat="46.26985" lon="5.3679">
        <ele>296.8</ele>
        <time>2022-06-25T06:49:35Z</time>
      </trkpt>
      <trkpt lat="46.26981" lon="5.36795">
        <ele>297</ele>
        <time>2022-06-25T06:49:37Z</time>
      </trkpt>
      <trkpt lat="46.26978" lon="5.36796">
        <ele>297</ele>
        <time>2022-06-25T06:49:38Z</time>
      </trkpt>
      <trkpt lat="46.26971" lon="5.36803">
        <ele>297</ele>
        <time>2022-06-25T06:49:40Z</time>
      </trkpt>
      <trkpt lat="46.26964" lon="5.36812">
        <ele>297</ele>
        <time>2022-06-25T06:49:42Z</time>
      </trkpt>
      <trkpt lat="46.2696" lon="5.36816">
        <ele>297</ele>
        <time>2022-06-25T06:49:43Z</time>
      </trkpt>
      <trkpt lat="46.26936" lon="5.36843">
        <ele>297.6</ele>
        <time>2022-06-25T06:49:50Z</time>
      </trkpt>
      <trkpt lat="46.2693" lon="5.3685">
        <ele>298</ele>
        <time>2022-06-25T06:49:52Z</time>
      </trkpt>
      <trkpt lat="46.26919" lon="5.36861">
        <ele>299</ele>
        <time>2022-06-25T06:49:55Z</time>
      </trkpt>
      <trkpt lat="46.26908" lon="5.3687">
        <ele>299.8</ele>
        <time>2022-06-25T06:49:58Z</time>
      </trkpt>
      <trkpt lat="46.26904" lon="5.36873">
        <ele>300.2</ele>
        <time>2022-06-25T06:49:59Z</time>
      </trkpt>
      <trkpt lat="46.26886" lon="5.36881">
        <ele>301.6</ele>
        <time>2022-06-25T06:50:04Z</time>
      </trkpt>
      <trkpt lat="46.26882" lon="5.36881">
        <ele>301.6</ele>
        <time>2022-06-25T06:50:05Z</time>
      </trkpt>
      <trkpt lat="46.26871" lon="5.36883">
        <ele>302.6</ele>
        <time>2022-06-25T06:50:08Z</time>
      </trkpt>
      <trkpt lat="46.26861" lon="5.36886">
        <ele>303.8</ele>
        <time>2022-06-25T06:50:11Z</time>
      </trkpt>
      <trkpt lat="46.2685" lon="5.36888">
        <ele>304.4</ele>
        <time>2022-06-25T06:50:14Z</time>
      </trkpt>
      <trkpt lat="46.26839" lon="5.3689">
        <ele>305</ele>
        <time>2022-06-25T06:50:17Z</time>
      </trkpt>
      <trkpt lat="46.26821" lon="5.36893">
        <ele>306.2</ele>
        <time>2022-06-25T06:50:22Z</time>
      </trkpt>
      <trkpt lat="46.26815" lon="5.36895">
        <ele>306.6</ele>
        <time>2022-06-25T06:50:24Z</time>
      </trkpt>
      <trkpt lat="46.268" lon="5.36899">
        <ele>307.2</ele>
        <time>2022-06-25T06:50:28Z</time>
      </trkpt>
      <trkpt lat="46.26786" lon="5.36905">
        <ele>308.2</ele>
        <time>2022-06-25T06:50:32Z</time>
      </trkpt>
      <trkpt lat="46.26783" lon="5.36906">
        <ele>308.6</ele>
        <time>2022-06-25T06:50:33Z</time>
      </trkpt>
      <trkpt lat="46.26773" lon="5.36911">
        <ele>309.6</ele>
        <time>2022-06-25T06:50:36Z</time>
      </trkpt>
      <trkpt lat="46.26756" lon="5.36922">
        <ele>310.6</ele>
        <time>2022-06-25T06:50:41Z</time>
      </trkpt>
      <trkpt lat="46.2675" lon="5.36927">
        <ele>311</ele>
        <time>2022-06-25T06:50:43Z</time>
      </trkpt>
      <trkpt lat="46.26738" lon="5.36937">
        <ele>312</ele>
        <time>2022-06-25T06:50:47Z</time>
      </trkpt>
      <trkpt lat="46.2672" lon="5.36949">
        <ele>313.2</ele>
        <time>2022-06-25T06:50:52Z</time>
      </trkpt>
      <trkpt lat="46.26707" lon="5.36957">
        <ele>314.4</ele>
        <time>2022-06-25T06:50:56Z</time>
      </trkpt>
      <trkpt lat="46.267" lon="5.36962">
        <ele>314.6</ele>
        <time>2022-06-25T06:50:58Z</time>
      </trkpt>
      <trkpt lat="46.26687" lon="5.3697">
        <ele>315.4</ele>
        <time>2022-06-25T06:51:02Z</time>
      </trkpt>
      <trkpt lat="46.26677" lon="5.36976">
        <ele>316</ele>
        <time>2022-06-25T06:51:05Z</time>
      </trkpt>
      <trkpt lat="46.2667" lon="5.36979">
        <ele>316.4</ele>
        <time>2022-06-25T06:51:07Z</time>
      </trkpt>
      <trkpt lat="46.26653" lon="5.36981">
        <ele>317.6</ele>
        <time>2022-06-25T06:51:12Z</time>
      </trkpt>
      <trkpt lat="46.2665" lon="5.36981">
        <ele>317.8</ele>
        <time>2022-06-25T06:51:13Z</time>
      </trkpt>
      <trkpt lat="46.26636" lon="5.36976">
        <ele>318.6</ele>
        <time>2022-06-25T06:51:17Z</time>
      </trkpt>
      <trkpt lat="46.26626" lon="5.36969">
        <ele>319.4</ele>
        <time>2022-06-25T06:51:20Z</time>
      </trkpt>
      <trkpt lat="46.2662" lon="5.36964">
        <ele>319.8</ele>
        <time>2022-06-25T06:51:22Z</time>
      </trkpt>
      <trkpt lat="46.26605" lon="5.36951">
        <ele>321</ele>
        <time>2022-06-25T06:51:27Z</time>
      </trkpt>
      <trkpt lat="46.26593" lon="5.36941">
        <ele>322</ele>
        <time>2022-06-25T06:51:31Z</time>
      </trkpt>
      <trkpt lat="46.26589" lon="5.3694">
        <ele>322.2</ele>
        <time>2022-06-25T06:51:32Z</time>
      </trkpt>
      <trkpt lat="46.26569" lon="5.36933">
        <ele>323.2</ele>
        <time>2022-06-25T06:51:38Z</time>
      </trkpt>
      <trkpt lat="46.26566" lon="5.36934">
        <ele>323.4</ele>
        <time>2022-06-25T06:51:39Z</time>
      </trkpt>
      <trkpt lat="46.26559" lon="5.36945">
        <ele>323.8</ele>
        <time>2022-06-25T06:51:42Z</time>
      </trkpt>
      <trkpt lat="46.26559" lon="5.36949">
        <ele>324.2</ele>
        <time>2022-06-25T06:51:43Z</time>
      </trkpt>
      <trkpt lat="46.26567" lon="5.36964">
        <ele>325.2</ele>
        <time>2022-06-25T06:51:47Z</time>
      </trkpt>
      <trkpt lat="46.26571" lon="5.36967">
        <ele>325.2</ele>
        <time>2022-06-25T06:51:48Z</time>
      </trkpt>
      <trkpt lat="46.26577" lon="5.36973">
        <ele>325.8</ele>
        <time>2022-06-25T06:51:50Z</time>
      </trkpt>
      <trkpt lat="46.26583" lon="5.36979">
        <ele>326.4</ele>
        <time>2022-06-25T06:51:52Z</time>
      </trkpt>
      <trkpt lat="46.26592" lon="5.36988">
        <ele>327</ele>
        <time>2022-06-25T06:51:55Z</time>
      </trkpt>
      <trkpt lat="46.26598" lon="5.36993">
        <ele>327.4</ele>
        <time>2022-06-25T06:51:57Z</time>
      </trkpt>
      <trkpt lat="46.26611" lon="5.37006">
        <ele>328.6</ele>
        <time>2022-06-25T06:52:01Z</time>
      </trkpt>
      <trkpt lat="46.26618" lon="5.37012">
        <ele>329</ele>
        <time>2022-06-25T06:52:03Z</time>
      </trkpt>
      <trkpt lat="46.26629" lon="5.3702">
        <ele>329.6</ele>
        <time>2022-06-25T06:52:06Z</time>
      </trkpt>
      <trkpt lat="46.26648" lon="5.3703">
        <ele>330.6</ele>
        <time>2022-06-25T06:52:11Z</time>
      </trkpt>
      <trkpt lat="46.26652" lon="5.37031">
        <ele>330.6</ele>
        <time>2022-06-25T06:52:12Z</time>
      </trkpt>
      <trkpt lat="46.26677" lon="5.37031">
        <ele>331.8</ele>
        <time>2022-06-25T06:52:18Z</time>
      </trkpt>
      <trkpt lat="46.26696" lon="5.37027">
        <ele>332.8</ele>
        <time>2022-06-25T06:52:23Z</time>
      </trkpt>
      <trkpt lat="46.26712" lon="5.37025">
        <ele>333.8</ele>
        <time>2022-06-25T06:52:27Z</time>
      </trkpt>
      <trkpt lat="46.26715" lon="5.37025">
        <ele>334</ele>
        <time>2022-06-25T06:52:28Z</time>
      </trkpt>
      <trkpt lat="46.26729" lon="5.37028">
        <ele>335</ele>
        <time>2022-06-25T06:52:32Z</time>
      </trkpt>
      <trkpt lat="46.26743" lon="5.37032">
        <ele>335.8</ele>
        <time>2022-06-25T06:52:36Z</time>
      </trkpt>
      <trkpt lat="46.26747" lon="5.37033">
        <ele>336</ele>
        <time>2022-06-25T06:52:37Z</time>
      </trkpt>
      <trkpt lat="46.2675" lon="5.37035">
        <ele>336.2</ele>
        <time>2022-06-25T06:52:38Z</time>
      </trkpt>
      <trkpt lat="46.26767" lon="5.37045">
        <ele>337.2</ele>
        <time>2022-06-25T06:52:43Z</time>
      </trkpt>
      <trkpt lat="46.26773" lon="5.37049">
        <ele>337.8</ele>
        <time>2022-06-25T06:52:45Z</time>
      </trkpt>
      <trkpt lat="46.26784" lon="5.37056">
        <ele>338.4</ele>
        <time>2022-06-25T06:52:48Z</time>
      </trkpt>
      <trkpt lat="46.26806" lon="5.3707">
        <ele>339.4</ele>
        <time>2022-06-25T06:52:54Z</time>
      </trkpt>
      <trkpt lat="46.2681" lon="5.37073">
        <ele>339.8</ele>
        <time>2022-06-25T06:52:55Z</time>
      </trkpt>
      <trkpt lat="46.26829" lon="5.37085">
        <ele>340.6</ele>
        <time>2022-06-25T06:53:00Z</time>
      </trkpt>
      <trkpt lat="46.26833" lon="5.37089">
        <ele>340.6</ele>
        <time>2022-06-25T06:53:01Z</time>
      </trkpt>
      <trkpt lat="46.26835" lon="5.37093">
        <ele>340.8</ele>
        <time>2022-06-25T06:53:02Z</time>
      </trkpt>
      <trkpt lat="46.26836" lon="5.37103">
        <ele>341</ele>
        <time>2022-06-25T06:53:04Z</time>
      </trkpt>
      <trkpt lat="46.26831" lon="5.37111">
        <ele>341.4</ele>
        <time>2022-06-25T06:53:06Z</time>
      </trkpt>
      <trkpt lat="46.26828" lon="5.3711">
        <ele>341.6</ele>
        <time>2022-06-25T06:53:07Z</time>
      </trkpt>
      <trkpt lat="46.26812" lon="5.37105">
        <ele>343</ele>
        <time>2022-06-25T06:53:11Z</time>
      </trkpt>
      <trkpt lat="46.26804" lon="5.37103">
        <ele>343.6</ele>
        <time>2022-06-25T06:53:13Z</time>
      </trkpt>
      <trkpt lat="46.26797" lon="5.37102">
        <ele>344.2</ele>
        <time>2022-06-25T06:53:15Z</time>
      </trkpt>
      <trkpt lat="46.26777" lon="5.371">
        <ele>345.4</ele>
        <time>2022-06-25T06:53:20Z</time>
      </trkpt>
      <trkpt lat="46.26759" lon="5.37099">
        <ele>346.6</ele>
        <time>2022-06-25T06:53:25Z</time>
      </trkpt>
      <trkpt lat="46.26745" lon="5.37099">
        <ele>348</ele>
        <time>2022-06-25T06:53:29Z</time>
      </trkpt>
      <trkpt lat="46.26727" lon="5.37099">
        <ele>349</ele>
        <time>2022-06-25T06:53:34Z</time>
      </trkpt>
      <trkpt lat="46.26711" lon="5.37101">
        <ele>350.4</ele>
        <time>2022-06-25T06:53:39Z</time>
      </trkpt>
      <trkpt lat="46.26698" lon="5.37102">
        <ele>351.2</ele>
        <time>2022-06-25T06:53:43Z</time>
      </trkpt>
      <trkpt lat="46.26694" lon="5.37102">
        <ele>351.6</ele>
        <time>2022-06-25T06:53:44Z</time>
      </trkpt>
      <trkpt lat="46.26674" lon="5.37104">
        <ele>352.6</ele>
        <time>2022-06-25T06:53:50Z</time>
      </trkpt>
      <trkpt lat="46.26664" lon="5.37104">
        <ele>353.6</ele>
        <time>2022-06-25T06:53:53Z</time>
      </trkpt>
      <trkpt lat="46.26661" lon="5.37104">
        <ele>353.6</ele>
        <time>2022-06-25T06:53:54Z</time>
      </trkpt>
      <trkpt lat="46.26643" lon="5.37103">
        <ele>355</ele>
        <time>2022-06-25T06:53:59Z</time>
      </trkpt>
      <trkpt lat="46.26632" lon="5.37103">
        <ele>356</ele>
        <time>2022-06-25T06:54:02Z</time>
      </trkpt>
      <trkpt lat="46.26619" lon="5.37102">
        <ele>357</ele>
        <time>2022-06-25T06:54:06Z</time>
      </trkpt>
      <trkpt lat="46.26602" lon="5.37101">
        <ele>358</ele>
        <time>2022-06-25T06:54:11Z</time>
      </trkpt>
      <trkpt lat="46.26588" lon="5.371">
        <ele>359</ele>
        <time>2022-06-25T06:54:15Z</time>
      </trkpt>
      <trkpt lat="46.26584" lon="5.371">
        <ele>359.2</ele>
        <time>2022-06-25T06:54:16Z</time>
      </trkpt>
      <trkpt lat="46.26563" lon="5.37099">
        <ele>360.4</ele>
        <time>2022-06-25T06:54:22Z</time>
      </trkpt>
      <trkpt lat="46.26553" lon="5.37099">
        <ele>361.4</ele>
        <time>2022-06-25T06:54:25Z</time>
      </trkpt>
      <trkpt lat="46.26538" lon="5.37099">
        <ele>362.4</ele>
        <time>2022-06-25T06:54:29Z</time>
      </trkpt>
      <trkpt lat="46.26521" lon="5.37099">
        <ele>363.6</ele>
        <time>2022-06-25T06:54:34Z</time>
      </trkpt>
      <trkpt lat="46.26515" lon="5.37099">
        <ele>364.2</ele>
        <time>2022-06-25T06:54:36Z</time>
      </trkpt>
      <trkpt lat="46.26504" lon="5.37099">
        <ele>365</ele>
        <time>2022-06-25T06:54:39Z</time>
      </trkpt>
      <trkpt lat="46.26496" lon="5.371">
        <ele>365.6</ele>
        <time>2022-06-25T06:54:41Z</time>
      </trkpt>
      <trkpt lat="46.26489" lon="5.371">
        <ele>366.2</ele>
        <time>2022-06-25T06:54:43Z</time>
      </trkpt>
      <trkpt lat="46.26477" lon="5.37099">
        <ele>366.6</ele>
        <time>2022-06-25T06:54:46Z</time>
      </trkpt>
      <trkpt lat="46.26462" lon="5.37096">
        <ele>367.4</ele>
        <time>2022-06-25T06:54:50Z</time>
      </trkpt>
      <trkpt lat="46.26449" lon="5.37091">
        <ele>368.2</ele>
        <time>2022-06-25T06:54:54Z</time>
      </trkpt>
      <trkpt lat="46.26446" lon="5.37089">
        <ele>368.8</ele>
        <time>2022-06-25T06:54:55Z</time>
      </trkpt>
      <trkpt lat="46.26434" lon="5.37081">
        <ele>369.6</ele>
        <time>2022-06-25T06:54:59Z</time>
      </trkpt>
      <trkpt lat="46.26418" lon="5.37071">
        <ele>370.8</ele>
        <time>2022-06-25T06:55:04Z</time>
      </trkpt>
      <trkpt lat="46.26411" lon="5.37066">
        <ele>371.2</ele>
        <time>2022-06-25T06:55:06Z</time>
      </trkpt>
      <trkpt lat="46.26402" lon="5.37059">
        <ele>372</ele>
        <time>2022-06-25T06:55:09Z</time>
      </trkpt>
      <trkpt lat="46.26385" lon="5.37055">
        <ele>373</ele>
        <time>2022-06-25T06:55:14Z</time>
      </trkpt>
      <trkpt lat="46.26382" lon="5.37057">
        <ele>373.2</ele>
        <time>2022-06-25T06:55:15Z</time>
      </trkpt>
      <trkpt lat="46.26379" lon="5.37066">
        <ele>373.8</ele>
        <time>2022-06-25T06:55:17Z</time>
      </trkpt>
      <trkpt lat="46.26381" lon="5.37075">
        <ele>374.4</ele>
        <time>2022-06-25T06:55:19Z</time>
      </trkpt>
      <trkpt lat="46.26383" lon="5.37078">
        <ele>374.6</ele>
        <time>2022-06-25T06:55:20Z</time>
      </trkpt>
      <trkpt lat="46.26392" lon="5.37089">
        <ele>375.6</ele>
        <time>2022-06-25T06:55:23Z</time>
      </trkpt>
      <trkpt lat="46.26398" lon="5.37095">
        <ele>376.2</ele>
        <time>2022-06-25T06:55:25Z</time>
      </trkpt>
      <trkpt lat="46.26404" lon="5.37101">
        <ele>376.8</ele>
        <time>2022-06-25T06:55:27Z</time>
      </trkpt>
      <trkpt lat="46.26418" lon="5.37114">
        <ele>378.4</ele>
        <time>2022-06-25T06:55:32Z</time>
      </trkpt>
      <trkpt lat="46.26424" lon="5.37119">
        <ele>378.8</ele>
        <time>2022-06-25T06:55:34Z</time>
      </trkpt>
      <trkpt lat="46.26437" lon="5.37129">
        <ele>379.6</ele>
        <time>2022-06-25T06:55:38Z</time>
      </trkpt>
      <trkpt lat="46.26443" lon="5.37135">
        <ele>379.8</ele>
        <time>2022-06-25T06:55:40Z</time>
      </trkpt>
      <trkpt lat="46.26452" lon="5.37141">
        <ele>380.6</ele>
        <time>2022-06-25T06:55:43Z</time>
      </trkpt>
      <trkpt lat="46.26466" lon="5.37154">
        <ele>381.8</ele>
        <time>2022-06-25T06:55:48Z</time>
      </trkpt>
      <trkpt lat="46.26469" lon="5.37157">
        <ele>381.8</ele>
        <time>2022-06-25T06:55:49Z</time>
      </trkpt>
      <trkpt lat="46.26479" lon="5.37166">
        <ele>382.8</ele>
        <time>2022-06-25T06:55:53Z</time>
      </trkpt>
      <trkpt lat="46.26481" lon="5.37169">
        <ele>383</ele>
        <time>2022-06-25T06:55:54Z</time>
      </trkpt>
      <trkpt lat="46.26492" lon="5.37177">
        <ele>384</ele>
        <time>2022-06-25T06:55:58Z</time>
      </trkpt>
      <trkpt lat="46.26501" lon="5.37184">
        <ele>384.6</ele>
        <time>2022-06-25T06:56:01Z</time>
      </trkpt>
      <trkpt lat="46.26507" lon="5.37189">
        <ele>385</ele>
        <time>2022-06-25T06:56:03Z</time>
      </trkpt>
      <trkpt lat="46.26521" lon="5.37199">
        <ele>386</ele>
        <time>2022-06-25T06:56:08Z</time>
      </trkpt>
      <trkpt lat="46.26524" lon="5.37202">
        <ele>386.2</ele>
        <time>2022-06-25T06:56:09Z</time>
      </trkpt>
      <trkpt lat="46.26536" lon="5.37211">
        <ele>387.4</ele>
        <time>2022-06-25T06:56:13Z</time>
      </trkpt>
      <trkpt lat="46.26542" lon="5.37216">
        <ele>387.8</ele>
        <time>2022-06-25T06:56:15Z</time>
      </trkpt>
      <trkpt lat="46.26554" lon="5.37226">
        <ele>388.4</ele>
        <time>2022-06-25T06:56:19Z</time>
      </trkpt>
      <trkpt lat="46.26565" lon="5.37237">
        <ele>389.2</ele>
        <time>2022-06-25T06:56:23Z</time>
      </trkpt>
      <trkpt lat="46.26568" lon="5.37239">
        <ele>389.2</ele>
        <time>2022-06-25T06:56:24Z</time>
      </trkpt>
      <trkpt lat="46.2658" lon="5.37248">
        <ele>390</ele>
        <time>2022-06-25T06:56:28Z</time>
      </trkpt>
      <trkpt lat="46.26586" lon="5.37254">
        <ele>390.4</ele>
        <time>2022-06-25T06:56:30Z</time>
      </trkpt>
      <trkpt lat="46.26589" lon="5.37256">
        <ele>390.6</ele>
        <time>2022-06-25T06:56:31Z</time>
      </trkpt>
      <trkpt lat="46.26595" lon="5.37265">
        <ele>391.6</ele>
        <time>2022-06-25T06:56:34Z</time>
      </trkpt>
      <trkpt lat="46.26604" lon="5.37272">
        <ele>392.2</ele>
        <time>2022-06-25T06:56:37Z</time>
      </trkpt>
      <trkpt lat="46.26609" lon="5.37277">
        <ele>392.8</ele>
        <time>2022-06-25T06:56:39Z</time>
      </trkpt>
      <trkpt lat="46.26621" lon="5.37289">
        <ele>393.4</ele>
        <time>2022-06-25T06:56:43Z</time>
      </trkpt>
      <trkpt lat="46.26626" lon="5.37295">
        <ele>394</ele>
        <time>2022-06-25T06:56:45Z</time>
      </trkpt>
      <trkpt lat="46.26636" lon="5.37315">
        <ele>394.8</ele>
        <time>2022-06-25T06:56:50Z</time>
      </trkpt>
      <trkpt lat="46.26637" lon="5.37325">
        <ele>395.2</ele>
        <time>2022-06-25T06:56:52Z</time>
      </trkpt>
      <trkpt lat="46.26634" lon="5.37334">
        <ele>395.6</ele>
        <time>2022-06-25T06:56:54Z</time>
      </trkpt>
      <trkpt lat="46.26626" lon="5.37343">
        <ele>396.2</ele>
        <time>2022-06-25T06:56:57Z</time>
      </trkpt>
      <trkpt lat="46.26618" lon="5.37351">
        <ele>396.8</ele>
        <time>2022-06-25T06:57:00Z</time>
      </trkpt>
      <trkpt lat="46.26615" lon="5.37354">
        <ele>397.4</ele>
        <time>2022-06-25T06:57:01Z</time>
      </trkpt>
      <trkpt lat="46.26602" lon="5.37369">
        <ele>398.6</ele>
        <time>2022-06-25T06:57:06Z</time>
      </trkpt>
      <trkpt lat="46.26597" lon="5.37375">
        <ele>399.2</ele>
        <time>2022-06-25T06:57:08Z</time>
      </trkpt>
      <trkpt lat="46.26592" lon="5.37381">
        <ele>399.6</ele>
        <time>2022-06-25T06:57:10Z</time>
      </trkpt>
      <trkpt lat="46.26579" lon="5.37397">
        <ele>400.6</ele>
        <time>2022-06-25T06:57:15Z</time>
      </trkpt>
      <trkpt lat="46.26574" lon="5.37404">
        <ele>401.2</ele>
        <time>2022-06-25T06:57:17Z</time>
      </trkpt>
      <trkpt lat="46.26566" lon="5.37414">
        <ele>401.8</ele>
        <time>2022-06-25T06:57:20Z</time>
      </trkpt>
      <trkpt lat="46.26558" lon="5.37429">
        <ele>402.4</ele>
        <time>2022-06-25T06:57:24Z</time>
      </trkpt>
      <trkpt lat="46.26554" lon="5.37437">
        <ele>403</ele>
        <time>2022-06-25T06:57:26Z</time>
      </trkpt>
      <trkpt lat="46.26547" lon="5.37459">
        <ele>404</ele>
        <time>2022-06-25T06:57:31Z</time>
      </trkpt>
      <trkpt lat="46.26544" lon="5.37484">
        <ele>405.4</ele>
        <time>2022-06-25T06:57:36Z</time>
      </trkpt>
      <trkpt lat="46.26544" lon="5.37498">
        <ele>406</ele>
        <time>2022-06-25T06:57:39Z</time>
      </trkpt>
      <trkpt lat="46.26543" lon="5.37513">
        <ele>406.4</ele>
        <time>2022-06-25T06:57:42Z</time>
      </trkpt>
      <trkpt lat="46.26541" lon="5.37531">
        <ele>407</ele>
        <time>2022-06-25T06:57:46Z</time>
      </trkpt>
      <trkpt lat="46.2654" lon="5.37542">
        <ele>407.4</ele>
        <time>2022-06-25T06:57:48Z</time>
      </trkpt>
      <trkpt lat="46.26535" lon="5.37565">
        <ele>409</ele>
        <time>2022-06-25T06:57:53Z</time>
      </trkpt>
      <trkpt lat="46.26534" lon="5.37569">
        <ele>409.2</ele>
        <time>2022-06-25T06:57:54Z</time>
      </trkpt>
      <trkpt lat="46.26531" lon="5.37582">
        <ele>410</ele>
        <time>2022-06-25T06:57:57Z</time>
      </trkpt>
      <trkpt lat="46.26527" lon="5.37601">
        <ele>410.8</ele>
        <time>2022-06-25T06:58:01Z</time>
      </trkpt>
      <trkpt lat="46.26525" lon="5.37622">
        <ele>411</ele>
        <time>2022-06-25T06:58:05Z</time>
      </trkpt>
      <trkpt lat="46.26524" lon="5.37638">
        <ele>412</ele>
        <time>2022-06-25T06:58:08Z</time>
      </trkpt>
      <trkpt lat="46.26524" lon="5.37643">
        <ele>412.4</ele>
        <time>2022-06-25T06:58:09Z</time>
      </trkpt>
      <trkpt lat="46.26522" lon="5.37668">
        <ele>413.4</ele>
        <time>2022-06-25T06:58:14Z</time>
      </trkpt>
      <trkpt lat="46.2652" lon="5.37679">
        <ele>414.2</ele>
        <time>2022-06-25T06:58:16Z</time>
      </trkpt>
      <trkpt lat="46.26517" lon="5.37691">
        <ele>414.6</ele>
        <time>2022-06-25T06:58:18Z</time>
      </trkpt>
      <trkpt lat="46.2651" lon="5.37718">
        <ele>415.6</ele>
        <time>2022-06-25T06:58:23Z</time>
      </trkpt>
      <trkpt lat="46.265" lon="5.37743">
        <ele>416.8</ele>
        <time>2022-06-25T06:58:28Z</time>
      </trkpt>
      <trkpt lat="46.2649" lon="5.37757">
        <ele>418</ele>
        <time>2022-06-25T06:58:32Z</time>
      </trkpt>
      <trkpt lat="46.26485" lon="5.37764">
        <ele>418.6</ele>
        <time>2022-06-25T06:58:34Z</time>
      </trkpt>
      <trkpt lat="46.2648" lon="5.37772">
        <ele>419.2</ele>
        <time>2022-06-25T06:58:36Z</time>
      </trkpt>
      <trkpt lat="46.26471" lon="5.37778">
        <ele>420.2</ele>
        <time>2022-06-25T06:58:39Z</time>
      </trkpt>
      <trkpt lat="46.26463" lon="5.37786">
        <ele>420.8</ele>
        <time>2022-06-25T06:58:42Z</time>
      </trkpt>
      <trkpt lat="46.26456" lon="5.37792">
        <ele>421.2</ele>
        <time>2022-06-25T06:58:44Z</time>
      </trkpt>
      <trkpt lat="46.26444" lon="5.37801">
        <ele>422.4</ele>
        <time>2022-06-25T06:58:48Z</time>
      </trkpt>
      <trkpt lat="46.26441" lon="5.37803">
        <ele>422.4</ele>
        <time>2022-06-25T06:58:49Z</time>
      </trkpt>
      <trkpt lat="46.26423" lon="5.37819">
        <ele>423.4</ele>
        <time>2022-06-25T06:58:55Z</time>
      </trkpt>
      <trkpt lat="46.26406" lon="5.37831">
        <ele>424.8</ele>
        <time>2022-06-25T06:59:00Z</time>
      </trkpt>
      <trkpt lat="46.26393" lon="5.37841">
        <ele>425.6</ele>
        <time>2022-06-25T06:59:04Z</time>
      </trkpt>
      <trkpt lat="46.2639" lon="5.37843">
        <ele>425.8</ele>
        <time>2022-06-25T06:59:05Z</time>
      </trkpt>
      <trkpt lat="46.26375" lon="5.37853">
        <ele>426.8</ele>
        <time>2022-06-25T06:59:10Z</time>
      </trkpt>
      <trkpt lat="46.26367" lon="5.37858">
        <ele>427.2</ele>
        <time>2022-06-25T06:59:12Z</time>
      </trkpt>
      <trkpt lat="46.26358" lon="5.37864">
        <ele>428</ele>
        <time>2022-06-25T06:59:15Z</time>
      </trkpt>
      <trkpt lat="46.26342" lon="5.37877">
        <ele>429.2</ele>
        <time>2022-06-25T06:59:20Z</time>
      </trkpt>
      <trkpt lat="46.26321" lon="5.37898">
        <ele>430.6</ele>
        <time>2022-06-25T06:59:27Z</time>
      </trkpt>
      <trkpt lat="46.26318" lon="5.37901">
        <ele>430.8</ele>
        <time>2022-06-25T06:59:28Z</time>
      </trkpt>
      <trkpt lat="46.2631" lon="5.37911">
        <ele>431.6</ele>
        <time>2022-06-25T06:59:31Z</time>
      </trkpt>
      <trkpt lat="46.263" lon="5.37927">
        <ele>432.6</ele>
        <time>2022-06-25T06:59:35Z</time>
      </trkpt>
      <trkpt lat="46.26298" lon="5.3793">
        <ele>432.8</ele>
        <time>2022-06-25T06:59:36Z</time>
      </trkpt>
      <trkpt lat="46.26285" lon="5.37949">
        <ele>433.6</ele>
        <time>2022-06-25T06:59:41Z</time>
      </trkpt>
      <trkpt lat="46.26281" lon="5.37957">
        <ele>434</ele>
        <time>2022-06-25T06:59:43Z</time>
      </trkpt>
      <trkpt lat="46.26278" lon="5.37962">
        <ele>434.2</ele>
        <time>2022-06-25T06:59:44Z</time>
      </trkpt>
      <trkpt lat="46.26273" lon="5.37974">
        <ele>435</ele>
        <time>2022-06-25T06:59:47Z</time>
      </trkpt>
      <trkpt lat="46.2627" lon="5.37979">
        <ele>435.4</ele>
        <time>2022-06-25T06:59:48Z</time>
      </trkpt>
      <trkpt lat="46.26264" lon="5.3799">
        <ele>436</ele>
        <time>2022-06-25T06:59:51Z</time>
      </trkpt>
      <trkpt lat="46.26258" lon="5.38003">
        <ele>437.2</ele>
        <time>2022-06-25T06:59:54Z</time>
      </trkpt>
      <trkpt lat="46.26248" lon="5.38021">
        <ele>438.4</ele>
        <time>2022-06-25T06:59:59Z</time>
      </trkpt>
      <trkpt lat="46.26243" lon="5.38028">
        <ele>439</ele>
        <time>2022-06-25T07:00:01Z</time>
      </trkpt>
      <trkpt lat="46.26241" lon="5.38032">
        <ele>439.6</ele>
        <time>2022-06-25T07:00:02Z</time>
      </trkpt>
      <trkpt lat="46.26226" lon="5.38052">
        <ele>440.6</ele>
        <time>2022-06-25T07:00:07Z</time>
      </trkpt>
      <trkpt lat="46.26217" lon="5.38061">
        <ele>441.4</ele>
        <time>2022-06-25T07:00:10Z</time>
      </trkpt>
      <trkpt lat="46.26211" lon="5.38067">
        <ele>441.8</ele>
        <time>2022-06-25T07:00:12Z</time>
      </trkpt>
      <trkpt lat="46.26199" lon="5.38079">
        <ele>443</ele>
        <time>2022-06-25T07:00:16Z</time>
      </trkpt>
      <trkpt lat="46.26185" lon="5.38092">
        <ele>443.6</ele>
        <time>2022-06-25T07:00:20Z</time>
      </trkpt>
      <trkpt lat="46.26178" lon="5.38098">
        <ele>444</ele>
        <time>2022-06-25T07:00:22Z</time>
      </trkpt>
      <trkpt lat="46.26159" lon="5.38119">
        <ele>445</ele>
        <time>2022-06-25T07:00:28Z</time>
      </trkpt>
      <trkpt lat="46.26146" lon="5.38133">
        <ele>446.2</ele>
        <time>2022-06-25T07:00:32Z</time>
      </trkpt>
      <trkpt lat="46.2613" lon="5.38151">
        <ele>447.2</ele>
        <time>2022-06-25T07:00:37Z</time>
      </trkpt>
      <trkpt lat="46.26127" lon="5.38154">
        <ele>447.4</ele>
        <time>2022-06-25T07:00:38Z</time>
      </trkpt>
      <trkpt lat="46.26116" lon="5.38168">
        <ele>448.2</ele>
        <time>2022-06-25T07:00:41Z</time>
      </trkpt>
      <trkpt lat="46.26103" lon="5.38184">
        <ele>448.6</ele>
        <time>2022-06-25T07:00:44Z</time>
      </trkpt>
      <trkpt lat="46.26073" lon="5.38222">
        <ele>448.6</ele>
        <time>2022-06-25T07:00:50Z</time>
      </trkpt>
      <trkpt lat="46.26033" lon="5.38271">
        <ele>447.6</ele>
        <time>2022-06-25T07:00:56Z</time>
      </trkpt>
      <trkpt lat="46.26024" lon="5.38281">
        <ele>447.2</ele>
        <time>2022-06-25T07:00:57Z</time>
      </trkpt>
      <trkpt lat="46.26004" lon="5.38305">
        <ele>446</ele>
        <time>2022-06-25T07:01:00Z</time>
      </trkpt>
      <trkpt lat="46.25989" lon="5.38322">
        <ele>445</ele>
        <time>2022-06-25T07:01:02Z</time>
      </trkpt>
      <trkpt lat="46.25982" lon="5.38331">
        <ele>444.8</ele>
        <time>2022-06-25T07:01:03Z</time>
      </trkpt>
      <trkpt lat="46.25968" lon="5.38348">
        <ele>443.8</ele>
        <time>2022-06-25T07:01:05Z</time>
      </trkpt>
      <trkpt lat="46.25929" lon="5.38392">
        <ele>442.6</ele>
        <time>2022-06-25T07:01:10Z</time>
      </trkpt>
      <trkpt lat="46.25915" lon="5.38407">
        <ele>442.4</ele>
        <time>2022-06-25T07:01:12Z</time>
      </trkpt>
      <trkpt lat="46.25891" lon="5.38432">
        <ele>441.6</ele>
        <time>2022-06-25T07:01:15Z</time>
      </trkpt>
      <trkpt lat="46.25859" lon="5.38466">
        <ele>440</ele>
        <time>2022-06-25T07:01:19Z</time>
      </trkpt>
      <trkpt lat="46.25852" lon="5.38477">
        <ele>439.8</ele>
        <time>2022-06-25T07:01:20Z</time>
      </trkpt>
      <trkpt lat="46.25846" lon="5.38488">
        <ele>439</ele>
        <time>2022-06-25T07:01:21Z</time>
      </trkpt>
      <trkpt lat="46.25835" lon="5.38513">
        <ele>438.2</ele>
        <time>2022-06-25T07:01:23Z</time>
      </trkpt>
      <trkpt lat="46.25829" lon="5.38526">
        <ele>438</ele>
        <time>2022-06-25T07:01:24Z</time>
      </trkpt>
      <trkpt lat="46.25814" lon="5.38566">
        <ele>437</ele>
        <time>2022-06-25T07:01:27Z</time>
      </trkpt>
      <trkpt lat="46.25809" lon="5.38579">
        <ele>436.4</ele>
        <time>2022-06-25T07:01:28Z</time>
      </trkpt>
      <trkpt lat="46.25803" lon="5.38608">
        <ele>436</ele>
        <time>2022-06-25T07:01:30Z</time>
      </trkpt>
      <trkpt lat="46.25801" lon="5.38622">
        <ele>435.8</ele>
        <time>2022-06-25T07:01:31Z</time>
      </trkpt>
      <trkpt lat="46.25799" lon="5.38668">
        <ele>434.4</ele>
        <time>2022-06-25T07:01:34Z</time>
      </trkpt>
      <trkpt lat="46.25799" lon="5.38686">
        <ele>433.8</ele>
        <time>2022-06-25T07:01:35Z</time>
      </trkpt>
      <trkpt lat="46.25798" lon="5.38698">
        <ele>433.2</ele>
        <time>2022-06-25T07:01:36Z</time>
      </trkpt>
      <trkpt lat="46.25796" lon="5.38716">
        <ele>432.8</ele>
        <time>2022-06-25T07:01:37Z</time>
      </trkpt>
      <trkpt lat="46.25792" lon="5.38729">
        <ele>432.4</ele>
        <time>2022-06-25T07:01:38Z</time>
      </trkpt>
      <trkpt lat="46.25785" lon="5.38741">
        <ele>432</ele>
        <time>2022-06-25T07:01:39Z</time>
      </trkpt>
      <trkpt lat="46.25776" lon="5.38747">
        <ele>431.6</ele>
        <time>2022-06-25T07:01:40Z</time>
      </trkpt>
      <trkpt lat="46.25768" lon="5.3875">
        <ele>431.2</ele>
        <time>2022-06-25T07:01:41Z</time>
      </trkpt>
      <trkpt lat="46.25758" lon="5.38752">
        <ele>430.6</ele>
        <time>2022-06-25T07:01:42Z</time>
      </trkpt>
      <trkpt lat="46.25746" lon="5.38754">
        <ele>430.2</ele>
        <time>2022-06-25T07:01:43Z</time>
      </trkpt>
      <trkpt lat="46.25737" lon="5.38757">
        <ele>429.4</ele>
        <time>2022-06-25T07:01:44Z</time>
      </trkpt>
      <trkpt lat="46.25727" lon="5.38763">
        <ele>429</ele>
        <time>2022-06-25T07:01:45Z</time>
      </trkpt>
      <trkpt lat="46.25718" lon="5.3877">
        <ele>428.6</ele>
        <time>2022-06-25T07:01:46Z</time>
      </trkpt>
      <trkpt lat="46.25709" lon="5.3878">
        <ele>428.6</ele>
        <time>2022-06-25T07:01:47Z</time>
      </trkpt>
      <trkpt lat="46.25701" lon="5.3879">
        <ele>428.2</ele>
        <time>2022-06-25T07:01:48Z</time>
      </trkpt>
      <trkpt lat="46.25685" lon="5.38812">
        <ele>427.6</ele>
        <time>2022-06-25T07:01:50Z</time>
      </trkpt>
      <trkpt lat="46.25677" lon="5.38824">
        <ele>426.8</ele>
        <time>2022-06-25T07:01:51Z</time>
      </trkpt>
      <trkpt lat="46.25661" lon="5.38847">
        <ele>425.4</ele>
        <time>2022-06-25T07:01:53Z</time>
      </trkpt>
      <trkpt lat="46.25637" lon="5.38883">
        <ele>424.4</ele>
        <time>2022-06-25T07:01:56Z</time>
      </trkpt>
      <trkpt lat="46.25621" lon="5.38907">
        <ele>423.2</ele>
        <time>2022-06-25T07:01:58Z</time>
      </trkpt>
      <trkpt lat="46.25587" lon="5.38951">
        <ele>421.8</ele>
        <time>2022-06-25T07:02:02Z</time>
      </trkpt>
      <trkpt lat="46.25569" lon="5.3897">
        <ele>420.8</ele>
        <time>2022-06-25T07:02:04Z</time>
      </trkpt>
      <trkpt lat="46.2556" lon="5.38979">
        <ele>420</ele>
        <time>2022-06-25T07:02:05Z</time>
      </trkpt>
      <trkpt lat="46.25543" lon="5.38996">
        <ele>419</ele>
        <time>2022-06-25T07:02:07Z</time>
      </trkpt>
      <trkpt lat="46.25528" lon="5.39015">
        <ele>418.2</ele>
        <time>2022-06-25T07:02:09Z</time>
      </trkpt>
      <trkpt lat="46.25517" lon="5.39039">
        <ele>417.6</ele>
        <time>2022-06-25T07:02:11Z</time>
      </trkpt>
      <trkpt lat="46.25515" lon="5.39052">
        <ele>417.2</ele>
        <time>2022-06-25T07:02:12Z</time>
      </trkpt>
      <trkpt lat="46.25514" lon="5.39066">
        <ele>417.2</ele>
        <time>2022-06-25T07:02:13Z</time>
      </trkpt>
      <trkpt lat="46.25516" lon="5.39094">
        <ele>416.4</ele>
        <time>2022-06-25T07:02:15Z</time>
      </trkpt>
      <trkpt lat="46.25517" lon="5.39109">
        <ele>416.2</ele>
        <time>2022-06-25T07:02:16Z</time>
      </trkpt>
      <trkpt lat="46.25513" lon="5.39137">
        <ele>415.8</ele>
        <time>2022-06-25T07:02:18Z</time>
      </trkpt>
      <trkpt lat="46.2551" lon="5.39151">
        <ele>415.2</ele>
        <time>2022-06-25T07:02:19Z</time>
      </trkpt>
      <trkpt lat="46.25503" lon="5.39164">
        <ele>415</ele>
        <time>2022-06-25T07:02:20Z</time>
      </trkpt>
      <trkpt lat="46.25496" lon="5.39173">
        <ele>414.2</ele>
        <time>2022-06-25T07:02:21Z</time>
      </trkpt>
      <trkpt lat="46.25486" lon="5.3918">
        <ele>413.8</ele>
        <time>2022-06-25T07:02:22Z</time>
      </trkpt>
      <trkpt lat="46.25476" lon="5.39183">
        <ele>413</ele>
        <time>2022-06-25T07:02:23Z</time>
      </trkpt>
      <trkpt lat="46.25466" lon="5.39186">
        <ele>412.6</ele>
        <time>2022-06-25T07:02:24Z</time>
      </trkpt>
      <trkpt lat="46.25434" lon="5.39196">
        <ele>411.4</ele>
        <time>2022-06-25T07:02:27Z</time>
      </trkpt>
      <trkpt lat="46.25423" lon="5.39199">
        <ele>410.2</ele>
        <time>2022-06-25T07:02:28Z</time>
      </trkpt>
      <trkpt lat="46.25412" lon="5.39203">
        <ele>409.8</ele>
        <time>2022-06-25T07:02:29Z</time>
      </trkpt>
      <trkpt lat="46.25392" lon="5.39212">
        <ele>409</ele>
        <time>2022-06-25T07:02:31Z</time>
      </trkpt>
      <trkpt lat="46.25361" lon="5.39221">
        <ele>408</ele>
        <time>2022-06-25T07:02:34Z</time>
      </trkpt>
      <trkpt lat="46.2535" lon="5.39223">
        <ele>408</ele>
        <time>2022-06-25T07:02:35Z</time>
      </trkpt>
      <trkpt lat="46.25306" lon="5.39222">
        <ele>406.2</ele>
        <time>2022-06-25T07:02:39Z</time>
      </trkpt>
      <trkpt lat="46.25276" lon="5.39218">
        <ele>405</ele>
        <time>2022-06-25T07:02:42Z</time>
      </trkpt>
      <trkpt lat="46.25243" lon="5.39217">
        <ele>403.4</ele>
        <time>2022-06-25T07:02:45Z</time>
      </trkpt>
      <trkpt lat="46.25208" lon="5.39214">
        <ele>401.8</ele>
        <time>2022-06-25T07:02:48Z</time>
      </trkpt>
      <trkpt lat="46.25196" lon="5.39212">
        <ele>401</ele>
        <time>2022-06-25T07:02:49Z</time>
      </trkpt>
      <trkpt lat="46.25184" lon="5.39209">
        <ele>400.6</ele>
        <time>2022-06-25T07:02:50Z</time>
      </trkpt>
      <trkpt lat="46.25149" lon="5.39194">
        <ele>399.4</ele>
        <time>2022-06-25T07:02:53Z</time>
      </trkpt>
      <trkpt lat="46.25124" lon="5.39185">
        <ele>397.8</ele>
        <time>2022-06-25T07:02:55Z</time>
      </trkpt>
      <trkpt lat="46.25112" lon="5.3918">
        <ele>396.6</ele>
        <time>2022-06-25T07:02:56Z</time>
      </trkpt>
      <trkpt lat="46.25086" lon="5.39173">
        <ele>395.6</ele>
        <time>2022-06-25T07:02:58Z</time>
      </trkpt>
      <trkpt lat="46.25074" lon="5.39171">
        <ele>395.4</ele>
        <time>2022-06-25T07:02:59Z</time>
      </trkpt>
      <trkpt lat="46.25048" lon="5.39165">
        <ele>393.8</ele>
        <time>2022-06-25T07:03:01Z</time>
      </trkpt>
      <trkpt lat="46.25036" lon="5.39162">
        <ele>392</ele>
        <time>2022-06-25T07:03:02Z</time>
      </trkpt>
      <trkpt lat="46.25023" lon="5.39159">
        <ele>390.6</ele>
        <time>2022-06-25T07:03:03Z</time>
      </trkpt>
      <trkpt lat="46.24997" lon="5.39152">
        <ele>389</ele>
        <time>2022-06-25T07:03:05Z</time>
      </trkpt>
      <trkpt lat="46.24985" lon="5.39148">
        <ele>388.4</ele>
        <time>2022-06-25T07:03:06Z</time>
      </trkpt>
      <trkpt lat="46.24972" lon="5.39145">
        <ele>387.2</ele>
        <time>2022-06-25T07:03:07Z</time>
      </trkpt>
      <trkpt lat="46.24948" lon="5.39137">
        <ele>386</ele>
        <time>2022-06-25T07:03:09Z</time>
      </trkpt>
      <trkpt lat="46.24913" lon="5.39124">
        <ele>385.2</ele>
        <time>2022-06-25T07:03:12Z</time>
      </trkpt>
      <trkpt lat="46.24902" lon="5.3912">
        <ele>384.6</ele>
        <time>2022-06-25T07:03:13Z</time>
      </trkpt>
      <trkpt lat="46.2489" lon="5.39116">
        <ele>383.6</ele>
        <time>2022-06-25T07:03:14Z</time>
      </trkpt>
      <trkpt lat="46.24868" lon="5.39108">
        <ele>382.4</ele>
        <time>2022-06-25T07:03:16Z</time>
      </trkpt>
      <trkpt lat="46.24858" lon="5.39105">
        <ele>381.2</ele>
        <time>2022-06-25T07:03:17Z</time>
      </trkpt>
      <trkpt lat="46.24841" lon="5.391">
        <ele>379.6</ele>
        <time>2022-06-25T07:03:19Z</time>
      </trkpt>
      <trkpt lat="46.24835" lon="5.39099">
        <ele>379.2</ele>
        <time>2022-06-25T07:03:20Z</time>
      </trkpt>
      <trkpt lat="46.24828" lon="5.39098">
        <ele>377.6</ele>
        <time>2022-06-25T07:03:23Z</time>
      </trkpt>
      <trkpt lat="46.24828" lon="5.39098">
        <ele>376.4</ele>
        <time>2022-06-25T07:03:25Z</time>
      </trkpt>
      <trkpt lat="46.24825" lon="5.39103">
        <ele>374.8</ele>
        <time>2022-06-25T07:03:31Z</time>
      </trkpt>
      <trkpt lat="46.24831" lon="5.39121">
        <ele>374.6</ele>
        <time>2022-06-25T07:03:34Z</time>
      </trkpt>
      <trkpt lat="46.24846" lon="5.39155">
        <ele>374.4</ele>
        <time>2022-06-25T07:03:38Z</time>
      </trkpt>
      <trkpt lat="46.24868" lon="5.39208">
        <ele>374.6</ele>
        <time>2022-06-25T07:03:43Z</time>
      </trkpt>
      <trkpt lat="46.24894" lon="5.39269">
        <ele>375</ele>
        <time>2022-06-25T07:03:49Z</time>
      </trkpt>
      <trkpt lat="46.24899" lon="5.39279">
        <ele>375</ele>
        <time>2022-06-25T07:03:50Z</time>
      </trkpt>
      <trkpt lat="46.24903" lon="5.39292">
        <ele>375</ele>
        <time>2022-06-25T07:03:51Z</time>
      </trkpt>
      <trkpt lat="46.2492" lon="5.39337">
        <ele>375</ele>
        <time>2022-06-25T07:03:55Z</time>
      </trkpt>
      <trkpt lat="46.24928" lon="5.39392">
        <ele>373.8</ele>
        <time>2022-06-25T07:03:59Z</time>
      </trkpt>
      <trkpt lat="46.24932" lon="5.39422">
        <ele>372.6</ele>
        <time>2022-06-25T07:04:01Z</time>
      </trkpt>
      <trkpt lat="46.24934" lon="5.39452">
        <ele>371.2</ele>
        <time>2022-06-25T07:04:03Z</time>
      </trkpt>
      <trkpt lat="46.24939" lon="5.39497">
        <ele>369.8</ele>
        <time>2022-06-25T07:04:06Z</time>
      </trkpt>
      <trkpt lat="46.24943" lon="5.39544">
        <ele>368.8</ele>
        <time>2022-06-25T07:04:09Z</time>
      </trkpt>
      <trkpt lat="46.24948" lon="5.39595">
        <ele>367.2</ele>
        <time>2022-06-25T07:04:12Z</time>
      </trkpt>
      <trkpt lat="46.24953" lon="5.39644">
        <ele>366</ele>
        <time>2022-06-25T07:04:15Z</time>
      </trkpt>
      <trkpt lat="46.24954" lon="5.39661">
        <ele>365.6</ele>
        <time>2022-06-25T07:04:16Z</time>
      </trkpt>
      <trkpt lat="46.24956" lon="5.39677">
        <ele>364.8</ele>
        <time>2022-06-25T07:04:17Z</time>
      </trkpt>
      <trkpt lat="46.24959" lon="5.39708">
        <ele>363.6</ele>
        <time>2022-06-25T07:04:19Z</time>
      </trkpt>
      <trkpt lat="46.24966" lon="5.39776">
        <ele>362</ele>
        <time>2022-06-25T07:04:23Z</time>
      </trkpt>
      <trkpt lat="46.24969" lon="5.39796">
        <ele>361.2</ele>
        <time>2022-06-25T07:04:24Z</time>
      </trkpt>
      <trkpt lat="46.24971" lon="5.39809">
        <ele>360.8</ele>
        <time>2022-06-25T07:04:25Z</time>
      </trkpt>
      <trkpt lat="46.24976" lon="5.39828">
        <ele>360.2</ele>
        <time>2022-06-25T07:04:26Z</time>
      </trkpt>
      <trkpt lat="46.24987" lon="5.39857">
        <ele>359.2</ele>
        <time>2022-06-25T07:04:28Z</time>
      </trkpt>
      <trkpt lat="46.25015" lon="5.39909">
        <ele>357.6</ele>
        <time>2022-06-25T07:04:32Z</time>
      </trkpt>
      <trkpt lat="46.25023" lon="5.39925">
        <ele>356.6</ele>
        <time>2022-06-25T07:04:33Z</time>
      </trkpt>
      <trkpt lat="46.2503" lon="5.39936">
        <ele>356.4</ele>
        <time>2022-06-25T07:04:34Z</time>
      </trkpt>
      <trkpt lat="46.25046" lon="5.39961">
        <ele>355.2</ele>
        <time>2022-06-25T07:04:36Z</time>
      </trkpt>
      <trkpt lat="46.25055" lon="5.39972">
        <ele>354.8</ele>
        <time>2022-06-25T07:04:37Z</time>
      </trkpt>
      <trkpt lat="46.25085" lon="5.4">
        <ele>353.6</ele>
        <time>2022-06-25T07:04:40Z</time>
      </trkpt>
      <trkpt lat="46.25106" lon="5.40017">
        <ele>352.6</ele>
        <time>2022-06-25T07:04:42Z</time>
      </trkpt>
      <trkpt lat="46.25116" lon="5.40025">
        <ele>352.2</ele>
        <time>2022-06-25T07:04:43Z</time>
      </trkpt>
      <trkpt lat="46.25137" lon="5.40041">
        <ele>351.4</ele>
        <time>2022-06-25T07:04:45Z</time>
      </trkpt>
      <trkpt lat="46.2516" lon="5.40054">
        <ele>350.4</ele>
        <time>2022-06-25T07:04:47Z</time>
      </trkpt>
      <trkpt lat="46.2517" lon="5.40059">
        <ele>350</ele>
        <time>2022-06-25T07:04:48Z</time>
      </trkpt>
      <trkpt lat="46.25181" lon="5.40064">
        <ele>349.2</ele>
        <time>2022-06-25T07:04:49Z</time>
      </trkpt>
      <trkpt lat="46.25215" lon="5.40076">
        <ele>347.8</ele>
        <time>2022-06-25T07:04:52Z</time>
      </trkpt>
      <trkpt lat="46.25237" lon="5.4008">
        <ele>346.4</ele>
        <time>2022-06-25T07:04:54Z</time>
      </trkpt>
      <trkpt lat="46.25259" lon="5.40079">
        <ele>345.4</ele>
        <time>2022-06-25T07:04:56Z</time>
      </trkpt>
      <trkpt lat="46.25283" lon="5.40077">
        <ele>344.4</ele>
        <time>2022-06-25T07:04:58Z</time>
      </trkpt>
      <trkpt lat="46.25293" lon="5.40076">
        <ele>344.2</ele>
        <time>2022-06-25T07:04:59Z</time>
      </trkpt>
      <trkpt lat="46.25317" lon="5.40079">
        <ele>343.2</ele>
        <time>2022-06-25T07:05:01Z</time>
      </trkpt>
      <trkpt lat="46.25328" lon="5.40082">
        <ele>342.4</ele>
        <time>2022-06-25T07:05:02Z</time>
      </trkpt>
      <trkpt lat="46.25339" lon="5.40088">
        <ele>341.4</ele>
        <time>2022-06-25T07:05:03Z</time>
      </trkpt>
      <trkpt lat="46.2535" lon="5.40094">
        <ele>341</ele>
        <time>2022-06-25T07:05:04Z</time>
      </trkpt>
      <trkpt lat="46.25361" lon="5.40101">
        <ele>340.4</ele>
        <time>2022-06-25T07:05:05Z</time>
      </trkpt>
      <trkpt lat="46.25372" lon="5.4011">
        <ele>340</ele>
        <time>2022-06-25T07:05:06Z</time>
      </trkpt>
      <trkpt lat="46.25383" lon="5.40119">
        <ele>339.4</ele>
        <time>2022-06-25T07:05:07Z</time>
      </trkpt>
      <trkpt lat="46.25404" lon="5.40139">
        <ele>338.2</ele>
        <time>2022-06-25T07:05:09Z</time>
      </trkpt>
      <trkpt lat="46.25424" lon="5.40159">
        <ele>337.4</ele>
        <time>2022-06-25T07:05:11Z</time>
      </trkpt>
      <trkpt lat="46.25434" lon="5.40168">
        <ele>336.6</ele>
        <time>2022-06-25T07:05:12Z</time>
      </trkpt>
      <trkpt lat="46.25472" lon="5.40205">
        <ele>335</ele>
        <time>2022-06-25T07:05:16Z</time>
      </trkpt>
      <trkpt lat="46.25491" lon="5.40223">
        <ele>333.6</ele>
        <time>2022-06-25T07:05:18Z</time>
      </trkpt>
      <trkpt lat="46.25509" lon="5.4024">
        <ele>332.6</ele>
        <time>2022-06-25T07:05:20Z</time>
      </trkpt>
      <trkpt lat="46.25518" lon="5.4025">
        <ele>332</ele>
        <time>2022-06-25T07:05:21Z</time>
      </trkpt>
      <trkpt lat="46.25526" lon="5.4026">
        <ele>331.6</ele>
        <time>2022-06-25T07:05:22Z</time>
      </trkpt>
      <trkpt lat="46.25534" lon="5.40272">
        <ele>330.8</ele>
        <time>2022-06-25T07:05:23Z</time>
      </trkpt>
      <trkpt lat="46.2554" lon="5.40285">
        <ele>330.2</ele>
        <time>2022-06-25T07:05:24Z</time>
      </trkpt>
      <trkpt lat="46.25549" lon="5.40312">
        <ele>329.6</ele>
        <time>2022-06-25T07:05:26Z</time>
      </trkpt>
      <trkpt lat="46.25555" lon="5.40342">
        <ele>328.8</ele>
        <time>2022-06-25T07:05:28Z</time>
      </trkpt>
      <trkpt lat="46.25557" lon="5.40372">
        <ele>328</ele>
        <time>2022-06-25T07:05:30Z</time>
      </trkpt>
      <trkpt lat="46.25556" lon="5.40388">
        <ele>327.2</ele>
        <time>2022-06-25T07:05:31Z</time>
      </trkpt>
      <trkpt lat="46.25553" lon="5.40403">
        <ele>326.8</ele>
        <time>2022-06-25T07:05:32Z</time>
      </trkpt>
      <trkpt lat="46.25541" lon="5.40448">
        <ele>325</ele>
        <time>2022-06-25T07:05:35Z</time>
      </trkpt>
      <trkpt lat="46.25529" lon="5.40492">
        <ele>324</ele>
        <time>2022-06-25T07:05:38Z</time>
      </trkpt>
      <trkpt lat="46.25521" lon="5.40524">
        <ele>322.8</ele>
        <time>2022-06-25T07:05:40Z</time>
      </trkpt>
      <trkpt lat="46.25517" lon="5.40534">
        <ele>322.6</ele>
        <time>2022-06-25T07:05:41Z</time>
      </trkpt>
      <trkpt lat="46.25505" lon="5.40573">
        <ele>321.8</ele>
        <time>2022-06-25T07:05:44Z</time>
      </trkpt>
      <trkpt lat="46.25496" lon="5.40613">
        <ele>321.2</ele>
        <time>2022-06-25T07:05:47Z</time>
      </trkpt>
      <trkpt lat="46.25476" lon="5.40687">
        <ele>320.6</ele>
        <time>2022-06-25T07:05:53Z</time>
      </trkpt>
      <trkpt lat="46.25473" lon="5.40699">
        <ele>320.6</ele>
        <time>2022-06-25T07:05:54Z</time>
      </trkpt>
      <trkpt lat="46.25451" lon="5.40778">
        <ele>320.4</ele>
        <time>2022-06-25T07:06:01Z</time>
      </trkpt>
      <trkpt lat="46.25445" lon="5.40801">
        <ele>320.4</ele>
        <time>2022-06-25T07:06:03Z</time>
      </trkpt>
      <trkpt lat="46.25424" lon="5.40879">
        <ele>320.4</ele>
        <time>2022-06-25T07:06:10Z</time>
      </trkpt>
      <trkpt lat="46.25403" lon="5.40958">
        <ele>320.2</ele>
        <time>2022-06-25T07:06:17Z</time>
      </trkpt>
      <trkpt lat="46.2539" lon="5.41004">
        <ele>319.6</ele>
        <time>2022-06-25T07:06:21Z</time>
      </trkpt>
      <trkpt lat="46.25387" lon="5.41016">
        <ele>319.6</ele>
        <time>2022-06-25T07:06:22Z</time>
      </trkpt>
      <trkpt lat="46.25365" lon="5.41098">
        <ele>318.8</ele>
        <time>2022-06-25T07:06:29Z</time>
      </trkpt>
      <trkpt lat="46.25362" lon="5.4111">
        <ele>318.6</ele>
        <time>2022-06-25T07:06:30Z</time>
      </trkpt>
      <trkpt lat="46.25346" lon="5.41169">
        <ele>317.2</ele>
        <time>2022-06-25T07:06:35Z</time>
      </trkpt>
      <trkpt lat="46.25329" lon="5.41226">
        <ele>317</ele>
        <time>2022-06-25T07:06:40Z</time>
      </trkpt>
      <trkpt lat="46.25307" lon="5.41302">
        <ele>317.2</ele>
        <time>2022-06-25T07:06:47Z</time>
      </trkpt>
      <trkpt lat="46.25303" lon="5.41312">
        <ele>317.2</ele>
        <time>2022-06-25T07:06:48Z</time>
      </trkpt>
      <trkpt lat="46.25291" lon="5.41337">
        <ele>317.2</ele>
        <time>2022-06-25T07:06:51Z</time>
      </trkpt>
      <trkpt lat="46.25282" lon="5.41351">
        <ele>317.4</ele>
        <time>2022-06-25T07:06:53Z</time>
      </trkpt>
      <trkpt lat="46.25274" lon="5.41363">
        <ele>317.8</ele>
        <time>2022-06-25T07:06:55Z</time>
      </trkpt>
      <trkpt lat="46.25262" lon="5.41379">
        <ele>319</ele>
        <time>2022-06-25T07:06:58Z</time>
      </trkpt>
      <trkpt lat="46.25245" lon="5.414">
        <ele>320</ele>
        <time>2022-06-25T07:07:02Z</time>
      </trkpt>
      <trkpt lat="46.25233" lon="5.41417">
        <ele>320.6</ele>
        <time>2022-06-25T07:07:05Z</time>
      </trkpt>
      <trkpt lat="46.25223" lon="5.41432">
        <ele>321.4</ele>
        <time>2022-06-25T07:07:08Z</time>
      </trkpt>
      <trkpt lat="46.25208" lon="5.41452">
        <ele>322.2</ele>
        <time>2022-06-25T07:07:12Z</time>
      </trkpt>
      <trkpt lat="46.25205" lon="5.41457">
        <ele>322.6</ele>
        <time>2022-06-25T07:07:13Z</time>
      </trkpt>
      <trkpt lat="46.25197" lon="5.41465">
        <ele>323.2</ele>
        <time>2022-06-25T07:07:15Z</time>
      </trkpt>
      <trkpt lat="46.25183" lon="5.41477">
        <ele>323.6</ele>
        <time>2022-06-25T07:07:18Z</time>
      </trkpt>
      <trkpt lat="46.25179" lon="5.4148">
        <ele>324</ele>
        <time>2022-06-25T07:07:19Z</time>
      </trkpt>
      <trkpt lat="46.25161" lon="5.41489">
        <ele>325.2</ele>
        <time>2022-06-25T07:07:23Z</time>
      </trkpt>
      <trkpt lat="46.25138" lon="5.41501">
        <ele>326.6</ele>
        <time>2022-06-25T07:07:28Z</time>
      </trkpt>
      <trkpt lat="46.25133" lon="5.41503">
        <ele>326.8</ele>
        <time>2022-06-25T07:07:29Z</time>
      </trkpt>
      <trkpt lat="46.25123" lon="5.41506">
        <ele>327.8</ele>
        <time>2022-06-25T07:07:31Z</time>
      </trkpt>
      <trkpt lat="46.25094" lon="5.41519">
        <ele>329</ele>
        <time>2022-06-25T07:07:37Z</time>
      </trkpt>
      <trkpt lat="46.25089" lon="5.41521">
        <ele>329.4</ele>
        <time>2022-06-25T07:07:38Z</time>
      </trkpt>
      <trkpt lat="46.2507" lon="5.41529">
        <ele>330</ele>
        <time>2022-06-25T07:07:42Z</time>
      </trkpt>
      <trkpt lat="46.25047" lon="5.41543">
        <ele>331.2</ele>
        <time>2022-06-25T07:07:47Z</time>
      </trkpt>
      <trkpt lat="46.2503" lon="5.41558">
        <ele>331.6</ele>
        <time>2022-06-25T07:07:51Z</time>
      </trkpt>
      <trkpt lat="46.25018" lon="5.41571">
        <ele>332.2</ele>
        <time>2022-06-25T07:07:54Z</time>
      </trkpt>
      <trkpt lat="46.25003" lon="5.41587">
        <ele>333.4</ele>
        <time>2022-06-25T07:07:58Z</time>
      </trkpt>
      <trkpt lat="46.24995" lon="5.41596">
        <ele>333.6</ele>
        <time>2022-06-25T07:08:00Z</time>
      </trkpt>
      <trkpt lat="46.24985" lon="5.41609">
        <ele>334.4</ele>
        <time>2022-06-25T07:08:03Z</time>
      </trkpt>
      <trkpt lat="46.24975" lon="5.41622">
        <ele>334.8</ele>
        <time>2022-06-25T07:08:06Z</time>
      </trkpt>
      <trkpt lat="46.24963" lon="5.41644">
        <ele>335.2</ele>
        <time>2022-06-25T07:08:10Z</time>
      </trkpt>
      <trkpt lat="46.2496" lon="5.4165">
        <ele>335.4</ele>
        <time>2022-06-25T07:08:11Z</time>
      </trkpt>
      <trkpt lat="46.24951" lon="5.41676">
        <ele>336.4</ele>
        <time>2022-06-25T07:08:15Z</time>
      </trkpt>
      <trkpt lat="46.24946" lon="5.41696">
        <ele>336.6</ele>
        <time>2022-06-25T07:08:18Z</time>
      </trkpt>
      <trkpt lat="46.24942" lon="5.41725">
        <ele>337.4</ele>
        <time>2022-06-25T07:08:22Z</time>
      </trkpt>
      <trkpt lat="46.2494" lon="5.41758">
        <ele>337.8</ele>
        <time>2022-06-25T07:08:26Z</time>
      </trkpt>
      <trkpt lat="46.24937" lon="5.41821">
        <ele>338.2</ele>
        <time>2022-06-25T07:08:33Z</time>
      </trkpt>
      <trkpt lat="46.24933" lon="5.419">
        <ele>338</ele>
        <time>2022-06-25T07:08:41Z</time>
      </trkpt>
      <trkpt lat="46.24928" lon="5.41956">
        <ele>337.2</ele>
        <time>2022-06-25T07:08:46Z</time>
      </trkpt>
      <trkpt lat="46.24923" lon="5.41979">
        <ele>336.8</ele>
        <time>2022-06-25T07:08:48Z</time>
      </trkpt>
      <trkpt lat="46.24919" lon="5.4199">
        <ele>336.4</ele>
        <time>2022-06-25T07:08:49Z</time>
      </trkpt>
      <trkpt lat="46.24913" lon="5.42001">
        <ele>336.2</ele>
        <time>2022-06-25T07:08:50Z</time>
      </trkpt>
      <trkpt lat="46.24901" lon="5.4202">
        <ele>335.2</ele>
        <time>2022-06-25T07:08:52Z</time>
      </trkpt>
      <trkpt lat="46.24886" lon="5.42036">
        <ele>334</ele>
        <time>2022-06-25T07:08:54Z</time>
      </trkpt>
      <trkpt lat="46.24853" lon="5.42063">
        <ele>332.8</ele>
        <time>2022-06-25T07:08:58Z</time>
      </trkpt>
      <trkpt lat="46.24844" lon="5.4207">
        <ele>332.2</ele>
        <time>2022-06-25T07:08:59Z</time>
      </trkpt>
      <trkpt lat="46.24835" lon="5.42076">
        <ele>331.8</ele>
        <time>2022-06-25T07:09:00Z</time>
      </trkpt>
      <trkpt lat="46.24808" lon="5.42096">
        <ele>330.4</ele>
        <time>2022-06-25T07:09:03Z</time>
      </trkpt>
      <trkpt lat="46.2479" lon="5.42109">
        <ele>329.4</ele>
        <time>2022-06-25T07:09:05Z</time>
      </trkpt>
      <trkpt lat="46.24772" lon="5.42122">
        <ele>328.4</ele>
        <time>2022-06-25T07:09:07Z</time>
      </trkpt>
      <trkpt lat="46.24763" lon="5.42129">
        <ele>327.4</ele>
        <time>2022-06-25T07:09:08Z</time>
      </trkpt>
      <trkpt lat="46.24745" lon="5.42143">
        <ele>326.4</ele>
        <time>2022-06-25T07:09:10Z</time>
      </trkpt>
      <trkpt lat="46.24726" lon="5.42157">
        <ele>324.8</ele>
        <time>2022-06-25T07:09:12Z</time>
      </trkpt>
      <trkpt lat="46.24707" lon="5.4217">
        <ele>324.2</ele>
        <time>2022-06-25T07:09:14Z</time>
      </trkpt>
      <trkpt lat="46.2468" lon="5.42192">
        <ele>323.4</ele>
        <time>2022-06-25T07:09:17Z</time>
      </trkpt>
      <trkpt lat="46.24672" lon="5.42202">
        <ele>322.8</ele>
        <time>2022-06-25T07:09:18Z</time>
      </trkpt>
      <trkpt lat="46.24665" lon="5.42213">
        <ele>322.2</ele>
        <time>2022-06-25T07:09:19Z</time>
      </trkpt>
      <trkpt lat="46.24653" lon="5.42237">
        <ele>321</ele>
        <time>2022-06-25T07:09:21Z</time>
      </trkpt>
      <trkpt lat="46.24648" lon="5.4225">
        <ele>320.4</ele>
        <time>2022-06-25T07:09:22Z</time>
      </trkpt>
      <trkpt lat="46.24642" lon="5.42278">
        <ele>319.6</ele>
        <time>2022-06-25T07:09:24Z</time>
      </trkpt>
      <trkpt lat="46.2464" lon="5.42292">
        <ele>319.2</ele>
        <time>2022-06-25T07:09:25Z</time>
      </trkpt>
      <trkpt lat="46.2464" lon="5.42318">
        <ele>318.4</ele>
        <time>2022-06-25T07:09:27Z</time>
      </trkpt>
      <trkpt lat="46.24642" lon="5.42331">
        <ele>317.8</ele>
        <time>2022-06-25T07:09:28Z</time>
      </trkpt>
      <trkpt lat="46.24645" lon="5.42337">
        <ele>317.2</ele>
        <time>2022-06-25T07:09:29Z</time>
      </trkpt>
      <trkpt lat="46.2465" lon="5.42342">
        <ele>316.8</ele>
        <time>2022-06-25T07:09:30Z</time>
      </trkpt>
      <trkpt lat="46.24658" lon="5.42346">
        <ele>316</ele>
        <time>2022-06-25T07:09:31Z</time>
      </trkpt>
      <trkpt lat="46.24673" lon="5.42347">
        <ele>315.4</ele>
        <time>2022-06-25T07:09:33Z</time>
      </trkpt>
      <trkpt lat="46.24689" lon="5.42349">
        <ele>315</ele>
        <time>2022-06-25T07:09:35Z</time>
      </trkpt>
      <trkpt lat="46.24712" lon="5.42351">
        <ele>314.6</ele>
        <time>2022-06-25T07:09:38Z</time>
      </trkpt>
      <trkpt lat="46.24773" lon="5.42357">
        <ele>314.8</ele>
        <time>2022-06-25T07:09:46Z</time>
      </trkpt>
      <trkpt lat="46.24834" lon="5.42364">
        <ele>315</ele>
        <time>2022-06-25T07:09:54Z</time>
      </trkpt>
      <trkpt lat="46.24863" lon="5.42367">
        <ele>315</ele>
        <time>2022-06-25T07:09:58Z</time>
      </trkpt>
      <trkpt lat="46.24914" lon="5.42374">
        <ele>315.2</ele>
        <time>2022-06-25T07:10:05Z</time>
      </trkpt>
      <trkpt lat="46.24971" lon="5.42381">
        <ele>315.4</ele>
        <time>2022-06-25T07:10:13Z</time>
      </trkpt>
      <trkpt lat="46.24978" lon="5.42382">
        <ele>315.2</ele>
        <time>2022-06-25T07:10:14Z</time>
      </trkpt>
      <trkpt lat="46.25035" lon="5.42388">
        <ele>314.8</ele>
        <time>2022-06-25T07:10:22Z</time>
      </trkpt>
      <trkpt lat="46.25042" lon="5.42389">
        <ele>314.8</ele>
        <time>2022-06-25T07:10:23Z</time>
      </trkpt>
      <trkpt lat="46.25099" lon="5.42395">
        <ele>314.8</ele>
        <time>2022-06-25T07:10:31Z</time>
      </trkpt>
      <trkpt lat="46.25155" lon="5.42403">
        <ele>314.8</ele>
        <time>2022-06-25T07:10:39Z</time>
      </trkpt>
      <trkpt lat="46.25168" lon="5.42404">
        <ele>314.8</ele>
        <time>2022-06-25T07:10:41Z</time>
      </trkpt>
      <trkpt lat="46.25221" lon="5.42411">
        <ele>315</ele>
        <time>2022-06-25T07:10:49Z</time>
      </trkpt>
      <trkpt lat="46.25275" lon="5.42421">
        <ele>315</ele>
        <time>2022-06-25T07:10:57Z</time>
      </trkpt>
      <trkpt lat="46.25289" lon="5.42423">
        <ele>315</ele>
        <time>2022-06-25T07:10:59Z</time>
      </trkpt>
      <trkpt lat="46.25345" lon="5.42432">
        <ele>314.6</ele>
        <time>2022-06-25T07:11:07Z</time>
      </trkpt>
      <trkpt lat="46.2535" lon="5.42432">
        <ele>314.6</ele>
        <time>2022-06-25T07:11:08Z</time>
      </trkpt>
      <trkpt lat="46.25404" lon="5.42441">
        <ele>314.6</ele>
        <time>2022-06-25T07:11:16Z</time>
      </trkpt>
      <trkpt lat="46.25411" lon="5.42442">
        <ele>314.6</ele>
        <time>2022-06-25T07:11:17Z</time>
      </trkpt>
      <trkpt lat="46.25465" lon="5.42452">
        <ele>314.4</ele>
        <time>2022-06-25T07:11:25Z</time>
      </trkpt>
      <trkpt lat="46.25526" lon="5.42461">
        <ele>314.6</ele>
        <time>2022-06-25T07:11:34Z</time>
      </trkpt>
      <trkpt lat="46.25586" lon="5.42471">
        <ele>314.8</ele>
        <time>2022-06-25T07:11:43Z</time>
      </trkpt>
      <trkpt lat="46.25592" lon="5.42472">
        <ele>314.8</ele>
        <time>2022-06-25T07:11:44Z</time>
      </trkpt>
      <trkpt lat="46.25606" lon="5.42474">
        <ele>314.8</ele>
        <time>2022-06-25T07:11:46Z</time>
      </trkpt>
      <trkpt lat="46.25647" lon="5.4248">
        <ele>314.8</ele>
        <time>2022-06-25T07:11:52Z</time>
      </trkpt>
      <trkpt lat="46.25707" lon="5.42489">
        <ele>315</ele>
        <time>2022-06-25T07:12:01Z</time>
      </trkpt>
      <trkpt lat="46.25765" lon="5.42499">
        <ele>315.2</ele>
        <time>2022-06-25T07:12:10Z</time>
      </trkpt>
      <trkpt lat="46.25773" lon="5.425">
        <ele>315.2</ele>
        <time>2022-06-25T07:12:11Z</time>
      </trkpt>
      <trkpt lat="46.2583" lon="5.42509">
        <ele>315.8</ele>
        <time>2022-06-25T07:12:20Z</time>
      </trkpt>
      <trkpt lat="46.25848" lon="5.42512">
        <ele>315.8</ele>
        <time>2022-06-25T07:12:23Z</time>
      </trkpt>
      <trkpt lat="46.25904" lon="5.42521">
        <ele>316</ele>
        <time>2022-06-25T07:12:32Z</time>
      </trkpt>
      <trkpt lat="46.2591" lon="5.42522">
        <ele>316</ele>
        <time>2022-06-25T07:12:33Z</time>
      </trkpt>
      <trkpt lat="46.25971" lon="5.42532">
        <ele>316.2</ele>
        <time>2022-06-25T07:12:42Z</time>
      </trkpt>
      <trkpt lat="46.26026" lon="5.4254">
        <ele>316.2</ele>
        <time>2022-06-25T07:12:50Z</time>
      </trkpt>
      <trkpt lat="46.26047" lon="5.42544">
        <ele>316.4</ele>
        <time>2022-06-25T07:12:53Z</time>
      </trkpt>
      <trkpt lat="46.26102" lon="5.42553">
        <ele>316.4</ele>
        <time>2022-06-25T07:13:01Z</time>
      </trkpt>
      <trkpt lat="46.26122" lon="5.42556">
        <ele>316.6</ele>
        <time>2022-06-25T07:13:04Z</time>
      </trkpt>
      <trkpt lat="46.26168" lon="5.42562">
        <ele>316.8</ele>
        <time>2022-06-25T07:13:11Z</time>
      </trkpt>
      <trkpt lat="46.26187" lon="5.42564">
        <ele>316.8</ele>
        <time>2022-06-25T07:13:14Z</time>
      </trkpt>
      <trkpt lat="46.26239" lon="5.4257">
        <ele>316.6</ele>
        <time>2022-06-25T07:13:22Z</time>
      </trkpt>
      <trkpt lat="46.26294" lon="5.42578">
        <ele>316.8</ele>
        <time>2022-06-25T07:13:30Z</time>
      </trkpt>
      <trkpt lat="46.26299" lon="5.42579">
        <ele>316.8</ele>
        <time>2022-06-25T07:13:31Z</time>
      </trkpt>
      <trkpt lat="46.26343" lon="5.42585">
        <ele>317</ele>
        <time>2022-06-25T07:13:38Z</time>
      </trkpt>
      <trkpt lat="46.26369" lon="5.42589">
        <ele>317.2</ele>
        <time>2022-06-25T07:13:42Z</time>
      </trkpt>
      <trkpt lat="46.26376" lon="5.4259">
        <ele>317.4</ele>
        <time>2022-06-25T07:13:43Z</time>
      </trkpt>
      <trkpt lat="46.26406" lon="5.42593">
        <ele>317.6</ele>
        <time>2022-06-25T07:13:48Z</time>
      </trkpt>
      <trkpt lat="46.26412" lon="5.42595">
        <ele>317.6</ele>
        <time>2022-06-25T07:13:49Z</time>
      </trkpt>
      <trkpt lat="46.26453" lon="5.42603">
        <ele>317.8</ele>
        <time>2022-06-25T07:13:55Z</time>
      </trkpt>
      <trkpt lat="46.26497" lon="5.42616">
        <ele>318.2</ele>
        <time>2022-06-25T07:14:02Z</time>
      </trkpt>
      <trkpt lat="46.26514" lon="5.42621">
        <ele>318.2</ele>
        <time>2022-06-25T07:14:05Z</time>
      </trkpt>
      <trkpt lat="46.26532" lon="5.42624">
        <ele>318.4</ele>
        <time>2022-06-25T07:14:08Z</time>
      </trkpt>
      <trkpt lat="46.26546" lon="5.42626">
        <ele>318.6</ele>
        <time>2022-06-25T07:14:10Z</time>
      </trkpt>
      <trkpt lat="46.26587" lon="5.42632">
        <ele>318.8</ele>
        <time>2022-06-25T07:14:16Z</time>
      </trkpt>
      <trkpt lat="46.26635" lon="5.42644">
        <ele>319</ele>
        <time>2022-06-25T07:14:23Z</time>
      </trkpt>
      <trkpt lat="46.2668" lon="5.42655">
        <ele>319</ele>
        <time>2022-06-25T07:14:30Z</time>
      </trkpt>
      <trkpt lat="46.26702" lon="5.42661">
        <ele>319.4</ele>
        <time>2022-06-25T07:14:34Z</time>
      </trkpt>
      <trkpt lat="46.26736" lon="5.4267">
        <ele>319.6</ele>
        <time>2022-06-25T07:14:39Z</time>
      </trkpt>
      <trkpt lat="46.26783" lon="5.42682">
        <ele>319.6</ele>
        <time>2022-06-25T07:14:46Z</time>
      </trkpt>
      <trkpt lat="46.26825" lon="5.42695">
        <ele>319.4</ele>
        <time>2022-06-25T07:14:53Z</time>
      </trkpt>
      <trkpt lat="46.26839" lon="5.427">
        <ele>319.4</ele>
        <time>2022-06-25T07:14:55Z</time>
      </trkpt>
      <trkpt lat="46.26862" lon="5.42706">
        <ele>319.6</ele>
        <time>2022-06-25T07:14:59Z</time>
      </trkpt>
      <trkpt lat="46.269" lon="5.42723">
        <ele>320</ele>
        <time>2022-06-25T07:15:06Z</time>
      </trkpt>
      <trkpt lat="46.26924" lon="5.42733">
        <ele>320.6</ele>
        <time>2022-06-25T07:15:10Z</time>
      </trkpt>
      <trkpt lat="46.26941" lon="5.42739">
        <ele>321.2</ele>
        <time>2022-06-25T07:15:13Z</time>
      </trkpt>
      <trkpt lat="46.2699" lon="5.42753">
        <ele>321.4</ele>
        <time>2022-06-25T07:15:21Z</time>
      </trkpt>
      <trkpt lat="46.27038" lon="5.42764">
        <ele>321.6</ele>
        <time>2022-06-25T07:15:29Z</time>
      </trkpt>
      <trkpt lat="46.27056" lon="5.42767">
        <ele>321.6</ele>
        <time>2022-06-25T07:15:32Z</time>
      </trkpt>
      <trkpt lat="46.27089" lon="5.4277">
        <ele>322.6</ele>
        <time>2022-06-25T07:15:38Z</time>
      </trkpt>
      <trkpt lat="46.27094" lon="5.4277">
        <ele>322.8</ele>
        <time>2022-06-25T07:15:39Z</time>
      </trkpt>
      <trkpt lat="46.27121" lon="5.42772">
        <ele>323.8</ele>
        <time>2022-06-25T07:15:44Z</time>
      </trkpt>
      <trkpt lat="46.27139" lon="5.42775">
        <ele>324.4</ele>
        <time>2022-06-25T07:15:47Z</time>
      </trkpt>
      <trkpt lat="46.27154" lon="5.4278">
        <ele>325</ele>
        <time>2022-06-25T07:15:50Z</time>
      </trkpt>
      <trkpt lat="46.27181" lon="5.42793">
        <ele>325.4</ele>
        <time>2022-06-25T07:15:55Z</time>
      </trkpt>
      <trkpt lat="46.27229" lon="5.42821">
        <ele>325.6</ele>
        <time>2022-06-25T07:16:03Z</time>
      </trkpt>
      <trkpt lat="46.27281" lon="5.42856">
        <ele>325.4</ele>
        <time>2022-06-25T07:16:11Z</time>
      </trkpt>
      <trkpt lat="46.27318" lon="5.42879">
        <ele>324.4</ele>
        <time>2022-06-25T07:16:16Z</time>
      </trkpt>
      <trkpt lat="46.27334" lon="5.42886">
        <ele>323.8</ele>
        <time>2022-06-25T07:16:18Z</time>
      </trkpt>
      <trkpt lat="46.27368" lon="5.42899">
        <ele>322.8</ele>
        <time>2022-06-25T07:16:22Z</time>
      </trkpt>
      <trkpt lat="46.27421" lon="5.42917">
        <ele>322.2</ele>
        <time>2022-06-25T07:16:29Z</time>
      </trkpt>
      <trkpt lat="46.27481" lon="5.42936">
        <ele>322.2</ele>
        <time>2022-06-25T07:16:37Z</time>
      </trkpt>
      <trkpt lat="46.2753" lon="5.42952">
        <ele>322</ele>
        <time>2022-06-25T07:16:44Z</time>
      </trkpt>
      <trkpt lat="46.27587" lon="5.42971">
        <ele>322</ele>
        <time>2022-06-25T07:16:52Z</time>
      </trkpt>
      <trkpt lat="46.27593" lon="5.42972">
        <ele>322.2</ele>
        <time>2022-06-25T07:16:53Z</time>
      </trkpt>
      <trkpt lat="46.27649" lon="5.42991">
        <ele>322.2</ele>
        <time>2022-06-25T07:17:01Z</time>
      </trkpt>
      <trkpt lat="46.27671" lon="5.42998">
        <ele>322.2</ele>
        <time>2022-06-25T07:17:04Z</time>
      </trkpt>
      <trkpt lat="46.27726" lon="5.43018">
        <ele>322.4</ele>
        <time>2022-06-25T07:17:12Z</time>
      </trkpt>
      <trkpt lat="46.27754" lon="5.4303">
        <ele>322.2</ele>
        <time>2022-06-25T07:17:16Z</time>
      </trkpt>
      <trkpt lat="46.27807" lon="5.43049">
        <ele>321.8</ele>
        <time>2022-06-25T07:17:23Z</time>
      </trkpt>
      <trkpt lat="46.27815" lon="5.43049">
        <ele>321.8</ele>
        <time>2022-06-25T07:17:24Z</time>
      </trkpt>
      <trkpt lat="46.27823" lon="5.4305">
        <ele>321.6</ele>
        <time>2022-06-25T07:17:25Z</time>
      </trkpt>
      <trkpt lat="46.27864" lon="5.43048">
        <ele>321.4</ele>
        <time>2022-06-25T07:17:30Z</time>
      </trkpt>
      <trkpt lat="46.27914" lon="5.43054">
        <ele>321.2</ele>
        <time>2022-06-25T07:17:37Z</time>
      </trkpt>
      <trkpt lat="46.27971" lon="5.43066">
        <ele>321.2</ele>
        <time>2022-06-25T07:17:45Z</time>
      </trkpt>
      <trkpt lat="46.27979" lon="5.43068">
        <ele>321</ele>
        <time>2022-06-25T07:17:46Z</time>
      </trkpt>
      <trkpt lat="46.2804" lon="5.43081">
        <ele>321</ele>
        <time>2022-06-25T07:17:55Z</time>
      </trkpt>
      <trkpt lat="46.28094" lon="5.43092">
        <ele>321</ele>
        <time>2022-06-25T07:18:03Z</time>
      </trkpt>
      <trkpt lat="46.28131" lon="5.431">
        <ele>321.2</ele>
        <time>2022-06-25T07:18:08Z</time>
      </trkpt>
      <trkpt lat="46.28181" lon="5.43108">
        <ele>321.4</ele>
        <time>2022-06-25T07:18:15Z</time>
      </trkpt>
      <trkpt lat="46.28216" lon="5.43114">
        <ele>321.4</ele>
        <time>2022-06-25T07:18:20Z</time>
      </trkpt>
      <trkpt lat="46.28223" lon="5.43116">
        <ele>321.4</ele>
        <time>2022-06-25T07:18:21Z</time>
      </trkpt>
      <trkpt lat="46.28276" lon="5.43127">
        <ele>321.4</ele>
        <time>2022-06-25T07:18:28Z</time>
      </trkpt>
      <trkpt lat="46.28334" lon="5.43131">
        <ele>321.4</ele>
        <time>2022-06-25T07:18:36Z</time>
      </trkpt>
      <trkpt lat="46.28384" lon="5.43125">
        <ele>321.6</ele>
        <time>2022-06-25T07:18:43Z</time>
      </trkpt>
      <trkpt lat="46.28442" lon="5.43117">
        <ele>321.8</ele>
        <time>2022-06-25T07:18:51Z</time>
      </trkpt>
      <trkpt lat="46.28449" lon="5.43116">
        <ele>321.8</ele>
        <time>2022-06-25T07:18:52Z</time>
      </trkpt>
      <trkpt lat="46.28506" lon="5.4311">
        <ele>322</ele>
        <time>2022-06-25T07:19:00Z</time>
      </trkpt>
      <trkpt lat="46.28514" lon="5.4311">
        <ele>322</ele>
        <time>2022-06-25T07:19:01Z</time>
      </trkpt>
      <trkpt lat="46.28573" lon="5.43108">
        <ele>322.2</ele>
        <time>2022-06-25T07:19:09Z</time>
      </trkpt>
      <trkpt lat="46.28595" lon="5.43108">
        <ele>322.4</ele>
        <time>2022-06-25T07:19:12Z</time>
      </trkpt>
      <trkpt lat="46.28631" lon="5.43111">
        <ele>322.4</ele>
        <time>2022-06-25T07:19:17Z</time>
      </trkpt>
      <trkpt lat="46.28689" lon="5.43117">
        <ele>322.8</ele>
        <time>2022-06-25T07:19:25Z</time>
      </trkpt>
      <trkpt lat="46.28696" lon="5.43117">
        <ele>322.8</ele>
        <time>2022-06-25T07:19:26Z</time>
      </trkpt>
      <trkpt lat="46.28753" lon="5.43125">
        <ele>322.8</ele>
        <time>2022-06-25T07:19:34Z</time>
      </trkpt>
      <trkpt lat="46.28766" lon="5.43128">
        <ele>322.8</ele>
        <time>2022-06-25T07:19:36Z</time>
      </trkpt>
      <trkpt lat="46.28804" lon="5.4314">
        <ele>323</ele>
        <time>2022-06-25T07:19:41Z</time>
      </trkpt>
      <trkpt lat="46.28818" lon="5.43145">
        <ele>323</ele>
        <time>2022-06-25T07:19:43Z</time>
      </trkpt>
      <trkpt lat="46.28875" lon="5.43168">
        <ele>323</ele>
        <time>2022-06-25T07:19:51Z</time>
      </trkpt>
      <trkpt lat="46.28889" lon="5.43174">
        <ele>323</ele>
        <time>2022-06-25T07:19:53Z</time>
      </trkpt>
      <trkpt lat="46.28946" lon="5.43198">
        <ele>323.4</ele>
        <time>2022-06-25T07:20:01Z</time>
      </trkpt>
      <trkpt lat="46.28966" lon="5.43207">
        <ele>323.4</ele>
        <time>2022-06-25T07:20:04Z</time>
      </trkpt>
      <trkpt lat="46.29014" lon="5.43241">
        <ele>323.2</ele>
        <time>2022-06-25T07:20:11Z</time>
      </trkpt>
      <trkpt lat="46.29064" lon="5.43288">
        <ele>323.2</ele>
        <time>2022-06-25T07:20:19Z</time>
      </trkpt>
      <trkpt lat="46.29076" lon="5.433">
        <ele>323.2</ele>
        <time>2022-06-25T07:20:21Z</time>
      </trkpt>
      <trkpt lat="46.29124" lon="5.43341">
        <ele>323.4</ele>
        <time>2022-06-25T07:20:29Z</time>
      </trkpt>
      <trkpt lat="46.2913" lon="5.43346">
        <ele>323.6</ele>
        <time>2022-06-25T07:20:30Z</time>
      </trkpt>
      <trkpt lat="46.29179" lon="5.43383">
        <ele>324</ele>
        <time>2022-06-25T07:20:38Z</time>
      </trkpt>
      <trkpt lat="46.29192" lon="5.43391">
        <ele>324</ele>
        <time>2022-06-25T07:20:40Z</time>
      </trkpt>
      <trkpt lat="46.2924" lon="5.43412">
        <ele>324.2</ele>
        <time>2022-06-25T07:20:47Z</time>
      </trkpt>
      <trkpt lat="46.29282" lon="5.43428">
        <ele>324.4</ele>
        <time>2022-06-25T07:20:53Z</time>
      </trkpt>
      <trkpt lat="46.29337" lon="5.43454">
        <ele>324.6</ele>
        <time>2022-06-25T07:21:01Z</time>
      </trkpt>
      <trkpt lat="46.29344" lon="5.43458">
        <ele>324.6</ele>
        <time>2022-06-25T07:21:02Z</time>
      </trkpt>
      <trkpt lat="46.2939" lon="5.43487">
        <ele>324.8</ele>
        <time>2022-06-25T07:21:09Z</time>
      </trkpt>
      <trkpt lat="46.29427" lon="5.43512">
        <ele>325</ele>
        <time>2022-06-25T07:21:15Z</time>
      </trkpt>
      <trkpt lat="46.29445" lon="5.43523">
        <ele>325.2</ele>
        <time>2022-06-25T07:21:18Z</time>
      </trkpt>
      <trkpt lat="46.29483" lon="5.43544">
        <ele>326</ele>
        <time>2022-06-25T07:21:24Z</time>
      </trkpt>
      <trkpt lat="46.29496" lon="5.4355">
        <ele>326.4</ele>
        <time>2022-06-25T07:21:26Z</time>
      </trkpt>
      <trkpt lat="46.29547" lon="5.43577">
        <ele>326.8</ele>
        <time>2022-06-25T07:21:34Z</time>
      </trkpt>
      <trkpt lat="46.29571" lon="5.4359">
        <ele>327</ele>
        <time>2022-06-25T07:21:38Z</time>
      </trkpt>
      <trkpt lat="46.29615" lon="5.43614">
        <ele>327.2</ele>
        <time>2022-06-25T07:21:45Z</time>
      </trkpt>
      <trkpt lat="46.29669" lon="5.43641">
        <ele>327.6</ele>
        <time>2022-06-25T07:21:54Z</time>
      </trkpt>
      <trkpt lat="46.29725" lon="5.43672">
        <ele>327.8</ele>
        <time>2022-06-25T07:22:03Z</time>
      </trkpt>
      <trkpt lat="46.29737" lon="5.43678">
        <ele>327.8</ele>
        <time>2022-06-25T07:22:05Z</time>
      </trkpt>
      <trkpt lat="46.29794" lon="5.43707">
        <ele>328</ele>
        <time>2022-06-25T07:22:14Z</time>
      </trkpt>
      <trkpt lat="46.29819" lon="5.43718">
        <ele>328</ele>
        <time>2022-06-25T07:22:18Z</time>
      </trkpt>
      <trkpt lat="46.29825" lon="5.43721">
        <ele>328</ele>
        <time>2022-06-25T07:22:19Z</time>
      </trkpt>
      <trkpt lat="46.29877" lon="5.43744">
        <ele>328.2</ele>
        <time>2022-06-25T07:22:27Z</time>
      </trkpt>
      <trkpt lat="46.29935" lon="5.43769">
        <ele>328.6</ele>
        <time>2022-06-25T07:22:36Z</time>
      </trkpt>
      <trkpt lat="46.29942" lon="5.43771">
        <ele>328.6</ele>
        <time>2022-06-25T07:22:37Z</time>
      </trkpt>
      <trkpt lat="46.29994" lon="5.43794">
        <ele>328.8</ele>
        <time>2022-06-25T07:22:45Z</time>
      </trkpt>
      <trkpt lat="46.30008" lon="5.438">
        <ele>328.8</ele>
        <time>2022-06-25T07:22:47Z</time>
      </trkpt>
      <trkpt lat="46.30059" lon="5.43826">
        <ele>329</ele>
        <time>2022-06-25T07:22:55Z</time>
      </trkpt>
      <trkpt lat="46.3008" lon="5.43837">
        <ele>329</ele>
        <time>2022-06-25T07:22:58Z</time>
      </trkpt>
      <trkpt lat="46.30085" lon="5.43839">
        <ele>329.2</ele>
        <time>2022-06-25T07:22:59Z</time>
      </trkpt>
      <trkpt lat="46.30123" lon="5.4386">
        <ele>329.4</ele>
        <time>2022-06-25T07:23:05Z</time>
      </trkpt>
      <trkpt lat="46.30174" lon="5.43886">
        <ele>329.6</ele>
        <time>2022-06-25T07:23:13Z</time>
      </trkpt>
      <trkpt lat="46.3021" lon="5.43905">
        <ele>330</ele>
        <time>2022-06-25T07:23:19Z</time>
      </trkpt>
      <trkpt lat="46.30223" lon="5.43911">
        <ele>330.2</ele>
        <time>2022-06-25T07:23:21Z</time>
      </trkpt>
      <trkpt lat="46.30276" lon="5.43937">
        <ele>330.2</ele>
        <time>2022-06-25T07:23:29Z</time>
      </trkpt>
      <trkpt lat="46.30329" lon="5.43963">
        <ele>330.2</ele>
        <time>2022-06-25T07:23:37Z</time>
      </trkpt>
      <trkpt lat="46.30341" lon="5.43969">
        <ele>330.2</ele>
        <time>2022-06-25T07:23:39Z</time>
      </trkpt>
      <trkpt lat="46.30394" lon="5.43995">
        <ele>330.2</ele>
        <time>2022-06-25T07:23:47Z</time>
      </trkpt>
      <trkpt lat="46.30441" lon="5.44011">
        <ele>329.8</ele>
        <time>2022-06-25T07:23:54Z</time>
      </trkpt>
      <trkpt lat="46.30498" lon="5.44026">
        <ele>330.2</ele>
        <time>2022-06-25T07:24:03Z</time>
      </trkpt>
      <trkpt lat="46.30504" lon="5.44027">
        <ele>330.4</ele>
        <time>2022-06-25T07:24:04Z</time>
      </trkpt>
      <trkpt lat="46.3054" lon="5.44037">
        <ele>331.6</ele>
        <time>2022-06-25T07:24:10Z</time>
      </trkpt>
      <trkpt lat="46.30546" lon="5.44037">
        <ele>331.6</ele>
        <time>2022-06-25T07:24:11Z</time>
      </trkpt>
      <trkpt lat="46.30593" lon="5.44043">
        <ele>332.6</ele>
        <time>2022-06-25T07:24:19Z</time>
      </trkpt>
      <trkpt lat="46.30612" lon="5.44045">
        <ele>333</ele>
        <time>2022-06-25T07:24:22Z</time>
      </trkpt>
      <trkpt lat="46.30638" lon="5.44048">
        <ele>333.4</ele>
        <time>2022-06-25T07:24:26Z</time>
      </trkpt>
      <trkpt lat="46.30643" lon="5.44049">
        <ele>333.6</ele>
        <time>2022-06-25T07:24:27Z</time>
      </trkpt>
      <trkpt lat="46.3065" lon="5.44051">
        <ele>333.6</ele>
        <time>2022-06-25T07:24:28Z</time>
      </trkpt>
      <trkpt lat="46.3068" lon="5.44054">
        <ele>334.6</ele>
        <time>2022-06-25T07:24:33Z</time>
      </trkpt>
      <trkpt lat="46.30693" lon="5.44051">
        <ele>334.8</ele>
        <time>2022-06-25T07:24:35Z</time>
      </trkpt>
      <trkpt lat="46.30739" lon="5.4404">
        <ele>334.8</ele>
        <time>2022-06-25T07:24:42Z</time>
      </trkpt>
      <trkpt lat="46.30787" lon="5.44026">
        <ele>334</ele>
        <time>2022-06-25T07:24:48Z</time>
      </trkpt>
      <trkpt lat="46.30796" lon="5.44024">
        <ele>333.6</ele>
        <time>2022-06-25T07:24:49Z</time>
      </trkpt>
      <trkpt lat="46.30805" lon="5.44025">
        <ele>333.4</ele>
        <time>2022-06-25T07:24:50Z</time>
      </trkpt>
      <trkpt lat="46.30826" lon="5.44026">
        <ele>332.6</ele>
        <time>2022-06-25T07:24:52Z</time>
      </trkpt>
      <trkpt lat="46.30835" lon="5.44028">
        <ele>332.2</ele>
        <time>2022-06-25T07:24:53Z</time>
      </trkpt>
      <trkpt lat="46.30872" lon="5.44036">
        <ele>330.8</ele>
        <time>2022-06-25T07:24:57Z</time>
      </trkpt>
      <trkpt lat="46.3088" lon="5.44039">
        <ele>330.8</ele>
        <time>2022-06-25T07:24:58Z</time>
      </trkpt>
      <trkpt lat="46.3092" lon="5.44058">
        <ele>330</ele>
        <time>2022-06-25T07:25:03Z</time>
      </trkpt>
      <trkpt lat="46.30968" lon="5.44091">
        <ele>330</ele>
        <time>2022-06-25T07:25:10Z</time>
      </trkpt>
      <trkpt lat="46.31007" lon="5.44117">
        <ele>330.4</ele>
        <time>2022-06-25T07:25:16Z</time>
      </trkpt>
      <trkpt lat="46.31047" lon="5.44147">
        <ele>331.2</ele>
        <time>2022-06-25T07:25:23Z</time>
      </trkpt>
      <trkpt lat="46.31071" lon="5.44169">
        <ele>332</ele>
        <time>2022-06-25T07:25:27Z</time>
      </trkpt>
      <trkpt lat="46.31097" lon="5.44194">
        <ele>333</ele>
        <time>2022-06-25T07:25:32Z</time>
      </trkpt>
      <trkpt lat="46.31108" lon="5.44203">
        <ele>333.4</ele>
        <time>2022-06-25T07:25:34Z</time>
      </trkpt>
      <trkpt lat="46.31129" lon="5.44221">
        <ele>334.2</ele>
        <time>2022-06-25T07:25:38Z</time>
      </trkpt>
      <trkpt lat="46.31163" lon="5.44252">
        <ele>334.2</ele>
        <time>2022-06-25T07:25:44Z</time>
      </trkpt>
      <trkpt lat="46.31203" lon="5.44281">
        <ele>334.2</ele>
        <time>2022-06-25T07:25:51Z</time>
      </trkpt>
      <trkpt lat="46.31244" lon="5.44296">
        <ele>335</ele>
        <time>2022-06-25T07:25:58Z</time>
      </trkpt>
      <trkpt lat="46.3125" lon="5.44299">
        <ele>335.2</ele>
        <time>2022-06-25T07:25:59Z</time>
      </trkpt>
      <trkpt lat="46.31294" lon="5.44317">
        <ele>335.8</ele>
        <time>2022-06-25T07:26:06Z</time>
      </trkpt>
      <trkpt lat="46.31351" lon="5.44341">
        <ele>336</ele>
        <time>2022-06-25T07:26:15Z</time>
      </trkpt>
      <trkpt lat="46.31358" lon="5.44344">
        <ele>336.2</ele>
        <time>2022-06-25T07:26:16Z</time>
      </trkpt>
      <trkpt lat="46.31416" lon="5.44367">
        <ele>335.4</ele>
        <time>2022-06-25T07:26:24Z</time>
      </trkpt>
      <trkpt lat="46.31422" lon="5.44369">
        <ele>335.4</ele>
        <time>2022-06-25T07:26:25Z</time>
      </trkpt>
      <trkpt lat="46.31475" lon="5.44391">
        <ele>334.6</ele>
        <time>2022-06-25T07:26:32Z</time>
      </trkpt>
      <trkpt lat="46.31533" lon="5.44412">
        <ele>334.2</ele>
        <time>2022-06-25T07:26:40Z</time>
      </trkpt>
      <trkpt lat="46.31548" lon="5.44416">
        <ele>334</ele>
        <time>2022-06-25T07:26:42Z</time>
      </trkpt>
      <trkpt lat="46.31606" lon="5.44425">
        <ele>334</ele>
        <time>2022-06-25T07:26:50Z</time>
      </trkpt>
      <trkpt lat="46.31613" lon="5.44426">
        <ele>334</ele>
        <time>2022-06-25T07:26:51Z</time>
      </trkpt>
      <trkpt lat="46.31672" lon="5.44431">
        <ele>333.6</ele>
        <time>2022-06-25T07:26:59Z</time>
      </trkpt>
      <trkpt lat="46.317" lon="5.44433">
        <ele>333.8</ele>
        <time>2022-06-25T07:27:03Z</time>
      </trkpt>
      <trkpt lat="46.31755" lon="5.44434">
        <ele>334.2</ele>
        <time>2022-06-25T07:27:11Z</time>
      </trkpt>
      <trkpt lat="46.31762" lon="5.44434">
        <ele>334.2</ele>
        <time>2022-06-25T07:27:12Z</time>
      </trkpt>
      <trkpt lat="46.31817" lon="5.44436">
        <ele>334.6</ele>
        <time>2022-06-25T07:27:20Z</time>
      </trkpt>
      <trkpt lat="46.31849" lon="5.44438">
        <ele>335.2</ele>
        <time>2022-06-25T07:27:25Z</time>
      </trkpt>
      <trkpt lat="46.31868" lon="5.44439">
        <ele>335.4</ele>
        <time>2022-06-25T07:27:28Z</time>
      </trkpt>
      <trkpt lat="46.31905" lon="5.44442">
        <ele>333.8</ele>
        <time>2022-06-25T07:27:34Z</time>
      </trkpt>
      <trkpt lat="46.31919" lon="5.44443">
        <ele>333.4</ele>
        <time>2022-06-25T07:27:36Z</time>
      </trkpt>
      <trkpt lat="46.31962" lon="5.44446">
        <ele>332.8</ele>
        <time>2022-06-25T07:27:43Z</time>
      </trkpt>
      <trkpt lat="46.31968" lon="5.44446">
        <ele>332.8</ele>
        <time>2022-06-25T07:27:44Z</time>
      </trkpt>
      <trkpt lat="46.32001" lon="5.44448">
        <ele>333.8</ele>
        <time>2022-06-25T07:27:49Z</time>
      </trkpt>
      <trkpt lat="46.32019" lon="5.44448">
        <ele>333.8</ele>
        <time>2022-06-25T07:27:52Z</time>
      </trkpt>
      <trkpt lat="46.32076" lon="5.44452">
        <ele>333.2</ele>
        <time>2022-06-25T07:28:01Z</time>
      </trkpt>
      <trkpt lat="46.32131" lon="5.44453">
        <ele>333.6</ele>
        <time>2022-06-25T07:28:09Z</time>
      </trkpt>
      <trkpt lat="46.32137" lon="5.44453">
        <ele>333.4</ele>
        <time>2022-06-25T07:28:10Z</time>
      </trkpt>
      <trkpt lat="46.32189" lon="5.44455">
        <ele>332.8</ele>
        <time>2022-06-25T07:28:17Z</time>
      </trkpt>
      <trkpt lat="46.32244" lon="5.44459">
        <ele>332.6</ele>
        <time>2022-06-25T07:28:25Z</time>
      </trkpt>
      <trkpt lat="46.32257" lon="5.44461">
        <ele>332.6</ele>
        <time>2022-06-25T07:28:27Z</time>
      </trkpt>
      <trkpt lat="46.32303" lon="5.44466">
        <ele>332.6</ele>
        <time>2022-06-25T07:28:34Z</time>
      </trkpt>
      <trkpt lat="46.32359" lon="5.44471">
        <ele>333.4</ele>
        <time>2022-06-25T07:28:43Z</time>
      </trkpt>
      <trkpt lat="46.32377" lon="5.44472">
        <ele>333.8</ele>
        <time>2022-06-25T07:28:46Z</time>
      </trkpt>
      <trkpt lat="46.32403" lon="5.44473">
        <ele>334.4</ele>
        <time>2022-06-25T07:28:50Z</time>
      </trkpt>
      <trkpt lat="46.32461" lon="5.44475">
        <ele>334.6</ele>
        <time>2022-06-25T07:28:58Z</time>
      </trkpt>
      <trkpt lat="46.3252" lon="5.44481">
        <ele>334.8</ele>
        <time>2022-06-25T07:29:07Z</time>
      </trkpt>
      <trkpt lat="46.32526" lon="5.44482">
        <ele>334.8</ele>
        <time>2022-06-25T07:29:08Z</time>
      </trkpt>
      <trkpt lat="46.32533" lon="5.44483">
        <ele>334.8</ele>
        <time>2022-06-25T07:29:09Z</time>
      </trkpt>
      <trkpt lat="46.32591" lon="5.44493">
        <ele>335</ele>
        <time>2022-06-25T07:29:18Z</time>
      </trkpt>
      <trkpt lat="46.32645" lon="5.44504">
        <ele>335.2</ele>
        <time>2022-06-25T07:29:26Z</time>
      </trkpt>
      <trkpt lat="46.32697" lon="5.44505">
        <ele>334.8</ele>
        <time>2022-06-25T07:29:33Z</time>
      </trkpt>
      <trkpt lat="46.32748" lon="5.44492">
        <ele>334.4</ele>
        <time>2022-06-25T07:29:40Z</time>
      </trkpt>
      <trkpt lat="46.32805" lon="5.44468">
        <ele>334.6</ele>
        <time>2022-06-25T07:29:48Z</time>
      </trkpt>
      <trkpt lat="46.32841" lon="5.44448">
        <ele>333.8</ele>
        <time>2022-06-25T07:29:53Z</time>
      </trkpt>
      <trkpt lat="46.32857" lon="5.4444">
        <ele>333.6</ele>
        <time>2022-06-25T07:29:55Z</time>
      </trkpt>
      <trkpt lat="46.32902" lon="5.44428">
        <ele>333.2</ele>
        <time>2022-06-25T07:30:01Z</time>
      </trkpt>
      <trkpt lat="46.32963" lon="5.44414">
        <ele>333</ele>
        <time>2022-06-25T07:30:09Z</time>
      </trkpt>
      <trkpt lat="46.33012" lon="5.44392">
        <ele>333</ele>
        <time>2022-06-25T07:30:16Z</time>
      </trkpt>
      <trkpt lat="46.33045" lon="5.44376">
        <ele>333</ele>
        <time>2022-06-25T07:30:21Z</time>
      </trkpt>
      <trkpt lat="46.33053" lon="5.44375">
        <ele>333</ele>
        <time>2022-06-25T07:30:22Z</time>
      </trkpt>
      <trkpt lat="46.33059" lon="5.44375">
        <ele>333</ele>
        <time>2022-06-25T07:30:23Z</time>
      </trkpt>
      <trkpt lat="46.33088" lon="5.44376">
        <ele>333.2</ele>
        <time>2022-06-25T07:30:27Z</time>
      </trkpt>
      <trkpt lat="46.33126" lon="5.44385">
        <ele>333</ele>
        <time>2022-06-25T07:30:32Z</time>
      </trkpt>
      <trkpt lat="46.33134" lon="5.4439">
        <ele>333</ele>
        <time>2022-06-25T07:30:33Z</time>
      </trkpt>
      <trkpt lat="46.33146" lon="5.44405">
        <ele>332.6</ele>
        <time>2022-06-25T07:30:35Z</time>
      </trkpt>
      <trkpt lat="46.33152" lon="5.44423">
        <ele>332.4</ele>
        <time>2022-06-25T07:30:37Z</time>
      </trkpt>
      <trkpt lat="46.33154" lon="5.44434">
        <ele>332.4</ele>
        <time>2022-06-25T07:30:38Z</time>
      </trkpt>
      <trkpt lat="46.33159" lon="5.44488">
        <ele>332.4</ele>
        <time>2022-06-25T07:30:43Z</time>
      </trkpt>
      <trkpt lat="46.3316" lon="5.44499">
        <ele>332.2</ele>
        <time>2022-06-25T07:30:44Z</time>
      </trkpt>
      <trkpt lat="46.33166" lon="5.44521">
        <ele>332.2</ele>
        <time>2022-06-25T07:30:46Z</time>
      </trkpt>
      <trkpt lat="46.33169" lon="5.44527">
        <ele>332.4</ele>
        <time>2022-06-25T07:30:47Z</time>
      </trkpt>
      <trkpt lat="46.33172" lon="5.44535">
        <ele>332.4</ele>
        <time>2022-06-25T07:30:48Z</time>
      </trkpt>
      <trkpt lat="46.33186" lon="5.44561">
        <ele>332.8</ele>
        <time>2022-06-25T07:30:52Z</time>
      </trkpt>
      <trkpt lat="46.33195" lon="5.44581">
        <ele>333.8</ele>
        <time>2022-06-25T07:30:55Z</time>
      </trkpt>
      <trkpt lat="46.33205" lon="5.44604">
        <ele>334.8</ele>
        <time>2022-06-25T07:30:59Z</time>
      </trkpt>
      <trkpt lat="46.33207" lon="5.44608">
        <ele>335</ele>
        <time>2022-06-25T07:31:00Z</time>
      </trkpt>
      <trkpt lat="46.3321" lon="5.44613">
        <ele>335.2</ele>
        <time>2022-06-25T07:31:01Z</time>
      </trkpt>
      <trkpt lat="46.3322" lon="5.44628">
        <ele>336.4</ele>
        <time>2022-06-25T07:31:04Z</time>
      </trkpt>
      <trkpt lat="46.33229" lon="5.44639">
        <ele>337.4</ele>
        <time>2022-06-25T07:31:07Z</time>
      </trkpt>
      <trkpt lat="46.33242" lon="5.44653">
        <ele>338.8</ele>
        <time>2022-06-25T07:31:11Z</time>
      </trkpt>
      <trkpt lat="46.33259" lon="5.44672">
        <ele>339.8</ele>
        <time>2022-06-25T07:31:16Z</time>
      </trkpt>
      <trkpt lat="46.33272" lon="5.44686">
        <ele>340.8</ele>
        <time>2022-06-25T07:31:20Z</time>
      </trkpt>
      <trkpt lat="46.33275" lon="5.4469">
        <ele>341</ele>
        <time>2022-06-25T07:31:21Z</time>
      </trkpt>
      <trkpt lat="46.33285" lon="5.44702">
        <ele>342.2</ele>
        <time>2022-06-25T07:31:24Z</time>
      </trkpt>
      <trkpt lat="46.333" lon="5.44721">
        <ele>342.8</ele>
        <time>2022-06-25T07:31:29Z</time>
      </trkpt>
      <trkpt lat="46.33309" lon="5.44731">
        <ele>343.4</ele>
        <time>2022-06-25T07:31:32Z</time>
      </trkpt>
      <trkpt lat="46.33325" lon="5.4475">
        <ele>344.8</ele>
        <time>2022-06-25T07:31:37Z</time>
      </trkpt>
      <trkpt lat="46.33328" lon="5.44754">
        <ele>345</ele>
        <time>2022-06-25T07:31:38Z</time>
      </trkpt>
      <trkpt lat="46.33337" lon="5.44767">
        <ele>345.8</ele>
        <time>2022-06-25T07:31:41Z</time>
      </trkpt>
      <trkpt lat="46.3336" lon="5.44803">
        <ele>346.6</ele>
        <time>2022-06-25T07:31:48Z</time>
      </trkpt>
      <trkpt lat="46.33363" lon="5.44808">
        <ele>346.8</ele>
        <time>2022-06-25T07:31:49Z</time>
      </trkpt>
      <trkpt lat="46.33384" lon="5.44848">
        <ele>347.6</ele>
        <time>2022-06-25T07:31:57Z</time>
      </trkpt>
      <trkpt lat="46.33386" lon="5.44852">
        <ele>347.8</ele>
        <time>2022-06-25T07:31:58Z</time>
      </trkpt>
      <trkpt lat="46.33398" lon="5.44869">
        <ele>349.2</ele>
        <time>2022-06-25T07:32:02Z</time>
      </trkpt>
      <trkpt lat="46.33407" lon="5.44881">
        <ele>349.8</ele>
        <time>2022-06-25T07:32:05Z</time>
      </trkpt>
      <trkpt lat="46.33414" lon="5.4489">
        <ele>350.2</ele>
        <time>2022-06-25T07:32:07Z</time>
      </trkpt>
      <trkpt lat="46.33431" lon="5.44913">
        <ele>351.2</ele>
        <time>2022-06-25T07:32:12Z</time>
      </trkpt>
      <trkpt lat="46.33464" lon="5.44953">
        <ele>351.4</ele>
        <time>2022-06-25T07:32:19Z</time>
      </trkpt>
      <trkpt lat="46.33504" lon="5.45002">
        <ele>351</ele>
        <time>2022-06-25T07:32:27Z</time>
      </trkpt>
      <trkpt lat="46.33512" lon="5.45016">
        <ele>351</ele>
        <time>2022-06-25T07:32:29Z</time>
      </trkpt>
      <trkpt lat="46.33519" lon="5.45032">
        <ele>351.2</ele>
        <time>2022-06-25T07:32:31Z</time>
      </trkpt>
      <trkpt lat="46.33522" lon="5.4504">
        <ele>351.2</ele>
        <time>2022-06-25T07:32:32Z</time>
      </trkpt>
      <trkpt lat="46.33524" lon="5.45049">
        <ele>351</ele>
        <time>2022-06-25T07:32:33Z</time>
      </trkpt>
      <trkpt lat="46.33529" lon="5.45087">
        <ele>351.6</ele>
        <time>2022-06-25T07:32:37Z</time>
      </trkpt>
      <trkpt lat="46.33531" lon="5.45134">
        <ele>352.2</ele>
        <time>2022-06-25T07:32:42Z</time>
      </trkpt>
      <trkpt lat="46.33531" lon="5.45164">
        <ele>352.4</ele>
        <time>2022-06-25T07:32:45Z</time>
      </trkpt>
      <trkpt lat="46.33522" lon="5.45242">
        <ele>352.6</ele>
        <time>2022-06-25T07:32:53Z</time>
      </trkpt>
      <trkpt lat="46.33519" lon="5.45301">
        <ele>352.4</ele>
        <time>2022-06-25T07:32:59Z</time>
      </trkpt>
      <trkpt lat="46.3352" lon="5.45311">
        <ele>352.4</ele>
        <time>2022-06-25T07:33:00Z</time>
      </trkpt>
      <trkpt lat="46.33522" lon="5.45321">
        <ele>352.4</ele>
        <time>2022-06-25T07:33:01Z</time>
      </trkpt>
      <trkpt lat="46.33534" lon="5.45359">
        <ele>352</ele>
        <time>2022-06-25T07:33:05Z</time>
      </trkpt>
      <trkpt lat="46.33556" lon="5.45426">
        <ele>351.4</ele>
        <time>2022-06-25T07:33:12Z</time>
      </trkpt>
      <trkpt lat="46.33576" lon="5.45487">
        <ele>351.6</ele>
        <time>2022-06-25T07:33:19Z</time>
      </trkpt>
      <trkpt lat="46.33596" lon="5.45535">
        <ele>352.6</ele>
        <time>2022-06-25T07:33:26Z</time>
      </trkpt>
      <trkpt lat="46.33603" lon="5.45553">
        <ele>353.2</ele>
        <time>2022-06-25T07:33:29Z</time>
      </trkpt>
      <trkpt lat="46.33606" lon="5.45564">
        <ele>353.8</ele>
        <time>2022-06-25T07:33:31Z</time>
      </trkpt>
      <trkpt lat="46.33609" lon="5.45575">
        <ele>354.4</ele>
        <time>2022-06-25T07:33:33Z</time>
      </trkpt>
      <trkpt lat="46.33611" lon="5.4559">
        <ele>355.6</ele>
        <time>2022-06-25T07:33:36Z</time>
      </trkpt>
      <trkpt lat="46.33612" lon="5.45601">
        <ele>356</ele>
        <time>2022-06-25T07:33:38Z</time>
      </trkpt>
      <trkpt lat="46.33613" lon="5.45612">
        <ele>356.6</ele>
        <time>2022-06-25T07:33:40Z</time>
      </trkpt>
      <trkpt lat="46.3361" lon="5.45634">
        <ele>358</ele>
        <time>2022-06-25T07:33:44Z</time>
      </trkpt>
      <trkpt lat="46.33609" lon="5.45639">
        <ele>358.2</ele>
        <time>2022-06-25T07:33:45Z</time>
      </trkpt>
      <trkpt lat="46.33601" lon="5.45656">
        <ele>359.2</ele>
        <time>2022-06-25T07:33:49Z</time>
      </trkpt>
      <trkpt lat="46.33599" lon="5.45659">
        <ele>359.4</ele>
        <time>2022-06-25T07:33:50Z</time>
      </trkpt>
      <trkpt lat="46.3359" lon="5.45669">
        <ele>360.4</ele>
        <time>2022-06-25T07:33:53Z</time>
      </trkpt>
      <trkpt lat="46.33578" lon="5.4568">
        <ele>361.2</ele>
        <time>2022-06-25T07:33:57Z</time>
      </trkpt>
      <trkpt lat="46.33575" lon="5.45683">
        <ele>361.6</ele>
        <time>2022-06-25T07:33:58Z</time>
      </trkpt>
      <trkpt lat="46.3356" lon="5.45692">
        <ele>362.4</ele>
        <time>2022-06-25T07:34:03Z</time>
      </trkpt>
      <trkpt lat="46.33557" lon="5.45693">
        <ele>362.8</ele>
        <time>2022-06-25T07:34:04Z</time>
      </trkpt>
      <trkpt lat="46.33548" lon="5.45697">
        <ele>363.6</ele>
        <time>2022-06-25T07:34:07Z</time>
      </trkpt>
      <trkpt lat="46.33533" lon="5.45705">
        <ele>364.8</ele>
        <time>2022-06-25T07:34:12Z</time>
      </trkpt>
      <trkpt lat="46.3353" lon="5.45707">
        <ele>364.8</ele>
        <time>2022-06-25T07:34:13Z</time>
      </trkpt>
      <trkpt lat="46.33518" lon="5.45714">
        <ele>365.8</ele>
        <time>2022-06-25T07:34:17Z</time>
      </trkpt>
      <trkpt lat="46.33507" lon="5.45721">
        <ele>367.2</ele>
        <time>2022-06-25T07:34:21Z</time>
      </trkpt>
      <trkpt lat="46.33503" lon="5.45724">
        <ele>367.4</ele>
        <time>2022-06-25T07:34:22Z</time>
      </trkpt>
      <trkpt lat="46.3349" lon="5.45736">
        <ele>368.2</ele>
        <time>2022-06-25T07:34:26Z</time>
      </trkpt>
      <trkpt lat="46.33478" lon="5.45748">
        <ele>369</ele>
        <time>2022-06-25T07:34:30Z</time>
      </trkpt>
      <trkpt lat="46.33473" lon="5.45756">
        <ele>369.4</ele>
        <time>2022-06-25T07:34:32Z</time>
      </trkpt>
      <trkpt lat="46.33461" lon="5.45779">
        <ele>370.4</ele>
        <time>2022-06-25T07:34:38Z</time>
      </trkpt>
      <trkpt lat="46.33459" lon="5.45784">
        <ele>370.8</ele>
        <time>2022-06-25T07:34:39Z</time>
      </trkpt>
      <trkpt lat="46.33457" lon="5.45807">
        <ele>371.6</ele>
        <time>2022-06-25T07:34:43Z</time>
      </trkpt>
      <trkpt lat="46.33461" lon="5.45825">
        <ele>372</ele>
        <time>2022-06-25T07:34:46Z</time>
      </trkpt>
      <trkpt lat="46.33466" lon="5.45837">
        <ele>372.6</ele>
        <time>2022-06-25T07:34:48Z</time>
      </trkpt>
      <trkpt lat="46.33479" lon="5.45864">
        <ele>373.2</ele>
        <time>2022-06-25T07:34:53Z</time>
      </trkpt>
      <trkpt lat="46.33487" lon="5.45878">
        <ele>373.4</ele>
        <time>2022-06-25T07:34:56Z</time>
      </trkpt>
      <trkpt lat="46.335" lon="5.45901">
        <ele>374.2</ele>
        <time>2022-06-25T07:35:01Z</time>
      </trkpt>
      <trkpt lat="46.33512" lon="5.45919">
        <ele>375</ele>
        <time>2022-06-25T07:35:05Z</time>
      </trkpt>
      <trkpt lat="46.33519" lon="5.45928">
        <ele>375.4</ele>
        <time>2022-06-25T07:35:07Z</time>
      </trkpt>
      <trkpt lat="46.33525" lon="5.45934">
        <ele>375.6</ele>
        <time>2022-06-25T07:35:09Z</time>
      </trkpt>
      <trkpt lat="46.33536" lon="5.45943">
        <ele>376.2</ele>
        <time>2022-06-25T07:35:12Z</time>
      </trkpt>
      <trkpt lat="46.33544" lon="5.45949">
        <ele>376.6</ele>
        <time>2022-06-25T07:35:14Z</time>
      </trkpt>
      <trkpt lat="46.33565" lon="5.4596">
        <ele>377.6</ele>
        <time>2022-06-25T07:35:19Z</time>
      </trkpt>
      <trkpt lat="46.33595" lon="5.45973">
        <ele>379</ele>
        <time>2022-06-25T07:35:26Z</time>
      </trkpt>
      <trkpt lat="46.33603" lon="5.45977">
        <ele>379.4</ele>
        <time>2022-06-25T07:35:28Z</time>
      </trkpt>
      <trkpt lat="46.33612" lon="5.4598">
        <ele>380</ele>
        <time>2022-06-25T07:35:30Z</time>
      </trkpt>
      <trkpt lat="46.33629" lon="5.4599">
        <ele>380.4</ele>
        <time>2022-06-25T07:35:34Z</time>
      </trkpt>
      <trkpt lat="46.3364" lon="5.45997">
        <ele>381</ele>
        <time>2022-06-25T07:35:37Z</time>
      </trkpt>
      <trkpt lat="46.33655" lon="5.46006">
        <ele>382</ele>
        <time>2022-06-25T07:35:41Z</time>
      </trkpt>
      <trkpt lat="46.33659" lon="5.46008">
        <ele>382.4</ele>
        <time>2022-06-25T07:35:42Z</time>
      </trkpt>
      <trkpt lat="46.33673" lon="5.46017">
        <ele>383.4</ele>
        <time>2022-06-25T07:35:46Z</time>
      </trkpt>
      <trkpt lat="46.33686" lon="5.46026">
        <ele>384.4</ele>
        <time>2022-06-25T07:35:50Z</time>
      </trkpt>
      <trkpt lat="46.33689" lon="5.46028">
        <ele>384.6</ele>
        <time>2022-06-25T07:35:51Z</time>
      </trkpt>
      <trkpt lat="46.33699" lon="5.46036">
        <ele>385.4</ele>
        <time>2022-06-25T07:35:54Z</time>
      </trkpt>
      <trkpt lat="46.33712" lon="5.46045">
        <ele>386.6</ele>
        <time>2022-06-25T07:35:58Z</time>
      </trkpt>
      <trkpt lat="46.33727" lon="5.46051">
        <ele>387.6</ele>
        <time>2022-06-25T07:36:02Z</time>
      </trkpt>
      <trkpt lat="46.33742" lon="5.46054">
        <ele>388.2</ele>
        <time>2022-06-25T07:36:06Z</time>
      </trkpt>
      <trkpt lat="46.33753" lon="5.46054">
        <ele>388.8</ele>
        <time>2022-06-25T07:36:09Z</time>
      </trkpt>
      <trkpt lat="46.33763" lon="5.46053">
        <ele>390</ele>
        <time>2022-06-25T07:36:12Z</time>
      </trkpt>
      <trkpt lat="46.33771" lon="5.46053">
        <ele>390.4</ele>
        <time>2022-06-25T07:36:14Z</time>
      </trkpt>
      <trkpt lat="46.33787" lon="5.46049">
        <ele>391</ele>
        <time>2022-06-25T07:36:18Z</time>
      </trkpt>
      <trkpt lat="46.33795" lon="5.46046">
        <ele>391.4</ele>
        <time>2022-06-25T07:36:20Z</time>
      </trkpt>
      <trkpt lat="46.33807" lon="5.46043">
        <ele>392</ele>
        <time>2022-06-25T07:36:23Z</time>
      </trkpt>
      <trkpt lat="46.33824" lon="5.46039">
        <ele>392.4</ele>
        <time>2022-06-25T07:36:27Z</time>
      </trkpt>
      <trkpt lat="46.33832" lon="5.46037">
        <ele>392.8</ele>
        <time>2022-06-25T07:36:29Z</time>
      </trkpt>
      <trkpt lat="46.3384" lon="5.46036">
        <ele>393.4</ele>
        <time>2022-06-25T07:36:31Z</time>
      </trkpt>
      <trkpt lat="46.33852" lon="5.46034">
        <ele>393.8</ele>
        <time>2022-06-25T07:36:34Z</time>
      </trkpt>
      <trkpt lat="46.33855" lon="5.46034">
        <ele>394</ele>
        <time>2022-06-25T07:36:35Z</time>
      </trkpt>
      <trkpt lat="46.33859" lon="5.46034">
        <ele>394.2</ele>
        <time>2022-06-25T07:36:36Z</time>
      </trkpt>
      <trkpt lat="46.33874" lon="5.46032">
        <ele>395</ele>
        <time>2022-06-25T07:36:40Z</time>
      </trkpt>
      <trkpt lat="46.33883" lon="5.4603">
        <ele>395.4</ele>
        <time>2022-06-25T07:36:42Z</time>
      </trkpt>
      <trkpt lat="46.339" lon="5.46027">
        <ele>396.4</ele>
        <time>2022-06-25T07:36:46Z</time>
      </trkpt>
      <trkpt lat="46.33917" lon="5.46026">
        <ele>397.4</ele>
        <time>2022-06-25T07:36:50Z</time>
      </trkpt>
      <trkpt lat="46.33921" lon="5.46026">
        <ele>397.4</ele>
        <time>2022-06-25T07:36:51Z</time>
      </trkpt>
      <trkpt lat="46.33938" lon="5.46024">
        <ele>398.2</ele>
        <time>2022-06-25T07:36:55Z</time>
      </trkpt>
      <trkpt lat="46.33948" lon="5.46025">
        <ele>398.6</ele>
        <time>2022-06-25T07:36:57Z</time>
      </trkpt>
      <trkpt lat="46.3398" lon="5.4603">
        <ele>399.4</ele>
        <time>2022-06-25T07:37:04Z</time>
      </trkpt>
      <trkpt lat="46.33985" lon="5.46032">
        <ele>399.6</ele>
        <time>2022-06-25T07:37:05Z</time>
      </trkpt>
      <trkpt lat="46.33993" lon="5.46036">
        <ele>400</ele>
        <time>2022-06-25T07:37:07Z</time>
      </trkpt>
      <trkpt lat="46.34004" lon="5.46045">
        <ele>400.4</ele>
        <time>2022-06-25T07:37:10Z</time>
      </trkpt>
      <trkpt lat="46.34017" lon="5.4606">
        <ele>400.6</ele>
        <time>2022-06-25T07:37:14Z</time>
      </trkpt>
      <trkpt lat="46.34026" lon="5.46072">
        <ele>401.6</ele>
        <time>2022-06-25T07:37:17Z</time>
      </trkpt>
      <trkpt lat="46.34029" lon="5.46075">
        <ele>401.8</ele>
        <time>2022-06-25T07:37:18Z</time>
      </trkpt>
      <trkpt lat="46.34039" lon="5.46083">
        <ele>402.4</ele>
        <time>2022-06-25T07:37:21Z</time>
      </trkpt>
      <trkpt lat="46.34044" lon="5.46084">
        <ele>402.6</ele>
        <time>2022-06-25T07:37:22Z</time>
      </trkpt>
      <trkpt lat="46.34052" lon="5.46083">
        <ele>403</ele>
        <time>2022-06-25T07:37:24Z</time>
      </trkpt>
      <trkpt lat="46.34059" lon="5.46078">
        <ele>404</ele>
        <time>2022-06-25T07:37:26Z</time>
      </trkpt>
      <trkpt lat="46.34063" lon="5.46075">
        <ele>404.2</ele>
        <time>2022-06-25T07:37:27Z</time>
      </trkpt>
      <trkpt lat="46.34078" lon="5.46055">
        <ele>405.2</ele>
        <time>2022-06-25T07:37:32Z</time>
      </trkpt>
      <trkpt lat="46.34081" lon="5.46052">
        <ele>405.4</ele>
        <time>2022-06-25T07:37:33Z</time>
      </trkpt>
      <trkpt lat="46.34098" lon="5.46035">
        <ele>406.8</ele>
        <time>2022-06-25T07:37:38Z</time>
      </trkpt>
      <trkpt lat="46.34113" lon="5.46025">
        <ele>408</ele>
        <time>2022-06-25T07:37:42Z</time>
      </trkpt>
      <trkpt lat="46.34124" lon="5.46022">
        <ele>408.6</ele>
        <time>2022-06-25T07:37:45Z</time>
      </trkpt>
      <trkpt lat="46.34136" lon="5.46019">
        <ele>409</ele>
        <time>2022-06-25T07:37:48Z</time>
      </trkpt>
      <trkpt lat="46.34155" lon="5.46016">
        <ele>410.2</ele>
        <time>2022-06-25T07:37:53Z</time>
      </trkpt>
      <trkpt lat="46.34176" lon="5.46013">
        <ele>411.2</ele>
        <time>2022-06-25T07:37:58Z</time>
      </trkpt>
      <trkpt lat="46.34201" lon="5.46012">
        <ele>412.4</ele>
        <time>2022-06-25T07:38:04Z</time>
      </trkpt>
      <trkpt lat="46.34217" lon="5.46012">
        <ele>413.6</ele>
        <time>2022-06-25T07:38:08Z</time>
      </trkpt>
      <trkpt lat="46.34237" lon="5.46012">
        <ele>414.6</ele>
        <time>2022-06-25T07:38:13Z</time>
      </trkpt>
      <trkpt lat="46.34241" lon="5.46011">
        <ele>414.8</ele>
        <time>2022-06-25T07:38:14Z</time>
      </trkpt>
      <trkpt lat="46.34254" lon="5.46012">
        <ele>415.6</ele>
        <time>2022-06-25T07:38:17Z</time>
      </trkpt>
      <trkpt lat="46.34274" lon="5.46012">
        <ele>416.4</ele>
        <time>2022-06-25T07:38:22Z</time>
      </trkpt>
      <trkpt lat="46.34278" lon="5.46012">
        <ele>416.8</ele>
        <time>2022-06-25T07:38:23Z</time>
      </trkpt>
      <trkpt lat="46.34298" lon="5.46012">
        <ele>418</ele>
        <time>2022-06-25T07:38:28Z</time>
      </trkpt>
      <trkpt lat="46.34314" lon="5.46013">
        <ele>418.8</ele>
        <time>2022-06-25T07:38:32Z</time>
      </trkpt>
      <trkpt lat="46.34318" lon="5.46013">
        <ele>419</ele>
        <time>2022-06-25T07:38:33Z</time>
      </trkpt>
      <trkpt lat="46.34334" lon="5.46012">
        <ele>420</ele>
        <time>2022-06-25T07:38:37Z</time>
      </trkpt>
      <trkpt lat="46.3435" lon="5.46013">
        <ele>420.8</ele>
        <time>2022-06-25T07:38:41Z</time>
      </trkpt>
      <trkpt lat="46.34354" lon="5.46013">
        <ele>421.4</ele>
        <time>2022-06-25T07:38:42Z</time>
      </trkpt>
      <trkpt lat="46.34363" lon="5.46014">
        <ele>421.6</ele>
        <time>2022-06-25T07:38:44Z</time>
      </trkpt>
      <trkpt lat="46.34379" lon="5.46015">
        <ele>422.6</ele>
        <time>2022-06-25T07:38:48Z</time>
      </trkpt>
      <trkpt lat="46.34393" lon="5.46016">
        <ele>423.2</ele>
        <time>2022-06-25T07:38:51Z</time>
      </trkpt>
      <trkpt lat="46.34407" lon="5.46016">
        <ele>423.8</ele>
        <time>2022-06-25T07:38:54Z</time>
      </trkpt>
      <trkpt lat="46.34429" lon="5.46018">
        <ele>424.6</ele>
        <time>2022-06-25T07:38:59Z</time>
      </trkpt>
      <trkpt lat="46.34434" lon="5.46019">
        <ele>425</ele>
        <time>2022-06-25T07:39:00Z</time>
      </trkpt>
      <trkpt lat="46.34457" lon="5.46023">
        <ele>426</ele>
        <time>2022-06-25T07:39:05Z</time>
      </trkpt>
      <trkpt lat="46.34465" lon="5.46024">
        <ele>426.4</ele>
        <time>2022-06-25T07:39:07Z</time>
      </trkpt>
      <trkpt lat="46.34478" lon="5.46027">
        <ele>427.4</ele>
        <time>2022-06-25T07:39:10Z</time>
      </trkpt>
      <trkpt lat="46.34486" lon="5.46028">
        <ele>427.6</ele>
        <time>2022-06-25T07:39:12Z</time>
      </trkpt>
      <trkpt lat="46.34498" lon="5.46033">
        <ele>428.4</ele>
        <time>2022-06-25T07:39:15Z</time>
      </trkpt>
      <trkpt lat="46.34509" lon="5.46039">
        <ele>428.8</ele>
        <time>2022-06-25T07:39:18Z</time>
      </trkpt>
      <trkpt lat="46.34518" lon="5.46049">
        <ele>429.6</ele>
        <time>2022-06-25T07:39:21Z</time>
      </trkpt>
      <trkpt lat="46.34525" lon="5.46052">
        <ele>430</ele>
        <time>2022-06-25T07:39:23Z</time>
      </trkpt>
      <trkpt lat="46.3453" lon="5.46051">
        <ele>430.2</ele>
        <time>2022-06-25T07:39:24Z</time>
      </trkpt>
      <trkpt lat="46.3454" lon="5.46047">
        <ele>430.6</ele>
        <time>2022-06-25T07:39:26Z</time>
      </trkpt>
      <trkpt lat="46.34553" lon="5.46045">
        <ele>430.6</ele>
        <time>2022-06-25T07:39:28Z</time>
      </trkpt>
      <trkpt lat="46.34559" lon="5.46045">
        <ele>430.6</ele>
        <time>2022-06-25T07:39:29Z</time>
      </trkpt>
      <trkpt lat="46.34582" lon="5.46043">
        <ele>430.6</ele>
        <time>2022-06-25T07:39:32Z</time>
      </trkpt>
      <trkpt lat="46.34591" lon="5.46042">
        <ele>430.4</ele>
        <time>2022-06-25T07:39:33Z</time>
      </trkpt>
      <trkpt lat="46.34629" lon="5.46037">
        <ele>429.2</ele>
        <time>2022-06-25T07:39:37Z</time>
      </trkpt>
      <trkpt lat="46.34638" lon="5.46036">
        <ele>428.6</ele>
        <time>2022-06-25T07:39:38Z</time>
      </trkpt>
      <trkpt lat="46.34669" lon="5.46032">
        <ele>427.8</ele>
        <time>2022-06-25T07:39:41Z</time>
      </trkpt>
      <trkpt lat="46.34691" lon="5.46029">
        <ele>427</ele>
        <time>2022-06-25T07:39:43Z</time>
      </trkpt>
      <trkpt lat="46.34712" lon="5.46025">
        <ele>425.2</ele>
        <time>2022-06-25T07:39:45Z</time>
      </trkpt>
      <trkpt lat="46.34747" lon="5.46018">
        <ele>424</ele>
        <time>2022-06-25T07:39:48Z</time>
      </trkpt>
      <trkpt lat="46.34759" lon="5.46015">
        <ele>423</ele>
        <time>2022-06-25T07:39:49Z</time>
      </trkpt>
      <trkpt lat="46.34771" lon="5.46013">
        <ele>422.2</ele>
        <time>2022-06-25T07:39:50Z</time>
      </trkpt>
      <trkpt lat="46.34783" lon="5.46011">
        <ele>421.6</ele>
        <time>2022-06-25T07:39:51Z</time>
      </trkpt>
      <trkpt lat="46.34808" lon="5.46006">
        <ele>420.4</ele>
        <time>2022-06-25T07:39:53Z</time>
      </trkpt>
      <trkpt lat="46.34834" lon="5.46002">
        <ele>419</ele>
        <time>2022-06-25T07:39:55Z</time>
      </trkpt>
      <trkpt lat="46.34847" lon="5.46001">
        <ele>418</ele>
        <time>2022-06-25T07:39:56Z</time>
      </trkpt>
      <trkpt lat="46.34873" lon="5.45998">
        <ele>416.4</ele>
        <time>2022-06-25T07:39:58Z</time>
      </trkpt>
      <trkpt lat="46.349" lon="5.45996">
        <ele>414.6</ele>
        <time>2022-06-25T07:40:00Z</time>
      </trkpt>
      <trkpt lat="46.34914" lon="5.45995">
        <ele>413.2</ele>
        <time>2022-06-25T07:40:01Z</time>
      </trkpt>
      <trkpt lat="46.34927" lon="5.45994">
        <ele>412.2</ele>
        <time>2022-06-25T07:40:02Z</time>
      </trkpt>
      <trkpt lat="46.34941" lon="5.45993">
        <ele>411.2</ele>
        <time>2022-06-25T07:40:03Z</time>
      </trkpt>
      <trkpt lat="46.34969" lon="5.4599">
        <ele>409</ele>
        <time>2022-06-25T07:40:05Z</time>
      </trkpt>
      <trkpt lat="46.34983" lon="5.45989">
        <ele>408</ele>
        <time>2022-06-25T07:40:06Z</time>
      </trkpt>
      <trkpt lat="46.34997" lon="5.45988">
        <ele>406.4</ele>
        <time>2022-06-25T07:40:07Z</time>
      </trkpt>
      <trkpt lat="46.35011" lon="5.45987">
        <ele>405.2</ele>
        <time>2022-06-25T07:40:08Z</time>
      </trkpt>
      <trkpt lat="46.35039" lon="5.45984">
        <ele>404</ele>
        <time>2022-06-25T07:40:10Z</time>
      </trkpt>
      <trkpt lat="46.35068" lon="5.45982">
        <ele>402.2</ele>
        <time>2022-06-25T07:40:12Z</time>
      </trkpt>
      <trkpt lat="46.35096" lon="5.45979">
        <ele>400.4</ele>
        <time>2022-06-25T07:40:14Z</time>
      </trkpt>
      <trkpt lat="46.35125" lon="5.45977">
        <ele>398.6</ele>
        <time>2022-06-25T07:40:16Z</time>
      </trkpt>
      <trkpt lat="46.3514" lon="5.45976">
        <ele>397</ele>
        <time>2022-06-25T07:40:17Z</time>
      </trkpt>
      <trkpt lat="46.35169" lon="5.45975">
        <ele>394.8</ele>
        <time>2022-06-25T07:40:19Z</time>
      </trkpt>
      <trkpt lat="46.35183" lon="5.45974">
        <ele>393.8</ele>
        <time>2022-06-25T07:40:20Z</time>
      </trkpt>
      <trkpt lat="46.35198" lon="5.45973">
        <ele>392.6</ele>
        <time>2022-06-25T07:40:21Z</time>
      </trkpt>
      <trkpt lat="46.35228" lon="5.45971">
        <ele>391.4</ele>
        <time>2022-06-25T07:40:23Z</time>
      </trkpt>
      <trkpt lat="46.35242" lon="5.45971">
        <ele>390.4</ele>
        <time>2022-06-25T07:40:24Z</time>
      </trkpt>
      <trkpt lat="46.35272" lon="5.45972">
        <ele>388.4</ele>
        <time>2022-06-25T07:40:26Z</time>
      </trkpt>
      <trkpt lat="46.35303" lon="5.45973">
        <ele>386.6</ele>
        <time>2022-06-25T07:40:28Z</time>
      </trkpt>
      <trkpt lat="46.35318" lon="5.45974">
        <ele>386.4</ele>
        <time>2022-06-25T07:40:29Z</time>
      </trkpt>
      <trkpt lat="46.35333" lon="5.45974">
        <ele>385</ele>
        <time>2022-06-25T07:40:30Z</time>
      </trkpt>
      <trkpt lat="46.35348" lon="5.45975">
        <ele>382.6</ele>
        <time>2022-06-25T07:40:31Z</time>
      </trkpt>
      <trkpt lat="46.35378" lon="5.45976">
        <ele>381</ele>
        <time>2022-06-25T07:40:33Z</time>
      </trkpt>
      <trkpt lat="46.35408" lon="5.45975">
        <ele>378.6</ele>
        <time>2022-06-25T07:40:35Z</time>
      </trkpt>
      <trkpt lat="46.35423" lon="5.45973">
        <ele>377.8</ele>
        <time>2022-06-25T07:40:36Z</time>
      </trkpt>
      <trkpt lat="46.35437" lon="5.45971">
        <ele>376.4</ele>
        <time>2022-06-25T07:40:37Z</time>
      </trkpt>
      <trkpt lat="46.35466" lon="5.45967">
        <ele>375.2</ele>
        <time>2022-06-25T07:40:39Z</time>
      </trkpt>
      <trkpt lat="46.35495" lon="5.45964">
        <ele>373.6</ele>
        <time>2022-06-25T07:40:41Z</time>
      </trkpt>
      <trkpt lat="46.35509" lon="5.45963">
        <ele>372.4</ele>
        <time>2022-06-25T07:40:42Z</time>
      </trkpt>
      <trkpt lat="46.35537" lon="5.45963">
        <ele>371</ele>
        <time>2022-06-25T07:40:44Z</time>
      </trkpt>
      <trkpt lat="46.35551" lon="5.45965">
        <ele>370.2</ele>
        <time>2022-06-25T07:40:45Z</time>
      </trkpt>
      <trkpt lat="46.35565" lon="5.45969">
        <ele>369.2</ele>
        <time>2022-06-25T07:40:46Z</time>
      </trkpt>
      <trkpt lat="46.35578" lon="5.45974">
        <ele>367.2</ele>
        <time>2022-06-25T07:40:47Z</time>
      </trkpt>
      <trkpt lat="46.35601" lon="5.45984">
        <ele>365.6</ele>
        <time>2022-06-25T07:40:49Z</time>
      </trkpt>
      <trkpt lat="46.35621" lon="5.45991">
        <ele>363.8</ele>
        <time>2022-06-25T07:40:51Z</time>
      </trkpt>
      <trkpt lat="46.35642" lon="5.45988">
        <ele>362</ele>
        <time>2022-06-25T07:40:53Z</time>
      </trkpt>
      <trkpt lat="46.35652" lon="5.45984">
        <ele>360.8</ele>
        <time>2022-06-25T07:40:54Z</time>
      </trkpt>
      <trkpt lat="46.35673" lon="5.4598">
        <ele>359.2</ele>
        <time>2022-06-25T07:40:56Z</time>
      </trkpt>
      <trkpt lat="46.35693" lon="5.45978">
        <ele>357.6</ele>
        <time>2022-06-25T07:40:58Z</time>
      </trkpt>
      <trkpt lat="46.35721" lon="5.45981">
        <ele>356</ele>
        <time>2022-06-25T07:41:01Z</time>
      </trkpt>
      <trkpt lat="46.3573" lon="5.45983">
        <ele>355.8</ele>
        <time>2022-06-25T07:41:02Z</time>
      </trkpt>
      <trkpt lat="46.35756" lon="5.45987">
        <ele>355.2</ele>
        <time>2022-06-25T07:41:05Z</time>
      </trkpt>
      <trkpt lat="46.35763" lon="5.45983">
        <ele>355.2</ele>
        <time>2022-06-25T07:41:06Z</time>
      </trkpt>
      <trkpt lat="46.35769" lon="5.45977">
        <ele>355</ele>
        <time>2022-06-25T07:41:07Z</time>
      </trkpt>
      <trkpt lat="46.35774" lon="5.45969">
        <ele>355</ele>
        <time>2022-06-25T07:41:08Z</time>
      </trkpt>
      <trkpt lat="46.35777" lon="5.4596">
        <ele>355</ele>
        <time>2022-06-25T07:41:09Z</time>
      </trkpt>
      <trkpt lat="46.35791" lon="5.4589">
        <ele>356</ele>
        <time>2022-06-25T07:41:16Z</time>
      </trkpt>
      <trkpt lat="46.35795" lon="5.4586">
        <ele>356.6</ele>
        <time>2022-06-25T07:41:19Z</time>
      </trkpt>
      <trkpt lat="46.35794" lon="5.45839">
        <ele>356.8</ele>
        <time>2022-06-25T07:41:21Z</time>
      </trkpt>
      <trkpt lat="46.35792" lon="5.45819">
        <ele>357</ele>
        <time>2022-06-25T07:41:23Z</time>
      </trkpt>
      <trkpt lat="46.35791" lon="5.45808">
        <ele>357.2</ele>
        <time>2022-06-25T07:41:24Z</time>
      </trkpt>
      <trkpt lat="46.35785" lon="5.45762">
        <ele>357.6</ele>
        <time>2022-06-25T07:41:29Z</time>
      </trkpt>
      <trkpt lat="46.35775" lon="5.45711">
        <ele>358</ele>
        <time>2022-06-25T07:41:35Z</time>
      </trkpt>
      <trkpt lat="46.35774" lon="5.45701">
        <ele>358</ele>
        <time>2022-06-25T07:41:36Z</time>
      </trkpt>
      <trkpt lat="46.35774" lon="5.45691">
        <ele>358.2</ele>
        <time>2022-06-25T07:41:37Z</time>
      </trkpt>
      <trkpt lat="46.35777" lon="5.45682">
        <ele>358.2</ele>
        <time>2022-06-25T07:41:38Z</time>
      </trkpt>
      <trkpt lat="46.35788" lon="5.45669">
        <ele>358.2</ele>
        <time>2022-06-25T07:41:40Z</time>
      </trkpt>
      <trkpt lat="46.35808" lon="5.45668">
        <ele>358.4</ele>
        <time>2022-06-25T07:41:43Z</time>
      </trkpt>
      <trkpt lat="46.35825" lon="5.45668">
        <ele>358.4</ele>
        <time>2022-06-25T07:41:46Z</time>
      </trkpt>
      <trkpt lat="46.35837" lon="5.45665">
        <ele>358.8</ele>
        <time>2022-06-25T07:41:48Z</time>
      </trkpt>
      <trkpt lat="46.35853" lon="5.45661">
        <ele>359.2</ele>
        <time>2022-06-25T07:41:51Z</time>
      </trkpt>
      <trkpt lat="46.35872" lon="5.45655">
        <ele>360.4</ele>
        <time>2022-06-25T07:41:55Z</time>
      </trkpt>
      <trkpt lat="46.35878" lon="5.45654">
        <ele>360.6</ele>
        <time>2022-06-25T07:41:56Z</time>
      </trkpt>
      <trkpt lat="46.359" lon="5.45649">
        <ele>361.6</ele>
        <time>2022-06-25T07:42:00Z</time>
      </trkpt>
      <trkpt lat="46.35923" lon="5.45643">
        <ele>362.6</ele>
        <time>2022-06-25T07:42:04Z</time>
      </trkpt>
      <trkpt lat="46.35929" lon="5.45641">
        <ele>362.8</ele>
        <time>2022-06-25T07:42:05Z</time>
      </trkpt>
      <trkpt lat="46.35964" lon="5.45637">
        <ele>363.6</ele>
        <time>2022-06-25T07:42:11Z</time>
      </trkpt>
      <trkpt lat="46.36013" lon="5.45641">
        <ele>363.6</ele>
        <time>2022-06-25T07:42:19Z</time>
      </trkpt>
      <trkpt lat="46.36038" lon="5.45644">
        <ele>364</ele>
        <time>2022-06-25T07:42:23Z</time>
      </trkpt>
      <trkpt lat="46.36078" lon="5.45645">
        <ele>364</ele>
        <time>2022-06-25T07:42:29Z</time>
      </trkpt>
      <trkpt lat="46.36133" lon="5.45645">
        <ele>363.8</ele>
        <time>2022-06-25T07:42:37Z</time>
      </trkpt>
      <trkpt lat="46.3618" lon="5.45646">
        <ele>363.8</ele>
        <time>2022-06-25T07:42:44Z</time>
      </trkpt>
      <trkpt lat="46.36236" lon="5.45648">
        <ele>364.8</ele>
        <time>2022-06-25T07:42:53Z</time>
      </trkpt>
      <trkpt lat="46.36249" lon="5.45648">
        <ele>364.8</ele>
        <time>2022-06-25T07:42:55Z</time>
      </trkpt>
      <trkpt lat="46.36255" lon="5.45649">
        <ele>365</ele>
        <time>2022-06-25T07:42:56Z</time>
      </trkpt>
      <trkpt lat="46.36284" lon="5.45651">
        <ele>366</ele>
        <time>2022-06-25T07:43:01Z</time>
      </trkpt>
      <trkpt lat="46.36297" lon="5.45652">
        <ele>366.2</ele>
        <time>2022-06-25T07:43:03Z</time>
      </trkpt>
      <trkpt lat="46.36328" lon="5.45654">
        <ele>366.6</ele>
        <time>2022-06-25T07:43:08Z</time>
      </trkpt>
      <trkpt lat="46.36385" lon="5.4565">
        <ele>367.2</ele>
        <time>2022-06-25T07:43:17Z</time>
      </trkpt>
      <trkpt lat="46.36412" lon="5.45638">
        <ele>367.2</ele>
        <time>2022-06-25T07:43:21Z</time>
      </trkpt>
      <trkpt lat="46.36426" lon="5.45632">
        <ele>367.4</ele>
        <time>2022-06-25T07:43:23Z</time>
      </trkpt>
      <trkpt lat="46.36461" lon="5.4562">
        <ele>367.2</ele>
        <time>2022-06-25T07:43:28Z</time>
      </trkpt>
      <trkpt lat="46.36488" lon="5.45615">
        <ele>366.8</ele>
        <time>2022-06-25T07:43:32Z</time>
      </trkpt>
      <trkpt lat="46.36528" lon="5.45615">
        <ele>367</ele>
        <time>2022-06-25T07:43:38Z</time>
      </trkpt>
      <trkpt lat="46.36575" lon="5.4562">
        <ele>367.4</ele>
        <time>2022-06-25T07:43:45Z</time>
      </trkpt>
      <trkpt lat="46.36621" lon="5.45615">
        <ele>368</ele>
        <time>2022-06-25T07:43:52Z</time>
      </trkpt>
      <trkpt lat="46.36627" lon="5.45613">
        <ele>368.4</ele>
        <time>2022-06-25T07:43:53Z</time>
      </trkpt>
      <trkpt lat="46.36639" lon="5.45611">
        <ele>368.6</ele>
        <time>2022-06-25T07:43:55Z</time>
      </trkpt>
      <trkpt lat="46.3667" lon="5.45606">
        <ele>369.4</ele>
        <time>2022-06-25T07:44:00Z</time>
      </trkpt>
      <trkpt lat="46.36716" lon="5.45598">
        <ele>370.4</ele>
        <time>2022-06-25T07:44:08Z</time>
      </trkpt>
      <trkpt lat="46.36727" lon="5.45597">
        <ele>371.4</ele>
        <time>2022-06-25T07:44:10Z</time>
      </trkpt>
      <trkpt lat="46.36734" lon="5.45597">
        <ele>371.4</ele>
        <time>2022-06-25T07:44:11Z</time>
      </trkpt>
      <trkpt lat="46.36778" lon="5.45595">
        <ele>372.6</ele>
        <time>2022-06-25T07:44:18Z</time>
      </trkpt>
      <trkpt lat="46.36783" lon="5.45594">
        <ele>372.6</ele>
        <time>2022-06-25T07:44:19Z</time>
      </trkpt>
      <trkpt lat="46.36815" lon="5.45594">
        <ele>373.4</ele>
        <time>2022-06-25T07:44:24Z</time>
      </trkpt>
      <trkpt lat="46.36833" lon="5.45595">
        <ele>373.6</ele>
        <time>2022-06-25T07:44:27Z</time>
      </trkpt>
      <trkpt lat="46.3684" lon="5.45596">
        <ele>373.6</ele>
        <time>2022-06-25T07:44:28Z</time>
      </trkpt>
      <trkpt lat="46.36885" lon="5.456">
        <ele>374.4</ele>
        <time>2022-06-25T07:44:35Z</time>
      </trkpt>
      <trkpt lat="46.36898" lon="5.45601">
        <ele>374.4</ele>
        <time>2022-06-25T07:44:37Z</time>
      </trkpt>
      <trkpt lat="46.36945" lon="5.45607">
        <ele>374.6</ele>
        <time>2022-06-25T07:44:44Z</time>
      </trkpt>
      <trkpt lat="46.36999" lon="5.45627">
        <ele>374.6</ele>
        <time>2022-06-25T07:44:52Z</time>
      </trkpt>
      <trkpt lat="46.37011" lon="5.45634">
        <ele>374.8</ele>
        <time>2022-06-25T07:44:54Z</time>
      </trkpt>
      <trkpt lat="46.3704" lon="5.45645">
        <ele>375.4</ele>
        <time>2022-06-25T07:44:59Z</time>
      </trkpt>
      <trkpt lat="46.37083" lon="5.45649">
        <ele>376.4</ele>
        <time>2022-06-25T07:45:06Z</time>
      </trkpt>
      <trkpt lat="46.37087" lon="5.45649">
        <ele>376.6</ele>
        <time>2022-06-25T07:45:07Z</time>
      </trkpt>
      <trkpt lat="46.37124" lon="5.45649">
        <ele>377</ele>
        <time>2022-06-25T07:45:13Z</time>
      </trkpt>
      <trkpt lat="46.37152" lon="5.45647">
        <ele>377.6</ele>
        <time>2022-06-25T07:45:18Z</time>
      </trkpt>
      <trkpt lat="46.37167" lon="5.45647">
        <ele>378</ele>
        <time>2022-06-25T07:45:21Z</time>
      </trkpt>
      <trkpt lat="46.37206" lon="5.45644">
        <ele>378.2</ele>
        <time>2022-06-25T07:45:28Z</time>
      </trkpt>
      <trkpt lat="46.37226" lon="5.45643">
        <ele>378.6</ele>
        <time>2022-06-25T07:45:32Z</time>
      </trkpt>
      <trkpt lat="46.37232" lon="5.45642">
        <ele>378.8</ele>
        <time>2022-06-25T07:45:33Z</time>
      </trkpt>
      <trkpt lat="46.37268" lon="5.45639">
        <ele>380</ele>
        <time>2022-06-25T07:45:40Z</time>
      </trkpt>
      <trkpt lat="46.37273" lon="5.45639">
        <ele>380.2</ele>
        <time>2022-06-25T07:45:41Z</time>
      </trkpt>
      <trkpt lat="46.37308" lon="5.45638">
        <ele>380.8</ele>
        <time>2022-06-25T07:45:48Z</time>
      </trkpt>
      <trkpt lat="46.37312" lon="5.45637">
        <ele>381</ele>
        <time>2022-06-25T07:45:49Z</time>
      </trkpt>
      <trkpt lat="46.37347" lon="5.45637">
        <ele>382.4</ele>
        <time>2022-06-25T07:45:56Z</time>
      </trkpt>
      <trkpt lat="46.37386" lon="5.4564">
        <ele>383.4</ele>
        <time>2022-06-25T07:46:04Z</time>
      </trkpt>
      <trkpt lat="46.37415" lon="5.45642">
        <ele>384.6</ele>
        <time>2022-06-25T07:46:10Z</time>
      </trkpt>
      <trkpt lat="46.3743" lon="5.45641">
        <ele>384.6</ele>
        <time>2022-06-25T07:46:13Z</time>
      </trkpt>
      <trkpt lat="46.37435" lon="5.4564">
        <ele>384.8</ele>
        <time>2022-06-25T07:46:14Z</time>
      </trkpt>
      <trkpt lat="46.3746" lon="5.45633">
        <ele>385.4</ele>
        <time>2022-06-25T07:46:19Z</time>
      </trkpt>
      <trkpt lat="46.3747" lon="5.4563">
        <ele>385.6</ele>
        <time>2022-06-25T07:46:21Z</time>
      </trkpt>
      <trkpt lat="46.37502" lon="5.45615">
        <ele>386.6</ele>
        <time>2022-06-25T07:46:28Z</time>
      </trkpt>
      <trkpt lat="46.37506" lon="5.45612">
        <ele>386.8</ele>
        <time>2022-06-25T07:46:29Z</time>
      </trkpt>
      <trkpt lat="46.37523" lon="5.45605">
        <ele>387.6</ele>
        <time>2022-06-25T07:46:33Z</time>
      </trkpt>
      <trkpt lat="46.3754" lon="5.45598">
        <ele>389</ele>
        <time>2022-06-25T07:46:37Z</time>
      </trkpt>
      <trkpt lat="46.37544" lon="5.45597">
        <ele>389.4</ele>
        <time>2022-06-25T07:46:38Z</time>
      </trkpt>
      <trkpt lat="46.37556" lon="5.45594">
        <ele>390.2</ele>
        <time>2022-06-25T07:46:41Z</time>
      </trkpt>
      <trkpt lat="46.37577" lon="5.45591">
        <ele>391.2</ele>
        <time>2022-06-25T07:46:46Z</time>
      </trkpt>
      <trkpt lat="46.376" lon="5.45589">
        <ele>392.4</ele>
        <time>2022-06-25T07:46:51Z</time>
      </trkpt>
      <trkpt lat="46.37619" lon="5.45589">
        <ele>393.4</ele>
        <time>2022-06-25T07:46:55Z</time>
      </trkpt>
      <trkpt lat="46.37623" lon="5.45589">
        <ele>393.8</ele>
        <time>2022-06-25T07:46:56Z</time>
      </trkpt>
      <trkpt lat="46.37643" lon="5.45589">
        <ele>394.4</ele>
        <time>2022-06-25T07:47:00Z</time>
      </trkpt>
      <trkpt lat="46.37669" lon="5.4559">
        <ele>395</ele>
        <time>2022-06-25T07:47:05Z</time>
      </trkpt>
      <trkpt lat="46.37689" lon="5.4559">
        <ele>395.4</ele>
        <time>2022-06-25T07:47:09Z</time>
      </trkpt>
      <trkpt lat="46.37713" lon="5.45591">
        <ele>395.8</ele>
        <time>2022-06-25T07:47:14Z</time>
      </trkpt>
      <trkpt lat="46.37733" lon="5.45592">
        <ele>396.4</ele>
        <time>2022-06-25T07:47:18Z</time>
      </trkpt>
      <trkpt lat="46.37747" lon="5.45594">
        <ele>396.8</ele>
        <time>2022-06-25T07:47:21Z</time>
      </trkpt>
      <trkpt lat="46.37771" lon="5.45594">
        <ele>397.6</ele>
        <time>2022-06-25T07:47:26Z</time>
      </trkpt>
      <trkpt lat="46.37779" lon="5.45594">
        <ele>398.2</ele>
        <time>2022-06-25T07:47:28Z</time>
      </trkpt>
      <trkpt lat="46.37787" lon="5.45594">
        <ele>398.6</ele>
        <time>2022-06-25T07:47:30Z</time>
      </trkpt>
      <trkpt lat="46.37808" lon="5.45595">
        <ele>399.8</ele>
        <time>2022-06-25T07:47:35Z</time>
      </trkpt>
      <trkpt lat="46.37817" lon="5.45596">
        <ele>400.6</ele>
        <time>2022-06-25T07:47:37Z</time>
      </trkpt>
      <trkpt lat="46.37821" lon="5.45596">
        <ele>401</ele>
        <time>2022-06-25T07:47:38Z</time>
      </trkpt>
      <trkpt lat="46.37838" lon="5.45598">
        <ele>402</ele>
        <time>2022-06-25T07:47:42Z</time>
      </trkpt>
      <trkpt lat="46.3786" lon="5.45599">
        <ele>403</ele>
        <time>2022-06-25T07:47:47Z</time>
      </trkpt>
      <trkpt lat="46.37865" lon="5.45598">
        <ele>403.2</ele>
        <time>2022-06-25T07:47:48Z</time>
      </trkpt>
      <trkpt lat="46.37894" lon="5.45597">
        <ele>404.2</ele>
        <time>2022-06-25T07:47:55Z</time>
      </trkpt>
      <trkpt lat="46.37903" lon="5.45595">
        <ele>405</ele>
        <time>2022-06-25T07:47:57Z</time>
      </trkpt>
      <trkpt lat="46.37918" lon="5.45592">
        <ele>405.4</ele>
        <time>2022-06-25T07:48:00Z</time>
      </trkpt>
      <trkpt lat="46.37932" lon="5.45588">
        <ele>405.8</ele>
        <time>2022-06-25T07:48:03Z</time>
      </trkpt>
      <trkpt lat="46.37938" lon="5.45587">
        <ele>406</ele>
        <time>2022-06-25T07:48:04Z</time>
      </trkpt>
      <trkpt lat="46.37953" lon="5.45584">
        <ele>406.6</ele>
        <time>2022-06-25T07:48:07Z</time>
      </trkpt>
      <trkpt lat="46.37965" lon="5.45583">
        <ele>406.6</ele>
        <time>2022-06-25T07:48:09Z</time>
      </trkpt>
      <trkpt lat="46.3801" lon="5.45584">
        <ele>406.6</ele>
        <time>2022-06-25T07:48:16Z</time>
      </trkpt>
      <trkpt lat="46.3805" lon="5.45595">
        <ele>406.2</ele>
        <time>2022-06-25T07:48:22Z</time>
      </trkpt>
      <trkpt lat="46.38097" lon="5.45609">
        <ele>406</ele>
        <time>2022-06-25T07:48:29Z</time>
      </trkpt>
      <trkpt lat="46.38136" lon="5.45617">
        <ele>405.4</ele>
        <time>2022-06-25T07:48:34Z</time>
      </trkpt>
      <trkpt lat="46.38144" lon="5.45618">
        <ele>405.2</ele>
        <time>2022-06-25T07:48:35Z</time>
      </trkpt>
      <trkpt lat="46.38192" lon="5.45621">
        <ele>404</ele>
        <time>2022-06-25T07:48:40Z</time>
      </trkpt>
      <trkpt lat="46.3823" lon="5.45623">
        <ele>402.4</ele>
        <time>2022-06-25T07:48:44Z</time>
      </trkpt>
      <trkpt lat="46.38249" lon="5.45624">
        <ele>401.6</ele>
        <time>2022-06-25T07:48:46Z</time>
      </trkpt>
      <trkpt lat="46.38259" lon="5.45625">
        <ele>401.4</ele>
        <time>2022-06-25T07:48:47Z</time>
      </trkpt>
      <trkpt lat="46.38295" lon="5.4563">
        <ele>400.2</ele>
        <time>2022-06-25T07:48:51Z</time>
      </trkpt>
      <trkpt lat="46.38305" lon="5.45631">
        <ele>400</ele>
        <time>2022-06-25T07:48:52Z</time>
      </trkpt>
      <trkpt lat="46.38326" lon="5.45634">
        <ele>399.6</ele>
        <time>2022-06-25T07:48:54Z</time>
      </trkpt>
      <trkpt lat="46.38345" lon="5.45637">
        <ele>399.2</ele>
        <time>2022-06-25T07:48:56Z</time>
      </trkpt>
      <trkpt lat="46.38393" lon="5.45647">
        <ele>398</ele>
        <time>2022-06-25T07:49:01Z</time>
      </trkpt>
      <trkpt lat="46.38412" lon="5.45651">
        <ele>397.2</ele>
        <time>2022-06-25T07:49:03Z</time>
      </trkpt>
      <trkpt lat="46.38419" lon="5.45653">
        <ele>396.8</ele>
        <time>2022-06-25T07:49:04Z</time>
      </trkpt>
      <trkpt lat="46.38468" lon="5.45658">
        <ele>395.8</ele>
        <time>2022-06-25T07:49:09Z</time>
      </trkpt>
      <trkpt lat="46.38479" lon="5.45659">
        <ele>395.4</ele>
        <time>2022-06-25T07:49:10Z</time>
      </trkpt>
      <trkpt lat="46.38511" lon="5.4566">
        <ele>394.6</ele>
        <time>2022-06-25T07:49:13Z</time>
      </trkpt>
      <trkpt lat="46.38533" lon="5.45658">
        <ele>393</ele>
        <time>2022-06-25T07:49:15Z</time>
      </trkpt>
      <trkpt lat="46.38544" lon="5.45657">
        <ele>392.8</ele>
        <time>2022-06-25T07:49:16Z</time>
      </trkpt>
      <trkpt lat="46.38566" lon="5.45653">
        <ele>392</ele>
        <time>2022-06-25T07:49:18Z</time>
      </trkpt>
      <trkpt lat="46.38601" lon="5.45646">
        <ele>390.2</ele>
        <time>2022-06-25T07:49:21Z</time>
      </trkpt>
      <trkpt lat="46.38619" lon="5.45643">
        <ele>389.4</ele>
        <time>2022-06-25T07:49:23Z</time>
      </trkpt>
      <trkpt lat="46.38631" lon="5.45641">
        <ele>389.2</ele>
        <time>2022-06-25T07:49:24Z</time>
      </trkpt>
      <trkpt lat="46.38674" lon="5.45636">
        <ele>388.6</ele>
        <time>2022-06-25T07:49:29Z</time>
      </trkpt>
      <trkpt lat="46.38718" lon="5.45641">
        <ele>388.4</ele>
        <time>2022-06-25T07:49:34Z</time>
      </trkpt>
      <trkpt lat="46.38735" lon="5.45642">
        <ele>388.2</ele>
        <time>2022-06-25T07:49:36Z</time>
      </trkpt>
      <trkpt lat="46.38776" lon="5.45646">
        <ele>387.8</ele>
        <time>2022-06-25T07:49:41Z</time>
      </trkpt>
      <trkpt lat="46.3882" lon="5.45653">
        <ele>387.4</ele>
        <time>2022-06-25T07:49:47Z</time>
      </trkpt>
      <trkpt lat="46.38848" lon="5.45653">
        <ele>388</ele>
        <time>2022-06-25T07:49:51Z</time>
      </trkpt>
      <trkpt lat="46.38861" lon="5.45651">
        <ele>388.2</ele>
        <time>2022-06-25T07:49:53Z</time>
      </trkpt>
      <trkpt lat="46.38913" lon="5.4565">
        <ele>389</ele>
        <time>2022-06-25T07:50:00Z</time>
      </trkpt>
      <trkpt lat="46.38972" lon="5.45658">
        <ele>389.2</ele>
        <time>2022-06-25T07:50:08Z</time>
      </trkpt>
      <trkpt lat="46.3898" lon="5.45658">
        <ele>389.2</ele>
        <time>2022-06-25T07:50:09Z</time>
      </trkpt>
      <trkpt lat="46.39036" lon="5.45652">
        <ele>388.2</ele>
        <time>2022-06-25T07:50:16Z</time>
      </trkpt>
      <trkpt lat="46.39084" lon="5.45641">
        <ele>387.2</ele>
        <time>2022-06-25T07:50:22Z</time>
      </trkpt>
      <trkpt lat="46.39092" lon="5.45639">
        <ele>387</ele>
        <time>2022-06-25T07:50:23Z</time>
      </trkpt>
      <trkpt lat="46.39149" lon="5.4562">
        <ele>386.2</ele>
        <time>2022-06-25T07:50:30Z</time>
      </trkpt>
      <trkpt lat="46.39157" lon="5.45617">
        <ele>386</ele>
        <time>2022-06-25T07:50:31Z</time>
      </trkpt>
      <trkpt lat="46.39199" lon="5.45605">
        <ele>384.8</ele>
        <time>2022-06-25T07:50:36Z</time>
      </trkpt>
      <trkpt lat="46.39207" lon="5.45603">
        <ele>384.8</ele>
        <time>2022-06-25T07:50:37Z</time>
      </trkpt>
      <trkpt lat="46.39253" lon="5.45584">
        <ele>384.4</ele>
        <time>2022-06-25T07:50:43Z</time>
      </trkpt>
      <trkpt lat="46.39303" lon="5.45562">
        <ele>384.2</ele>
        <time>2022-06-25T07:50:50Z</time>
      </trkpt>
      <trkpt lat="46.39325" lon="5.4555">
        <ele>384</ele>
        <time>2022-06-25T07:50:54Z</time>
      </trkpt>
      <trkpt lat="46.39332" lon="5.45553">
        <ele>384</ele>
        <time>2022-06-25T07:50:56Z</time>
      </trkpt>
      <trkpt lat="46.39334" lon="5.4557">
        <ele>383.8</ele>
        <time>2022-06-25T07:50:58Z</time>
      </trkpt>
      <trkpt lat="46.39328" lon="5.45613">
        <ele>383.4</ele>
        <time>2022-06-25T07:51:02Z</time>
      </trkpt>
      <trkpt lat="46.39325" lon="5.4565">
        <ele>382.8</ele>
        <time>2022-06-25T07:51:05Z</time>
      </trkpt>
      <trkpt lat="46.39324" lon="5.45688">
        <ele>381.2</ele>
        <time>2022-06-25T07:51:08Z</time>
      </trkpt>
      <trkpt lat="46.39327" lon="5.45713">
        <ele>380.4</ele>
        <time>2022-06-25T07:51:10Z</time>
      </trkpt>
      <trkpt lat="46.3933" lon="5.45721">
        <ele>380.2</ele>
        <time>2022-06-25T07:51:11Z</time>
      </trkpt>
      <trkpt lat="46.39336" lon="5.45729">
        <ele>380.2</ele>
        <time>2022-06-25T07:51:12Z</time>
      </trkpt>
      <trkpt lat="46.39343" lon="5.45733">
        <ele>380</ele>
        <time>2022-06-25T07:51:13Z</time>
      </trkpt>
      <trkpt lat="46.3935" lon="5.45736">
        <ele>380</ele>
        <time>2022-06-25T07:51:14Z</time>
      </trkpt>
      <trkpt lat="46.39367" lon="5.4574">
        <ele>379.8</ele>
        <time>2022-06-25T07:51:16Z</time>
      </trkpt>
      <trkpt lat="46.39408" lon="5.45746">
        <ele>379.6</ele>
        <time>2022-06-25T07:51:21Z</time>
      </trkpt>
      <trkpt lat="46.39468" lon="5.45757">
        <ele>379.8</ele>
        <time>2022-06-25T07:51:29Z</time>
      </trkpt>
      <trkpt lat="46.39506" lon="5.45767">
        <ele>379.8</ele>
        <time>2022-06-25T07:51:34Z</time>
      </trkpt>
      <trkpt lat="46.39512" lon="5.45769">
        <ele>379.6</ele>
        <time>2022-06-25T07:51:35Z</time>
      </trkpt>
      <trkpt lat="46.39569" lon="5.45791">
        <ele>380.2</ele>
        <time>2022-06-25T07:51:43Z</time>
      </trkpt>
      <trkpt lat="46.39604" lon="5.45794">
        <ele>380.4</ele>
        <time>2022-06-25T07:51:47Z</time>
      </trkpt>
      <trkpt lat="46.39647" lon="5.45792">
        <ele>379.8</ele>
        <time>2022-06-25T07:51:52Z</time>
      </trkpt>
      <trkpt lat="46.39656" lon="5.4579">
        <ele>379.6</ele>
        <time>2022-06-25T07:51:53Z</time>
      </trkpt>
      <trkpt lat="46.39665" lon="5.45787">
        <ele>379.4</ele>
        <time>2022-06-25T07:51:54Z</time>
      </trkpt>
      <trkpt lat="46.39684" lon="5.45781">
        <ele>378.4</ele>
        <time>2022-06-25T07:51:56Z</time>
      </trkpt>
      <trkpt lat="46.3973" lon="5.45768">
        <ele>377.2</ele>
        <time>2022-06-25T07:52:00Z</time>
      </trkpt>
      <trkpt lat="46.39739" lon="5.45765">
        <ele>376.8</ele>
        <time>2022-06-25T07:52:01Z</time>
      </trkpt>
      <trkpt lat="46.39774" lon="5.45751">
        <ele>376</ele>
        <time>2022-06-25T07:52:05Z</time>
      </trkpt>
      <trkpt lat="46.39795" lon="5.45741">
        <ele>375.8</ele>
        <time>2022-06-25T07:52:07Z</time>
      </trkpt>
      <trkpt lat="46.39815" lon="5.45732">
        <ele>374.4</ele>
        <time>2022-06-25T07:52:09Z</time>
      </trkpt>
      <trkpt lat="46.39845" lon="5.45722">
        <ele>373.2</ele>
        <time>2022-06-25T07:52:12Z</time>
      </trkpt>
      <trkpt lat="46.39856" lon="5.45721">
        <ele>372.8</ele>
        <time>2022-06-25T07:52:13Z</time>
      </trkpt>
      <trkpt lat="46.39876" lon="5.45719">
        <ele>371.4</ele>
        <time>2022-06-25T07:52:15Z</time>
      </trkpt>
      <trkpt lat="46.39896" lon="5.45721">
        <ele>370.4</ele>
        <time>2022-06-25T07:52:17Z</time>
      </trkpt>
      <trkpt lat="46.39905" lon="5.45721">
        <ele>370</ele>
        <time>2022-06-25T07:52:18Z</time>
      </trkpt>
      <trkpt lat="46.39942" lon="5.45724">
        <ele>369.2</ele>
        <time>2022-06-25T07:52:22Z</time>
      </trkpt>
      <trkpt lat="46.39977" lon="5.45727">
        <ele>368.4</ele>
        <time>2022-06-25T07:52:26Z</time>
      </trkpt>
      <trkpt lat="46.40003" lon="5.45727">
        <ele>368</ele>
        <time>2022-06-25T07:52:29Z</time>
      </trkpt>
      <trkpt lat="46.4001" lon="5.45724">
        <ele>367.8</ele>
        <time>2022-06-25T07:52:30Z</time>
      </trkpt>
      <trkpt lat="46.40046" lon="5.45711">
        <ele>367</ele>
        <time>2022-06-25T07:52:34Z</time>
      </trkpt>
      <trkpt lat="46.40062" lon="5.45708">
        <ele>366.2</ele>
        <time>2022-06-25T07:52:36Z</time>
      </trkpt>
      <trkpt lat="46.40083" lon="5.45711">
        <ele>365.4</ele>
        <time>2022-06-25T07:52:38Z</time>
      </trkpt>
      <trkpt lat="46.40102" lon="5.45718">
        <ele>364.8</ele>
        <time>2022-06-25T07:52:40Z</time>
      </trkpt>
      <trkpt lat="46.40109" lon="5.45721">
        <ele>364.2</ele>
        <time>2022-06-25T07:52:41Z</time>
      </trkpt>
      <trkpt lat="46.40138" lon="5.45733">
        <ele>363.2</ele>
        <time>2022-06-25T07:52:44Z</time>
      </trkpt>
      <trkpt lat="46.40146" lon="5.45735">
        <ele>362.4</ele>
        <time>2022-06-25T07:52:45Z</time>
      </trkpt>
      <trkpt lat="46.40156" lon="5.45734">
        <ele>361.8</ele>
        <time>2022-06-25T07:52:46Z</time>
      </trkpt>
      <trkpt lat="46.40167" lon="5.4573">
        <ele>361.6</ele>
        <time>2022-06-25T07:52:47Z</time>
      </trkpt>
      <trkpt lat="46.40176" lon="5.45714">
        <ele>361</ele>
        <time>2022-06-25T07:52:49Z</time>
      </trkpt>
      <trkpt lat="46.40174" lon="5.45702">
        <ele>360.8</ele>
        <time>2022-06-25T07:52:50Z</time>
      </trkpt>
      <trkpt lat="46.40173" lon="5.45687">
        <ele>360.6</ele>
        <time>2022-06-25T07:52:51Z</time>
      </trkpt>
      <trkpt lat="46.4017" lon="5.45653">
        <ele>359.6</ele>
        <time>2022-06-25T07:52:53Z</time>
      </trkpt>
      <trkpt lat="46.40168" lon="5.45627">
        <ele>358.8</ele>
        <time>2022-06-25T07:52:55Z</time>
      </trkpt>
      <trkpt lat="46.40166" lon="5.45609">
        <ele>358.6</ele>
        <time>2022-06-25T07:52:56Z</time>
      </trkpt>
      <trkpt lat="46.40163" lon="5.45555">
        <ele>357.6</ele>
        <time>2022-06-25T07:53:00Z</time>
      </trkpt>
      <trkpt lat="46.40163" lon="5.45541">
        <ele>357.4</ele>
        <time>2022-06-25T07:53:01Z</time>
      </trkpt>
      <trkpt lat="46.40164" lon="5.45525">
        <ele>357.4</ele>
        <time>2022-06-25T07:53:02Z</time>
      </trkpt>
      <trkpt lat="46.40167" lon="5.45512">
        <ele>357.4</ele>
        <time>2022-06-25T07:53:03Z</time>
      </trkpt>
      <trkpt lat="46.40175" lon="5.45489">
        <ele>357.2</ele>
        <time>2022-06-25T07:53:05Z</time>
      </trkpt>
      <trkpt lat="46.4021" lon="5.45422">
        <ele>357</ele>
        <time>2022-06-25T07:53:12Z</time>
      </trkpt>
      <trkpt lat="46.4021" lon="5.45422">
        <ele>357.2</ele>
        <time>2022-06-25T07:53:13Z</time>
      </trkpt>
      <trkpt lat="46.40243" lon="5.45361">
        <ele>357.4</ele>
        <time>2022-06-25T07:53:19Z</time>
      </trkpt>
      <trkpt lat="46.40248" lon="5.45341">
        <ele>357.6</ele>
        <time>2022-06-25T07:53:21Z</time>
      </trkpt>
      <trkpt lat="46.40247" lon="5.45331">
        <ele>357.6</ele>
        <time>2022-06-25T07:53:22Z</time>
      </trkpt>
      <trkpt lat="46.40243" lon="5.4532">
        <ele>357.6</ele>
        <time>2022-06-25T07:53:23Z</time>
      </trkpt>
      <trkpt lat="46.40238" lon="5.45313">
        <ele>357.4</ele>
        <time>2022-06-25T07:53:24Z</time>
      </trkpt>
      <trkpt lat="46.40233" lon="5.45308">
        <ele>357.4</ele>
        <time>2022-06-25T07:53:25Z</time>
      </trkpt>
      <trkpt lat="46.40205" lon="5.45273">
        <ele>357</ele>
        <time>2022-06-25T07:53:30Z</time>
      </trkpt>
      <trkpt lat="46.40201" lon="5.45257">
        <ele>356.8</ele>
        <time>2022-06-25T07:53:32Z</time>
      </trkpt>
      <trkpt lat="46.40201" lon="5.4525">
        <ele>356.8</ele>
        <time>2022-06-25T07:53:33Z</time>
      </trkpt>
      <trkpt lat="46.40203" lon="5.45239">
        <ele>356.6</ele>
        <time>2022-06-25T07:53:36Z</time>
      </trkpt>
      <trkpt lat="46.40204" lon="5.45238">
        <ele>356.4</ele>
        <time>2022-06-25T07:53:37Z</time>
      </trkpt>
      <trkpt lat="46.40204" lon="5.45237">
        <ele>356.2</ele>
        <time>2022-06-25T07:53:40Z</time>
      </trkpt>
      <trkpt lat="46.40202" lon="5.45231">
        <ele>356</ele>
        <time>2022-06-25T07:53:48Z</time>
      </trkpt>
      <trkpt lat="46.40186" lon="5.45232">
        <ele>355.8</ele>
        <time>2022-06-25T07:53:51Z</time>
      </trkpt>
      <trkpt lat="46.40167" lon="5.45233">
        <ele>355.8</ele>
        <time>2022-06-25T07:53:54Z</time>
      </trkpt>
      <trkpt lat="46.40154" lon="5.4524">
        <ele>355.6</ele>
        <time>2022-06-25T07:53:56Z</time>
      </trkpt>
      <trkpt lat="46.40127" lon="5.45252">
        <ele>355.8</ele>
        <time>2022-06-25T07:54:00Z</time>
      </trkpt>
      <trkpt lat="46.40111" lon="5.45259">
        <ele>356</ele>
        <time>2022-06-25T07:54:02Z</time>
      </trkpt>
      <trkpt lat="46.40088" lon="5.4526">
        <ele>356</ele>
        <time>2022-06-25T07:54:05Z</time>
      </trkpt>
      <trkpt lat="46.40034" lon="5.45267">
        <ele>355.8</ele>
        <time>2022-06-25T07:54:12Z</time>
      </trkpt>
      <trkpt lat="46.40026" lon="5.45268">
        <ele>355.8</ele>
        <time>2022-06-25T07:54:13Z</time>
      </trkpt>
      <trkpt lat="46.39967" lon="5.45274">
        <ele>355.8</ele>
        <time>2022-06-25T07:54:21Z</time>
      </trkpt>
      <trkpt lat="46.39923" lon="5.45279">
        <ele>355.8</ele>
        <time>2022-06-25T07:54:27Z</time>
      </trkpt>
      <trkpt lat="46.39863" lon="5.45288">
        <ele>355.8</ele>
        <time>2022-06-25T07:54:35Z</time>
      </trkpt>
      <trkpt lat="46.39857" lon="5.45288">
        <ele>356</ele>
        <time>2022-06-25T07:54:36Z</time>
      </trkpt>
      <trkpt lat="46.39815" lon="5.4529">
        <ele>356.2</ele>
        <time>2022-06-25T07:54:42Z</time>
      </trkpt>
      <trkpt lat="46.39809" lon="5.45289">
        <ele>356.4</ele>
        <time>2022-06-25T07:54:43Z</time>
      </trkpt>
      <trkpt lat="46.39802" lon="5.45286">
        <ele>356.6</ele>
        <time>2022-06-25T07:54:44Z</time>
      </trkpt>
      <trkpt lat="46.39791" lon="5.45277">
        <ele>357</ele>
        <time>2022-06-25T07:54:46Z</time>
      </trkpt>
      <trkpt lat="46.39785" lon="5.45272">
        <ele>357</ele>
        <time>2022-06-25T07:54:47Z</time>
      </trkpt>
      <trkpt lat="46.3978" lon="5.45267">
        <ele>357.4</ele>
        <time>2022-06-25T07:54:48Z</time>
      </trkpt>
      <trkpt lat="46.39773" lon="5.45263">
        <ele>357.6</ele>
        <time>2022-06-25T07:54:49Z</time>
      </trkpt>
      <trkpt lat="46.39753" lon="5.4525">
        <ele>358</ele>
        <time>2022-06-25T07:54:52Z</time>
      </trkpt>
      <trkpt lat="46.39697" lon="5.45215">
        <ele>357</ele>
        <time>2022-06-25T07:55:00Z</time>
      </trkpt>
      <trkpt lat="46.39691" lon="5.45211">
        <ele>357</ele>
        <time>2022-06-25T07:55:01Z</time>
      </trkpt>
      <trkpt lat="46.39677" lon="5.45203">
        <ele>356.4</ele>
        <time>2022-06-25T07:55:03Z</time>
      </trkpt>
      <trkpt lat="46.39644" lon="5.45179">
        <ele>355.8</ele>
        <time>2022-06-25T07:55:08Z</time>
      </trkpt>
      <trkpt lat="46.39639" lon="5.45174">
        <ele>355.8</ele>
        <time>2022-06-25T07:55:09Z</time>
      </trkpt>
      <trkpt lat="46.39636" lon="5.45167">
        <ele>355.6</ele>
        <time>2022-06-25T07:55:10Z</time>
      </trkpt>
      <trkpt lat="46.39635" lon="5.45159">
        <ele>355.6</ele>
        <time>2022-06-25T07:55:11Z</time>
      </trkpt>
      <trkpt lat="46.39637" lon="5.45151">
        <ele>355.6</ele>
        <time>2022-06-25T07:55:12Z</time>
      </trkpt>
      <trkpt lat="46.39641" lon="5.45143">
        <ele>355.6</ele>
        <time>2022-06-25T07:55:13Z</time>
      </trkpt>
      <trkpt lat="46.39641" lon="5.45143">
        <ele>355.4</ele>
        <time>2022-06-25T07:55:14Z</time>
      </trkpt>
      <trkpt lat="46.39649" lon="5.45131">
        <ele>355.4</ele>
        <time>2022-06-25T07:55:15Z</time>
      </trkpt>
      <trkpt lat="46.39652" lon="5.45123">
        <ele>355.4</ele>
        <time>2022-06-25T07:55:16Z</time>
      </trkpt>
      <trkpt lat="46.39676" lon="5.45061">
        <ele>355.6</ele>
        <time>2022-06-25T07:55:24Z</time>
      </trkpt>
      <trkpt lat="46.39699" lon="5.44989">
        <ele>356</ele>
        <time>2022-06-25T07:55:32Z</time>
      </trkpt>
      <trkpt lat="46.39708" lon="5.44962">
        <ele>355.8</ele>
        <time>2022-06-25T07:55:35Z</time>
      </trkpt>
      <trkpt lat="46.39721" lon="5.4494">
        <ele>355.8</ele>
        <time>2022-06-25T07:55:38Z</time>
      </trkpt>
      <trkpt lat="46.39755" lon="5.44889">
        <ele>356</ele>
        <time>2022-06-25T07:55:46Z</time>
      </trkpt>
      <trkpt lat="46.39759" lon="5.44882">
        <ele>356</ele>
        <time>2022-06-25T07:55:47Z</time>
      </trkpt>
      <trkpt lat="46.39775" lon="5.44858">
        <ele>356.4</ele>
        <time>2022-06-25T07:55:51Z</time>
      </trkpt>
      <trkpt lat="46.39785" lon="5.44841">
        <ele>356.8</ele>
        <time>2022-06-25T07:55:54Z</time>
      </trkpt>
      <trkpt lat="46.39789" lon="5.44835">
        <ele>357.2</ele>
        <time>2022-06-25T07:55:55Z</time>
      </trkpt>
      <trkpt lat="46.39804" lon="5.44813">
        <ele>357.6</ele>
        <time>2022-06-25T07:55:59Z</time>
      </trkpt>
      <trkpt lat="46.39812" lon="5.448">
        <ele>358</ele>
        <time>2022-06-25T07:56:01Z</time>
      </trkpt>
      <trkpt lat="46.39824" lon="5.44782">
        <ele>358.8</ele>
        <time>2022-06-25T07:56:04Z</time>
      </trkpt>
      <trkpt lat="46.39848" lon="5.44742">
        <ele>359.6</ele>
        <time>2022-06-25T07:56:10Z</time>
      </trkpt>
      <trkpt lat="46.39876" lon="5.44694">
        <ele>360</ele>
        <time>2022-06-25T07:56:17Z</time>
      </trkpt>
      <trkpt lat="46.39879" lon="5.44688">
        <ele>360</ele>
        <time>2022-06-25T07:56:18Z</time>
      </trkpt>
      <trkpt lat="46.39911" lon="5.44637">
        <ele>360</ele>
        <time>2022-06-25T07:56:26Z</time>
      </trkpt>
      <trkpt lat="46.39915" lon="5.44631">
        <ele>360</ele>
        <time>2022-06-25T07:56:27Z</time>
      </trkpt>
      <trkpt lat="46.39934" lon="5.44612">
        <ele>360.2</ele>
        <time>2022-06-25T07:56:31Z</time>
      </trkpt>
      <trkpt lat="46.39976" lon="5.44584">
        <ele>360.4</ele>
        <time>2022-06-25T07:56:39Z</time>
      </trkpt>
      <trkpt lat="46.40021" lon="5.44557">
        <ele>361.2</ele>
        <time>2022-06-25T07:56:47Z</time>
      </trkpt>
      <trkpt lat="46.4007" lon="5.44527">
        <ele>360.8</ele>
        <time>2022-06-25T07:56:55Z</time>
      </trkpt>
      <trkpt lat="46.40113" lon="5.44495">
        <ele>361</ele>
        <time>2022-06-25T07:57:02Z</time>
      </trkpt>
      <trkpt lat="46.40158" lon="5.44452">
        <ele>361</ele>
        <time>2022-06-25T07:57:10Z</time>
      </trkpt>
      <trkpt lat="46.40201" lon="5.44407">
        <ele>360.8</ele>
        <time>2022-06-25T07:57:18Z</time>
      </trkpt>
      <trkpt lat="46.40231" lon="5.44356">
        <ele>361</ele>
        <time>2022-06-25T07:57:25Z</time>
      </trkpt>
      <trkpt lat="46.40237" lon="5.4434">
        <ele>361.2</ele>
        <time>2022-06-25T07:57:27Z</time>
      </trkpt>
      <trkpt lat="46.40242" lon="5.44314">
        <ele>361.6</ele>
        <time>2022-06-25T07:57:30Z</time>
      </trkpt>
      <trkpt lat="46.40243" lon="5.44305">
        <ele>362</ele>
        <time>2022-06-25T07:57:31Z</time>
      </trkpt>
      <trkpt lat="46.40243" lon="5.44295">
        <ele>362.2</ele>
        <time>2022-06-25T07:57:32Z</time>
      </trkpt>
      <trkpt lat="46.40241" lon="5.44278">
        <ele>362.4</ele>
        <time>2022-06-25T07:57:34Z</time>
      </trkpt>
      <trkpt lat="46.40235" lon="5.44228">
        <ele>363.2</ele>
        <time>2022-06-25T07:57:40Z</time>
      </trkpt>
      <trkpt lat="46.40233" lon="5.44222">
        <ele>363.4</ele>
        <time>2022-06-25T07:57:41Z</time>
      </trkpt>
      <trkpt lat="46.40224" lon="5.44158">
        <ele>364.2</ele>
        <time>2022-06-25T07:57:49Z</time>
      </trkpt>
      <trkpt lat="46.40223" lon="5.44148">
        <ele>364.4</ele>
        <time>2022-06-25T07:57:50Z</time>
      </trkpt>
      <trkpt lat="46.40223" lon="5.4414">
        <ele>364.4</ele>
        <time>2022-06-25T07:57:51Z</time>
      </trkpt>
      <trkpt lat="46.40224" lon="5.44101">
        <ele>365</ele>
        <time>2022-06-25T07:57:56Z</time>
      </trkpt>
      <trkpt lat="46.40225" lon="5.44095">
        <ele>365.4</ele>
        <time>2022-06-25T07:57:57Z</time>
      </trkpt>
      <trkpt lat="46.40229" lon="5.44071">
        <ele>366</ele>
        <time>2022-06-25T07:58:00Z</time>
      </trkpt>
      <trkpt lat="46.40234" lon="5.4406">
        <ele>366.4</ele>
        <time>2022-06-25T07:58:02Z</time>
      </trkpt>
      <trkpt lat="46.40238" lon="5.44054">
        <ele>366.6</ele>
        <time>2022-06-25T07:58:03Z</time>
      </trkpt>
      <trkpt lat="46.40253" lon="5.44031">
        <ele>367.8</ele>
        <time>2022-06-25T07:58:07Z</time>
      </trkpt>
      <trkpt lat="46.40291" lon="5.43987">
        <ele>368.4</ele>
        <time>2022-06-25T07:58:15Z</time>
      </trkpt>
      <trkpt lat="46.40315" lon="5.43954">
        <ele>368.4</ele>
        <time>2022-06-25T07:58:20Z</time>
      </trkpt>
      <trkpt lat="46.40345" lon="5.43912">
        <ele>368.4</ele>
        <time>2022-06-25T07:58:26Z</time>
      </trkpt>
      <trkpt lat="46.40375" lon="5.43872">
        <ele>368</ele>
        <time>2022-06-25T07:58:32Z</time>
      </trkpt>
      <trkpt lat="46.4039" lon="5.43852">
        <ele>368</ele>
        <time>2022-06-25T07:58:35Z</time>
      </trkpt>
      <trkpt lat="46.40416" lon="5.4382">
        <ele>368</ele>
        <time>2022-06-25T07:58:40Z</time>
      </trkpt>
      <trkpt lat="46.40461" lon="5.43763">
        <ele>368.4</ele>
        <time>2022-06-25T07:58:49Z</time>
      </trkpt>
      <trkpt lat="46.40475" lon="5.43742">
        <ele>368.4</ele>
        <time>2022-06-25T07:58:52Z</time>
      </trkpt>
      <trkpt lat="46.40489" lon="5.43722">
        <ele>368.4</ele>
        <time>2022-06-25T07:58:55Z</time>
      </trkpt>
      <trkpt lat="46.40503" lon="5.43703">
        <ele>368.4</ele>
        <time>2022-06-25T07:58:58Z</time>
      </trkpt>
      <trkpt lat="46.40515" lon="5.43694">
        <ele>368.4</ele>
        <time>2022-06-25T07:59:00Z</time>
      </trkpt>
      <trkpt lat="46.40521" lon="5.43691">
        <ele>368.4</ele>
        <time>2022-06-25T07:59:01Z</time>
      </trkpt>
      <trkpt lat="46.40547" lon="5.43683">
        <ele>368.2</ele>
        <time>2022-06-25T07:59:05Z</time>
      </trkpt>
      <trkpt lat="46.40587" lon="5.43677">
        <ele>368.6</ele>
        <time>2022-06-25T07:59:11Z</time>
      </trkpt>
      <trkpt lat="46.40632" lon="5.43675">
        <ele>369.2</ele>
        <time>2022-06-25T07:59:18Z</time>
      </trkpt>
      <trkpt lat="46.4065" lon="5.43675">
        <ele>369.2</ele>
        <time>2022-06-25T07:59:21Z</time>
      </trkpt>
      <trkpt lat="46.40666" lon="5.43676">
        <ele>369.4</ele>
        <time>2022-06-25T07:59:24Z</time>
      </trkpt>
      <trkpt lat="46.40677" lon="5.43677">
        <ele>369.8</ele>
        <time>2022-06-25T07:59:26Z</time>
      </trkpt>
      <trkpt lat="46.407" lon="5.4368">
        <ele>371</ele>
        <time>2022-06-25T07:59:30Z</time>
      </trkpt>
      <trkpt lat="46.40737" lon="5.43685">
        <ele>372</ele>
        <time>2022-06-25T07:59:36Z</time>
      </trkpt>
      <trkpt lat="46.40778" lon="5.43688">
        <ele>372.6</ele>
        <time>2022-06-25T07:59:42Z</time>
      </trkpt>
      <trkpt lat="46.408" lon="5.43683">
        <ele>372.6</ele>
        <time>2022-06-25T07:59:45Z</time>
      </trkpt>
      <trkpt lat="46.40813" lon="5.43681">
        <ele>372.6</ele>
        <time>2022-06-25T07:59:47Z</time>
      </trkpt>
      <trkpt lat="46.40833" lon="5.43675">
        <ele>372.4</ele>
        <time>2022-06-25T07:59:50Z</time>
      </trkpt>
      <trkpt lat="46.40858" lon="5.43667">
        <ele>372</ele>
        <time>2022-06-25T07:59:54Z</time>
      </trkpt>
      <trkpt lat="46.40878" lon="5.43661">
        <ele>372.4</ele>
        <time>2022-06-25T07:59:57Z</time>
      </trkpt>
      <trkpt lat="46.40892" lon="5.43659">
        <ele>372.4</ele>
        <time>2022-06-25T07:59:59Z</time>
      </trkpt>
      <trkpt lat="46.40919" lon="5.43652">
        <ele>372.2</ele>
        <time>2022-06-25T08:00:03Z</time>
      </trkpt>
      <trkpt lat="46.40938" lon="5.43643">
        <ele>372.4</ele>
        <time>2022-06-25T08:00:06Z</time>
      </trkpt>
      <trkpt lat="46.4098" lon="5.43616">
        <ele>372.4</ele>
        <time>2022-06-25T08:00:13Z</time>
      </trkpt>
      <trkpt lat="46.41016" lon="5.4359">
        <ele>372.6</ele>
        <time>2022-06-25T08:00:19Z</time>
      </trkpt>
      <trkpt lat="46.41022" lon="5.43586">
        <ele>372.6</ele>
        <time>2022-06-25T08:00:20Z</time>
      </trkpt>
      <trkpt lat="46.41064" lon="5.43555">
        <ele>373</ele>
        <time>2022-06-25T08:00:27Z</time>
      </trkpt>
      <trkpt lat="46.41076" lon="5.43547">
        <ele>373</ele>
        <time>2022-06-25T08:00:29Z</time>
      </trkpt>
      <trkpt lat="46.41125" lon="5.43513">
        <ele>372.8</ele>
        <time>2022-06-25T08:00:37Z</time>
      </trkpt>
      <trkpt lat="46.41143" lon="5.43502">
        <ele>372.6</ele>
        <time>2022-06-25T08:00:40Z</time>
      </trkpt>
      <trkpt lat="46.41191" lon="5.43469">
        <ele>372.6</ele>
        <time>2022-06-25T08:00:48Z</time>
      </trkpt>
      <trkpt lat="46.41225" lon="5.43437">
        <ele>372.6</ele>
        <time>2022-06-25T08:00:54Z</time>
      </trkpt>
      <trkpt lat="46.41251" lon="5.43394">
        <ele>372.6</ele>
        <time>2022-06-25T08:01:00Z</time>
      </trkpt>
      <trkpt lat="46.41274" lon="5.43333">
        <ele>372.8</ele>
        <time>2022-06-25T08:01:07Z</time>
      </trkpt>
      <trkpt lat="46.41302" lon="5.43271">
        <ele>372.8</ele>
        <time>2022-06-25T08:01:15Z</time>
      </trkpt>
      <trkpt lat="46.41315" lon="5.43253">
        <ele>373.6</ele>
        <time>2022-06-25T08:01:18Z</time>
      </trkpt>
      <trkpt lat="46.41326" lon="5.43245">
        <ele>374</ele>
        <time>2022-06-25T08:01:20Z</time>
      </trkpt>
      <trkpt lat="46.41335" lon="5.43238">
        <ele>374.2</ele>
        <time>2022-06-25T08:01:22Z</time>
      </trkpt>
      <trkpt lat="46.41348" lon="5.43232">
        <ele>374.6</ele>
        <time>2022-06-25T08:01:24Z</time>
      </trkpt>
      <trkpt lat="46.41375" lon="5.43226">
        <ele>375.2</ele>
        <time>2022-06-25T08:01:28Z</time>
      </trkpt>
      <trkpt lat="46.41395" lon="5.43224">
        <ele>375.4</ele>
        <time>2022-06-25T08:01:31Z</time>
      </trkpt>
      <trkpt lat="46.41447" lon="5.43219">
        <ele>376</ele>
        <time>2022-06-25T08:01:39Z</time>
      </trkpt>
      <trkpt lat="46.4146" lon="5.43218">
        <ele>376.2</ele>
        <time>2022-06-25T08:01:41Z</time>
      </trkpt>
      <trkpt lat="46.41485" lon="5.43216">
        <ele>376.4</ele>
        <time>2022-06-25T08:01:45Z</time>
      </trkpt>
      <trkpt lat="46.41492" lon="5.43214">
        <ele>376.6</ele>
        <time>2022-06-25T08:01:46Z</time>
      </trkpt>
      <trkpt lat="46.41524" lon="5.43206">
        <ele>377.2</ele>
        <time>2022-06-25T08:01:51Z</time>
      </trkpt>
      <trkpt lat="46.41551" lon="5.432">
        <ele>377.4</ele>
        <time>2022-06-25T08:01:55Z</time>
      </trkpt>
      <trkpt lat="46.41604" lon="5.43188">
        <ele>377.4</ele>
        <time>2022-06-25T08:02:03Z</time>
      </trkpt>
      <trkpt lat="46.41657" lon="5.43171">
        <ele>376.6</ele>
        <time>2022-06-25T08:02:11Z</time>
      </trkpt>
      <trkpt lat="46.41676" lon="5.43159">
        <ele>376.4</ele>
        <time>2022-06-25T08:02:14Z</time>
      </trkpt>
      <trkpt lat="46.41687" lon="5.43148">
        <ele>376.4</ele>
        <time>2022-06-25T08:02:16Z</time>
      </trkpt>
      <trkpt lat="46.41715" lon="5.4311">
        <ele>376.8</ele>
        <time>2022-06-25T08:02:22Z</time>
      </trkpt>
      <trkpt lat="46.41749" lon="5.43061">
        <ele>377.4</ele>
        <time>2022-06-25T08:02:30Z</time>
      </trkpt>
      <trkpt lat="46.41778" lon="5.43019">
        <ele>378</ele>
        <time>2022-06-25T08:02:37Z</time>
      </trkpt>
      <trkpt lat="46.41786" lon="5.43007">
        <ele>378.2</ele>
        <time>2022-06-25T08:02:39Z</time>
      </trkpt>
      <trkpt lat="46.41813" lon="5.42969">
        <ele>379.4</ele>
        <time>2022-06-25T08:02:46Z</time>
      </trkpt>
      <trkpt lat="46.41836" lon="5.42936">
        <ele>380.8</ele>
        <time>2022-06-25T08:02:52Z</time>
      </trkpt>
      <trkpt lat="46.41843" lon="5.42926">
        <ele>381</ele>
        <time>2022-06-25T08:02:54Z</time>
      </trkpt>
      <trkpt lat="46.41861" lon="5.42902">
        <ele>381.8</ele>
        <time>2022-06-25T08:02:59Z</time>
      </trkpt>
      <trkpt lat="46.41876" lon="5.42882">
        <ele>382.6</ele>
        <time>2022-06-25T08:03:03Z</time>
      </trkpt>
      <trkpt lat="46.41879" lon="5.42877">
        <ele>383</ele>
        <time>2022-06-25T08:03:04Z</time>
      </trkpt>
      <trkpt lat="46.41892" lon="5.4286">
        <ele>383.8</ele>
        <time>2022-06-25T08:03:08Z</time>
      </trkpt>
      <trkpt lat="46.41897" lon="5.42856">
        <ele>384</ele>
        <time>2022-06-25T08:03:09Z</time>
      </trkpt>
      <trkpt lat="46.419" lon="5.42851">
        <ele>384</ele>
        <time>2022-06-25T08:03:10Z</time>
      </trkpt>
      <trkpt lat="46.4191" lon="5.42838">
        <ele>385</ele>
        <time>2022-06-25T08:03:13Z</time>
      </trkpt>
      <trkpt lat="46.41919" lon="5.42826">
        <ele>386</ele>
        <time>2022-06-25T08:03:16Z</time>
      </trkpt>
      <trkpt lat="46.41921" lon="5.42823">
        <ele>386.2</ele>
        <time>2022-06-25T08:03:17Z</time>
      </trkpt>
      <trkpt lat="46.41937" lon="5.42801">
        <ele>387.4</ele>
        <time>2022-06-25T08:03:22Z</time>
      </trkpt>
      <trkpt lat="46.41946" lon="5.42789">
        <ele>388.4</ele>
        <time>2022-06-25T08:03:25Z</time>
      </trkpt>
      <trkpt lat="46.41949" lon="5.42785">
        <ele>388.6</ele>
        <time>2022-06-25T08:03:26Z</time>
      </trkpt>
      <trkpt lat="46.41959" lon="5.42772">
        <ele>389.8</ele>
        <time>2022-06-25T08:03:29Z</time>
      </trkpt>
      <trkpt lat="46.41976" lon="5.42742">
        <ele>390.8</ele>
        <time>2022-06-25T08:03:35Z</time>
      </trkpt>
      <trkpt lat="46.41993" lon="5.42709">
        <ele>391.8</ele>
        <time>2022-06-25T08:03:41Z</time>
      </trkpt>
      <trkpt lat="46.41999" lon="5.42696">
        <ele>392</ele>
        <time>2022-06-25T08:03:43Z</time>
      </trkpt>
      <trkpt lat="46.42019" lon="5.42657">
        <ele>393</ele>
        <time>2022-06-25T08:03:49Z</time>
      </trkpt>
      <trkpt lat="46.42029" lon="5.42639">
        <ele>393.2</ele>
        <time>2022-06-25T08:03:52Z</time>
      </trkpt>
      <trkpt lat="46.42064" lon="5.4257">
        <ele>393.8</ele>
        <time>2022-06-25T08:04:03Z</time>
      </trkpt>
      <trkpt lat="46.42067" lon="5.42564">
        <ele>394</ele>
        <time>2022-06-25T08:04:04Z</time>
      </trkpt>
      <trkpt lat="46.42086" lon="5.4253">
        <ele>395</ele>
        <time>2022-06-25T08:04:10Z</time>
      </trkpt>
      <trkpt lat="46.42097" lon="5.42509">
        <ele>395.6</ele>
        <time>2022-06-25T08:04:14Z</time>
      </trkpt>
      <trkpt lat="46.42109" lon="5.42488">
        <ele>396.4</ele>
        <time>2022-06-25T08:04:18Z</time>
      </trkpt>
      <trkpt lat="46.42119" lon="5.42474">
        <ele>397</ele>
        <time>2022-06-25T08:04:21Z</time>
      </trkpt>
      <trkpt lat="46.42129" lon="5.42461">
        <ele>397.8</ele>
        <time>2022-06-25T08:04:24Z</time>
      </trkpt>
      <trkpt lat="46.42142" lon="5.42444">
        <ele>399.2</ele>
        <time>2022-06-25T08:04:28Z</time>
      </trkpt>
      <trkpt lat="46.42151" lon="5.42431">
        <ele>399.6</ele>
        <time>2022-06-25T08:04:31Z</time>
      </trkpt>
      <trkpt lat="46.4216" lon="5.42416">
        <ele>400.2</ele>
        <time>2022-06-25T08:04:34Z</time>
      </trkpt>
      <trkpt lat="46.42174" lon="5.42388">
        <ele>401.4</ele>
        <time>2022-06-25T08:04:39Z</time>
      </trkpt>
      <trkpt lat="46.42193" lon="5.42344">
        <ele>402.6</ele>
        <time>2022-06-25T08:04:46Z</time>
      </trkpt>
      <trkpt lat="46.42195" lon="5.42338">
        <ele>402.6</ele>
        <time>2022-06-25T08:04:47Z</time>
      </trkpt>
      <trkpt lat="46.42203" lon="5.4232">
        <ele>403.2</ele>
        <time>2022-06-25T08:04:50Z</time>
      </trkpt>
      <trkpt lat="46.42206" lon="5.42307">
        <ele>403.4</ele>
        <time>2022-06-25T08:04:52Z</time>
      </trkpt>
      <trkpt lat="46.42207" lon="5.42301">
        <ele>403.6</ele>
        <time>2022-06-25T08:04:53Z</time>
      </trkpt>
      <trkpt lat="46.42208" lon="5.42294">
        <ele>403.6</ele>
        <time>2022-06-25T08:04:54Z</time>
      </trkpt>
      <trkpt lat="46.42208" lon="5.42281">
        <ele>403.8</ele>
        <time>2022-06-25T08:04:56Z</time>
      </trkpt>
      <trkpt lat="46.42207" lon="5.42267">
        <ele>404.4</ele>
        <time>2022-06-25T08:04:58Z</time>
      </trkpt>
      <trkpt lat="46.42204" lon="5.42255">
        <ele>404.8</ele>
        <time>2022-06-25T08:05:00Z</time>
      </trkpt>
      <trkpt lat="46.42197" lon="5.42237">
        <ele>405.4</ele>
        <time>2022-06-25T08:05:03Z</time>
      </trkpt>
      <trkpt lat="46.42192" lon="5.42225">
        <ele>406</ele>
        <time>2022-06-25T08:05:05Z</time>
      </trkpt>
      <trkpt lat="46.42172" lon="5.42185">
        <ele>406.8</ele>
        <time>2022-06-25T08:05:12Z</time>
      </trkpt>
      <trkpt lat="46.42166" lon="5.42174">
        <ele>407</ele>
        <time>2022-06-25T08:05:14Z</time>
      </trkpt>
      <trkpt lat="46.42148" lon="5.4214">
        <ele>408.4</ele>
        <time>2022-06-25T08:05:20Z</time>
      </trkpt>
      <trkpt lat="46.42135" lon="5.42119">
        <ele>409</ele>
        <time>2022-06-25T08:05:24Z</time>
      </trkpt>
      <trkpt lat="46.42132" lon="5.42113">
        <ele>409.4</ele>
        <time>2022-06-25T08:05:25Z</time>
      </trkpt>
      <trkpt lat="46.42109" lon="5.42073">
        <ele>410.4</ele>
        <time>2022-06-25T08:05:32Z</time>
      </trkpt>
      <trkpt lat="46.42101" lon="5.42058">
        <ele>411.2</ele>
        <time>2022-06-25T08:05:35Z</time>
      </trkpt>
      <trkpt lat="46.42092" lon="5.42041">
        <ele>411.6</ele>
        <time>2022-06-25T08:05:38Z</time>
      </trkpt>
      <trkpt lat="46.42081" lon="5.42019">
        <ele>412.8</ele>
        <time>2022-06-25T08:05:42Z</time>
      </trkpt>
      <trkpt lat="46.42074" lon="5.42">
        <ele>413.2</ele>
        <time>2022-06-25T08:05:45Z</time>
      </trkpt>
      <trkpt lat="46.4207" lon="5.41985">
        <ele>413.6</ele>
        <time>2022-06-25T08:05:47Z</time>
      </trkpt>
      <trkpt lat="46.42069" lon="5.4198">
        <ele>413.8</ele>
        <time>2022-06-25T08:05:48Z</time>
      </trkpt>
      <trkpt lat="46.42067" lon="5.41959">
        <ele>414.4</ele>
        <time>2022-06-25T08:05:51Z</time>
      </trkpt>
      <trkpt lat="46.42067" lon="5.41953">
        <ele>414.6</ele>
        <time>2022-06-25T08:05:52Z</time>
      </trkpt>
      <trkpt lat="46.42068" lon="5.41946">
        <ele>414.8</ele>
        <time>2022-06-25T08:05:53Z</time>
      </trkpt>
      <trkpt lat="46.42068" lon="5.41939">
        <ele>415</ele>
        <time>2022-06-25T08:05:54Z</time>
      </trkpt>
      <trkpt lat="46.42068" lon="5.41919">
        <ele>415.8</ele>
        <time>2022-06-25T08:05:57Z</time>
      </trkpt>
      <trkpt lat="46.42068" lon="5.41911">
        <ele>416.2</ele>
        <time>2022-06-25T08:05:58Z</time>
      </trkpt>
      <trkpt lat="46.42067" lon="5.41891">
        <ele>417.2</ele>
        <time>2022-06-25T08:06:01Z</time>
      </trkpt>
      <trkpt lat="46.42066" lon="5.41871">
        <ele>418.4</ele>
        <time>2022-06-25T08:06:04Z</time>
      </trkpt>
      <trkpt lat="46.42063" lon="5.41853">
        <ele>419</ele>
        <time>2022-06-25T08:06:07Z</time>
      </trkpt>
      <trkpt lat="46.4206" lon="5.4184">
        <ele>419.4</ele>
        <time>2022-06-25T08:06:09Z</time>
      </trkpt>
      <trkpt lat="46.42054" lon="5.41821">
        <ele>420.6</ele>
        <time>2022-06-25T08:06:12Z</time>
      </trkpt>
      <trkpt lat="46.42048" lon="5.41802">
        <ele>421</ele>
        <time>2022-06-25T08:06:15Z</time>
      </trkpt>
      <trkpt lat="46.4204" lon="5.41779">
        <ele>421.6</ele>
        <time>2022-06-25T08:06:19Z</time>
      </trkpt>
      <trkpt lat="46.42029" lon="5.41755">
        <ele>422.4</ele>
        <time>2022-06-25T08:06:23Z</time>
      </trkpt>
      <trkpt lat="46.42023" lon="5.41745">
        <ele>422.8</ele>
        <time>2022-06-25T08:06:25Z</time>
      </trkpt>
      <trkpt lat="46.42006" lon="5.41718">
        <ele>424</ele>
        <time>2022-06-25T08:06:30Z</time>
      </trkpt>
      <trkpt lat="46.42001" lon="5.41707">
        <ele>424.2</ele>
        <time>2022-06-25T08:06:32Z</time>
      </trkpt>
      <trkpt lat="46.41999" lon="5.417">
        <ele>424.4</ele>
        <time>2022-06-25T08:06:33Z</time>
      </trkpt>
      <trkpt lat="46.41997" lon="5.41693">
        <ele>424.4</ele>
        <time>2022-06-25T08:06:34Z</time>
      </trkpt>
      <trkpt lat="46.41997" lon="5.41679">
        <ele>424.6</ele>
        <time>2022-06-25T08:06:36Z</time>
      </trkpt>
      <trkpt lat="46.41999" lon="5.41672">
        <ele>424.8</ele>
        <time>2022-06-25T08:06:37Z</time>
      </trkpt>
      <trkpt lat="46.42001" lon="5.41667">
        <ele>424.8</ele>
        <time>2022-06-25T08:06:38Z</time>
      </trkpt>
      <trkpt lat="46.42008" lon="5.41657">
        <ele>425</ele>
        <time>2022-06-25T08:06:40Z</time>
      </trkpt>
      <trkpt lat="46.42012" lon="5.41655">
        <ele>425.2</ele>
        <time>2022-06-25T08:06:41Z</time>
      </trkpt>
      <trkpt lat="46.42015" lon="5.41653">
        <ele>425.2</ele>
        <time>2022-06-25T08:06:42Z</time>
      </trkpt>
      <trkpt lat="46.42025" lon="5.41651">
        <ele>425.6</ele>
        <time>2022-06-25T08:06:44Z</time>
      </trkpt>
      <trkpt lat="46.4203" lon="5.41651">
        <ele>425.8</ele>
        <time>2022-06-25T08:06:45Z</time>
      </trkpt>
      <trkpt lat="46.42034" lon="5.41653">
        <ele>426</ele>
        <time>2022-06-25T08:06:46Z</time>
      </trkpt>
      <trkpt lat="46.42059" lon="5.41662">
        <ele>426.8</ele>
        <time>2022-06-25T08:06:52Z</time>
      </trkpt>
      <trkpt lat="46.42071" lon="5.41665">
        <ele>427.2</ele>
        <time>2022-06-25T08:06:55Z</time>
      </trkpt>
      <trkpt lat="46.4209" lon="5.41667">
        <ele>428.2</ele>
        <time>2022-06-25T08:07:00Z</time>
      </trkpt>
      <trkpt lat="46.42095" lon="5.41668">
        <ele>428.4</ele>
        <time>2022-06-25T08:07:01Z</time>
      </trkpt>
      <trkpt lat="46.42103" lon="5.41668">
        <ele>429.2</ele>
        <time>2022-06-25T08:07:03Z</time>
      </trkpt>
      <trkpt lat="46.42111" lon="5.41668">
        <ele>429.6</ele>
        <time>2022-06-25T08:07:05Z</time>
      </trkpt>
      <trkpt lat="46.4212" lon="5.41668">
        <ele>430</ele>
        <time>2022-06-25T08:07:07Z</time>
      </trkpt>
      <trkpt lat="46.42132" lon="5.41672">
        <ele>430.6</ele>
        <time>2022-06-25T08:07:10Z</time>
      </trkpt>
      <trkpt lat="46.42157" lon="5.41685">
        <ele>431.4</ele>
        <time>2022-06-25T08:07:16Z</time>
      </trkpt>
      <trkpt lat="46.4216" lon="5.41688">
        <ele>431.8</ele>
        <time>2022-06-25T08:07:17Z</time>
      </trkpt>
      <trkpt lat="46.42168" lon="5.41694">
        <ele>432</ele>
        <time>2022-06-25T08:07:19Z</time>
      </trkpt>
      <trkpt lat="46.42187" lon="5.41706">
        <ele>432.8</ele>
        <time>2022-06-25T08:07:24Z</time>
      </trkpt>
      <trkpt lat="46.42203" lon="5.41718">
        <ele>433.4</ele>
        <time>2022-06-25T08:07:28Z</time>
      </trkpt>
      <trkpt lat="46.42223" lon="5.41729">
        <ele>434</ele>
        <time>2022-06-25T08:07:33Z</time>
      </trkpt>
      <trkpt lat="46.42247" lon="5.41745">
        <ele>435.2</ele>
        <time>2022-06-25T08:07:39Z</time>
      </trkpt>
      <trkpt lat="46.42251" lon="5.41747">
        <ele>435.4</ele>
        <time>2022-06-25T08:07:40Z</time>
      </trkpt>
      <trkpt lat="46.42268" lon="5.41758">
        <ele>436</ele>
        <time>2022-06-25T08:07:44Z</time>
      </trkpt>
      <trkpt lat="46.42276" lon="5.41761">
        <ele>436.2</ele>
        <time>2022-06-25T08:07:46Z</time>
      </trkpt>
      <trkpt lat="46.42302" lon="5.41774">
        <ele>437.2</ele>
        <time>2022-06-25T08:07:52Z</time>
      </trkpt>
      <trkpt lat="46.42314" lon="5.41778">
        <ele>438</ele>
        <time>2022-06-25T08:07:55Z</time>
      </trkpt>
      <trkpt lat="46.42318" lon="5.4178">
        <ele>438.2</ele>
        <time>2022-06-25T08:07:56Z</time>
      </trkpt>
      <trkpt lat="46.42343" lon="5.41789">
        <ele>439.2</ele>
        <time>2022-06-25T08:08:02Z</time>
      </trkpt>
      <trkpt lat="46.42351" lon="5.41792">
        <ele>440</ele>
        <time>2022-06-25T08:08:04Z</time>
      </trkpt>
      <trkpt lat="46.4236" lon="5.41794">
        <ele>440.6</ele>
        <time>2022-06-25T08:08:06Z</time>
      </trkpt>
      <trkpt lat="46.42367" lon="5.41796">
        <ele>441</ele>
        <time>2022-06-25T08:08:08Z</time>
      </trkpt>
      <trkpt lat="46.42371" lon="5.41797">
        <ele>441.2</ele>
        <time>2022-06-25T08:08:09Z</time>
      </trkpt>
      <trkpt lat="46.42378" lon="5.418">
        <ele>441.6</ele>
        <time>2022-06-25T08:08:11Z</time>
      </trkpt>
      <trkpt lat="46.42389" lon="5.41801">
        <ele>442.8</ele>
        <time>2022-06-25T08:08:14Z</time>
      </trkpt>
      <trkpt lat="46.42405" lon="5.41801">
        <ele>443.8</ele>
        <time>2022-06-25T08:08:18Z</time>
      </trkpt>
      <trkpt lat="46.42412" lon="5.41802">
        <ele>444.2</ele>
        <time>2022-06-25T08:08:20Z</time>
      </trkpt>
      <trkpt lat="46.4242" lon="5.41802">
        <ele>445</ele>
        <time>2022-06-25T08:08:22Z</time>
      </trkpt>
      <trkpt lat="46.42427" lon="5.418">
        <ele>445.6</ele>
        <time>2022-06-25T08:08:24Z</time>
      </trkpt>
      <trkpt lat="46.42434" lon="5.41798">
        <ele>446</ele>
        <time>2022-06-25T08:08:26Z</time>
      </trkpt>
      <trkpt lat="46.42459" lon="5.41789">
        <ele>447</ele>
        <time>2022-06-25T08:08:32Z</time>
      </trkpt>
      <trkpt lat="46.42464" lon="5.41787">
        <ele>447.4</ele>
        <time>2022-06-25T08:08:33Z</time>
      </trkpt>
      <trkpt lat="46.42485" lon="5.4178">
        <ele>448.6</ele>
        <time>2022-06-25T08:08:38Z</time>
      </trkpt>
      <trkpt lat="46.4251" lon="5.41773">
        <ele>449.6</ele>
        <time>2022-06-25T08:08:44Z</time>
      </trkpt>
      <trkpt lat="46.42514" lon="5.41772">
        <ele>450</ele>
        <time>2022-06-25T08:08:45Z</time>
      </trkpt>
      <trkpt lat="46.42532" lon="5.41776">
        <ele>450.8</ele>
        <time>2022-06-25T08:08:49Z</time>
      </trkpt>
      <trkpt lat="46.4254" lon="5.41779">
        <ele>451.2</ele>
        <time>2022-06-25T08:08:51Z</time>
      </trkpt>
      <trkpt lat="46.42555" lon="5.41786">
        <ele>451.8</ele>
        <time>2022-06-25T08:08:55Z</time>
      </trkpt>
      <trkpt lat="46.42571" lon="5.41795">
        <ele>453</ele>
        <time>2022-06-25T08:09:00Z</time>
      </trkpt>
      <trkpt lat="46.42578" lon="5.41798">
        <ele>453.4</ele>
        <time>2022-06-25T08:09:02Z</time>
      </trkpt>
      <trkpt lat="46.42589" lon="5.41798">
        <ele>454</ele>
        <time>2022-06-25T08:09:05Z</time>
      </trkpt>
      <trkpt lat="46.42601" lon="5.41795">
        <ele>454.8</ele>
        <time>2022-06-25T08:09:08Z</time>
      </trkpt>
      <trkpt lat="46.42605" lon="5.41793">
        <ele>455</ele>
        <time>2022-06-25T08:09:09Z</time>
      </trkpt>
      <trkpt lat="46.42625" lon="5.41776">
        <ele>456.4</ele>
        <time>2022-06-25T08:09:15Z</time>
      </trkpt>
      <trkpt lat="46.42643" lon="5.41755">
        <ele>457.4</ele>
        <time>2022-06-25T08:09:20Z</time>
      </trkpt>
      <trkpt lat="46.42653" lon="5.41744">
        <ele>458</ele>
        <time>2022-06-25T08:09:23Z</time>
      </trkpt>
      <trkpt lat="46.42662" lon="5.41734">
        <ele>458.4</ele>
        <time>2022-06-25T08:09:26Z</time>
      </trkpt>
      <trkpt lat="46.42669" lon="5.41726">
        <ele>458.8</ele>
        <time>2022-06-25T08:09:28Z</time>
      </trkpt>
      <trkpt lat="46.42678" lon="5.41717">
        <ele>459.4</ele>
        <time>2022-06-25T08:09:31Z</time>
      </trkpt>
      <trkpt lat="46.42682" lon="5.41713">
        <ele>459.6</ele>
        <time>2022-06-25T08:09:32Z</time>
      </trkpt>
      <trkpt lat="46.42701" lon="5.4169">
        <ele>460.8</ele>
        <time>2022-06-25T08:09:38Z</time>
      </trkpt>
      <trkpt lat="46.42704" lon="5.41687">
        <ele>460.8</ele>
        <time>2022-06-25T08:09:39Z</time>
      </trkpt>
      <trkpt lat="46.42713" lon="5.41677">
        <ele>461.8</ele>
        <time>2022-06-25T08:09:42Z</time>
      </trkpt>
      <trkpt lat="46.42717" lon="5.41663">
        <ele>463</ele>
        <time>2022-06-25T08:09:45Z</time>
      </trkpt>
      <trkpt lat="46.42718" lon="5.41659">
        <ele>463</ele>
        <time>2022-06-25T08:09:46Z</time>
      </trkpt>
      <trkpt lat="46.42713" lon="5.41645">
        <ele>464</ele>
        <time>2022-06-25T08:09:49Z</time>
      </trkpt>
      <trkpt lat="46.42709" lon="5.41641">
        <ele>464.6</ele>
        <time>2022-06-25T08:09:50Z</time>
      </trkpt>
      <trkpt lat="46.42697" lon="5.41637">
        <ele>465.2</ele>
        <time>2022-06-25T08:09:53Z</time>
      </trkpt>
      <trkpt lat="46.42684" lon="5.41635">
        <ele>465.8</ele>
        <time>2022-06-25T08:09:56Z</time>
      </trkpt>
      <trkpt lat="46.4268" lon="5.41634">
        <ele>466</ele>
        <time>2022-06-25T08:09:57Z</time>
      </trkpt>
      <trkpt lat="46.42671" lon="5.4163">
        <ele>466.2</ele>
        <time>2022-06-25T08:09:59Z</time>
      </trkpt>
      <trkpt lat="46.42668" lon="5.41627">
        <ele>466.2</ele>
        <time>2022-06-25T08:10:00Z</time>
      </trkpt>
      <trkpt lat="46.42664" lon="5.41624">
        <ele>466.4</ele>
        <time>2022-06-25T08:10:01Z</time>
      </trkpt>
      <trkpt lat="46.42654" lon="5.41616">
        <ele>467</ele>
        <time>2022-06-25T08:10:04Z</time>
      </trkpt>
      <trkpt lat="46.42648" lon="5.41612">
        <ele>467.4</ele>
        <time>2022-06-25T08:10:06Z</time>
      </trkpt>
      <trkpt lat="46.42634" lon="5.41608">
        <ele>468.2</ele>
        <time>2022-06-25T08:10:10Z</time>
      </trkpt>
      <trkpt lat="46.42624" lon="5.41605">
        <ele>469.4</ele>
        <time>2022-06-25T08:10:13Z</time>
      </trkpt>
      <trkpt lat="46.42607" lon="5.416">
        <ele>470.4</ele>
        <time>2022-06-25T08:10:18Z</time>
      </trkpt>
      <trkpt lat="46.42596" lon="5.41598">
        <ele>471.6</ele>
        <time>2022-06-25T08:10:21Z</time>
      </trkpt>
      <trkpt lat="46.42589" lon="5.41596">
        <ele>472</ele>
        <time>2022-06-25T08:10:23Z</time>
      </trkpt>
      <trkpt lat="46.42581" lon="5.41594">
        <ele>472.6</ele>
        <time>2022-06-25T08:10:25Z</time>
      </trkpt>
      <trkpt lat="46.42562" lon="5.41589">
        <ele>473.8</ele>
        <time>2022-06-25T08:10:30Z</time>
      </trkpt>
      <trkpt lat="46.42551" lon="5.41585">
        <ele>474.6</ele>
        <time>2022-06-25T08:10:33Z</time>
      </trkpt>
      <trkpt lat="46.42547" lon="5.41584">
        <ele>474.8</ele>
        <time>2022-06-25T08:10:34Z</time>
      </trkpt>
      <trkpt lat="46.4253" lon="5.41581">
        <ele>475.8</ele>
        <time>2022-06-25T08:10:38Z</time>
      </trkpt>
      <trkpt lat="46.42511" lon="5.41575">
        <ele>476.4</ele>
        <time>2022-06-25T08:10:42Z</time>
      </trkpt>
      <trkpt lat="46.42488" lon="5.41573">
        <ele>476.6</ele>
        <time>2022-06-25T08:10:46Z</time>
      </trkpt>
      <trkpt lat="46.42475" lon="5.41569">
        <ele>476.4</ele>
        <time>2022-06-25T08:10:48Z</time>
      </trkpt>
      <trkpt lat="46.42462" lon="5.41562">
        <ele>476.2</ele>
        <time>2022-06-25T08:10:50Z</time>
      </trkpt>
      <trkpt lat="46.42422" lon="5.41542">
        <ele>475.4</ele>
        <time>2022-06-25T08:10:56Z</time>
      </trkpt>
      <trkpt lat="46.42382" lon="5.41529">
        <ele>475</ele>
        <time>2022-06-25T08:11:02Z</time>
      </trkpt>
      <trkpt lat="46.42356" lon="5.41516">
        <ele>475.2</ele>
        <time>2022-06-25T08:11:06Z</time>
      </trkpt>
      <trkpt lat="46.42343" lon="5.41508">
        <ele>475.4</ele>
        <time>2022-06-25T08:11:08Z</time>
      </trkpt>
      <trkpt lat="46.42312" lon="5.41491">
        <ele>475.6</ele>
        <time>2022-06-25T08:11:13Z</time>
      </trkpt>
      <trkpt lat="46.423" lon="5.41485">
        <ele>475.6</ele>
        <time>2022-06-25T08:11:15Z</time>
      </trkpt>
      <trkpt lat="46.42295" lon="5.41483">
        <ele>475.8</ele>
        <time>2022-06-25T08:11:16Z</time>
      </trkpt>
      <trkpt lat="46.42278" lon="5.41476">
        <ele>476</ele>
        <time>2022-06-25T08:11:19Z</time>
      </trkpt>
      <trkpt lat="46.42265" lon="5.41481">
        <ele>476.6</ele>
        <time>2022-06-25T08:11:21Z</time>
      </trkpt>
      <trkpt lat="46.42259" lon="5.4148">
        <ele>476.8</ele>
        <time>2022-06-25T08:11:22Z</time>
      </trkpt>
      <trkpt lat="46.42236" lon="5.41477">
        <ele>477.2</ele>
        <time>2022-06-25T08:11:26Z</time>
      </trkpt>
      <trkpt lat="46.42221" lon="5.41475">
        <ele>478</ele>
        <time>2022-06-25T08:11:29Z</time>
      </trkpt>
      <trkpt lat="46.42211" lon="5.41474">
        <ele>478.4</ele>
        <time>2022-06-25T08:11:31Z</time>
      </trkpt>
      <trkpt lat="46.42205" lon="5.41474">
        <ele>478.8</ele>
        <time>2022-06-25T08:11:32Z</time>
      </trkpt>
      <trkpt lat="46.422" lon="5.41474">
        <ele>479</ele>
        <time>2022-06-25T08:11:33Z</time>
      </trkpt>
      <trkpt lat="46.42195" lon="5.41475">
        <ele>479.2</ele>
        <time>2022-06-25T08:11:34Z</time>
      </trkpt>
      <trkpt lat="46.42184" lon="5.41476">
        <ele>479.8</ele>
        <time>2022-06-25T08:11:36Z</time>
      </trkpt>
      <trkpt lat="46.42165" lon="5.41469">
        <ele>480.2</ele>
        <time>2022-06-25T08:11:39Z</time>
      </trkpt>
      <trkpt lat="46.4216" lon="5.41465">
        <ele>480.4</ele>
        <time>2022-06-25T08:11:40Z</time>
      </trkpt>
      <trkpt lat="46.42146" lon="5.41457">
        <ele>481.2</ele>
        <time>2022-06-25T08:11:43Z</time>
      </trkpt>
      <trkpt lat="46.42141" lon="5.41455">
        <ele>481.2</ele>
        <time>2022-06-25T08:11:44Z</time>
      </trkpt>
      <trkpt lat="46.42127" lon="5.41448">
        <ele>481.8</ele>
        <time>2022-06-25T08:11:47Z</time>
      </trkpt>
      <trkpt lat="46.42118" lon="5.41443">
        <ele>482.2</ele>
        <time>2022-06-25T08:11:49Z</time>
      </trkpt>
      <trkpt lat="46.42113" lon="5.4144">
        <ele>482.4</ele>
        <time>2022-06-25T08:11:50Z</time>
      </trkpt>
      <trkpt lat="46.42093" lon="5.41432">
        <ele>483.2</ele>
        <time>2022-06-25T08:11:54Z</time>
      </trkpt>
      <trkpt lat="46.42083" lon="5.41429">
        <ele>483.6</ele>
        <time>2022-06-25T08:11:56Z</time>
      </trkpt>
      <trkpt lat="46.42065" lon="5.41421">
        <ele>484.8</ele>
        <time>2022-06-25T08:12:00Z</time>
      </trkpt>
      <trkpt lat="46.42061" lon="5.41419">
        <ele>484.8</ele>
        <time>2022-06-25T08:12:01Z</time>
      </trkpt>
      <trkpt lat="46.42043" lon="5.41411">
        <ele>485.6</ele>
        <time>2022-06-25T08:12:05Z</time>
      </trkpt>
      <trkpt lat="46.42039" lon="5.41408">
        <ele>485.8</ele>
        <time>2022-06-25T08:12:06Z</time>
      </trkpt>
      <trkpt lat="46.42035" lon="5.41406">
        <ele>486.2</ele>
        <time>2022-06-25T08:12:07Z</time>
      </trkpt>
      <trkpt lat="46.42014" lon="5.41394">
        <ele>487</ele>
        <time>2022-06-25T08:12:12Z</time>
      </trkpt>
      <trkpt lat="46.4201" lon="5.41391">
        <ele>487.2</ele>
        <time>2022-06-25T08:12:13Z</time>
      </trkpt>
      <trkpt lat="46.42007" lon="5.41389">
        <ele>487.4</ele>
        <time>2022-06-25T08:12:14Z</time>
      </trkpt>
      <trkpt lat="46.42" lon="5.41383">
        <ele>488</ele>
        <time>2022-06-25T08:12:16Z</time>
      </trkpt>
      <trkpt lat="46.4198" lon="5.41367">
        <ele>489.4</ele>
        <time>2022-06-25T08:12:21Z</time>
      </trkpt>
      <trkpt lat="46.41977" lon="5.41363">
        <ele>489.6</ele>
        <time>2022-06-25T08:12:22Z</time>
      </trkpt>
      <trkpt lat="46.41972" lon="5.41352">
        <ele>490.4</ele>
        <time>2022-06-25T08:12:24Z</time>
      </trkpt>
      <trkpt lat="46.4197" lon="5.41346">
        <ele>490.6</ele>
        <time>2022-06-25T08:12:25Z</time>
      </trkpt>
      <trkpt lat="46.41969" lon="5.41341">
        <ele>490.8</ele>
        <time>2022-06-25T08:12:26Z</time>
      </trkpt>
      <trkpt lat="46.41967" lon="5.41334">
        <ele>491</ele>
        <time>2022-06-25T08:12:27Z</time>
      </trkpt>
      <trkpt lat="46.41967" lon="5.41328">
        <ele>491.4</ele>
        <time>2022-06-25T08:12:28Z</time>
      </trkpt>
      <trkpt lat="46.41966" lon="5.41322">
        <ele>491.6</ele>
        <time>2022-06-25T08:12:29Z</time>
      </trkpt>
      <trkpt lat="46.41964" lon="5.41309">
        <ele>492.2</ele>
        <time>2022-06-25T08:12:31Z</time>
      </trkpt>
      <trkpt lat="46.41963" lon="5.41303">
        <ele>492.6</ele>
        <time>2022-06-25T08:12:32Z</time>
      </trkpt>
      <trkpt lat="46.41957" lon="5.41274">
        <ele>493.6</ele>
        <time>2022-06-25T08:12:36Z</time>
      </trkpt>
      <trkpt lat="46.41953" lon="5.4126">
        <ele>494</ele>
        <time>2022-06-25T08:12:38Z</time>
      </trkpt>
      <trkpt lat="46.41953" lon="5.41253">
        <ele>494.4</ele>
        <time>2022-06-25T08:12:39Z</time>
      </trkpt>
      <trkpt lat="46.41952" lon="5.41239">
        <ele>494.8</ele>
        <time>2022-06-25T08:12:41Z</time>
      </trkpt>
      <trkpt lat="46.4195" lon="5.41219">
        <ele>495.4</ele>
        <time>2022-06-25T08:12:44Z</time>
      </trkpt>
      <trkpt lat="46.41949" lon="5.41212">
        <ele>495.6</ele>
        <time>2022-06-25T08:12:45Z</time>
      </trkpt>
      <trkpt lat="46.41949" lon="5.41206">
        <ele>495.8</ele>
        <time>2022-06-25T08:12:46Z</time>
      </trkpt>
      <trkpt lat="46.41948" lon="5.4118">
        <ele>496.8</ele>
        <time>2022-06-25T08:12:50Z</time>
      </trkpt>
      <trkpt lat="46.41947" lon="5.41147">
        <ele>498</ele>
        <time>2022-06-25T08:12:55Z</time>
      </trkpt>
      <trkpt lat="46.41945" lon="5.41124">
        <ele>498.6</ele>
        <time>2022-06-25T08:12:59Z</time>
      </trkpt>
      <trkpt lat="46.41945" lon="5.41112">
        <ele>499</ele>
        <time>2022-06-25T08:13:01Z</time>
      </trkpt>
      <trkpt lat="46.41945" lon="5.41082">
        <ele>499.8</ele>
        <time>2022-06-25T08:13:06Z</time>
      </trkpt>
      <trkpt lat="46.41946" lon="5.41076">
        <ele>500</ele>
        <time>2022-06-25T08:13:07Z</time>
      </trkpt>
      <trkpt lat="46.41949" lon="5.41056">
        <ele>500.6</ele>
        <time>2022-06-25T08:13:10Z</time>
      </trkpt>
      <trkpt lat="46.41953" lon="5.41044">
        <ele>501</ele>
        <time>2022-06-25T08:13:12Z</time>
      </trkpt>
      <trkpt lat="46.41956" lon="5.41038">
        <ele>501.2</ele>
        <time>2022-06-25T08:13:13Z</time>
      </trkpt>
      <trkpt lat="46.41965" lon="5.41022">
        <ele>501.8</ele>
        <time>2022-06-25T08:13:16Z</time>
      </trkpt>
      <trkpt lat="46.41969" lon="5.41016">
        <ele>502</ele>
        <time>2022-06-25T08:13:17Z</time>
      </trkpt>
      <trkpt lat="46.41973" lon="5.41011">
        <ele>502.2</ele>
        <time>2022-06-25T08:13:18Z</time>
      </trkpt>
      <trkpt lat="46.41977" lon="5.41006">
        <ele>502.2</ele>
        <time>2022-06-25T08:13:19Z</time>
      </trkpt>
      <trkpt lat="46.41996" lon="5.40987">
        <ele>502.8</ele>
        <time>2022-06-25T08:13:23Z</time>
      </trkpt>
      <trkpt lat="46.42" lon="5.40981">
        <ele>502.8</ele>
        <time>2022-06-25T08:13:24Z</time>
      </trkpt>
      <trkpt lat="46.42012" lon="5.40964">
        <ele>503</ele>
        <time>2022-06-25T08:13:27Z</time>
      </trkpt>
      <trkpt lat="46.42015" lon="5.40957">
        <ele>503.2</ele>
        <time>2022-06-25T08:13:28Z</time>
      </trkpt>
      <trkpt lat="46.42018" lon="5.40949">
        <ele>503.2</ele>
        <time>2022-06-25T08:13:29Z</time>
      </trkpt>
      <trkpt lat="46.42021" lon="5.40932">
        <ele>503.4</ele>
        <time>2022-06-25T08:13:31Z</time>
      </trkpt>
      <trkpt lat="46.42021" lon="5.40922">
        <ele>503.4</ele>
        <time>2022-06-25T08:13:32Z</time>
      </trkpt>
      <trkpt lat="46.42023" lon="5.40896">
        <ele>503.8</ele>
        <time>2022-06-25T08:13:35Z</time>
      </trkpt>
      <trkpt lat="46.42024" lon="5.40879">
        <ele>504</ele>
        <time>2022-06-25T08:13:37Z</time>
      </trkpt>
      <trkpt lat="46.42026" lon="5.40863">
        <ele>504</ele>
        <time>2022-06-25T08:13:39Z</time>
      </trkpt>
      <trkpt lat="46.42028" lon="5.40855">
        <ele>504.2</ele>
        <time>2022-06-25T08:13:40Z</time>
      </trkpt>
      <trkpt lat="46.4203" lon="5.40846">
        <ele>504.2</ele>
        <time>2022-06-25T08:13:41Z</time>
      </trkpt>
      <trkpt lat="46.42035" lon="5.40829">
        <ele>504.6</ele>
        <time>2022-06-25T08:13:43Z</time>
      </trkpt>
      <trkpt lat="46.42043" lon="5.4082">
        <ele>504.6</ele>
        <time>2022-06-25T08:13:45Z</time>
      </trkpt>
      <trkpt lat="46.42063" lon="5.40803">
        <ele>504.4</ele>
        <time>2022-06-25T08:13:49Z</time>
      </trkpt>
      <trkpt lat="46.4207" lon="5.408">
        <ele>504.2</ele>
        <time>2022-06-25T08:13:50Z</time>
      </trkpt>
      <trkpt lat="46.42085" lon="5.40796">
        <ele>504</ele>
        <time>2022-06-25T08:13:52Z</time>
      </trkpt>
      <trkpt lat="46.42107" lon="5.40794">
        <ele>503.4</ele>
        <time>2022-06-25T08:13:55Z</time>
      </trkpt>
      <trkpt lat="46.42115" lon="5.40793">
        <ele>503.2</ele>
        <time>2022-06-25T08:13:56Z</time>
      </trkpt>
      <trkpt lat="46.42131" lon="5.40791">
        <ele>502.8</ele>
        <time>2022-06-25T08:13:58Z</time>
      </trkpt>
      <trkpt lat="46.42147" lon="5.40786">
        <ele>502.4</ele>
        <time>2022-06-25T08:14:00Z</time>
      </trkpt>
      <trkpt lat="46.42155" lon="5.40782">
        <ele>502.2</ele>
        <time>2022-06-25T08:14:01Z</time>
      </trkpt>
      <trkpt lat="46.42163" lon="5.40776">
        <ele>502</ele>
        <time>2022-06-25T08:14:02Z</time>
      </trkpt>
      <trkpt lat="46.42186" lon="5.40752">
        <ele>500.8</ele>
        <time>2022-06-25T08:14:05Z</time>
      </trkpt>
      <trkpt lat="46.42204" lon="5.40733">
        <ele>500.2</ele>
        <time>2022-06-25T08:14:07Z</time>
      </trkpt>
      <trkpt lat="46.42214" lon="5.40725">
        <ele>499.8</ele>
        <time>2022-06-25T08:14:08Z</time>
      </trkpt>
      <trkpt lat="46.42225" lon="5.40716">
        <ele>499.6</ele>
        <time>2022-06-25T08:14:09Z</time>
      </trkpt>
      <trkpt lat="46.42267" lon="5.40685">
        <ele>498.2</ele>
        <time>2022-06-25T08:14:13Z</time>
      </trkpt>
      <trkpt lat="46.42277" lon="5.40675">
        <ele>497.2</ele>
        <time>2022-06-25T08:14:14Z</time>
      </trkpt>
      <trkpt lat="46.42285" lon="5.40666">
        <ele>496.8</ele>
        <time>2022-06-25T08:14:15Z</time>
      </trkpt>
      <trkpt lat="46.42304" lon="5.40644">
        <ele>495.6</ele>
        <time>2022-06-25T08:14:17Z</time>
      </trkpt>
      <trkpt lat="46.42338" lon="5.40612">
        <ele>494.2</ele>
        <time>2022-06-25T08:14:20Z</time>
      </trkpt>
      <trkpt lat="46.42357" lon="5.40596">
        <ele>493.2</ele>
        <time>2022-06-25T08:14:22Z</time>
      </trkpt>
      <trkpt lat="46.42379" lon="5.40579">
        <ele>491.6</ele>
        <time>2022-06-25T08:14:24Z</time>
      </trkpt>
      <trkpt lat="46.42403" lon="5.4056">
        <ele>490</ele>
        <time>2022-06-25T08:14:26Z</time>
      </trkpt>
      <trkpt lat="46.42433" lon="5.40532">
        <ele>488</ele>
        <time>2022-06-25T08:14:29Z</time>
      </trkpt>
      <trkpt lat="46.42443" lon="5.40523">
        <ele>487.6</ele>
        <time>2022-06-25T08:14:30Z</time>
      </trkpt>
      <trkpt lat="46.42451" lon="5.40515">
        <ele>486.6</ele>
        <time>2022-06-25T08:14:31Z</time>
      </trkpt>
      <trkpt lat="46.42462" lon="5.40503">
        <ele>486</ele>
        <time>2022-06-25T08:14:32Z</time>
      </trkpt>
      <trkpt lat="46.42471" lon="5.40493">
        <ele>484.8</ele>
        <time>2022-06-25T08:14:33Z</time>
      </trkpt>
      <trkpt lat="46.42485" lon="5.40471">
        <ele>483.6</ele>
        <time>2022-06-25T08:14:35Z</time>
      </trkpt>
      <trkpt lat="46.42494" lon="5.4044">
        <ele>482.6</ele>
        <time>2022-06-25T08:14:37Z</time>
      </trkpt>
      <trkpt lat="46.42493" lon="5.40403">
        <ele>481.4</ele>
        <time>2022-06-25T08:14:39Z</time>
      </trkpt>
      <trkpt lat="46.42484" lon="5.40377">
        <ele>480.2</ele>
        <time>2022-06-25T08:14:41Z</time>
      </trkpt>
      <trkpt lat="46.42473" lon="5.40365">
        <ele>479.6</ele>
        <time>2022-06-25T08:14:42Z</time>
      </trkpt>
      <trkpt lat="46.4245" lon="5.40347">
        <ele>478.2</ele>
        <time>2022-06-25T08:14:44Z</time>
      </trkpt>
      <trkpt lat="46.42424" lon="5.40325">
        <ele>477</ele>
        <time>2022-06-25T08:14:46Z</time>
      </trkpt>
      <trkpt lat="46.42412" lon="5.40312">
        <ele>475</ele>
        <time>2022-06-25T08:14:47Z</time>
      </trkpt>
      <trkpt lat="46.42402" lon="5.40295">
        <ele>474</ele>
        <time>2022-06-25T08:14:48Z</time>
      </trkpt>
      <trkpt lat="46.42394" lon="5.40276">
        <ele>472.2</ele>
        <time>2022-06-25T08:14:49Z</time>
      </trkpt>
      <trkpt lat="46.4239" lon="5.40256">
        <ele>470.4</ele>
        <time>2022-06-25T08:14:50Z</time>
      </trkpt>
      <trkpt lat="46.42388" lon="5.40235">
        <ele>468.2</ele>
        <time>2022-06-25T08:14:51Z</time>
      </trkpt>
      <trkpt lat="46.42388" lon="5.40214">
        <ele>467</ele>
        <time>2022-06-25T08:14:52Z</time>
      </trkpt>
      <trkpt lat="46.42389" lon="5.40193">
        <ele>466.6</ele>
        <time>2022-06-25T08:14:53Z</time>
      </trkpt>
      <trkpt lat="46.42389" lon="5.40172">
        <ele>465.6</ele>
        <time>2022-06-25T08:14:54Z</time>
      </trkpt>
      <trkpt lat="46.42391" lon="5.4011">
        <ele>464.6</ele>
        <time>2022-06-25T08:14:57Z</time>
      </trkpt>
      <trkpt lat="46.42392" lon="5.4009">
        <ele>463.6</ele>
        <time>2022-06-25T08:14:58Z</time>
      </trkpt>
      <trkpt lat="46.42392" lon="5.4007">
        <ele>463</ele>
        <time>2022-06-25T08:14:59Z</time>
      </trkpt>
      <trkpt lat="46.42392" lon="5.40049">
        <ele>462.4</ele>
        <time>2022-06-25T08:15:00Z</time>
      </trkpt>
      <trkpt lat="46.42393" lon="5.40009">
        <ele>461</ele>
        <time>2022-06-25T08:15:02Z</time>
      </trkpt>
      <trkpt lat="46.42394" lon="5.3999">
        <ele>459.8</ele>
        <time>2022-06-25T08:15:03Z</time>
      </trkpt>
      <trkpt lat="46.42394" lon="5.39951">
        <ele>458.6</ele>
        <time>2022-06-25T08:15:05Z</time>
      </trkpt>
      <trkpt lat="46.42395" lon="5.39933">
        <ele>457.8</ele>
        <time>2022-06-25T08:15:06Z</time>
      </trkpt>
      <trkpt lat="46.42395" lon="5.39898">
        <ele>457.2</ele>
        <time>2022-06-25T08:15:08Z</time>
      </trkpt>
      <trkpt lat="46.42396" lon="5.39867">
        <ele>456.6</ele>
        <time>2022-06-25T08:15:10Z</time>
      </trkpt>
      <trkpt lat="46.42397" lon="5.39824">
        <ele>456.4</ele>
        <time>2022-06-25T08:15:13Z</time>
      </trkpt>
      <trkpt lat="46.42399" lon="5.39811">
        <ele>456.4</ele>
        <time>2022-06-25T08:15:14Z</time>
      </trkpt>
      <trkpt lat="46.42402" lon="5.398">
        <ele>456.6</ele>
        <time>2022-06-25T08:15:15Z</time>
      </trkpt>
      <trkpt lat="46.42407" lon="5.39792">
        <ele>456.8</ele>
        <time>2022-06-25T08:15:16Z</time>
      </trkpt>
      <trkpt lat="46.42413" lon="5.39786">
        <ele>457</ele>
        <time>2022-06-25T08:15:17Z</time>
      </trkpt>
      <trkpt lat="46.42419" lon="5.39784">
        <ele>457.2</ele>
        <time>2022-06-25T08:15:18Z</time>
      </trkpt>
      <trkpt lat="46.42426" lon="5.39784">
        <ele>457.4</ele>
        <time>2022-06-25T08:15:19Z</time>
      </trkpt>
      <trkpt lat="46.42441" lon="5.3979">
        <ele>457.8</ele>
        <time>2022-06-25T08:15:21Z</time>
      </trkpt>
      <trkpt lat="46.42448" lon="5.39795">
        <ele>457.8</ele>
        <time>2022-06-25T08:15:22Z</time>
      </trkpt>
      <trkpt lat="46.42456" lon="5.39802">
        <ele>457.8</ele>
        <time>2022-06-25T08:15:23Z</time>
      </trkpt>
      <trkpt lat="46.42464" lon="5.39813">
        <ele>457.8</ele>
        <time>2022-06-25T08:15:24Z</time>
      </trkpt>
      <trkpt lat="46.425" lon="5.39864">
        <ele>457.6</ele>
        <time>2022-06-25T08:15:29Z</time>
      </trkpt>
      <trkpt lat="46.42541" lon="5.399">
        <ele>457.2</ele>
        <time>2022-06-25T08:15:34Z</time>
      </trkpt>
      <trkpt lat="46.42589" lon="5.39936">
        <ele>456.6</ele>
        <time>2022-06-25T08:15:40Z</time>
      </trkpt>
      <trkpt lat="46.42606" lon="5.39946">
        <ele>456.6</ele>
        <time>2022-06-25T08:15:42Z</time>
      </trkpt>
      <trkpt lat="46.42654" lon="5.39967">
        <ele>457.2</ele>
        <time>2022-06-25T08:15:49Z</time>
      </trkpt>
      <trkpt lat="46.4271" lon="5.39995">
        <ele>457.6</ele>
        <time>2022-06-25T08:15:57Z</time>
      </trkpt>
      <trkpt lat="46.42725" lon="5.40001">
        <ele>457.6</ele>
        <time>2022-06-25T08:15:59Z</time>
      </trkpt>
      <trkpt lat="46.42781" lon="5.40024">
        <ele>458</ele>
        <time>2022-06-25T08:16:07Z</time>
      </trkpt>
      <trkpt lat="46.42787" lon="5.40027">
        <ele>458.2</ele>
        <time>2022-06-25T08:16:08Z</time>
      </trkpt>
      <trkpt lat="46.42835" lon="5.40044">
        <ele>458.8</ele>
        <time>2022-06-25T08:16:15Z</time>
      </trkpt>
      <trkpt lat="46.42885" lon="5.40056">
        <ele>458.6</ele>
        <time>2022-06-25T08:16:22Z</time>
      </trkpt>
      <trkpt lat="46.42924" lon="5.40058">
        <ele>458.6</ele>
        <time>2022-06-25T08:16:28Z</time>
      </trkpt>
      <trkpt lat="46.42959" lon="5.40062">
        <ele>459.2</ele>
        <time>2022-06-25T08:16:34Z</time>
      </trkpt>
      <trkpt lat="46.42965" lon="5.40063">
        <ele>459.2</ele>
        <time>2022-06-25T08:16:35Z</time>
      </trkpt>
      <trkpt lat="46.43005" lon="5.4007">
        <ele>460.2</ele>
        <time>2022-06-25T08:16:41Z</time>
      </trkpt>
      <trkpt lat="46.43012" lon="5.40072">
        <ele>460.4</ele>
        <time>2022-06-25T08:16:42Z</time>
      </trkpt>
      <trkpt lat="46.43051" lon="5.40076">
        <ele>461</ele>
        <time>2022-06-25T08:16:48Z</time>
      </trkpt>
      <trkpt lat="46.43101" lon="5.40082">
        <ele>461</ele>
        <time>2022-06-25T08:16:55Z</time>
      </trkpt>
      <trkpt lat="46.43138" lon="5.4009">
        <ele>460.6</ele>
        <time>2022-06-25T08:16:59Z</time>
      </trkpt>
      <trkpt lat="46.43145" lon="5.40091">
        <ele>460.6</ele>
        <time>2022-06-25T08:17:00Z</time>
      </trkpt>
      <trkpt lat="46.43186" lon="5.40099">
        <ele>460</ele>
        <time>2022-06-25T08:17:05Z</time>
      </trkpt>
      <trkpt lat="46.43193" lon="5.40102">
        <ele>459.8</ele>
        <time>2022-06-25T08:17:06Z</time>
      </trkpt>
      <trkpt lat="46.43215" lon="5.40115">
        <ele>459.6</ele>
        <time>2022-06-25T08:17:09Z</time>
      </trkpt>
      <trkpt lat="46.43229" lon="5.4012">
        <ele>459.6</ele>
        <time>2022-06-25T08:17:11Z</time>
      </trkpt>
      <trkpt lat="46.43239" lon="5.40122">
        <ele>459.4</ele>
        <time>2022-06-25T08:17:12Z</time>
      </trkpt>
      <trkpt lat="46.43255" lon="5.40123">
        <ele>459.2</ele>
        <time>2022-06-25T08:17:14Z</time>
      </trkpt>
      <trkpt lat="46.43262" lon="5.40122">
        <ele>459</ele>
        <time>2022-06-25T08:17:15Z</time>
      </trkpt>
      <trkpt lat="46.4331" lon="5.40117">
        <ele>458.8</ele>
        <time>2022-06-25T08:17:21Z</time>
      </trkpt>
      <trkpt lat="46.43368" lon="5.4012">
        <ele>458.4</ele>
        <time>2022-06-25T08:17:28Z</time>
      </trkpt>
      <trkpt lat="46.43376" lon="5.40121">
        <ele>458.4</ele>
        <time>2022-06-25T08:17:29Z</time>
      </trkpt>
      <trkpt lat="46.43433" lon="5.40142">
        <ele>458.4</ele>
        <time>2022-06-25T08:17:36Z</time>
      </trkpt>
      <trkpt lat="46.43476" lon="5.40164">
        <ele>458.4</ele>
        <time>2022-06-25T08:17:42Z</time>
      </trkpt>
      <trkpt lat="46.43485" lon="5.40168">
        <ele>458.4</ele>
        <time>2022-06-25T08:17:43Z</time>
      </trkpt>
      <trkpt lat="46.43499" lon="5.40172">
        <ele>458.6</ele>
        <time>2022-06-25T08:17:45Z</time>
      </trkpt>
      <trkpt lat="46.43507" lon="5.40173">
        <ele>458.6</ele>
        <time>2022-06-25T08:17:46Z</time>
      </trkpt>
      <trkpt lat="46.43564" lon="5.40179">
        <ele>459.2</ele>
        <time>2022-06-25T08:17:54Z</time>
      </trkpt>
      <trkpt lat="46.4361" lon="5.4019">
        <ele>459</ele>
        <time>2022-06-25T08:18:00Z</time>
      </trkpt>
      <trkpt lat="46.43653" lon="5.40187">
        <ele>459.2</ele>
        <time>2022-06-25T08:18:06Z</time>
      </trkpt>
      <trkpt lat="46.43699" lon="5.4018">
        <ele>460</ele>
        <time>2022-06-25T08:18:13Z</time>
      </trkpt>
      <trkpt lat="46.43723" lon="5.40176">
        <ele>460.2</ele>
        <time>2022-06-25T08:18:17Z</time>
      </trkpt>
      <trkpt lat="46.4376" lon="5.40169">
        <ele>461.4</ele>
        <time>2022-06-25T08:18:23Z</time>
      </trkpt>
      <trkpt lat="46.43767" lon="5.40167">
        <ele>461.4</ele>
        <time>2022-06-25T08:18:24Z</time>
      </trkpt>
      <trkpt lat="46.43807" lon="5.40155">
        <ele>461.6</ele>
        <time>2022-06-25T08:18:30Z</time>
      </trkpt>
      <trkpt lat="46.43856" lon="5.40139">
        <ele>461.6</ele>
        <time>2022-06-25T08:18:37Z</time>
      </trkpt>
      <trkpt lat="46.43871" lon="5.40132">
        <ele>461.6</ele>
        <time>2022-06-25T08:18:39Z</time>
      </trkpt>
      <trkpt lat="46.43886" lon="5.40121">
        <ele>461.2</ele>
        <time>2022-06-25T08:18:41Z</time>
      </trkpt>
      <trkpt lat="46.4392" lon="5.40092">
        <ele>460.8</ele>
        <time>2022-06-25T08:18:46Z</time>
      </trkpt>
      <trkpt lat="46.43927" lon="5.40089">
        <ele>460.8</ele>
        <time>2022-06-25T08:18:47Z</time>
      </trkpt>
      <trkpt lat="46.43936" lon="5.40087">
        <ele>460.8</ele>
        <time>2022-06-25T08:18:48Z</time>
      </trkpt>
      <trkpt lat="46.4396" lon="5.40086">
        <ele>460.8</ele>
        <time>2022-06-25T08:18:51Z</time>
      </trkpt>
      <trkpt lat="46.44016" lon="5.40081">
        <ele>460.6</ele>
        <time>2022-06-25T08:18:58Z</time>
      </trkpt>
      <trkpt lat="46.44052" lon="5.40072">
        <ele>460.8</ele>
        <time>2022-06-25T08:19:03Z</time>
      </trkpt>
      <trkpt lat="46.44107" lon="5.40058">
        <ele>461.2</ele>
        <time>2022-06-25T08:19:11Z</time>
      </trkpt>
      <trkpt lat="46.44114" lon="5.40056">
        <ele>461.2</ele>
        <time>2022-06-25T08:19:12Z</time>
      </trkpt>
      <trkpt lat="46.44151" lon="5.40033">
        <ele>461.6</ele>
        <time>2022-06-25T08:19:18Z</time>
      </trkpt>
      <trkpt lat="46.44199" lon="5.39989">
        <ele>462.6</ele>
        <time>2022-06-25T08:19:27Z</time>
      </trkpt>
      <trkpt lat="46.44236" lon="5.39961">
        <ele>462.8</ele>
        <time>2022-06-25T08:19:33Z</time>
      </trkpt>
      <trkpt lat="46.44244" lon="5.39958">
        <ele>463</ele>
        <time>2022-06-25T08:19:34Z</time>
      </trkpt>
      <trkpt lat="46.44267" lon="5.39954">
        <ele>462.8</ele>
        <time>2022-06-25T08:19:37Z</time>
      </trkpt>
      <trkpt lat="46.44308" lon="5.39953">
        <ele>462.4</ele>
        <time>2022-06-25T08:19:43Z</time>
      </trkpt>
      <trkpt lat="46.44337" lon="5.39953">
        <ele>463.6</ele>
        <time>2022-06-25T08:19:48Z</time>
      </trkpt>
      <trkpt lat="46.44348" lon="5.39953">
        <ele>464.2</ele>
        <time>2022-06-25T08:19:50Z</time>
      </trkpt>
      <trkpt lat="46.44354" lon="5.39953">
        <ele>464.6</ele>
        <time>2022-06-25T08:19:51Z</time>
      </trkpt>
      <trkpt lat="46.44384" lon="5.39952">
        <ele>465.6</ele>
        <time>2022-06-25T08:19:56Z</time>
      </trkpt>
      <trkpt lat="46.44397" lon="5.39951">
        <ele>465.8</ele>
        <time>2022-06-25T08:19:58Z</time>
      </trkpt>
      <trkpt lat="46.44429" lon="5.39948">
        <ele>466.2</ele>
        <time>2022-06-25T08:20:02Z</time>
      </trkpt>
      <trkpt lat="46.44466" lon="5.39933">
        <ele>465.8</ele>
        <time>2022-06-25T08:20:07Z</time>
      </trkpt>
      <trkpt lat="46.44505" lon="5.39913">
        <ele>465.8</ele>
        <time>2022-06-25T08:20:13Z</time>
      </trkpt>
      <trkpt lat="46.44555" lon="5.3989">
        <ele>466.4</ele>
        <time>2022-06-25T08:20:21Z</time>
      </trkpt>
      <trkpt lat="46.44582" lon="5.39876">
        <ele>466.6</ele>
        <time>2022-06-25T08:20:25Z</time>
      </trkpt>
      <trkpt lat="46.44594" lon="5.39867">
        <ele>466.8</ele>
        <time>2022-06-25T08:20:27Z</time>
      </trkpt>
      <trkpt lat="46.44599" lon="5.39862">
        <ele>466.8</ele>
        <time>2022-06-25T08:20:28Z</time>
      </trkpt>
      <trkpt lat="46.44619" lon="5.39838">
        <ele>467.2</ele>
        <time>2022-06-25T08:20:32Z</time>
      </trkpt>
      <trkpt lat="46.44649" lon="5.39808">
        <ele>467.6</ele>
        <time>2022-06-25T08:20:37Z</time>
      </trkpt>
      <trkpt lat="46.44665" lon="5.398">
        <ele>467.6</ele>
        <time>2022-06-25T08:20:39Z</time>
      </trkpt>
      <trkpt lat="46.44683" lon="5.39798">
        <ele>467.4</ele>
        <time>2022-06-25T08:20:41Z</time>
      </trkpt>
      <trkpt lat="46.44733" lon="5.39801">
        <ele>466.2</ele>
        <time>2022-06-25T08:20:47Z</time>
      </trkpt>
      <trkpt lat="46.44769" lon="5.39802">
        <ele>466.6</ele>
        <time>2022-06-25T08:20:52Z</time>
      </trkpt>
      <trkpt lat="46.44789" lon="5.39801">
        <ele>468</ele>
        <time>2022-06-25T08:20:55Z</time>
      </trkpt>
      <trkpt lat="46.44802" lon="5.39798">
        <ele>468.4</ele>
        <time>2022-06-25T08:20:57Z</time>
      </trkpt>
      <trkpt lat="46.44809" lon="5.39796">
        <ele>469</ele>
        <time>2022-06-25T08:20:58Z</time>
      </trkpt>
      <trkpt lat="46.44831" lon="5.39782">
        <ele>469.6</ele>
        <time>2022-06-25T08:21:01Z</time>
      </trkpt>
      <trkpt lat="46.44871" lon="5.39758">
        <ele>469.2</ele>
        <time>2022-06-25T08:21:06Z</time>
      </trkpt>
      <trkpt lat="46.44906" lon="5.39749">
        <ele>469.2</ele>
        <time>2022-06-25T08:21:11Z</time>
      </trkpt>
      <trkpt lat="46.44947" lon="5.39736">
        <ele>470</ele>
        <time>2022-06-25T08:21:17Z</time>
      </trkpt>
      <trkpt lat="46.44976" lon="5.39727">
        <ele>470</ele>
        <time>2022-06-25T08:21:21Z</time>
      </trkpt>
      <trkpt lat="46.4499" lon="5.39717">
        <ele>470</ele>
        <time>2022-06-25T08:21:23Z</time>
      </trkpt>
      <trkpt lat="46.45027" lon="5.39678">
        <ele>470</ele>
        <time>2022-06-25T08:21:30Z</time>
      </trkpt>
      <trkpt lat="46.45059" lon="5.39651">
        <ele>471.2</ele>
        <time>2022-06-25T08:21:36Z</time>
      </trkpt>
      <trkpt lat="46.45065" lon="5.39647">
        <ele>471.4</ele>
        <time>2022-06-25T08:21:37Z</time>
      </trkpt>
      <trkpt lat="46.45093" lon="5.39627">
        <ele>472.2</ele>
        <time>2022-06-25T08:21:42Z</time>
      </trkpt>
      <trkpt lat="46.45117" lon="5.39611">
        <ele>473.2</ele>
        <time>2022-06-25T08:21:46Z</time>
      </trkpt>
      <trkpt lat="46.45123" lon="5.39608">
        <ele>473.6</ele>
        <time>2022-06-25T08:21:47Z</time>
      </trkpt>
      <trkpt lat="46.45158" lon="5.39592">
        <ele>474</ele>
        <time>2022-06-25T08:21:52Z</time>
      </trkpt>
      <trkpt lat="46.45205" lon="5.3957">
        <ele>473.6</ele>
        <time>2022-06-25T08:21:58Z</time>
      </trkpt>
      <trkpt lat="46.45248" lon="5.39548">
        <ele>472.2</ele>
        <time>2022-06-25T08:22:03Z</time>
      </trkpt>
      <trkpt lat="46.45257" lon="5.39542">
        <ele>471.8</ele>
        <time>2022-06-25T08:22:04Z</time>
      </trkpt>
      <trkpt lat="46.45272" lon="5.39526">
        <ele>471.2</ele>
        <time>2022-06-25T08:22:06Z</time>
      </trkpt>
      <trkpt lat="46.45294" lon="5.39502">
        <ele>470.6</ele>
        <time>2022-06-25T08:22:09Z</time>
      </trkpt>
      <trkpt lat="46.45312" lon="5.39475">
        <ele>470.2</ele>
        <time>2022-06-25T08:22:12Z</time>
      </trkpt>
      <trkpt lat="46.45322" lon="5.39455">
        <ele>470</ele>
        <time>2022-06-25T08:22:14Z</time>
      </trkpt>
      <trkpt lat="46.45342" lon="5.39401">
        <ele>469.6</ele>
        <time>2022-06-25T08:22:19Z</time>
      </trkpt>
      <trkpt lat="46.45355" lon="5.39366">
        <ele>469.2</ele>
        <time>2022-06-25T08:22:22Z</time>
      </trkpt>
      <trkpt lat="46.45364" lon="5.39341">
        <ele>468.8</ele>
        <time>2022-06-25T08:22:24Z</time>
      </trkpt>
      <trkpt lat="46.45378" lon="5.39302">
        <ele>467.4</ele>
        <time>2022-06-25T08:22:27Z</time>
      </trkpt>
      <trkpt lat="46.4539" lon="5.39263">
        <ele>466.2</ele>
        <time>2022-06-25T08:22:30Z</time>
      </trkpt>
      <trkpt lat="46.45404" lon="5.39227">
        <ele>464.6</ele>
        <time>2022-06-25T08:22:33Z</time>
      </trkpt>
      <trkpt lat="46.45413" lon="5.39203">
        <ele>464.2</ele>
        <time>2022-06-25T08:22:35Z</time>
      </trkpt>
      <trkpt lat="46.45422" lon="5.39178">
        <ele>463.6</ele>
        <time>2022-06-25T08:22:37Z</time>
      </trkpt>
      <trkpt lat="46.45444" lon="5.39117">
        <ele>462.8</ele>
        <time>2022-06-25T08:22:42Z</time>
      </trkpt>
      <trkpt lat="46.45451" lon="5.39106">
        <ele>462.4</ele>
        <time>2022-06-25T08:22:43Z</time>
      </trkpt>
      <trkpt lat="46.45468" lon="5.39085">
        <ele>461.4</ele>
        <time>2022-06-25T08:22:46Z</time>
      </trkpt>
      <trkpt lat="46.45473" lon="5.39085">
        <ele>460.8</ele>
        <time>2022-06-25T08:22:47Z</time>
      </trkpt>
      <trkpt lat="46.45478" lon="5.39088">
        <ele>460.6</ele>
        <time>2022-06-25T08:22:48Z</time>
      </trkpt>
      <trkpt lat="46.45483" lon="5.39095">
        <ele>460.4</ele>
        <time>2022-06-25T08:22:49Z</time>
      </trkpt>
      <trkpt lat="46.45497" lon="5.39115">
        <ele>459.6</ele>
        <time>2022-06-25T08:22:51Z</time>
      </trkpt>
      <trkpt lat="46.45503" lon="5.39123">
        <ele>459.6</ele>
        <time>2022-06-25T08:22:52Z</time>
      </trkpt>
      <trkpt lat="46.45551" lon="5.39172">
        <ele>459.8</ele>
        <time>2022-06-25T08:22:59Z</time>
      </trkpt>
      <trkpt lat="46.45557" lon="5.39179">
        <ele>460.2</ele>
        <time>2022-06-25T08:23:00Z</time>
      </trkpt>
      <trkpt lat="46.45569" lon="5.3919">
        <ele>461</ele>
        <time>2022-06-25T08:23:02Z</time>
      </trkpt>
      <trkpt lat="46.45586" lon="5.39206">
        <ele>461.8</ele>
        <time>2022-06-25T08:23:05Z</time>
      </trkpt>
      <trkpt lat="46.45596" lon="5.39216">
        <ele>462.2</ele>
        <time>2022-06-25T08:23:07Z</time>
      </trkpt>
      <trkpt lat="46.45616" lon="5.39234">
        <ele>463.4</ele>
        <time>2022-06-25T08:23:11Z</time>
      </trkpt>
      <trkpt lat="46.45639" lon="5.39259">
        <ele>465</ele>
        <time>2022-06-25T08:23:16Z</time>
      </trkpt>
      <trkpt lat="46.45644" lon="5.39263">
        <ele>465.2</ele>
        <time>2022-06-25T08:23:17Z</time>
      </trkpt>
      <trkpt lat="46.45663" lon="5.39284">
        <ele>466.4</ele>
        <time>2022-06-25T08:23:22Z</time>
      </trkpt>
      <trkpt lat="46.45671" lon="5.39291">
        <ele>466.6</ele>
        <time>2022-06-25T08:23:24Z</time>
      </trkpt>
      <trkpt lat="46.45692" lon="5.39315">
        <ele>467.4</ele>
        <time>2022-06-25T08:23:30Z</time>
      </trkpt>
      <trkpt lat="46.45705" lon="5.39329">
        <ele>467.8</ele>
        <time>2022-06-25T08:23:34Z</time>
      </trkpt>
      <trkpt lat="46.45718" lon="5.39342">
        <ele>468.4</ele>
        <time>2022-06-25T08:23:38Z</time>
      </trkpt>
      <trkpt lat="46.45728" lon="5.39353">
        <ele>469.4</ele>
        <time>2022-06-25T08:23:41Z</time>
      </trkpt>
      <trkpt lat="46.45737" lon="5.39363">
        <ele>470</ele>
        <time>2022-06-25T08:23:44Z</time>
      </trkpt>
      <trkpt lat="46.45743" lon="5.39371">
        <ele>470.8</ele>
        <time>2022-06-25T08:23:46Z</time>
      </trkpt>
      <trkpt lat="46.45756" lon="5.39393">
        <ele>471.8</ele>
        <time>2022-06-25T08:23:51Z</time>
      </trkpt>
      <trkpt lat="46.45761" lon="5.39409">
        <ele>472.8</ele>
        <time>2022-06-25T08:23:54Z</time>
      </trkpt>
      <trkpt lat="46.45768" lon="5.39436">
        <ele>473.8</ele>
        <time>2022-06-25T08:23:59Z</time>
      </trkpt>
      <trkpt lat="46.45769" lon="5.39442">
        <ele>474.2</ele>
        <time>2022-06-25T08:24:00Z</time>
      </trkpt>
      <trkpt lat="46.4577" lon="5.39448">
        <ele>474.4</ele>
        <time>2022-06-25T08:24:01Z</time>
      </trkpt>
      <trkpt lat="46.45771" lon="5.39478">
        <ele>475.2</ele>
        <time>2022-06-25T08:24:06Z</time>
      </trkpt>
      <trkpt lat="46.45768" lon="5.39508">
        <ele>476.2</ele>
        <time>2022-06-25T08:24:11Z</time>
      </trkpt>
      <trkpt lat="46.45765" lon="5.39528">
        <ele>476.8</ele>
        <time>2022-06-25T08:24:14Z</time>
      </trkpt>
      <trkpt lat="46.45759" lon="5.39568">
        <ele>477.6</ele>
        <time>2022-06-25T08:24:20Z</time>
      </trkpt>
      <trkpt lat="46.45759" lon="5.39583">
        <ele>477.8</ele>
        <time>2022-06-25T08:24:22Z</time>
      </trkpt>
      <trkpt lat="46.45762" lon="5.39626">
        <ele>478.6</ele>
        <time>2022-06-25T08:24:28Z</time>
      </trkpt>
      <trkpt lat="46.45763" lon="5.39633">
        <ele>478.8</ele>
        <time>2022-06-25T08:24:29Z</time>
      </trkpt>
      <trkpt lat="46.45774" lon="5.39669">
        <ele>479.8</ele>
        <time>2022-06-25T08:24:35Z</time>
      </trkpt>
      <trkpt lat="46.45777" lon="5.39675">
        <ele>479.8</ele>
        <time>2022-06-25T08:24:36Z</time>
      </trkpt>
      <trkpt lat="46.45793" lon="5.39701">
        <ele>481</ele>
        <time>2022-06-25T08:24:41Z</time>
      </trkpt>
      <trkpt lat="46.45803" lon="5.39715">
        <ele>481.6</ele>
        <time>2022-06-25T08:24:44Z</time>
      </trkpt>
      <trkpt lat="46.45807" lon="5.39719">
        <ele>481.4</ele>
        <time>2022-06-25T08:24:45Z</time>
      </trkpt>
      <trkpt lat="46.45816" lon="5.39726">
        <ele>482</ele>
        <time>2022-06-25T08:24:47Z</time>
      </trkpt>
      <trkpt lat="46.45833" lon="5.3974">
        <ele>482.6</ele>
        <time>2022-06-25T08:24:51Z</time>
      </trkpt>
      <trkpt lat="46.45842" lon="5.39747">
        <ele>483.2</ele>
        <time>2022-06-25T08:24:53Z</time>
      </trkpt>
      <trkpt lat="46.45863" lon="5.39764">
        <ele>484</ele>
        <time>2022-06-25T08:24:58Z</time>
      </trkpt>
      <trkpt lat="46.45895" lon="5.39795">
        <ele>485.4</ele>
        <time>2022-06-25T08:25:06Z</time>
      </trkpt>
      <trkpt lat="46.45899" lon="5.39799">
        <ele>485.8</ele>
        <time>2022-06-25T08:25:07Z</time>
      </trkpt>
      <trkpt lat="46.45921" lon="5.39818">
        <ele>485.8</ele>
        <time>2022-06-25T08:25:11Z</time>
      </trkpt>
      <trkpt lat="46.45937" lon="5.39831">
        <ele>486</ele>
        <time>2022-06-25T08:25:14Z</time>
      </trkpt>
      <trkpt lat="46.45953" lon="5.39844">
        <ele>486</ele>
        <time>2022-06-25T08:25:17Z</time>
      </trkpt>
      <trkpt lat="46.45998" lon="5.39879">
        <ele>486</ele>
        <time>2022-06-25T08:25:25Z</time>
      </trkpt>
      <trkpt lat="46.46042" lon="5.39917">
        <ele>486.4</ele>
        <time>2022-06-25T08:25:33Z</time>
      </trkpt>
      <trkpt lat="46.46053" lon="5.39927">
        <ele>486.8</ele>
        <time>2022-06-25T08:25:35Z</time>
      </trkpt>
      <trkpt lat="46.46088" lon="5.39958">
        <ele>487.4</ele>
        <time>2022-06-25T08:25:42Z</time>
      </trkpt>
      <trkpt lat="46.46095" lon="5.39964">
        <ele>487.6</ele>
        <time>2022-06-25T08:25:43Z</time>
      </trkpt>
      <trkpt lat="46.46139" lon="5.40001">
        <ele>488</ele>
        <time>2022-06-25T08:25:51Z</time>
      </trkpt>
      <trkpt lat="46.46163" lon="5.40022">
        <ele>488.2</ele>
        <time>2022-06-25T08:25:55Z</time>
      </trkpt>
      <trkpt lat="46.46171" lon="5.40036">
        <ele>488.2</ele>
        <time>2022-06-25T08:25:57Z</time>
      </trkpt>
      <trkpt lat="46.46186" lon="5.40074">
        <ele>488.6</ele>
        <time>2022-06-25T08:26:02Z</time>
      </trkpt>
      <trkpt lat="46.46188" lon="5.40082">
        <ele>488.6</ele>
        <time>2022-06-25T08:26:03Z</time>
      </trkpt>
      <trkpt lat="46.46189" lon="5.4009">
        <ele>488.6</ele>
        <time>2022-06-25T08:26:04Z</time>
      </trkpt>
      <trkpt lat="46.46192" lon="5.40122">
        <ele>489.4</ele>
        <time>2022-06-25T08:26:08Z</time>
      </trkpt>
      <trkpt lat="46.46192" lon="5.40129">
        <ele>489.8</ele>
        <time>2022-06-25T08:26:09Z</time>
      </trkpt>
      <trkpt lat="46.46194" lon="5.40136">
        <ele>490</ele>
        <time>2022-06-25T08:26:10Z</time>
      </trkpt>
      <trkpt lat="46.46203" lon="5.40143">
        <ele>490.2</ele>
        <time>2022-06-25T08:26:12Z</time>
      </trkpt>
      <trkpt lat="46.46213" lon="5.40137">
        <ele>490.4</ele>
        <time>2022-06-25T08:26:14Z</time>
      </trkpt>
      <trkpt lat="46.46218" lon="5.40132">
        <ele>490.4</ele>
        <time>2022-06-25T08:26:15Z</time>
      </trkpt>
      <trkpt lat="46.46232" lon="5.40118">
        <ele>491</ele>
        <time>2022-06-25T08:26:18Z</time>
      </trkpt>
      <trkpt lat="46.46252" lon="5.40101">
        <ele>491.2</ele>
        <time>2022-06-25T08:26:22Z</time>
      </trkpt>
      <trkpt lat="46.46256" lon="5.40099">
        <ele>491.4</ele>
        <time>2022-06-25T08:26:23Z</time>
      </trkpt>
      <trkpt lat="46.46272" lon="5.40095">
        <ele>492</ele>
        <time>2022-06-25T08:26:26Z</time>
      </trkpt>
      <trkpt lat="46.46277" lon="5.40095">
        <ele>492.2</ele>
        <time>2022-06-25T08:26:27Z</time>
      </trkpt>
      <trkpt lat="46.46299" lon="5.40097">
        <ele>493.2</ele>
        <time>2022-06-25T08:26:32Z</time>
      </trkpt>
      <trkpt lat="46.46308" lon="5.40098">
        <ele>493.8</ele>
        <time>2022-06-25T08:26:34Z</time>
      </trkpt>
      <trkpt lat="46.46311" lon="5.40098">
        <ele>494.2</ele>
        <time>2022-06-25T08:26:35Z</time>
      </trkpt>
      <trkpt lat="46.46329" lon="5.40098">
        <ele>495.2</ele>
        <time>2022-06-25T08:26:39Z</time>
      </trkpt>
      <trkpt lat="46.46344" lon="5.40095">
        <ele>496</ele>
        <time>2022-06-25T08:26:42Z</time>
      </trkpt>
      <trkpt lat="46.46355" lon="5.40092">
        <ele>496.4</ele>
        <time>2022-06-25T08:26:44Z</time>
      </trkpt>
      <trkpt lat="46.46377" lon="5.40089">
        <ele>497.2</ele>
        <time>2022-06-25T08:26:48Z</time>
      </trkpt>
      <trkpt lat="46.46383" lon="5.40088">
        <ele>497.6</ele>
        <time>2022-06-25T08:26:49Z</time>
      </trkpt>
      <trkpt lat="46.46416" lon="5.40081">
        <ele>498.8</ele>
        <time>2022-06-25T08:26:56Z</time>
      </trkpt>
      <trkpt lat="46.46426" lon="5.40079">
        <ele>499</ele>
        <time>2022-06-25T08:26:58Z</time>
      </trkpt>
      <trkpt lat="46.46455" lon="5.40074">
        <ele>499.8</ele>
        <time>2022-06-25T08:27:04Z</time>
      </trkpt>
      <trkpt lat="46.46475" lon="5.40072">
        <ele>500.6</ele>
        <time>2022-06-25T08:27:08Z</time>
      </trkpt>
      <trkpt lat="46.4648" lon="5.40072">
        <ele>500.8</ele>
        <time>2022-06-25T08:27:09Z</time>
      </trkpt>
      <trkpt lat="46.4651" lon="5.40076">
        <ele>501.6</ele>
        <time>2022-06-25T08:27:15Z</time>
      </trkpt>
      <trkpt lat="46.46515" lon="5.40079">
        <ele>501.8</ele>
        <time>2022-06-25T08:27:16Z</time>
      </trkpt>
      <trkpt lat="46.46539" lon="5.4009">
        <ele>502.6</ele>
        <time>2022-06-25T08:27:21Z</time>
      </trkpt>
      <trkpt lat="46.46548" lon="5.40096">
        <ele>503</ele>
        <time>2022-06-25T08:27:23Z</time>
      </trkpt>
      <trkpt lat="46.46571" lon="5.40108">
        <ele>503.6</ele>
        <time>2022-06-25T08:27:28Z</time>
      </trkpt>
      <trkpt lat="46.46586" lon="5.40116">
        <ele>504</ele>
        <time>2022-06-25T08:27:31Z</time>
      </trkpt>
      <trkpt lat="46.46613" lon="5.4013">
        <ele>505.4</ele>
        <time>2022-06-25T08:27:37Z</time>
      </trkpt>
      <trkpt lat="46.46617" lon="5.40132">
        <ele>505.6</ele>
        <time>2022-06-25T08:27:38Z</time>
      </trkpt>
      <trkpt lat="46.46633" lon="5.4014">
        <ele>506.4</ele>
        <time>2022-06-25T08:27:42Z</time>
      </trkpt>
      <trkpt lat="46.46648" lon="5.40148">
        <ele>507</ele>
        <time>2022-06-25T08:27:46Z</time>
      </trkpt>
      <trkpt lat="46.46656" lon="5.40152">
        <ele>507.4</ele>
        <time>2022-06-25T08:27:48Z</time>
      </trkpt>
      <trkpt lat="46.46674" lon="5.40162">
        <ele>508.4</ele>
        <time>2022-06-25T08:27:53Z</time>
      </trkpt>
      <trkpt lat="46.46684" lon="5.40167">
        <ele>509.2</ele>
        <time>2022-06-25T08:27:56Z</time>
      </trkpt>
      <trkpt lat="46.46691" lon="5.40171">
        <ele>509.8</ele>
        <time>2022-06-25T08:27:58Z</time>
      </trkpt>
      <trkpt lat="46.46703" lon="5.40176">
        <ele>511</ele>
        <time>2022-06-25T08:28:01Z</time>
      </trkpt>
      <trkpt lat="46.46715" lon="5.40182">
        <ele>511.4</ele>
        <time>2022-06-25T08:28:04Z</time>
      </trkpt>
      <trkpt lat="46.46727" lon="5.40187">
        <ele>512.4</ele>
        <time>2022-06-25T08:28:07Z</time>
      </trkpt>
      <trkpt lat="46.46745" lon="5.40195">
        <ele>514</ele>
        <time>2022-06-25T08:28:12Z</time>
      </trkpt>
      <trkpt lat="46.46755" lon="5.40201">
        <ele>514.8</ele>
        <time>2022-06-25T08:28:15Z</time>
      </trkpt>
      <trkpt lat="46.46759" lon="5.40203">
        <ele>515</ele>
        <time>2022-06-25T08:28:16Z</time>
      </trkpt>
      <trkpt lat="46.4677" lon="5.40209">
        <ele>515.8</ele>
        <time>2022-06-25T08:28:19Z</time>
      </trkpt>
      <trkpt lat="46.46776" lon="5.40213">
        <ele>516</ele>
        <time>2022-06-25T08:28:21Z</time>
      </trkpt>
      <trkpt lat="46.46779" lon="5.40215">
        <ele>516.2</ele>
        <time>2022-06-25T08:28:22Z</time>
      </trkpt>
      <trkpt lat="46.46796" lon="5.40225">
        <ele>517.2</ele>
        <time>2022-06-25T08:28:27Z</time>
      </trkpt>
      <trkpt lat="46.46805" lon="5.40229">
        <ele>517.8</ele>
        <time>2022-06-25T08:28:29Z</time>
      </trkpt>
      <trkpt lat="46.46813" lon="5.40233">
        <ele>518</ele>
        <time>2022-06-25T08:28:31Z</time>
      </trkpt>
      <trkpt lat="46.46841" lon="5.40246">
        <ele>519.4</ele>
        <time>2022-06-25T08:28:38Z</time>
      </trkpt>
      <trkpt lat="46.46862" lon="5.40255">
        <ele>520.6</ele>
        <time>2022-06-25T08:28:43Z</time>
      </trkpt>
      <trkpt lat="46.4687" lon="5.4026">
        <ele>521</ele>
        <time>2022-06-25T08:28:45Z</time>
      </trkpt>
      <trkpt lat="46.46883" lon="5.40267">
        <ele>521.6</ele>
        <time>2022-06-25T08:28:48Z</time>
      </trkpt>
      <trkpt lat="46.46888" lon="5.40269">
        <ele>521.8</ele>
        <time>2022-06-25T08:28:49Z</time>
      </trkpt>
      <trkpt lat="46.46898" lon="5.40273">
        <ele>522</ele>
        <time>2022-06-25T08:28:51Z</time>
      </trkpt>
      <trkpt lat="46.46922" lon="5.40285">
        <ele>522.8</ele>
        <time>2022-06-25T08:28:56Z</time>
      </trkpt>
      <trkpt lat="46.46932" lon="5.4029">
        <ele>523</ele>
        <time>2022-06-25T08:28:58Z</time>
      </trkpt>
      <trkpt lat="46.46964" lon="5.40307">
        <ele>524.2</ele>
        <time>2022-06-25T08:29:05Z</time>
      </trkpt>
      <trkpt lat="46.46977" lon="5.40312">
        <ele>524.8</ele>
        <time>2022-06-25T08:29:08Z</time>
      </trkpt>
      <trkpt lat="46.46987" lon="5.40316">
        <ele>525.2</ele>
        <time>2022-06-25T08:29:10Z</time>
      </trkpt>
      <trkpt lat="46.4701" lon="5.40322">
        <ele>526.4</ele>
        <time>2022-06-25T08:29:15Z</time>
      </trkpt>
      <trkpt lat="46.47019" lon="5.40323">
        <ele>526.8</ele>
        <time>2022-06-25T08:29:17Z</time>
      </trkpt>
      <trkpt lat="46.47055" lon="5.40326">
        <ele>527.2</ele>
        <time>2022-06-25T08:29:23Z</time>
      </trkpt>
      <trkpt lat="46.47079" lon="5.4033">
        <ele>527.4</ele>
        <time>2022-06-25T08:29:26Z</time>
      </trkpt>
      <trkpt lat="46.47087" lon="5.40332">
        <ele>527.4</ele>
        <time>2022-06-25T08:29:27Z</time>
      </trkpt>
      <trkpt lat="46.47134" lon="5.40338">
        <ele>526.8</ele>
        <time>2022-06-25T08:29:32Z</time>
      </trkpt>
      <trkpt lat="46.47144" lon="5.4034">
        <ele>526.4</ele>
        <time>2022-06-25T08:29:33Z</time>
      </trkpt>
      <trkpt lat="46.47175" lon="5.40349">
        <ele>524.8</ele>
        <time>2022-06-25T08:29:36Z</time>
      </trkpt>
      <trkpt lat="46.47195" lon="5.40361">
        <ele>524.4</ele>
        <time>2022-06-25T08:29:38Z</time>
      </trkpt>
      <trkpt lat="46.47204" lon="5.40369">
        <ele>524</ele>
        <time>2022-06-25T08:29:39Z</time>
      </trkpt>
      <trkpt lat="46.47211" lon="5.40378">
        <ele>523.6</ele>
        <time>2022-06-25T08:29:40Z</time>
      </trkpt>
      <trkpt lat="46.47229" lon="5.40401">
        <ele>522.8</ele>
        <time>2022-06-25T08:29:42Z</time>
      </trkpt>
      <trkpt lat="46.47239" lon="5.4041">
        <ele>522</ele>
        <time>2022-06-25T08:29:43Z</time>
      </trkpt>
      <trkpt lat="46.47263" lon="5.40426">
        <ele>520.6</ele>
        <time>2022-06-25T08:29:45Z</time>
      </trkpt>
      <trkpt lat="46.47298" lon="5.4044">
        <ele>519.6</ele>
        <time>2022-06-25T08:29:48Z</time>
      </trkpt>
      <trkpt lat="46.47323" lon="5.40445">
        <ele>518.6</ele>
        <time>2022-06-25T08:29:50Z</time>
      </trkpt>
      <trkpt lat="46.47348" lon="5.40448">
        <ele>517.4</ele>
        <time>2022-06-25T08:29:52Z</time>
      </trkpt>
      <trkpt lat="46.47381" lon="5.4045">
        <ele>516.4</ele>
        <time>2022-06-25T08:29:55Z</time>
      </trkpt>
      <trkpt lat="46.47404" lon="5.40449">
        <ele>515</ele>
        <time>2022-06-25T08:29:57Z</time>
      </trkpt>
      <trkpt lat="46.47428" lon="5.40448">
        <ele>514</ele>
        <time>2022-06-25T08:29:59Z</time>
      </trkpt>
      <trkpt lat="46.47451" lon="5.40449">
        <ele>513</ele>
        <time>2022-06-25T08:30:01Z</time>
      </trkpt>
      <trkpt lat="46.47462" lon="5.40451">
        <ele>512.4</ele>
        <time>2022-06-25T08:30:02Z</time>
      </trkpt>
      <trkpt lat="46.47483" lon="5.40456">
        <ele>511.4</ele>
        <time>2022-06-25T08:30:04Z</time>
      </trkpt>
      <trkpt lat="46.475" lon="5.40464">
        <ele>510.2</ele>
        <time>2022-06-25T08:30:06Z</time>
      </trkpt>
      <trkpt lat="46.47517" lon="5.40478">
        <ele>508.2</ele>
        <time>2022-06-25T08:30:08Z</time>
      </trkpt>
      <trkpt lat="46.47525" lon="5.40481">
        <ele>507.2</ele>
        <time>2022-06-25T08:30:09Z</time>
      </trkpt>
      <trkpt lat="46.47531" lon="5.40478">
        <ele>506.8</ele>
        <time>2022-06-25T08:30:10Z</time>
      </trkpt>
      <trkpt lat="46.47536" lon="5.4047">
        <ele>506</ele>
        <time>2022-06-25T08:30:11Z</time>
      </trkpt>
      <trkpt lat="46.4754" lon="5.40458">
        <ele>505.4</ele>
        <time>2022-06-25T08:30:12Z</time>
      </trkpt>
      <trkpt lat="46.47541" lon="5.40444">
        <ele>504.8</ele>
        <time>2022-06-25T08:30:13Z</time>
      </trkpt>
      <trkpt lat="46.47541" lon="5.4043">
        <ele>504.6</ele>
        <time>2022-06-25T08:30:14Z</time>
      </trkpt>
      <trkpt lat="46.47539" lon="5.40416">
        <ele>503.6</ele>
        <time>2022-06-25T08:30:15Z</time>
      </trkpt>
      <trkpt lat="46.47535" lon="5.40402">
        <ele>502.8</ele>
        <time>2022-06-25T08:30:16Z</time>
      </trkpt>
      <trkpt lat="46.4753" lon="5.40389">
        <ele>502.2</ele>
        <time>2022-06-25T08:30:17Z</time>
      </trkpt>
      <trkpt lat="46.47526" lon="5.40375">
        <ele>501.8</ele>
        <time>2022-06-25T08:30:18Z</time>
      </trkpt>
      <trkpt lat="46.47522" lon="5.40358">
        <ele>501.4</ele>
        <time>2022-06-25T08:30:19Z</time>
      </trkpt>
      <trkpt lat="46.47521" lon="5.40342">
        <ele>500.8</ele>
        <time>2022-06-25T08:30:20Z</time>
      </trkpt>
      <trkpt lat="46.47527" lon="5.40312">
        <ele>499.8</ele>
        <time>2022-06-25T08:30:22Z</time>
      </trkpt>
      <trkpt lat="46.47534" lon="5.40299">
        <ele>499.6</ele>
        <time>2022-06-25T08:30:23Z</time>
      </trkpt>
      <trkpt lat="46.47543" lon="5.40287">
        <ele>499.2</ele>
        <time>2022-06-25T08:30:24Z</time>
      </trkpt>
      <trkpt lat="46.47553" lon="5.40277">
        <ele>498.6</ele>
        <time>2022-06-25T08:30:25Z</time>
      </trkpt>
      <trkpt lat="46.47563" lon="5.40268">
        <ele>497.8</ele>
        <time>2022-06-25T08:30:26Z</time>
      </trkpt>
      <trkpt lat="46.47575" lon="5.40261">
        <ele>496.6</ele>
        <time>2022-06-25T08:30:27Z</time>
      </trkpt>
      <trkpt lat="46.47588" lon="5.40257">
        <ele>496</ele>
        <time>2022-06-25T08:30:28Z</time>
      </trkpt>
      <trkpt lat="46.47601" lon="5.40254">
        <ele>495.2</ele>
        <time>2022-06-25T08:30:29Z</time>
      </trkpt>
      <trkpt lat="46.47641" lon="5.40247">
        <ele>492.8</ele>
        <time>2022-06-25T08:30:32Z</time>
      </trkpt>
      <trkpt lat="46.47666" lon="5.40246">
        <ele>491.4</ele>
        <time>2022-06-25T08:30:34Z</time>
      </trkpt>
      <trkpt lat="46.47693" lon="5.40242">
        <ele>490.8</ele>
        <time>2022-06-25T08:30:36Z</time>
      </trkpt>
      <trkpt lat="46.47721" lon="5.4023">
        <ele>490</ele>
        <time>2022-06-25T08:30:38Z</time>
      </trkpt>
      <trkpt lat="46.47729" lon="5.40223">
        <ele>489.6</ele>
        <time>2022-06-25T08:30:39Z</time>
      </trkpt>
      <trkpt lat="46.47727" lon="5.40205">
        <ele>489.4</ele>
        <time>2022-06-25T08:30:40Z</time>
      </trkpt>
      <trkpt lat="46.47734" lon="5.40173">
        <ele>488.4</ele>
        <time>2022-06-25T08:30:42Z</time>
      </trkpt>
      <trkpt lat="46.47743" lon="5.4016">
        <ele>487.6</ele>
        <time>2022-06-25T08:30:43Z</time>
      </trkpt>
      <trkpt lat="46.47752" lon="5.40147">
        <ele>487.4</ele>
        <time>2022-06-25T08:30:44Z</time>
      </trkpt>
      <trkpt lat="46.47761" lon="5.40134">
        <ele>486.8</ele>
        <time>2022-06-25T08:30:45Z</time>
      </trkpt>
      <trkpt lat="46.47769" lon="5.40119">
        <ele>486.2</ele>
        <time>2022-06-25T08:30:46Z</time>
      </trkpt>
      <trkpt lat="46.47772" lon="5.40103">
        <ele>485.8</ele>
        <time>2022-06-25T08:30:47Z</time>
      </trkpt>
      <trkpt lat="46.47773" lon="5.40087">
        <ele>484.8</ele>
        <time>2022-06-25T08:30:48Z</time>
      </trkpt>
      <trkpt lat="46.47772" lon="5.4007">
        <ele>484.6</ele>
        <time>2022-06-25T08:30:49Z</time>
      </trkpt>
      <trkpt lat="46.47767" lon="5.40036">
        <ele>483.6</ele>
        <time>2022-06-25T08:30:51Z</time>
      </trkpt>
      <trkpt lat="46.47769" lon="5.40008">
        <ele>482.2</ele>
        <time>2022-06-25T08:30:53Z</time>
      </trkpt>
      <trkpt lat="46.47775" lon="5.39998">
        <ele>481.8</ele>
        <time>2022-06-25T08:30:54Z</time>
      </trkpt>
      <trkpt lat="46.47782" lon="5.39992">
        <ele>481</ele>
        <time>2022-06-25T08:30:55Z</time>
      </trkpt>
      <trkpt lat="46.47795" lon="5.39985">
        <ele>480.6</ele>
        <time>2022-06-25T08:30:56Z</time>
      </trkpt>
      <trkpt lat="46.47806" lon="5.3998">
        <ele>479.6</ele>
        <time>2022-06-25T08:30:57Z</time>
      </trkpt>
      <trkpt lat="46.4784" lon="5.39966">
        <ele>477.4</ele>
        <time>2022-06-25T08:31:00Z</time>
      </trkpt>
      <trkpt lat="46.47865" lon="5.39953">
        <ele>475.2</ele>
        <time>2022-06-25T08:31:02Z</time>
      </trkpt>
      <trkpt lat="46.47885" lon="5.39942">
        <ele>474.2</ele>
        <time>2022-06-25T08:31:04Z</time>
      </trkpt>
      <trkpt lat="46.47907" lon="5.3993">
        <ele>473</ele>
        <time>2022-06-25T08:31:06Z</time>
      </trkpt>
      <trkpt lat="46.4793" lon="5.39917">
        <ele>472</ele>
        <time>2022-06-25T08:31:08Z</time>
      </trkpt>
      <trkpt lat="46.47942" lon="5.39911">
        <ele>471.4</ele>
        <time>2022-06-25T08:31:09Z</time>
      </trkpt>
      <trkpt lat="46.47953" lon="5.39906">
        <ele>471</ele>
        <time>2022-06-25T08:31:10Z</time>
      </trkpt>
      <trkpt lat="46.47988" lon="5.3989">
        <ele>469.2</ele>
        <time>2022-06-25T08:31:13Z</time>
      </trkpt>
      <trkpt lat="46.47999" lon="5.39886">
        <ele>468.6</ele>
        <time>2022-06-25T08:31:14Z</time>
      </trkpt>
      <trkpt lat="46.48009" lon="5.39883">
        <ele>468.4</ele>
        <time>2022-06-25T08:31:15Z</time>
      </trkpt>
      <trkpt lat="46.48019" lon="5.39883">
        <ele>467.6</ele>
        <time>2022-06-25T08:31:16Z</time>
      </trkpt>
      <trkpt lat="46.48029" lon="5.39885">
        <ele>467.4</ele>
        <time>2022-06-25T08:31:17Z</time>
      </trkpt>
      <trkpt lat="46.48058" lon="5.39904">
        <ele>466.8</ele>
        <time>2022-06-25T08:31:20Z</time>
      </trkpt>
      <trkpt lat="46.48068" lon="5.39908">
        <ele>466.6</ele>
        <time>2022-06-25T08:31:21Z</time>
      </trkpt>
      <trkpt lat="46.48076" lon="5.3991">
        <ele>466.6</ele>
        <time>2022-06-25T08:31:22Z</time>
      </trkpt>
      <trkpt lat="46.48097" lon="5.39911">
        <ele>466.4</ele>
        <time>2022-06-25T08:31:24Z</time>
      </trkpt>
      <trkpt lat="46.4815" lon="5.39897">
        <ele>466.2</ele>
        <time>2022-06-25T08:31:29Z</time>
      </trkpt>
      <trkpt lat="46.48187" lon="5.39874">
        <ele>466.2</ele>
        <time>2022-06-25T08:31:33Z</time>
      </trkpt>
      <trkpt lat="46.48198" lon="5.39852">
        <ele>466.2</ele>
        <time>2022-06-25T08:31:35Z</time>
      </trkpt>
      <trkpt lat="46.48198" lon="5.39826">
        <ele>466.2</ele>
        <time>2022-06-25T08:31:37Z</time>
      </trkpt>
      <trkpt lat="46.48184" lon="5.39745">
        <ele>465.6</ele>
        <time>2022-06-25T08:31:43Z</time>
      </trkpt>
      <trkpt lat="46.48182" lon="5.39732">
        <ele>465.6</ele>
        <time>2022-06-25T08:31:44Z</time>
      </trkpt>
      <trkpt lat="46.48181" lon="5.39719">
        <ele>465.4</ele>
        <time>2022-06-25T08:31:45Z</time>
      </trkpt>
      <trkpt lat="46.48178" lon="5.39647">
        <ele>464.4</ele>
        <time>2022-06-25T08:31:50Z</time>
      </trkpt>
      <trkpt lat="46.48182" lon="5.39628">
        <ele>464</ele>
        <time>2022-06-25T08:31:51Z</time>
      </trkpt>
      <trkpt lat="46.48187" lon="5.39615">
        <ele>463.6</ele>
        <time>2022-06-25T08:31:52Z</time>
      </trkpt>
      <trkpt lat="46.48194" lon="5.39601">
        <ele>463.2</ele>
        <time>2022-06-25T08:31:53Z</time>
      </trkpt>
      <trkpt lat="46.48206" lon="5.39575">
        <ele>462.2</ele>
        <time>2022-06-25T08:31:55Z</time>
      </trkpt>
      <trkpt lat="46.48211" lon="5.39556">
        <ele>462</ele>
        <time>2022-06-25T08:31:56Z</time>
      </trkpt>
      <trkpt lat="46.48215" lon="5.39539">
        <ele>460.6</ele>
        <time>2022-06-25T08:31:57Z</time>
      </trkpt>
      <trkpt lat="46.48221" lon="5.39511">
        <ele>459.6</ele>
        <time>2022-06-25T08:31:59Z</time>
      </trkpt>
      <trkpt lat="46.48228" lon="5.39496">
        <ele>458.4</ele>
        <time>2022-06-25T08:32:00Z</time>
      </trkpt>
      <trkpt lat="46.48234" lon="5.39485">
        <ele>458</ele>
        <time>2022-06-25T08:32:01Z</time>
      </trkpt>
      <trkpt lat="46.48241" lon="5.39477">
        <ele>456.8</ele>
        <time>2022-06-25T08:32:02Z</time>
      </trkpt>
      <trkpt lat="46.48248" lon="5.39469">
        <ele>456.4</ele>
        <time>2022-06-25T08:32:03Z</time>
      </trkpt>
      <trkpt lat="46.48254" lon="5.39465">
        <ele>455</ele>
        <time>2022-06-25T08:32:04Z</time>
      </trkpt>
      <trkpt lat="46.48264" lon="5.39461">
        <ele>454.2</ele>
        <time>2022-06-25T08:32:05Z</time>
      </trkpt>
      <trkpt lat="46.48274" lon="5.39462">
        <ele>453.4</ele>
        <time>2022-06-25T08:32:06Z</time>
      </trkpt>
      <trkpt lat="46.48283" lon="5.39462">
        <ele>452.2</ele>
        <time>2022-06-25T08:32:07Z</time>
      </trkpt>
      <trkpt lat="46.48301" lon="5.3946">
        <ele>451</ele>
        <time>2022-06-25T08:32:09Z</time>
      </trkpt>
      <trkpt lat="46.48318" lon="5.3945">
        <ele>449.2</ele>
        <time>2022-06-25T08:32:11Z</time>
      </trkpt>
      <trkpt lat="46.4832" lon="5.3944">
        <ele>448.2</ele>
        <time>2022-06-25T08:32:12Z</time>
      </trkpt>
      <trkpt lat="46.4832" lon="5.39426">
        <ele>447.8</ele>
        <time>2022-06-25T08:32:13Z</time>
      </trkpt>
      <trkpt lat="46.48322" lon="5.39412">
        <ele>447.2</ele>
        <time>2022-06-25T08:32:14Z</time>
      </trkpt>
      <trkpt lat="46.48336" lon="5.39379">
        <ele>446</ele>
        <time>2022-06-25T08:32:16Z</time>
      </trkpt>
      <trkpt lat="46.48343" lon="5.39364">
        <ele>445.8</ele>
        <time>2022-06-25T08:32:17Z</time>
      </trkpt>
      <trkpt lat="46.48349" lon="5.39353">
        <ele>444.8</ele>
        <time>2022-06-25T08:32:18Z</time>
      </trkpt>
      <trkpt lat="46.48366" lon="5.3933">
        <ele>443.4</ele>
        <time>2022-06-25T08:32:20Z</time>
      </trkpt>
      <trkpt lat="46.48376" lon="5.39323">
        <ele>442.4</ele>
        <time>2022-06-25T08:32:21Z</time>
      </trkpt>
      <trkpt lat="46.48387" lon="5.39322">
        <ele>441.8</ele>
        <time>2022-06-25T08:32:22Z</time>
      </trkpt>
      <trkpt lat="46.48399" lon="5.39323">
        <ele>440.6</ele>
        <time>2022-06-25T08:32:23Z</time>
      </trkpt>
      <trkpt lat="46.48426" lon="5.39326">
        <ele>439.4</ele>
        <time>2022-06-25T08:32:25Z</time>
      </trkpt>
      <trkpt lat="46.48441" lon="5.39324">
        <ele>437.8</ele>
        <time>2022-06-25T08:32:26Z</time>
      </trkpt>
      <trkpt lat="46.48454" lon="5.3932">
        <ele>436.4</ele>
        <time>2022-06-25T08:32:27Z</time>
      </trkpt>
      <trkpt lat="46.48467" lon="5.39316">
        <ele>435</ele>
        <time>2022-06-25T08:32:28Z</time>
      </trkpt>
      <trkpt lat="46.48494" lon="5.39309">
        <ele>433.8</ele>
        <time>2022-06-25T08:32:30Z</time>
      </trkpt>
      <trkpt lat="46.48507" lon="5.39306">
        <ele>433.2</ele>
        <time>2022-06-25T08:32:31Z</time>
      </trkpt>
      <trkpt lat="46.4852" lon="5.39302">
        <ele>432.2</ele>
        <time>2022-06-25T08:32:32Z</time>
      </trkpt>
      <trkpt lat="46.48546" lon="5.39295">
        <ele>430.2</ele>
        <time>2022-06-25T08:32:34Z</time>
      </trkpt>
      <trkpt lat="46.48561" lon="5.39292">
        <ele>428.6</ele>
        <time>2022-06-25T08:32:35Z</time>
      </trkpt>
      <trkpt lat="46.4859" lon="5.39287">
        <ele>426.8</ele>
        <time>2022-06-25T08:32:37Z</time>
      </trkpt>
      <trkpt lat="46.48604" lon="5.39284">
        <ele>425.6</ele>
        <time>2022-06-25T08:32:38Z</time>
      </trkpt>
      <trkpt lat="46.48618" lon="5.39281">
        <ele>424.2</ele>
        <time>2022-06-25T08:32:39Z</time>
      </trkpt>
      <trkpt lat="46.48645" lon="5.39278">
        <ele>423</ele>
        <time>2022-06-25T08:32:41Z</time>
      </trkpt>
      <trkpt lat="46.48658" lon="5.39278">
        <ele>421</ele>
        <time>2022-06-25T08:32:42Z</time>
      </trkpt>
      <trkpt lat="46.48682" lon="5.39283">
        <ele>418.8</ele>
        <time>2022-06-25T08:32:44Z</time>
      </trkpt>
      <trkpt lat="46.48703" lon="5.39291">
        <ele>417.4</ele>
        <time>2022-06-25T08:32:46Z</time>
      </trkpt>
      <trkpt lat="46.48711" lon="5.39297">
        <ele>416.6</ele>
        <time>2022-06-25T08:32:47Z</time>
      </trkpt>
      <trkpt lat="46.48719" lon="5.39302">
        <ele>416</ele>
        <time>2022-06-25T08:32:48Z</time>
      </trkpt>
      <trkpt lat="46.48726" lon="5.39304">
        <ele>414.6</ele>
        <time>2022-06-25T08:32:49Z</time>
      </trkpt>
      <trkpt lat="46.48733" lon="5.39303">
        <ele>413.4</ele>
        <time>2022-06-25T08:32:50Z</time>
      </trkpt>
      <trkpt lat="46.48739" lon="5.39299">
        <ele>411.6</ele>
        <time>2022-06-25T08:32:51Z</time>
      </trkpt>
      <trkpt lat="46.48749" lon="5.39288">
        <ele>409.8</ele>
        <time>2022-06-25T08:32:53Z</time>
      </trkpt>
      <trkpt lat="46.48743" lon="5.39281">
        <ele>409.2</ele>
        <time>2022-06-25T08:32:54Z</time>
      </trkpt>
      <trkpt lat="46.48734" lon="5.39272">
        <ele>408.4</ele>
        <time>2022-06-25T08:32:55Z</time>
      </trkpt>
      <trkpt lat="46.48722" lon="5.3926">
        <ele>407</ele>
        <time>2022-06-25T08:32:56Z</time>
      </trkpt>
      <trkpt lat="46.48697" lon="5.39233">
        <ele>405.8</ele>
        <time>2022-06-25T08:32:58Z</time>
      </trkpt>
      <trkpt lat="46.48676" lon="5.39204">
        <ele>404.2</ele>
        <time>2022-06-25T08:33:00Z</time>
      </trkpt>
      <trkpt lat="46.48657" lon="5.39175">
        <ele>402.2</ele>
        <time>2022-06-25T08:33:02Z</time>
      </trkpt>
      <trkpt lat="46.48647" lon="5.39161">
        <ele>401.6</ele>
        <time>2022-06-25T08:33:03Z</time>
      </trkpt>
      <trkpt lat="46.48637" lon="5.39148">
        <ele>401</ele>
        <time>2022-06-25T08:33:04Z</time>
      </trkpt>
      <trkpt lat="46.48614" lon="5.39127">
        <ele>400</ele>
        <time>2022-06-25T08:33:06Z</time>
      </trkpt>
      <trkpt lat="46.48588" lon="5.39107">
        <ele>398.6</ele>
        <time>2022-06-25T08:33:08Z</time>
      </trkpt>
      <trkpt lat="46.48563" lon="5.39089">
        <ele>397.4</ele>
        <time>2022-06-25T08:33:10Z</time>
      </trkpt>
      <trkpt lat="46.4855" lon="5.3908">
        <ele>395.4</ele>
        <time>2022-06-25T08:33:11Z</time>
      </trkpt>
      <trkpt lat="46.4854" lon="5.39074">
        <ele>394</ele>
        <time>2022-06-25T08:33:12Z</time>
      </trkpt>
      <trkpt lat="46.48525" lon="5.39064">
        <ele>393.2</ele>
        <time>2022-06-25T08:33:13Z</time>
      </trkpt>
      <trkpt lat="46.48514" lon="5.39053">
        <ele>391.8</ele>
        <time>2022-06-25T08:33:14Z</time>
      </trkpt>
      <trkpt lat="46.48505" lon="5.39039">
        <ele>391.2</ele>
        <time>2022-06-25T08:33:15Z</time>
      </trkpt>
      <trkpt lat="46.48498" lon="5.39022">
        <ele>389.2</ele>
        <time>2022-06-25T08:33:16Z</time>
      </trkpt>
      <trkpt lat="46.48493" lon="5.39004">
        <ele>388.4</ele>
        <time>2022-06-25T08:33:17Z</time>
      </trkpt>
      <trkpt lat="46.48489" lon="5.38985">
        <ele>387.2</ele>
        <time>2022-06-25T08:33:18Z</time>
      </trkpt>
      <trkpt lat="46.48484" lon="5.38968">
        <ele>385.6</ele>
        <time>2022-06-25T08:33:19Z</time>
      </trkpt>
      <trkpt lat="46.48469" lon="5.38937">
        <ele>383.4</ele>
        <time>2022-06-25T08:33:21Z</time>
      </trkpt>
      <trkpt lat="46.48461" lon="5.38922">
        <ele>382.8</ele>
        <time>2022-06-25T08:33:22Z</time>
      </trkpt>
      <trkpt lat="46.48456" lon="5.3891">
        <ele>381</ele>
        <time>2022-06-25T08:33:23Z</time>
      </trkpt>
      <trkpt lat="46.48452" lon="5.38895">
        <ele>380.2</ele>
        <time>2022-06-25T08:33:24Z</time>
      </trkpt>
      <trkpt lat="46.48452" lon="5.38877">
        <ele>379</ele>
        <time>2022-06-25T08:33:25Z</time>
      </trkpt>
      <trkpt lat="46.48456" lon="5.38863">
        <ele>377.8</ele>
        <time>2022-06-25T08:33:26Z</time>
      </trkpt>
      <trkpt lat="46.48463" lon="5.38851">
        <ele>377</ele>
        <time>2022-06-25T08:33:27Z</time>
      </trkpt>
      <trkpt lat="46.4847" lon="5.38844">
        <ele>375.8</ele>
        <time>2022-06-25T08:33:28Z</time>
      </trkpt>
      <trkpt lat="46.48491" lon="5.38827">
        <ele>374.6</ele>
        <time>2022-06-25T08:33:30Z</time>
      </trkpt>
      <trkpt lat="46.48514" lon="5.38814">
        <ele>373.4</ele>
        <time>2022-06-25T08:33:32Z</time>
      </trkpt>
      <trkpt lat="46.48537" lon="5.38802">
        <ele>372.4</ele>
        <time>2022-06-25T08:33:34Z</time>
      </trkpt>
      <trkpt lat="46.4857" lon="5.3878">
        <ele>370.8</ele>
        <time>2022-06-25T08:33:37Z</time>
      </trkpt>
      <trkpt lat="46.48579" lon="5.38774">
        <ele>370.2</ele>
        <time>2022-06-25T08:33:38Z</time>
      </trkpt>
      <trkpt lat="46.48587" lon="5.38772">
        <ele>368.8</ele>
        <time>2022-06-25T08:33:39Z</time>
      </trkpt>
      <trkpt lat="46.48594" lon="5.38774">
        <ele>368.2</ele>
        <time>2022-06-25T08:33:40Z</time>
      </trkpt>
      <trkpt lat="46.48603" lon="5.38776">
        <ele>366.8</ele>
        <time>2022-06-25T08:33:41Z</time>
      </trkpt>
      <trkpt lat="46.4861" lon="5.38777">
        <ele>365.4</ele>
        <time>2022-06-25T08:33:42Z</time>
      </trkpt>
      <trkpt lat="46.48622" lon="5.38765">
        <ele>363.2</ele>
        <time>2022-06-25T08:33:44Z</time>
      </trkpt>
      <trkpt lat="46.48633" lon="5.38743">
        <ele>361.6</ele>
        <time>2022-06-25T08:33:46Z</time>
      </trkpt>
      <trkpt lat="46.48642" lon="5.38717">
        <ele>360.4</ele>
        <time>2022-06-25T08:33:48Z</time>
      </trkpt>
      <trkpt lat="46.48644" lon="5.38703">
        <ele>359.4</ele>
        <time>2022-06-25T08:33:49Z</time>
      </trkpt>
      <trkpt lat="46.48645" lon="5.38687">
        <ele>359</ele>
        <time>2022-06-25T08:33:50Z</time>
      </trkpt>
      <trkpt lat="46.48644" lon="5.38671">
        <ele>358.2</ele>
        <time>2022-06-25T08:33:51Z</time>
      </trkpt>
      <trkpt lat="46.48642" lon="5.38654">
        <ele>358</ele>
        <time>2022-06-25T08:33:52Z</time>
      </trkpt>
      <trkpt lat="46.48635" lon="5.38623">
        <ele>357</ele>
        <time>2022-06-25T08:33:54Z</time>
      </trkpt>
      <trkpt lat="46.48631" lon="5.38609">
        <ele>356.2</ele>
        <time>2022-06-25T08:33:55Z</time>
      </trkpt>
      <trkpt lat="46.48625" lon="5.3859">
        <ele>355.4</ele>
        <time>2022-06-25T08:33:56Z</time>
      </trkpt>
      <trkpt lat="46.48613" lon="5.38544">
        <ele>354.2</ele>
        <time>2022-06-25T08:33:59Z</time>
      </trkpt>
      <trkpt lat="46.48608" lon="5.38528">
        <ele>353</ele>
        <time>2022-06-25T08:34:00Z</time>
      </trkpt>
      <trkpt lat="46.48599" lon="5.38496">
        <ele>352</ele>
        <time>2022-06-25T08:34:02Z</time>
      </trkpt>
    </trkseg>
  </trk>
</gpx>